<?xml version="1.0" encoding="UTF-8" standalone="no" ?>
<gpx xmlns="http://www.topografix.com/GPX/1/1" xmlns:xsi="http://www.w3.org/2001/XMLSchema-instance" xsi:schemaLocation="http://www.topografix.com/GPX/1/1 http://www.topografix.com/GPX/1/1/gpx.xsd" version="1.1" creator="VisuGPX - https://www.visugpx.com">
  <metadata>
    <name>Pierrelatte</name>
    <desc><![CDATA[Rapidos le matin pour rentrer à la maison avant la canicule]]></desc>
  </metadata>
  <trk>
    <name><![CDATA[Pierrelatte]]></name>
    <trkseg>
      <trkpt lat="44.30615" lon="4.56003">
        <ele>60</ele>
        <time>2022-06-12T06:14:52Z</time>
      </trkpt>
      <trkpt lat="44.30618" lon="4.56006">
        <ele>60</ele>
        <time>2022-06-12T06:14:53Z</time>
      </trkpt>
      <trkpt lat="44.30621" lon="4.56002">
        <ele>59.9</ele>
        <time>2022-06-12T06:14:54Z</time>
      </trkpt>
      <trkpt lat="44.30623" lon="4.56002">
        <ele>59.8</ele>
        <time>2022-06-12T06:14:55Z</time>
      </trkpt>
      <trkpt lat="44.30625" lon="4.56002">
        <ele>59.8</ele>
        <time>2022-06-12T06:14:56Z</time>
      </trkpt>
      <trkpt lat="44.30626" lon="4.56004">
        <ele>59.7</ele>
        <time>2022-06-12T06:14:57Z</time>
      </trkpt>
      <trkpt lat="44.30626" lon="4.56007">
        <ele>59.7</ele>
        <time>2022-06-12T06:14:59Z</time>
      </trkpt>
      <trkpt lat="44.30625" lon="4.56007">
        <ele>59.6</ele>
        <time>2022-06-12T06:15:00Z</time>
      </trkpt>
      <trkpt lat="44.30624" lon="4.56007">
        <ele>59.6</ele>
        <time>2022-06-12T06:15:01Z</time>
      </trkpt>
      <trkpt lat="44.30623" lon="4.56007">
        <ele>59.6</ele>
        <time>2022-06-12T06:15:02Z</time>
      </trkpt>
      <trkpt lat="44.30623" lon="4.56007">
        <ele>59.6</ele>
        <time>2022-06-12T06:15:03Z</time>
      </trkpt>
      <trkpt lat="44.30622" lon="4.56007">
        <ele>59.6</ele>
        <time>2022-06-12T06:15:04Z</time>
      </trkpt>
      <trkpt lat="44.30621" lon="4.56007">
        <ele>59.6</ele>
        <time>2022-06-12T06:15:05Z</time>
      </trkpt>
      <trkpt lat="44.30621" lon="4.56006">
        <ele>59.5</ele>
        <time>2022-06-12T06:15:06Z</time>
      </trkpt>
      <trkpt lat="44.3062" lon="4.56006">
        <ele>59.5</ele>
        <time>2022-06-12T06:15:07Z</time>
      </trkpt>
      <trkpt lat="44.30619" lon="4.56006">
        <ele>59.5</ele>
        <time>2022-06-12T06:15:08Z</time>
      </trkpt>
      <trkpt lat="44.30619" lon="4.56006">
        <ele>59.5</ele>
        <time>2022-06-12T06:15:09Z</time>
      </trkpt>
      <trkpt lat="44.30618" lon="4.56006">
        <ele>59.5</ele>
        <time>2022-06-12T06:15:10Z</time>
      </trkpt>
      <trkpt lat="44.30617" lon="4.56006">
        <ele>59.5</ele>
        <time>2022-06-12T06:17:26Z</time>
      </trkpt>
      <trkpt lat="44.30617" lon="4.56006">
        <ele>59.4</ele>
        <time>2022-06-12T06:17:27Z</time>
      </trkpt>
      <trkpt lat="44.30616" lon="4.56005">
        <ele>59.4</ele>
        <time>2022-06-12T06:17:28Z</time>
      </trkpt>
      <trkpt lat="44.30613" lon="4.56002">
        <ele>59.3</ele>
        <time>2022-06-12T06:17:29Z</time>
      </trkpt>
      <trkpt lat="44.3061" lon="4.55998">
        <ele>59.2</ele>
        <time>2022-06-12T06:17:30Z</time>
      </trkpt>
      <trkpt lat="44.30606" lon="4.55992">
        <ele>59.1</ele>
        <time>2022-06-12T06:17:32Z</time>
      </trkpt>
      <trkpt lat="44.30602" lon="4.55989">
        <ele>59</ele>
        <time>2022-06-12T06:17:33Z</time>
      </trkpt>
      <trkpt lat="44.30597" lon="4.55985">
        <ele>58.7</ele>
        <time>2022-06-12T06:17:35Z</time>
      </trkpt>
      <trkpt lat="44.30593" lon="4.5598">
        <ele>58.4</ele>
        <time>2022-06-12T06:17:36Z</time>
      </trkpt>
      <trkpt lat="44.3059" lon="4.55971">
        <ele>58.1</ele>
        <time>2022-06-12T06:17:37Z</time>
      </trkpt>
      <trkpt lat="44.30589" lon="4.55968">
        <ele>57.6</ele>
        <time>2022-06-12T06:17:38Z</time>
      </trkpt>
      <trkpt lat="44.30587" lon="4.55964">
        <ele>57.5</ele>
        <time>2022-06-12T06:17:39Z</time>
      </trkpt>
      <trkpt lat="44.30585" lon="4.55961">
        <ele>57.4</ele>
        <time>2022-06-12T06:17:40Z</time>
      </trkpt>
      <trkpt lat="44.30584" lon="4.55959">
        <ele>57.3</ele>
        <time>2022-06-12T06:17:41Z</time>
      </trkpt>
      <trkpt lat="44.30581" lon="4.55956">
        <ele>57.3</ele>
        <time>2022-06-12T06:17:42Z</time>
      </trkpt>
      <trkpt lat="44.3058" lon="4.55955">
        <ele>57.3</ele>
        <time>2022-06-12T06:17:43Z</time>
      </trkpt>
      <trkpt lat="44.30576" lon="4.55954">
        <ele>57.3</ele>
        <time>2022-06-12T06:17:44Z</time>
      </trkpt>
      <trkpt lat="44.30575" lon="4.55953">
        <ele>57.3</ele>
        <time>2022-06-12T06:17:45Z</time>
      </trkpt>
      <trkpt lat="44.30572" lon="4.55954">
        <ele>57.3</ele>
        <time>2022-06-12T06:17:46Z</time>
      </trkpt>
      <trkpt lat="44.30569" lon="4.55955">
        <ele>57.3</ele>
        <time>2022-06-12T06:17:47Z</time>
      </trkpt>
      <trkpt lat="44.30566" lon="4.55957">
        <ele>57.2</ele>
        <time>2022-06-12T06:17:48Z</time>
      </trkpt>
      <trkpt lat="44.30563" lon="4.55959">
        <ele>57.2</ele>
        <time>2022-06-12T06:17:49Z</time>
      </trkpt>
      <trkpt lat="44.3056" lon="4.55962">
        <ele>57.2</ele>
        <time>2022-06-12T06:17:50Z</time>
      </trkpt>
      <trkpt lat="44.30557" lon="4.55965">
        <ele>57.2</ele>
        <time>2022-06-12T06:17:51Z</time>
      </trkpt>
      <trkpt lat="44.30554" lon="4.55967">
        <ele>57.2</ele>
        <time>2022-06-12T06:17:52Z</time>
      </trkpt>
      <trkpt lat="44.30551" lon="4.55969">
        <ele>57.1</ele>
        <time>2022-06-12T06:17:53Z</time>
      </trkpt>
      <trkpt lat="44.30548" lon="4.55973">
        <ele>57.1</ele>
        <time>2022-06-12T06:17:54Z</time>
      </trkpt>
      <trkpt lat="44.30545" lon="4.55976">
        <ele>57.1</ele>
        <time>2022-06-12T06:17:55Z</time>
      </trkpt>
      <trkpt lat="44.30543" lon="4.55979">
        <ele>57.1</ele>
        <time>2022-06-12T06:17:56Z</time>
      </trkpt>
      <trkpt lat="44.3054" lon="4.55982">
        <ele>57.1</ele>
        <time>2022-06-12T06:17:57Z</time>
      </trkpt>
      <trkpt lat="44.30537" lon="4.55986">
        <ele>57.1</ele>
        <time>2022-06-12T06:17:58Z</time>
      </trkpt>
      <trkpt lat="44.30535" lon="4.55989">
        <ele>57</ele>
        <time>2022-06-12T06:17:59Z</time>
      </trkpt>
      <trkpt lat="44.30531" lon="4.55993">
        <ele>57</ele>
        <time>2022-06-12T06:18:00Z</time>
      </trkpt>
      <trkpt lat="44.30528" lon="4.55996">
        <ele>57</ele>
        <time>2022-06-12T06:18:01Z</time>
      </trkpt>
      <trkpt lat="44.30525" lon="4.56">
        <ele>57</ele>
        <time>2022-06-12T06:18:02Z</time>
      </trkpt>
      <trkpt lat="44.30522" lon="4.56004">
        <ele>56.9</ele>
        <time>2022-06-12T06:18:03Z</time>
      </trkpt>
      <trkpt lat="44.3052" lon="4.56006">
        <ele>56.9</ele>
        <time>2022-06-12T06:18:04Z</time>
      </trkpt>
      <trkpt lat="44.30516" lon="4.56009">
        <ele>56.9</ele>
        <time>2022-06-12T06:18:05Z</time>
      </trkpt>
      <trkpt lat="44.30513" lon="4.56013">
        <ele>56.8</ele>
        <time>2022-06-12T06:18:06Z</time>
      </trkpt>
      <trkpt lat="44.3051" lon="4.56016">
        <ele>56.8</ele>
        <time>2022-06-12T06:18:07Z</time>
      </trkpt>
      <trkpt lat="44.30507" lon="4.5602">
        <ele>56.7</ele>
        <time>2022-06-12T06:18:08Z</time>
      </trkpt>
      <trkpt lat="44.30503" lon="4.56024">
        <ele>56.7</ele>
        <time>2022-06-12T06:18:09Z</time>
      </trkpt>
      <trkpt lat="44.305" lon="4.56028">
        <ele>56.7</ele>
        <time>2022-06-12T06:18:10Z</time>
      </trkpt>
      <trkpt lat="44.30496" lon="4.56032">
        <ele>56.6</ele>
        <time>2022-06-12T06:18:11Z</time>
      </trkpt>
      <trkpt lat="44.30493" lon="4.56037">
        <ele>56.6</ele>
        <time>2022-06-12T06:18:12Z</time>
      </trkpt>
      <trkpt lat="44.30486" lon="4.56047">
        <ele>56.5</ele>
        <time>2022-06-12T06:18:14Z</time>
      </trkpt>
      <trkpt lat="44.30481" lon="4.5605">
        <ele>56.4</ele>
        <time>2022-06-12T06:18:15Z</time>
      </trkpt>
      <trkpt lat="44.30477" lon="4.56052">
        <ele>56.4</ele>
        <time>2022-06-12T06:18:16Z</time>
      </trkpt>
      <trkpt lat="44.30472" lon="4.56053">
        <ele>56.3</ele>
        <time>2022-06-12T06:18:17Z</time>
      </trkpt>
      <trkpt lat="44.30467" lon="4.56053">
        <ele>56.3</ele>
        <time>2022-06-12T06:18:18Z</time>
      </trkpt>
      <trkpt lat="44.30462" lon="4.56054">
        <ele>56.3</ele>
        <time>2022-06-12T06:18:19Z</time>
      </trkpt>
      <trkpt lat="44.30458" lon="4.56056">
        <ele>56.2</ele>
        <time>2022-06-12T06:18:20Z</time>
      </trkpt>
      <trkpt lat="44.30454" lon="4.56059">
        <ele>56.2</ele>
        <time>2022-06-12T06:18:21Z</time>
      </trkpt>
      <trkpt lat="44.3045" lon="4.56063">
        <ele>56.2</ele>
        <time>2022-06-12T06:18:22Z</time>
      </trkpt>
      <trkpt lat="44.30446" lon="4.56067">
        <ele>56.3</ele>
        <time>2022-06-12T06:18:23Z</time>
      </trkpt>
      <trkpt lat="44.30443" lon="4.56072">
        <ele>56.3</ele>
        <time>2022-06-12T06:18:24Z</time>
      </trkpt>
      <trkpt lat="44.30439" lon="4.56076">
        <ele>56.3</ele>
        <time>2022-06-12T06:18:25Z</time>
      </trkpt>
      <trkpt lat="44.30437" lon="4.56082">
        <ele>56.3</ele>
        <time>2022-06-12T06:18:26Z</time>
      </trkpt>
      <trkpt lat="44.30434" lon="4.56087">
        <ele>56.4</ele>
        <time>2022-06-12T06:18:27Z</time>
      </trkpt>
      <trkpt lat="44.30431" lon="4.56092">
        <ele>56.4</ele>
        <time>2022-06-12T06:18:28Z</time>
      </trkpt>
      <trkpt lat="44.30429" lon="4.56095">
        <ele>56.4</ele>
        <time>2022-06-12T06:18:29Z</time>
      </trkpt>
      <trkpt lat="44.30426" lon="4.561">
        <ele>56.4</ele>
        <time>2022-06-12T06:18:30Z</time>
      </trkpt>
      <trkpt lat="44.30423" lon="4.56106">
        <ele>56.4</ele>
        <time>2022-06-12T06:18:31Z</time>
      </trkpt>
      <trkpt lat="44.3042" lon="4.5611">
        <ele>56.4</ele>
        <time>2022-06-12T06:18:32Z</time>
      </trkpt>
      <trkpt lat="44.30417" lon="4.56116">
        <ele>56.3</ele>
        <time>2022-06-12T06:18:33Z</time>
      </trkpt>
      <trkpt lat="44.30414" lon="4.5612">
        <ele>56.3</ele>
        <time>2022-06-12T06:18:34Z</time>
      </trkpt>
      <trkpt lat="44.30411" lon="4.56125">
        <ele>56.3</ele>
        <time>2022-06-12T06:18:36Z</time>
      </trkpt>
      <trkpt lat="44.30407" lon="4.56134">
        <ele>56.3</ele>
        <time>2022-06-12T06:18:37Z</time>
      </trkpt>
      <trkpt lat="44.30403" lon="4.5614">
        <ele>56.3</ele>
        <time>2022-06-12T06:18:39Z</time>
      </trkpt>
      <trkpt lat="44.30398" lon="4.56148">
        <ele>56.3</ele>
        <time>2022-06-12T06:18:40Z</time>
      </trkpt>
      <trkpt lat="44.30395" lon="4.56151">
        <ele>56.4</ele>
        <time>2022-06-12T06:18:41Z</time>
      </trkpt>
      <trkpt lat="44.30392" lon="4.56155">
        <ele>56.4</ele>
        <time>2022-06-12T06:18:42Z</time>
      </trkpt>
      <trkpt lat="44.30389" lon="4.5616">
        <ele>56.4</ele>
        <time>2022-06-12T06:18:43Z</time>
      </trkpt>
      <trkpt lat="44.30387" lon="4.56164">
        <ele>56.4</ele>
        <time>2022-06-12T06:18:44Z</time>
      </trkpt>
      <trkpt lat="44.30384" lon="4.56169">
        <ele>56.4</ele>
        <time>2022-06-12T06:18:45Z</time>
      </trkpt>
      <trkpt lat="44.30382" lon="4.56173">
        <ele>56.4</ele>
        <time>2022-06-12T06:18:46Z</time>
      </trkpt>
      <trkpt lat="44.30378" lon="4.56177">
        <ele>56.5</ele>
        <time>2022-06-12T06:18:47Z</time>
      </trkpt>
      <trkpt lat="44.30375" lon="4.56182">
        <ele>56.5</ele>
        <time>2022-06-12T06:18:48Z</time>
      </trkpt>
      <trkpt lat="44.30371" lon="4.56187">
        <ele>56.5</ele>
        <time>2022-06-12T06:18:50Z</time>
      </trkpt>
      <trkpt lat="44.30367" lon="4.56194">
        <ele>56.6</ele>
        <time>2022-06-12T06:18:51Z</time>
      </trkpt>
      <trkpt lat="44.30363" lon="4.56199">
        <ele>56.6</ele>
        <time>2022-06-12T06:18:53Z</time>
      </trkpt>
      <trkpt lat="44.30358" lon="4.56205">
        <ele>56.7</ele>
        <time>2022-06-12T06:18:54Z</time>
      </trkpt>
      <trkpt lat="44.30356" lon="4.56209">
        <ele>56.7</ele>
        <time>2022-06-12T06:18:55Z</time>
      </trkpt>
      <trkpt lat="44.30357" lon="4.56214">
        <ele>56.9</ele>
        <time>2022-06-12T06:18:56Z</time>
      </trkpt>
      <trkpt lat="44.30359" lon="4.56218">
        <ele>57</ele>
        <time>2022-06-12T06:18:57Z</time>
      </trkpt>
      <trkpt lat="44.30362" lon="4.56222">
        <ele>57.1</ele>
        <time>2022-06-12T06:18:58Z</time>
      </trkpt>
      <trkpt lat="44.30364" lon="4.56225">
        <ele>57.3</ele>
        <time>2022-06-12T06:18:59Z</time>
      </trkpt>
      <trkpt lat="44.30367" lon="4.56228">
        <ele>57.3</ele>
        <time>2022-06-12T06:19:00Z</time>
      </trkpt>
      <trkpt lat="44.3037" lon="4.56232">
        <ele>57.5</ele>
        <time>2022-06-12T06:19:01Z</time>
      </trkpt>
      <trkpt lat="44.30372" lon="4.56235">
        <ele>57.6</ele>
        <time>2022-06-12T06:19:02Z</time>
      </trkpt>
      <trkpt lat="44.30374" lon="4.56238">
        <ele>57.7</ele>
        <time>2022-06-12T06:19:03Z</time>
      </trkpt>
      <trkpt lat="44.3038" lon="4.56243">
        <ele>57.9</ele>
        <time>2022-06-12T06:19:05Z</time>
      </trkpt>
      <trkpt lat="44.30383" lon="4.56246">
        <ele>58</ele>
        <time>2022-06-12T06:19:07Z</time>
      </trkpt>
      <trkpt lat="44.30387" lon="4.56249">
        <ele>58.1</ele>
        <time>2022-06-12T06:19:08Z</time>
      </trkpt>
      <trkpt lat="44.30389" lon="4.56252">
        <ele>58.2</ele>
        <time>2022-06-12T06:19:09Z</time>
      </trkpt>
      <trkpt lat="44.30392" lon="4.56255">
        <ele>58.3</ele>
        <time>2022-06-12T06:19:10Z</time>
      </trkpt>
      <trkpt lat="44.30395" lon="4.56257">
        <ele>58.4</ele>
        <time>2022-06-12T06:19:11Z</time>
      </trkpt>
      <trkpt lat="44.30397" lon="4.56259">
        <ele>58.6</ele>
        <time>2022-06-12T06:19:12Z</time>
      </trkpt>
      <trkpt lat="44.304" lon="4.56262">
        <ele>58.7</ele>
        <time>2022-06-12T06:19:14Z</time>
      </trkpt>
      <trkpt lat="44.30403" lon="4.56266">
        <ele>58.8</ele>
        <time>2022-06-12T06:19:15Z</time>
      </trkpt>
      <trkpt lat="44.30406" lon="4.56269">
        <ele>59</ele>
        <time>2022-06-12T06:19:16Z</time>
      </trkpt>
      <trkpt lat="44.30408" lon="4.56272">
        <ele>59.1</ele>
        <time>2022-06-12T06:19:17Z</time>
      </trkpt>
      <trkpt lat="44.30411" lon="4.56275">
        <ele>59.2</ele>
        <time>2022-06-12T06:19:18Z</time>
      </trkpt>
      <trkpt lat="44.30412" lon="4.56276">
        <ele>59.2</ele>
        <time>2022-06-12T06:19:19Z</time>
      </trkpt>
      <trkpt lat="44.30417" lon="4.5628">
        <ele>59.4</ele>
        <time>2022-06-12T06:19:21Z</time>
      </trkpt>
      <trkpt lat="44.30419" lon="4.56283">
        <ele>59.6</ele>
        <time>2022-06-12T06:19:22Z</time>
      </trkpt>
      <trkpt lat="44.30422" lon="4.56286">
        <ele>59.7</ele>
        <time>2022-06-12T06:19:23Z</time>
      </trkpt>
      <trkpt lat="44.30423" lon="4.56287">
        <ele>59.7</ele>
        <time>2022-06-12T06:19:24Z</time>
      </trkpt>
      <trkpt lat="44.30426" lon="4.56289">
        <ele>59.8</ele>
        <time>2022-06-12T06:19:25Z</time>
      </trkpt>
      <trkpt lat="44.30429" lon="4.56292">
        <ele>59.9</ele>
        <time>2022-06-12T06:19:26Z</time>
      </trkpt>
      <trkpt lat="44.3043" lon="4.56294">
        <ele>60</ele>
        <time>2022-06-12T06:19:27Z</time>
      </trkpt>
      <trkpt lat="44.30433" lon="4.56297">
        <ele>60.1</ele>
        <time>2022-06-12T06:19:28Z</time>
      </trkpt>
      <trkpt lat="44.30434" lon="4.56298">
        <ele>60.1</ele>
        <time>2022-06-12T06:19:29Z</time>
      </trkpt>
      <trkpt lat="44.30435" lon="4.563">
        <ele>60.2</ele>
        <time>2022-06-12T06:19:30Z</time>
      </trkpt>
      <trkpt lat="44.30438" lon="4.56303">
        <ele>60.3</ele>
        <time>2022-06-12T06:19:32Z</time>
      </trkpt>
      <trkpt lat="44.30441" lon="4.56306">
        <ele>60.4</ele>
        <time>2022-06-12T06:19:33Z</time>
      </trkpt>
      <trkpt lat="44.30444" lon="4.56309">
        <ele>60.6</ele>
        <time>2022-06-12T06:19:34Z</time>
      </trkpt>
      <trkpt lat="44.30447" lon="4.56312">
        <ele>60.7</ele>
        <time>2022-06-12T06:19:35Z</time>
      </trkpt>
      <trkpt lat="44.3045" lon="4.56315">
        <ele>60.8</ele>
        <time>2022-06-12T06:19:36Z</time>
      </trkpt>
      <trkpt lat="44.30451" lon="4.56316">
        <ele>60.8</ele>
        <time>2022-06-12T06:19:37Z</time>
      </trkpt>
      <trkpt lat="44.30454" lon="4.56319">
        <ele>61</ele>
        <time>2022-06-12T06:19:38Z</time>
      </trkpt>
      <trkpt lat="44.30455" lon="4.5632">
        <ele>61</ele>
        <time>2022-06-12T06:19:39Z</time>
      </trkpt>
      <trkpt lat="44.30459" lon="4.56323">
        <ele>61.1</ele>
        <time>2022-06-12T06:19:40Z</time>
      </trkpt>
      <trkpt lat="44.3046" lon="4.56324">
        <ele>61.2</ele>
        <time>2022-06-12T06:19:41Z</time>
      </trkpt>
      <trkpt lat="44.30463" lon="4.56327">
        <ele>61.3</ele>
        <time>2022-06-12T06:19:42Z</time>
      </trkpt>
      <trkpt lat="44.30464" lon="4.56328">
        <ele>61.3</ele>
        <time>2022-06-12T06:19:43Z</time>
      </trkpt>
      <trkpt lat="44.30466" lon="4.5633">
        <ele>61.4</ele>
        <time>2022-06-12T06:19:44Z</time>
      </trkpt>
      <trkpt lat="44.30469" lon="4.56332">
        <ele>61.5</ele>
        <time>2022-06-12T06:19:45Z</time>
      </trkpt>
      <trkpt lat="44.30472" lon="4.56336">
        <ele>61.6</ele>
        <time>2022-06-12T06:19:46Z</time>
      </trkpt>
      <trkpt lat="44.30473" lon="4.56337">
        <ele>61.7</ele>
        <time>2022-06-12T06:19:47Z</time>
      </trkpt>
      <trkpt lat="44.30475" lon="4.56339">
        <ele>61.8</ele>
        <time>2022-06-12T06:19:48Z</time>
      </trkpt>
      <trkpt lat="44.3048" lon="4.56342">
        <ele>61.9</ele>
        <time>2022-06-12T06:19:50Z</time>
      </trkpt>
      <trkpt lat="44.30482" lon="4.56345">
        <ele>62</ele>
        <time>2022-06-12T06:19:51Z</time>
      </trkpt>
      <trkpt lat="44.30485" lon="4.56348">
        <ele>62.2</ele>
        <time>2022-06-12T06:19:52Z</time>
      </trkpt>
      <trkpt lat="44.30486" lon="4.5635">
        <ele>62.2</ele>
        <time>2022-06-12T06:19:53Z</time>
      </trkpt>
      <trkpt lat="44.30488" lon="4.56354">
        <ele>62.3</ele>
        <time>2022-06-12T06:19:54Z</time>
      </trkpt>
      <trkpt lat="44.30489" lon="4.56355">
        <ele>62.4</ele>
        <time>2022-06-12T06:19:55Z</time>
      </trkpt>
      <trkpt lat="44.3049" lon="4.56357">
        <ele>62.4</ele>
        <time>2022-06-12T06:19:56Z</time>
      </trkpt>
      <trkpt lat="44.30493" lon="4.56361">
        <ele>62.7</ele>
        <time>2022-06-12T06:19:58Z</time>
      </trkpt>
      <trkpt lat="44.30495" lon="4.56364">
        <ele>63</ele>
        <time>2022-06-12T06:19:59Z</time>
      </trkpt>
      <trkpt lat="44.30497" lon="4.56368">
        <ele>63.2</ele>
        <time>2022-06-12T06:20:00Z</time>
      </trkpt>
      <trkpt lat="44.30498" lon="4.56372">
        <ele>63.4</ele>
        <time>2022-06-12T06:20:01Z</time>
      </trkpt>
      <trkpt lat="44.30499" lon="4.56377">
        <ele>64</ele>
        <time>2022-06-12T06:20:02Z</time>
      </trkpt>
      <trkpt lat="44.30499" lon="4.56379">
        <ele>64.1</ele>
        <time>2022-06-12T06:20:03Z</time>
      </trkpt>
      <trkpt lat="44.30499" lon="4.56384">
        <ele>64.1</ele>
        <time>2022-06-12T06:20:05Z</time>
      </trkpt>
      <trkpt lat="44.30498" lon="4.56389">
        <ele>64.1</ele>
        <time>2022-06-12T06:20:06Z</time>
      </trkpt>
      <trkpt lat="44.30497" lon="4.56393">
        <ele>64.2</ele>
        <time>2022-06-12T06:20:07Z</time>
      </trkpt>
      <trkpt lat="44.30496" lon="4.56399">
        <ele>64.2</ele>
        <time>2022-06-12T06:20:08Z</time>
      </trkpt>
      <trkpt lat="44.30496" lon="4.56401">
        <ele>64.3</ele>
        <time>2022-06-12T06:20:09Z</time>
      </trkpt>
      <trkpt lat="44.30495" lon="4.56405">
        <ele>64.3</ele>
        <time>2022-06-12T06:20:10Z</time>
      </trkpt>
      <trkpt lat="44.30494" lon="4.56409">
        <ele>64.4</ele>
        <time>2022-06-12T06:20:11Z</time>
      </trkpt>
      <trkpt lat="44.30492" lon="4.56416">
        <ele>64.5</ele>
        <time>2022-06-12T06:20:13Z</time>
      </trkpt>
      <trkpt lat="44.30491" lon="4.5642">
        <ele>64.5</ele>
        <time>2022-06-12T06:20:14Z</time>
      </trkpt>
      <trkpt lat="44.3049" lon="4.56425">
        <ele>64.6</ele>
        <time>2022-06-12T06:20:15Z</time>
      </trkpt>
      <trkpt lat="44.3049" lon="4.56427">
        <ele>64.6</ele>
        <time>2022-06-12T06:20:16Z</time>
      </trkpt>
      <trkpt lat="44.30488" lon="4.56435">
        <ele>64.8</ele>
        <time>2022-06-12T06:20:18Z</time>
      </trkpt>
      <trkpt lat="44.30487" lon="4.5644">
        <ele>64.8</ele>
        <time>2022-06-12T06:20:19Z</time>
      </trkpt>
      <trkpt lat="44.30486" lon="4.56444">
        <ele>64.9</ele>
        <time>2022-06-12T06:20:20Z</time>
      </trkpt>
      <trkpt lat="44.30485" lon="4.56448">
        <ele>65</ele>
        <time>2022-06-12T06:20:21Z</time>
      </trkpt>
      <trkpt lat="44.30484" lon="4.56452">
        <ele>65.1</ele>
        <time>2022-06-12T06:20:22Z</time>
      </trkpt>
      <trkpt lat="44.30482" lon="4.56459">
        <ele>65.2</ele>
        <time>2022-06-12T06:20:24Z</time>
      </trkpt>
      <trkpt lat="44.30481" lon="4.56464">
        <ele>65.3</ele>
        <time>2022-06-12T06:20:25Z</time>
      </trkpt>
      <trkpt lat="44.3048" lon="4.56469">
        <ele>65.4</ele>
        <time>2022-06-12T06:20:26Z</time>
      </trkpt>
      <trkpt lat="44.30478" lon="4.56473">
        <ele>65.5</ele>
        <time>2022-06-12T06:20:27Z</time>
      </trkpt>
      <trkpt lat="44.30477" lon="4.56477">
        <ele>65.6</ele>
        <time>2022-06-12T06:20:28Z</time>
      </trkpt>
      <trkpt lat="44.30476" lon="4.56481">
        <ele>65.6</ele>
        <time>2022-06-12T06:20:29Z</time>
      </trkpt>
      <trkpt lat="44.30475" lon="4.56486">
        <ele>65.7</ele>
        <time>2022-06-12T06:20:30Z</time>
      </trkpt>
      <trkpt lat="44.30474" lon="4.56491">
        <ele>65.7</ele>
        <time>2022-06-12T06:20:31Z</time>
      </trkpt>
      <trkpt lat="44.30473" lon="4.56497">
        <ele>65.8</ele>
        <time>2022-06-12T06:20:33Z</time>
      </trkpt>
      <trkpt lat="44.30472" lon="4.56504">
        <ele>65.8</ele>
        <time>2022-06-12T06:20:34Z</time>
      </trkpt>
      <trkpt lat="44.30471" lon="4.56508">
        <ele>65.8</ele>
        <time>2022-06-12T06:20:35Z</time>
      </trkpt>
      <trkpt lat="44.30471" lon="4.56513">
        <ele>65.9</ele>
        <time>2022-06-12T06:20:36Z</time>
      </trkpt>
      <trkpt lat="44.3047" lon="4.56517">
        <ele>66</ele>
        <time>2022-06-12T06:20:37Z</time>
      </trkpt>
      <trkpt lat="44.30469" lon="4.56521">
        <ele>66.1</ele>
        <time>2022-06-12T06:20:38Z</time>
      </trkpt>
      <trkpt lat="44.30468" lon="4.56525">
        <ele>66.2</ele>
        <time>2022-06-12T06:20:39Z</time>
      </trkpt>
      <trkpt lat="44.30467" lon="4.56529">
        <ele>66.3</ele>
        <time>2022-06-12T06:20:40Z</time>
      </trkpt>
      <trkpt lat="44.30466" lon="4.56533">
        <ele>66.4</ele>
        <time>2022-06-12T06:20:41Z</time>
      </trkpt>
      <trkpt lat="44.30464" lon="4.56537">
        <ele>66.4</ele>
        <time>2022-06-12T06:20:42Z</time>
      </trkpt>
      <trkpt lat="44.30463" lon="4.56542">
        <ele>66.6</ele>
        <time>2022-06-12T06:20:43Z</time>
      </trkpt>
      <trkpt lat="44.30463" lon="4.56544">
        <ele>66.6</ele>
        <time>2022-06-12T06:20:44Z</time>
      </trkpt>
      <trkpt lat="44.30461" lon="4.56547">
        <ele>66.7</ele>
        <time>2022-06-12T06:20:45Z</time>
      </trkpt>
      <trkpt lat="44.30459" lon="4.5655">
        <ele>66.8</ele>
        <time>2022-06-12T06:20:46Z</time>
      </trkpt>
      <trkpt lat="44.30459" lon="4.56554">
        <ele>66.9</ele>
        <time>2022-06-12T06:20:47Z</time>
      </trkpt>
      <trkpt lat="44.30458" lon="4.56558">
        <ele>67</ele>
        <time>2022-06-12T06:20:48Z</time>
      </trkpt>
      <trkpt lat="44.30456" lon="4.56561">
        <ele>67.1</ele>
        <time>2022-06-12T06:20:49Z</time>
      </trkpt>
      <trkpt lat="44.30455" lon="4.56565">
        <ele>67.2</ele>
        <time>2022-06-12T06:20:50Z</time>
      </trkpt>
      <trkpt lat="44.30454" lon="4.56569">
        <ele>67.3</ele>
        <time>2022-06-12T06:20:51Z</time>
      </trkpt>
      <trkpt lat="44.30453" lon="4.56573">
        <ele>67.4</ele>
        <time>2022-06-12T06:20:52Z</time>
      </trkpt>
      <trkpt lat="44.30452" lon="4.56577">
        <ele>67.5</ele>
        <time>2022-06-12T06:20:53Z</time>
      </trkpt>
      <trkpt lat="44.3045" lon="4.56581">
        <ele>67.6</ele>
        <time>2022-06-12T06:20:54Z</time>
      </trkpt>
      <trkpt lat="44.30449" lon="4.56586">
        <ele>67.7</ele>
        <time>2022-06-12T06:20:55Z</time>
      </trkpt>
      <trkpt lat="44.30447" lon="4.5659">
        <ele>67.7</ele>
        <time>2022-06-12T06:20:56Z</time>
      </trkpt>
      <trkpt lat="44.30446" lon="4.56594">
        <ele>67.8</ele>
        <time>2022-06-12T06:20:57Z</time>
      </trkpt>
      <trkpt lat="44.30445" lon="4.56598">
        <ele>67.9</ele>
        <time>2022-06-12T06:20:58Z</time>
      </trkpt>
      <trkpt lat="44.30443" lon="4.56601">
        <ele>68</ele>
        <time>2022-06-12T06:20:59Z</time>
      </trkpt>
      <trkpt lat="44.30442" lon="4.56605">
        <ele>68.1</ele>
        <time>2022-06-12T06:21:00Z</time>
      </trkpt>
      <trkpt lat="44.3044" lon="4.56609">
        <ele>68.2</ele>
        <time>2022-06-12T06:21:01Z</time>
      </trkpt>
      <trkpt lat="44.30438" lon="4.56614">
        <ele>68.3</ele>
        <time>2022-06-12T06:21:02Z</time>
      </trkpt>
      <trkpt lat="44.30437" lon="4.56616">
        <ele>68.3</ele>
        <time>2022-06-12T06:21:03Z</time>
      </trkpt>
      <trkpt lat="44.30436" lon="4.5662">
        <ele>68.4</ele>
        <time>2022-06-12T06:21:04Z</time>
      </trkpt>
      <trkpt lat="44.30434" lon="4.56624">
        <ele>68.5</ele>
        <time>2022-06-12T06:21:05Z</time>
      </trkpt>
      <trkpt lat="44.30432" lon="4.56627">
        <ele>68.5</ele>
        <time>2022-06-12T06:21:06Z</time>
      </trkpt>
      <trkpt lat="44.30429" lon="4.56634">
        <ele>68.6</ele>
        <time>2022-06-12T06:21:08Z</time>
      </trkpt>
      <trkpt lat="44.30427" lon="4.56637">
        <ele>68.7</ele>
        <time>2022-06-12T06:21:09Z</time>
      </trkpt>
      <trkpt lat="44.30426" lon="4.56641">
        <ele>68.7</ele>
        <time>2022-06-12T06:21:10Z</time>
      </trkpt>
      <trkpt lat="44.30423" lon="4.56647">
        <ele>68.8</ele>
        <time>2022-06-12T06:21:12Z</time>
      </trkpt>
      <trkpt lat="44.3042" lon="4.56652">
        <ele>68.9</ele>
        <time>2022-06-12T06:21:13Z</time>
      </trkpt>
      <trkpt lat="44.30417" lon="4.56657">
        <ele>68.9</ele>
        <time>2022-06-12T06:21:15Z</time>
      </trkpt>
      <trkpt lat="44.30414" lon="4.56663">
        <ele>69</ele>
        <time>2022-06-12T06:21:16Z</time>
      </trkpt>
      <trkpt lat="44.30412" lon="4.56667">
        <ele>69</ele>
        <time>2022-06-12T06:21:17Z</time>
      </trkpt>
      <trkpt lat="44.3041" lon="4.56671">
        <ele>69</ele>
        <time>2022-06-12T06:21:18Z</time>
      </trkpt>
      <trkpt lat="44.30408" lon="4.56674">
        <ele>69</ele>
        <time>2022-06-12T06:21:19Z</time>
      </trkpt>
      <trkpt lat="44.30405" lon="4.56679">
        <ele>69</ele>
        <time>2022-06-12T06:21:20Z</time>
      </trkpt>
      <trkpt lat="44.30403" lon="4.56683">
        <ele>69</ele>
        <time>2022-06-12T06:21:21Z</time>
      </trkpt>
      <trkpt lat="44.304" lon="4.56688">
        <ele>69</ele>
        <time>2022-06-12T06:21:22Z</time>
      </trkpt>
      <trkpt lat="44.30398" lon="4.56692">
        <ele>69</ele>
        <time>2022-06-12T06:21:23Z</time>
      </trkpt>
      <trkpt lat="44.30395" lon="4.56696">
        <ele>69</ele>
        <time>2022-06-12T06:21:24Z</time>
      </trkpt>
      <trkpt lat="44.30393" lon="4.56701">
        <ele>68.9</ele>
        <time>2022-06-12T06:21:25Z</time>
      </trkpt>
      <trkpt lat="44.3039" lon="4.56706">
        <ele>68.9</ele>
        <time>2022-06-12T06:21:26Z</time>
      </trkpt>
      <trkpt lat="44.30387" lon="4.5671">
        <ele>68.9</ele>
        <time>2022-06-12T06:21:27Z</time>
      </trkpt>
      <trkpt lat="44.30384" lon="4.56715">
        <ele>68.9</ele>
        <time>2022-06-12T06:21:28Z</time>
      </trkpt>
      <trkpt lat="44.30382" lon="4.5672">
        <ele>68.9</ele>
        <time>2022-06-12T06:21:29Z</time>
      </trkpt>
      <trkpt lat="44.30379" lon="4.56725">
        <ele>68.8</ele>
        <time>2022-06-12T06:21:30Z</time>
      </trkpt>
      <trkpt lat="44.30375" lon="4.56732">
        <ele>68.8</ele>
        <time>2022-06-12T06:21:31Z</time>
      </trkpt>
      <trkpt lat="44.30372" lon="4.56738">
        <ele>68.7</ele>
        <time>2022-06-12T06:21:32Z</time>
      </trkpt>
      <trkpt lat="44.30369" lon="4.56743">
        <ele>68.7</ele>
        <time>2022-06-12T06:21:33Z</time>
      </trkpt>
      <trkpt lat="44.30366" lon="4.56748">
        <ele>68.6</ele>
        <time>2022-06-12T06:21:34Z</time>
      </trkpt>
      <trkpt lat="44.30364" lon="4.56754">
        <ele>68.5</ele>
        <time>2022-06-12T06:21:35Z</time>
      </trkpt>
      <trkpt lat="44.30361" lon="4.5676">
        <ele>68.5</ele>
        <time>2022-06-12T06:21:36Z</time>
      </trkpt>
      <trkpt lat="44.30357" lon="4.56766">
        <ele>68.4</ele>
        <time>2022-06-12T06:21:37Z</time>
      </trkpt>
      <trkpt lat="44.30354" lon="4.56772">
        <ele>68.3</ele>
        <time>2022-06-12T06:21:38Z</time>
      </trkpt>
      <trkpt lat="44.30351" lon="4.56778">
        <ele>68.2</ele>
        <time>2022-06-12T06:21:39Z</time>
      </trkpt>
      <trkpt lat="44.30347" lon="4.56784">
        <ele>68.1</ele>
        <time>2022-06-12T06:21:40Z</time>
      </trkpt>
      <trkpt lat="44.30344" lon="4.5679">
        <ele>68.1</ele>
        <time>2022-06-12T06:21:41Z</time>
      </trkpt>
      <trkpt lat="44.30341" lon="4.56796">
        <ele>68</ele>
        <time>2022-06-12T06:21:42Z</time>
      </trkpt>
      <trkpt lat="44.30338" lon="4.56802">
        <ele>68</ele>
        <time>2022-06-12T06:21:43Z</time>
      </trkpt>
      <trkpt lat="44.30334" lon="4.56808">
        <ele>67.9</ele>
        <time>2022-06-12T06:21:44Z</time>
      </trkpt>
      <trkpt lat="44.3033" lon="4.56815">
        <ele>67.8</ele>
        <time>2022-06-12T06:21:45Z</time>
      </trkpt>
      <trkpt lat="44.30326" lon="4.56822">
        <ele>67.7</ele>
        <time>2022-06-12T06:21:46Z</time>
      </trkpt>
      <trkpt lat="44.30322" lon="4.56828">
        <ele>67.6</ele>
        <time>2022-06-12T06:21:47Z</time>
      </trkpt>
      <trkpt lat="44.30318" lon="4.56835">
        <ele>67.5</ele>
        <time>2022-06-12T06:21:48Z</time>
      </trkpt>
      <trkpt lat="44.30314" lon="4.56842">
        <ele>67.4</ele>
        <time>2022-06-12T06:21:49Z</time>
      </trkpt>
      <trkpt lat="44.30311" lon="4.56849">
        <ele>67.3</ele>
        <time>2022-06-12T06:21:50Z</time>
      </trkpt>
      <trkpt lat="44.30307" lon="4.56856">
        <ele>67.2</ele>
        <time>2022-06-12T06:21:51Z</time>
      </trkpt>
      <trkpt lat="44.30302" lon="4.56863">
        <ele>67.1</ele>
        <time>2022-06-12T06:21:52Z</time>
      </trkpt>
      <trkpt lat="44.30299" lon="4.5687">
        <ele>67</ele>
        <time>2022-06-12T06:21:53Z</time>
      </trkpt>
      <trkpt lat="44.30295" lon="4.56877">
        <ele>66.9</ele>
        <time>2022-06-12T06:21:54Z</time>
      </trkpt>
      <trkpt lat="44.30291" lon="4.56884">
        <ele>66.9</ele>
        <time>2022-06-12T06:21:55Z</time>
      </trkpt>
      <trkpt lat="44.30288" lon="4.56891">
        <ele>66.8</ele>
        <time>2022-06-12T06:21:56Z</time>
      </trkpt>
      <trkpt lat="44.30284" lon="4.56898">
        <ele>66.7</ele>
        <time>2022-06-12T06:21:57Z</time>
      </trkpt>
      <trkpt lat="44.3028" lon="4.56905">
        <ele>66.6</ele>
        <time>2022-06-12T06:21:58Z</time>
      </trkpt>
      <trkpt lat="44.30277" lon="4.56912">
        <ele>66.5</ele>
        <time>2022-06-12T06:21:59Z</time>
      </trkpt>
      <trkpt lat="44.30273" lon="4.56918">
        <ele>66.5</ele>
        <time>2022-06-12T06:22:00Z</time>
      </trkpt>
      <trkpt lat="44.3027" lon="4.56925">
        <ele>66.4</ele>
        <time>2022-06-12T06:22:01Z</time>
      </trkpt>
      <trkpt lat="44.30266" lon="4.56932">
        <ele>66.4</ele>
        <time>2022-06-12T06:22:02Z</time>
      </trkpt>
      <trkpt lat="44.30262" lon="4.56938">
        <ele>66.3</ele>
        <time>2022-06-12T06:22:03Z</time>
      </trkpt>
      <trkpt lat="44.30259" lon="4.56945">
        <ele>66.3</ele>
        <time>2022-06-12T06:22:04Z</time>
      </trkpt>
      <trkpt lat="44.30255" lon="4.56951">
        <ele>66.2</ele>
        <time>2022-06-12T06:22:05Z</time>
      </trkpt>
      <trkpt lat="44.30251" lon="4.56958">
        <ele>66.2</ele>
        <time>2022-06-12T06:22:06Z</time>
      </trkpt>
      <trkpt lat="44.30247" lon="4.56964">
        <ele>66.1</ele>
        <time>2022-06-12T06:22:07Z</time>
      </trkpt>
      <trkpt lat="44.30243" lon="4.5697">
        <ele>66</ele>
        <time>2022-06-12T06:22:08Z</time>
      </trkpt>
      <trkpt lat="44.30239" lon="4.56977">
        <ele>65.9</ele>
        <time>2022-06-12T06:22:09Z</time>
      </trkpt>
      <trkpt lat="44.30236" lon="4.56983">
        <ele>65.9</ele>
        <time>2022-06-12T06:22:10Z</time>
      </trkpt>
      <trkpt lat="44.30232" lon="4.56989">
        <ele>65.8</ele>
        <time>2022-06-12T06:22:11Z</time>
      </trkpt>
      <trkpt lat="44.30228" lon="4.56996">
        <ele>65.7</ele>
        <time>2022-06-12T06:22:12Z</time>
      </trkpt>
      <trkpt lat="44.30225" lon="4.57002">
        <ele>65.7</ele>
        <time>2022-06-12T06:22:13Z</time>
      </trkpt>
      <trkpt lat="44.30221" lon="4.57009">
        <ele>65.6</ele>
        <time>2022-06-12T06:22:14Z</time>
      </trkpt>
      <trkpt lat="44.30218" lon="4.57015">
        <ele>65.5</ele>
        <time>2022-06-12T06:22:15Z</time>
      </trkpt>
      <trkpt lat="44.30214" lon="4.57022">
        <ele>65.5</ele>
        <time>2022-06-12T06:22:16Z</time>
      </trkpt>
      <trkpt lat="44.3021" lon="4.57028">
        <ele>65.4</ele>
        <time>2022-06-12T06:22:17Z</time>
      </trkpt>
      <trkpt lat="44.30207" lon="4.57034">
        <ele>65.4</ele>
        <time>2022-06-12T06:22:18Z</time>
      </trkpt>
      <trkpt lat="44.30203" lon="4.5704">
        <ele>65.3</ele>
        <time>2022-06-12T06:22:19Z</time>
      </trkpt>
      <trkpt lat="44.302" lon="4.57047">
        <ele>65.3</ele>
        <time>2022-06-12T06:22:20Z</time>
      </trkpt>
      <trkpt lat="44.30196" lon="4.57053">
        <ele>65.2</ele>
        <time>2022-06-12T06:22:21Z</time>
      </trkpt>
      <trkpt lat="44.30193" lon="4.57059">
        <ele>65.2</ele>
        <time>2022-06-12T06:22:22Z</time>
      </trkpt>
      <trkpt lat="44.30189" lon="4.57066">
        <ele>65.1</ele>
        <time>2022-06-12T06:22:23Z</time>
      </trkpt>
      <trkpt lat="44.30186" lon="4.57072">
        <ele>65</ele>
        <time>2022-06-12T06:22:24Z</time>
      </trkpt>
      <trkpt lat="44.30182" lon="4.57078">
        <ele>64.9</ele>
        <time>2022-06-12T06:22:25Z</time>
      </trkpt>
      <trkpt lat="44.30179" lon="4.57084">
        <ele>64.8</ele>
        <time>2022-06-12T06:22:26Z</time>
      </trkpt>
      <trkpt lat="44.30176" lon="4.5709">
        <ele>64.7</ele>
        <time>2022-06-12T06:22:27Z</time>
      </trkpt>
      <trkpt lat="44.30172" lon="4.57096">
        <ele>64.6</ele>
        <time>2022-06-12T06:22:28Z</time>
      </trkpt>
      <trkpt lat="44.30168" lon="4.57102">
        <ele>64.6</ele>
        <time>2022-06-12T06:22:29Z</time>
      </trkpt>
      <trkpt lat="44.30164" lon="4.57108">
        <ele>64.5</ele>
        <time>2022-06-12T06:22:30Z</time>
      </trkpt>
      <trkpt lat="44.30161" lon="4.57113">
        <ele>64.4</ele>
        <time>2022-06-12T06:22:31Z</time>
      </trkpt>
      <trkpt lat="44.30157" lon="4.57119">
        <ele>64.3</ele>
        <time>2022-06-12T06:22:32Z</time>
      </trkpt>
      <trkpt lat="44.30153" lon="4.57125">
        <ele>64.2</ele>
        <time>2022-06-12T06:22:33Z</time>
      </trkpt>
      <trkpt lat="44.30149" lon="4.57131">
        <ele>64.1</ele>
        <time>2022-06-12T06:22:34Z</time>
      </trkpt>
      <trkpt lat="44.30145" lon="4.57136">
        <ele>64</ele>
        <time>2022-06-12T06:22:35Z</time>
      </trkpt>
      <trkpt lat="44.30141" lon="4.57142">
        <ele>63.9</ele>
        <time>2022-06-12T06:22:36Z</time>
      </trkpt>
      <trkpt lat="44.30137" lon="4.57148">
        <ele>63.8</ele>
        <time>2022-06-12T06:22:37Z</time>
      </trkpt>
      <trkpt lat="44.30133" lon="4.57153">
        <ele>63.7</ele>
        <time>2022-06-12T06:22:38Z</time>
      </trkpt>
      <trkpt lat="44.30129" lon="4.5716">
        <ele>63.5</ele>
        <time>2022-06-12T06:22:39Z</time>
      </trkpt>
      <trkpt lat="44.30125" lon="4.57166">
        <ele>63.3</ele>
        <time>2022-06-12T06:22:40Z</time>
      </trkpt>
      <trkpt lat="44.30121" lon="4.57173">
        <ele>63.1</ele>
        <time>2022-06-12T06:22:41Z</time>
      </trkpt>
      <trkpt lat="44.30118" lon="4.57181">
        <ele>62.9</ele>
        <time>2022-06-12T06:22:42Z</time>
      </trkpt>
      <trkpt lat="44.30115" lon="4.57189">
        <ele>62.7</ele>
        <time>2022-06-12T06:22:43Z</time>
      </trkpt>
      <trkpt lat="44.30111" lon="4.57206">
        <ele>62.4</ele>
        <time>2022-06-12T06:22:45Z</time>
      </trkpt>
      <trkpt lat="44.30109" lon="4.57215">
        <ele>62.2</ele>
        <time>2022-06-12T06:22:46Z</time>
      </trkpt>
      <trkpt lat="44.30108" lon="4.57224">
        <ele>62</ele>
        <time>2022-06-12T06:22:47Z</time>
      </trkpt>
      <trkpt lat="44.30107" lon="4.57234">
        <ele>61.8</ele>
        <time>2022-06-12T06:22:48Z</time>
      </trkpt>
      <trkpt lat="44.30107" lon="4.57244">
        <ele>61.6</ele>
        <time>2022-06-12T06:22:49Z</time>
      </trkpt>
      <trkpt lat="44.30107" lon="4.57253">
        <ele>61.4</ele>
        <time>2022-06-12T06:22:50Z</time>
      </trkpt>
      <trkpt lat="44.30108" lon="4.57263">
        <ele>61.1</ele>
        <time>2022-06-12T06:22:51Z</time>
      </trkpt>
      <trkpt lat="44.30109" lon="4.57273">
        <ele>60.8</ele>
        <time>2022-06-12T06:22:52Z</time>
      </trkpt>
      <trkpt lat="44.30111" lon="4.57282">
        <ele>60.5</ele>
        <time>2022-06-12T06:22:53Z</time>
      </trkpt>
      <trkpt lat="44.30114" lon="4.57292">
        <ele>60.5</ele>
        <time>2022-06-12T06:22:54Z</time>
      </trkpt>
      <trkpt lat="44.30117" lon="4.573">
        <ele>60.4</ele>
        <time>2022-06-12T06:22:55Z</time>
      </trkpt>
      <trkpt lat="44.30119" lon="4.57309">
        <ele>60.3</ele>
        <time>2022-06-12T06:22:56Z</time>
      </trkpt>
      <trkpt lat="44.30122" lon="4.57318">
        <ele>60.2</ele>
        <time>2022-06-12T06:22:57Z</time>
      </trkpt>
      <trkpt lat="44.30125" lon="4.57327">
        <ele>60.1</ele>
        <time>2022-06-12T06:22:58Z</time>
      </trkpt>
      <trkpt lat="44.30128" lon="4.57336">
        <ele>60.1</ele>
        <time>2022-06-12T06:22:59Z</time>
      </trkpt>
      <trkpt lat="44.30132" lon="4.57345">
        <ele>60</ele>
        <time>2022-06-12T06:23:00Z</time>
      </trkpt>
      <trkpt lat="44.30135" lon="4.57353">
        <ele>59.9</ele>
        <time>2022-06-12T06:23:01Z</time>
      </trkpt>
      <trkpt lat="44.30138" lon="4.57362">
        <ele>59.9</ele>
        <time>2022-06-12T06:23:02Z</time>
      </trkpt>
      <trkpt lat="44.30141" lon="4.5737">
        <ele>59.9</ele>
        <time>2022-06-12T06:23:03Z</time>
      </trkpt>
      <trkpt lat="44.30143" lon="4.57378">
        <ele>59.9</ele>
        <time>2022-06-12T06:23:04Z</time>
      </trkpt>
      <trkpt lat="44.30146" lon="4.57386">
        <ele>59.9</ele>
        <time>2022-06-12T06:23:05Z</time>
      </trkpt>
      <trkpt lat="44.30149" lon="4.57393">
        <ele>60</ele>
        <time>2022-06-12T06:23:06Z</time>
      </trkpt>
      <trkpt lat="44.30152" lon="4.574">
        <ele>60</ele>
        <time>2022-06-12T06:23:07Z</time>
      </trkpt>
      <trkpt lat="44.30155" lon="4.57407">
        <ele>60.1</ele>
        <time>2022-06-12T06:23:08Z</time>
      </trkpt>
      <trkpt lat="44.30158" lon="4.57414">
        <ele>60.1</ele>
        <time>2022-06-12T06:23:09Z</time>
      </trkpt>
      <trkpt lat="44.3016" lon="4.57421">
        <ele>60.2</ele>
        <time>2022-06-12T06:23:10Z</time>
      </trkpt>
      <trkpt lat="44.30162" lon="4.57428">
        <ele>60.2</ele>
        <time>2022-06-12T06:23:11Z</time>
      </trkpt>
      <trkpt lat="44.30165" lon="4.57435">
        <ele>60.2</ele>
        <time>2022-06-12T06:23:12Z</time>
      </trkpt>
      <trkpt lat="44.30167" lon="4.57441">
        <ele>60.2</ele>
        <time>2022-06-12T06:23:13Z</time>
      </trkpt>
      <trkpt lat="44.30169" lon="4.57448">
        <ele>60.2</ele>
        <time>2022-06-12T06:23:14Z</time>
      </trkpt>
      <trkpt lat="44.30171" lon="4.57455">
        <ele>60.3</ele>
        <time>2022-06-12T06:23:15Z</time>
      </trkpt>
      <trkpt lat="44.30173" lon="4.57463">
        <ele>60.3</ele>
        <time>2022-06-12T06:23:16Z</time>
      </trkpt>
      <trkpt lat="44.30175" lon="4.5747">
        <ele>60.4</ele>
        <time>2022-06-12T06:23:17Z</time>
      </trkpt>
      <trkpt lat="44.30177" lon="4.57477">
        <ele>60.4</ele>
        <time>2022-06-12T06:23:18Z</time>
      </trkpt>
      <trkpt lat="44.30178" lon="4.57483">
        <ele>60.5</ele>
        <time>2022-06-12T06:23:19Z</time>
      </trkpt>
      <trkpt lat="44.3018" lon="4.5749">
        <ele>60.5</ele>
        <time>2022-06-12T06:23:20Z</time>
      </trkpt>
      <trkpt lat="44.30182" lon="4.57496">
        <ele>60.6</ele>
        <time>2022-06-12T06:23:21Z</time>
      </trkpt>
      <trkpt lat="44.30184" lon="4.57503">
        <ele>60.6</ele>
        <time>2022-06-12T06:23:22Z</time>
      </trkpt>
      <trkpt lat="44.30185" lon="4.57509">
        <ele>60.7</ele>
        <time>2022-06-12T06:23:23Z</time>
      </trkpt>
      <trkpt lat="44.30187" lon="4.57515">
        <ele>60.8</ele>
        <time>2022-06-12T06:23:24Z</time>
      </trkpt>
      <trkpt lat="44.30188" lon="4.57521">
        <ele>60.8</ele>
        <time>2022-06-12T06:23:25Z</time>
      </trkpt>
      <trkpt lat="44.3019" lon="4.57528">
        <ele>60.9</ele>
        <time>2022-06-12T06:23:26Z</time>
      </trkpt>
      <trkpt lat="44.30192" lon="4.57534">
        <ele>61</ele>
        <time>2022-06-12T06:23:27Z</time>
      </trkpt>
      <trkpt lat="44.30194" lon="4.5754">
        <ele>61</ele>
        <time>2022-06-12T06:23:28Z</time>
      </trkpt>
      <trkpt lat="44.30196" lon="4.57546">
        <ele>61.1</ele>
        <time>2022-06-12T06:23:29Z</time>
      </trkpt>
      <trkpt lat="44.30198" lon="4.57551">
        <ele>61.2</ele>
        <time>2022-06-12T06:23:30Z</time>
      </trkpt>
      <trkpt lat="44.30199" lon="4.57557">
        <ele>61.2</ele>
        <time>2022-06-12T06:23:31Z</time>
      </trkpt>
      <trkpt lat="44.30201" lon="4.57563">
        <ele>61.3</ele>
        <time>2022-06-12T06:23:32Z</time>
      </trkpt>
      <trkpt lat="44.30203" lon="4.57569">
        <ele>61.4</ele>
        <time>2022-06-12T06:23:33Z</time>
      </trkpt>
      <trkpt lat="44.30205" lon="4.57576">
        <ele>61.5</ele>
        <time>2022-06-12T06:23:34Z</time>
      </trkpt>
      <trkpt lat="44.30206" lon="4.57582">
        <ele>61.5</ele>
        <time>2022-06-12T06:23:35Z</time>
      </trkpt>
      <trkpt lat="44.30208" lon="4.57588">
        <ele>61.6</ele>
        <time>2022-06-12T06:23:36Z</time>
      </trkpt>
      <trkpt lat="44.30209" lon="4.57595">
        <ele>61.6</ele>
        <time>2022-06-12T06:23:37Z</time>
      </trkpt>
      <trkpt lat="44.3021" lon="4.57601">
        <ele>61.7</ele>
        <time>2022-06-12T06:23:38Z</time>
      </trkpt>
      <trkpt lat="44.3021" lon="4.57608">
        <ele>61.7</ele>
        <time>2022-06-12T06:23:39Z</time>
      </trkpt>
      <trkpt lat="44.3021" lon="4.57614">
        <ele>61.8</ele>
        <time>2022-06-12T06:23:40Z</time>
      </trkpt>
      <trkpt lat="44.3021" lon="4.57621">
        <ele>61.8</ele>
        <time>2022-06-12T06:23:41Z</time>
      </trkpt>
      <trkpt lat="44.30209" lon="4.57627">
        <ele>61.9</ele>
        <time>2022-06-12T06:23:42Z</time>
      </trkpt>
      <trkpt lat="44.30208" lon="4.57633">
        <ele>61.9</ele>
        <time>2022-06-12T06:23:43Z</time>
      </trkpt>
      <trkpt lat="44.30207" lon="4.57637">
        <ele>62</ele>
        <time>2022-06-12T06:23:44Z</time>
      </trkpt>
      <trkpt lat="44.30206" lon="4.57643">
        <ele>62</ele>
        <time>2022-06-12T06:23:45Z</time>
      </trkpt>
      <trkpt lat="44.30205" lon="4.57648">
        <ele>62.1</ele>
        <time>2022-06-12T06:23:46Z</time>
      </trkpt>
      <trkpt lat="44.30202" lon="4.57655">
        <ele>62.1</ele>
        <time>2022-06-12T06:23:47Z</time>
      </trkpt>
      <trkpt lat="44.302" lon="4.5766">
        <ele>62.2</ele>
        <time>2022-06-12T06:23:48Z</time>
      </trkpt>
      <trkpt lat="44.30199" lon="4.57665">
        <ele>62.2</ele>
        <time>2022-06-12T06:23:49Z</time>
      </trkpt>
      <trkpt lat="44.30197" lon="4.57669">
        <ele>62.2</ele>
        <time>2022-06-12T06:23:50Z</time>
      </trkpt>
      <trkpt lat="44.30198" lon="4.57676">
        <ele>62.2</ele>
        <time>2022-06-12T06:23:52Z</time>
      </trkpt>
      <trkpt lat="44.30193" lon="4.57684">
        <ele>62.3</ele>
        <time>2022-06-12T06:23:53Z</time>
      </trkpt>
      <trkpt lat="44.30189" lon="4.57691">
        <ele>62.3</ele>
        <time>2022-06-12T06:23:54Z</time>
      </trkpt>
      <trkpt lat="44.30187" lon="4.57696">
        <ele>62.3</ele>
        <time>2022-06-12T06:23:55Z</time>
      </trkpt>
      <trkpt lat="44.30183" lon="4.57703">
        <ele>62.4</ele>
        <time>2022-06-12T06:23:57Z</time>
      </trkpt>
      <trkpt lat="44.3018" lon="4.57712">
        <ele>62.4</ele>
        <time>2022-06-12T06:23:58Z</time>
      </trkpt>
      <trkpt lat="44.30178" lon="4.57717">
        <ele>62.5</ele>
        <time>2022-06-12T06:23:59Z</time>
      </trkpt>
      <trkpt lat="44.30176" lon="4.57722">
        <ele>62.5</ele>
        <time>2022-06-12T06:24:00Z</time>
      </trkpt>
      <trkpt lat="44.30173" lon="4.5773">
        <ele>62.6</ele>
        <time>2022-06-12T06:24:02Z</time>
      </trkpt>
      <trkpt lat="44.30171" lon="4.57736">
        <ele>62.6</ele>
        <time>2022-06-12T06:24:03Z</time>
      </trkpt>
      <trkpt lat="44.30169" lon="4.57743">
        <ele>62.7</ele>
        <time>2022-06-12T06:24:04Z</time>
      </trkpt>
      <trkpt lat="44.30168" lon="4.57748">
        <ele>62.7</ele>
        <time>2022-06-12T06:24:05Z</time>
      </trkpt>
      <trkpt lat="44.30166" lon="4.57753">
        <ele>62.8</ele>
        <time>2022-06-12T06:24:06Z</time>
      </trkpt>
      <trkpt lat="44.30165" lon="4.57758">
        <ele>62.8</ele>
        <time>2022-06-12T06:24:07Z</time>
      </trkpt>
      <trkpt lat="44.30164" lon="4.57764">
        <ele>62.9</ele>
        <time>2022-06-12T06:24:08Z</time>
      </trkpt>
      <trkpt lat="44.30164" lon="4.57769">
        <ele>62.9</ele>
        <time>2022-06-12T06:24:09Z</time>
      </trkpt>
      <trkpt lat="44.30163" lon="4.57775">
        <ele>63</ele>
        <time>2022-06-12T06:24:10Z</time>
      </trkpt>
      <trkpt lat="44.30163" lon="4.57781">
        <ele>63</ele>
        <time>2022-06-12T06:24:11Z</time>
      </trkpt>
      <trkpt lat="44.30163" lon="4.57786">
        <ele>63.1</ele>
        <time>2022-06-12T06:24:12Z</time>
      </trkpt>
      <trkpt lat="44.30163" lon="4.57793">
        <ele>63.1</ele>
        <time>2022-06-12T06:24:13Z</time>
      </trkpt>
      <trkpt lat="44.30163" lon="4.578">
        <ele>63.2</ele>
        <time>2022-06-12T06:24:14Z</time>
      </trkpt>
      <trkpt lat="44.30163" lon="4.57806">
        <ele>63.2</ele>
        <time>2022-06-12T06:24:15Z</time>
      </trkpt>
      <trkpt lat="44.30164" lon="4.57812">
        <ele>63.2</ele>
        <time>2022-06-12T06:24:16Z</time>
      </trkpt>
      <trkpt lat="44.30165" lon="4.57818">
        <ele>63.2</ele>
        <time>2022-06-12T06:24:17Z</time>
      </trkpt>
      <trkpt lat="44.30166" lon="4.57823">
        <ele>63.3</ele>
        <time>2022-06-12T06:24:18Z</time>
      </trkpt>
      <trkpt lat="44.30167" lon="4.57831">
        <ele>63.3</ele>
        <time>2022-06-12T06:24:19Z</time>
      </trkpt>
      <trkpt lat="44.30167" lon="4.57838">
        <ele>63.3</ele>
        <time>2022-06-12T06:24:20Z</time>
      </trkpt>
      <trkpt lat="44.30168" lon="4.57845">
        <ele>63.4</ele>
        <time>2022-06-12T06:24:21Z</time>
      </trkpt>
      <trkpt lat="44.30168" lon="4.57851">
        <ele>63.4</ele>
        <time>2022-06-12T06:24:22Z</time>
      </trkpt>
      <trkpt lat="44.30169" lon="4.57858">
        <ele>63.4</ele>
        <time>2022-06-12T06:24:23Z</time>
      </trkpt>
      <trkpt lat="44.3017" lon="4.57865">
        <ele>63.4</ele>
        <time>2022-06-12T06:24:24Z</time>
      </trkpt>
      <trkpt lat="44.30171" lon="4.57871">
        <ele>63.3</ele>
        <time>2022-06-12T06:24:25Z</time>
      </trkpt>
      <trkpt lat="44.30173" lon="4.57878">
        <ele>63.3</ele>
        <time>2022-06-12T06:24:26Z</time>
      </trkpt>
      <trkpt lat="44.30173" lon="4.57886">
        <ele>63.3</ele>
        <time>2022-06-12T06:24:27Z</time>
      </trkpt>
      <trkpt lat="44.30174" lon="4.57893">
        <ele>63.2</ele>
        <time>2022-06-12T06:24:28Z</time>
      </trkpt>
      <trkpt lat="44.30175" lon="4.579">
        <ele>63.2</ele>
        <time>2022-06-12T06:24:29Z</time>
      </trkpt>
      <trkpt lat="44.30176" lon="4.57908">
        <ele>63.2</ele>
        <time>2022-06-12T06:24:30Z</time>
      </trkpt>
      <trkpt lat="44.30177" lon="4.57915">
        <ele>63.1</ele>
        <time>2022-06-12T06:24:31Z</time>
      </trkpt>
      <trkpt lat="44.30178" lon="4.57922">
        <ele>63.1</ele>
        <time>2022-06-12T06:24:32Z</time>
      </trkpt>
      <trkpt lat="44.30179" lon="4.5793">
        <ele>63</ele>
        <time>2022-06-12T06:24:33Z</time>
      </trkpt>
      <trkpt lat="44.3018" lon="4.57937">
        <ele>62.9</ele>
        <time>2022-06-12T06:24:34Z</time>
      </trkpt>
      <trkpt lat="44.30182" lon="4.57944">
        <ele>62.9</ele>
        <time>2022-06-12T06:24:35Z</time>
      </trkpt>
      <trkpt lat="44.30183" lon="4.57952">
        <ele>62.8</ele>
        <time>2022-06-12T06:24:36Z</time>
      </trkpt>
      <trkpt lat="44.30184" lon="4.5796">
        <ele>62.8</ele>
        <time>2022-06-12T06:24:37Z</time>
      </trkpt>
      <trkpt lat="44.30185" lon="4.57968">
        <ele>62.7</ele>
        <time>2022-06-12T06:24:38Z</time>
      </trkpt>
      <trkpt lat="44.30186" lon="4.57975">
        <ele>62.7</ele>
        <time>2022-06-12T06:24:39Z</time>
      </trkpt>
      <trkpt lat="44.30187" lon="4.57983">
        <ele>62.7</ele>
        <time>2022-06-12T06:24:40Z</time>
      </trkpt>
      <trkpt lat="44.30188" lon="4.57991">
        <ele>62.6</ele>
        <time>2022-06-12T06:24:41Z</time>
      </trkpt>
      <trkpt lat="44.30189" lon="4.57998">
        <ele>62.6</ele>
        <time>2022-06-12T06:24:42Z</time>
      </trkpt>
      <trkpt lat="44.30189" lon="4.58006">
        <ele>62.6</ele>
        <time>2022-06-12T06:24:43Z</time>
      </trkpt>
      <trkpt lat="44.3019" lon="4.58014">
        <ele>62.6</ele>
        <time>2022-06-12T06:24:44Z</time>
      </trkpt>
      <trkpt lat="44.30192" lon="4.58021">
        <ele>62.6</ele>
        <time>2022-06-12T06:24:45Z</time>
      </trkpt>
      <trkpt lat="44.30193" lon="4.58027">
        <ele>62.6</ele>
        <time>2022-06-12T06:24:46Z</time>
      </trkpt>
      <trkpt lat="44.30194" lon="4.58034">
        <ele>62.6</ele>
        <time>2022-06-12T06:24:47Z</time>
      </trkpt>
      <trkpt lat="44.30195" lon="4.58042">
        <ele>62.6</ele>
        <time>2022-06-12T06:24:48Z</time>
      </trkpt>
      <trkpt lat="44.30196" lon="4.58049">
        <ele>62.6</ele>
        <time>2022-06-12T06:24:49Z</time>
      </trkpt>
      <trkpt lat="44.30198" lon="4.58056">
        <ele>62.6</ele>
        <time>2022-06-12T06:24:50Z</time>
      </trkpt>
      <trkpt lat="44.30199" lon="4.58064">
        <ele>62.6</ele>
        <time>2022-06-12T06:24:51Z</time>
      </trkpt>
      <trkpt lat="44.30201" lon="4.58071">
        <ele>62.7</ele>
        <time>2022-06-12T06:24:52Z</time>
      </trkpt>
      <trkpt lat="44.30202" lon="4.58077">
        <ele>62.7</ele>
        <time>2022-06-12T06:24:53Z</time>
      </trkpt>
      <trkpt lat="44.30204" lon="4.58084">
        <ele>62.7</ele>
        <time>2022-06-12T06:24:54Z</time>
      </trkpt>
      <trkpt lat="44.30206" lon="4.58091">
        <ele>62.7</ele>
        <time>2022-06-12T06:24:55Z</time>
      </trkpt>
      <trkpt lat="44.30207" lon="4.58098">
        <ele>62.7</ele>
        <time>2022-06-12T06:24:56Z</time>
      </trkpt>
      <trkpt lat="44.30209" lon="4.58105">
        <ele>62.7</ele>
        <time>2022-06-12T06:24:57Z</time>
      </trkpt>
      <trkpt lat="44.30211" lon="4.58112">
        <ele>62.8</ele>
        <time>2022-06-12T06:24:58Z</time>
      </trkpt>
      <trkpt lat="44.30213" lon="4.58118">
        <ele>62.8</ele>
        <time>2022-06-12T06:24:59Z</time>
      </trkpt>
      <trkpt lat="44.30215" lon="4.58125">
        <ele>62.8</ele>
        <time>2022-06-12T06:25:00Z</time>
      </trkpt>
      <trkpt lat="44.30217" lon="4.58132">
        <ele>62.8</ele>
        <time>2022-06-12T06:25:01Z</time>
      </trkpt>
      <trkpt lat="44.30219" lon="4.58139">
        <ele>62.8</ele>
        <time>2022-06-12T06:25:02Z</time>
      </trkpt>
      <trkpt lat="44.30221" lon="4.58146">
        <ele>62.8</ele>
        <time>2022-06-12T06:25:03Z</time>
      </trkpt>
      <trkpt lat="44.30223" lon="4.58153">
        <ele>62.8</ele>
        <time>2022-06-12T06:25:04Z</time>
      </trkpt>
      <trkpt lat="44.30225" lon="4.5816">
        <ele>62.8</ele>
        <time>2022-06-12T06:25:05Z</time>
      </trkpt>
      <trkpt lat="44.30226" lon="4.58167">
        <ele>62.8</ele>
        <time>2022-06-12T06:25:06Z</time>
      </trkpt>
      <trkpt lat="44.30228" lon="4.58174">
        <ele>62.8</ele>
        <time>2022-06-12T06:25:07Z</time>
      </trkpt>
      <trkpt lat="44.30229" lon="4.58181">
        <ele>62.8</ele>
        <time>2022-06-12T06:25:08Z</time>
      </trkpt>
      <trkpt lat="44.30231" lon="4.58188">
        <ele>62.9</ele>
        <time>2022-06-12T06:25:09Z</time>
      </trkpt>
      <trkpt lat="44.30232" lon="4.58196">
        <ele>62.9</ele>
        <time>2022-06-12T06:25:10Z</time>
      </trkpt>
      <trkpt lat="44.30233" lon="4.58203">
        <ele>62.9</ele>
        <time>2022-06-12T06:25:11Z</time>
      </trkpt>
      <trkpt lat="44.30234" lon="4.5821">
        <ele>62.9</ele>
        <time>2022-06-12T06:25:12Z</time>
      </trkpt>
      <trkpt lat="44.30235" lon="4.58218">
        <ele>62.9</ele>
        <time>2022-06-12T06:25:13Z</time>
      </trkpt>
      <trkpt lat="44.30236" lon="4.58225">
        <ele>62.9</ele>
        <time>2022-06-12T06:25:14Z</time>
      </trkpt>
      <trkpt lat="44.30237" lon="4.58232">
        <ele>62.9</ele>
        <time>2022-06-12T06:25:15Z</time>
      </trkpt>
      <trkpt lat="44.30237" lon="4.58239">
        <ele>62.9</ele>
        <time>2022-06-12T06:25:16Z</time>
      </trkpt>
      <trkpt lat="44.30238" lon="4.58246">
        <ele>62.9</ele>
        <time>2022-06-12T06:25:17Z</time>
      </trkpt>
      <trkpt lat="44.30239" lon="4.58253">
        <ele>62.9</ele>
        <time>2022-06-12T06:25:18Z</time>
      </trkpt>
      <trkpt lat="44.30239" lon="4.5826">
        <ele>63</ele>
        <time>2022-06-12T06:25:19Z</time>
      </trkpt>
      <trkpt lat="44.3024" lon="4.58268">
        <ele>63</ele>
        <time>2022-06-12T06:25:20Z</time>
      </trkpt>
      <trkpt lat="44.3024" lon="4.58275">
        <ele>62.9</ele>
        <time>2022-06-12T06:25:21Z</time>
      </trkpt>
      <trkpt lat="44.3024" lon="4.58283">
        <ele>62.9</ele>
        <time>2022-06-12T06:25:22Z</time>
      </trkpt>
      <trkpt lat="44.3024" lon="4.5829">
        <ele>62.9</ele>
        <time>2022-06-12T06:25:23Z</time>
      </trkpt>
      <trkpt lat="44.3024" lon="4.58297">
        <ele>62.9</ele>
        <time>2022-06-12T06:25:24Z</time>
      </trkpt>
      <trkpt lat="44.30241" lon="4.58304">
        <ele>62.9</ele>
        <time>2022-06-12T06:25:25Z</time>
      </trkpt>
      <trkpt lat="44.30241" lon="4.58312">
        <ele>62.8</ele>
        <time>2022-06-12T06:25:26Z</time>
      </trkpt>
      <trkpt lat="44.30241" lon="4.58319">
        <ele>62.8</ele>
        <time>2022-06-12T06:25:27Z</time>
      </trkpt>
      <trkpt lat="44.30242" lon="4.58327">
        <ele>62.8</ele>
        <time>2022-06-12T06:25:28Z</time>
      </trkpt>
      <trkpt lat="44.30242" lon="4.58334">
        <ele>62.8</ele>
        <time>2022-06-12T06:25:29Z</time>
      </trkpt>
      <trkpt lat="44.30242" lon="4.58341">
        <ele>62.7</ele>
        <time>2022-06-12T06:25:30Z</time>
      </trkpt>
      <trkpt lat="44.30242" lon="4.58349">
        <ele>62.7</ele>
        <time>2022-06-12T06:25:31Z</time>
      </trkpt>
      <trkpt lat="44.30242" lon="4.58357">
        <ele>62.6</ele>
        <time>2022-06-12T06:25:32Z</time>
      </trkpt>
      <trkpt lat="44.30242" lon="4.58364">
        <ele>62.6</ele>
        <time>2022-06-12T06:25:33Z</time>
      </trkpt>
      <trkpt lat="44.30243" lon="4.58372">
        <ele>62.6</ele>
        <time>2022-06-12T06:25:34Z</time>
      </trkpt>
      <trkpt lat="44.30243" lon="4.5838">
        <ele>62.5</ele>
        <time>2022-06-12T06:25:35Z</time>
      </trkpt>
      <trkpt lat="44.30243" lon="4.58387">
        <ele>62.4</ele>
        <time>2022-06-12T06:25:36Z</time>
      </trkpt>
      <trkpt lat="44.30243" lon="4.58395">
        <ele>62.4</ele>
        <time>2022-06-12T06:25:37Z</time>
      </trkpt>
      <trkpt lat="44.30243" lon="4.58403">
        <ele>62.3</ele>
        <time>2022-06-12T06:25:38Z</time>
      </trkpt>
      <trkpt lat="44.30243" lon="4.5841">
        <ele>62.2</ele>
        <time>2022-06-12T06:25:39Z</time>
      </trkpt>
      <trkpt lat="44.30243" lon="4.58418">
        <ele>62.2</ele>
        <time>2022-06-12T06:25:40Z</time>
      </trkpt>
      <trkpt lat="44.30243" lon="4.58426">
        <ele>62.1</ele>
        <time>2022-06-12T06:25:41Z</time>
      </trkpt>
      <trkpt lat="44.30243" lon="4.58434">
        <ele>62</ele>
        <time>2022-06-12T06:25:42Z</time>
      </trkpt>
      <trkpt lat="44.30243" lon="4.58442">
        <ele>61.9</ele>
        <time>2022-06-12T06:25:43Z</time>
      </trkpt>
      <trkpt lat="44.30243" lon="4.5845">
        <ele>61.9</ele>
        <time>2022-06-12T06:25:44Z</time>
      </trkpt>
      <trkpt lat="44.30244" lon="4.58458">
        <ele>61.9</ele>
        <time>2022-06-12T06:25:45Z</time>
      </trkpt>
      <trkpt lat="44.30244" lon="4.58466">
        <ele>61.8</ele>
        <time>2022-06-12T06:25:46Z</time>
      </trkpt>
      <trkpt lat="44.30244" lon="4.58474">
        <ele>61.8</ele>
        <time>2022-06-12T06:25:47Z</time>
      </trkpt>
      <trkpt lat="44.30244" lon="4.58482">
        <ele>61.7</ele>
        <time>2022-06-12T06:25:48Z</time>
      </trkpt>
      <trkpt lat="44.30244" lon="4.5849">
        <ele>61.7</ele>
        <time>2022-06-12T06:25:49Z</time>
      </trkpt>
      <trkpt lat="44.30244" lon="4.58498">
        <ele>61.6</ele>
        <time>2022-06-12T06:25:50Z</time>
      </trkpt>
      <trkpt lat="44.30244" lon="4.58506">
        <ele>61.5</ele>
        <time>2022-06-12T06:25:51Z</time>
      </trkpt>
      <trkpt lat="44.30244" lon="4.58514">
        <ele>61.5</ele>
        <time>2022-06-12T06:25:52Z</time>
      </trkpt>
      <trkpt lat="44.30244" lon="4.58522">
        <ele>61.4</ele>
        <time>2022-06-12T06:25:53Z</time>
      </trkpt>
      <trkpt lat="44.30243" lon="4.5853">
        <ele>61.3</ele>
        <time>2022-06-12T06:25:54Z</time>
      </trkpt>
      <trkpt lat="44.30243" lon="4.58539">
        <ele>61.3</ele>
        <time>2022-06-12T06:25:55Z</time>
      </trkpt>
      <trkpt lat="44.30243" lon="4.58547">
        <ele>61.2</ele>
        <time>2022-06-12T06:25:56Z</time>
      </trkpt>
      <trkpt lat="44.30242" lon="4.58556">
        <ele>61.1</ele>
        <time>2022-06-12T06:25:57Z</time>
      </trkpt>
      <trkpt lat="44.30241" lon="4.58564">
        <ele>61</ele>
        <time>2022-06-12T06:25:58Z</time>
      </trkpt>
      <trkpt lat="44.3024" lon="4.58573">
        <ele>61</ele>
        <time>2022-06-12T06:25:59Z</time>
      </trkpt>
      <trkpt lat="44.30239" lon="4.58582">
        <ele>60.9</ele>
        <time>2022-06-12T06:26:00Z</time>
      </trkpt>
      <trkpt lat="44.30238" lon="4.5859">
        <ele>60.8</ele>
        <time>2022-06-12T06:26:01Z</time>
      </trkpt>
      <trkpt lat="44.30238" lon="4.58599">
        <ele>60.8</ele>
        <time>2022-06-12T06:26:02Z</time>
      </trkpt>
      <trkpt lat="44.30237" lon="4.58608">
        <ele>60.7</ele>
        <time>2022-06-12T06:26:03Z</time>
      </trkpt>
      <trkpt lat="44.30236" lon="4.58617">
        <ele>60.6</ele>
        <time>2022-06-12T06:26:04Z</time>
      </trkpt>
      <trkpt lat="44.30235" lon="4.58626">
        <ele>60.5</ele>
        <time>2022-06-12T06:26:05Z</time>
      </trkpt>
      <trkpt lat="44.30234" lon="4.58636">
        <ele>60.5</ele>
        <time>2022-06-12T06:26:06Z</time>
      </trkpt>
      <trkpt lat="44.30233" lon="4.58645">
        <ele>60.4</ele>
        <time>2022-06-12T06:26:07Z</time>
      </trkpt>
      <trkpt lat="44.30232" lon="4.58654">
        <ele>60.4</ele>
        <time>2022-06-12T06:26:08Z</time>
      </trkpt>
      <trkpt lat="44.3023" lon="4.58663">
        <ele>60.3</ele>
        <time>2022-06-12T06:26:09Z</time>
      </trkpt>
      <trkpt lat="44.30229" lon="4.58672">
        <ele>60.2</ele>
        <time>2022-06-12T06:26:10Z</time>
      </trkpt>
      <trkpt lat="44.30228" lon="4.58681">
        <ele>60.2</ele>
        <time>2022-06-12T06:26:11Z</time>
      </trkpt>
      <trkpt lat="44.30227" lon="4.5869">
        <ele>60.1</ele>
        <time>2022-06-12T06:26:12Z</time>
      </trkpt>
      <trkpt lat="44.30226" lon="4.58699">
        <ele>60.1</ele>
        <time>2022-06-12T06:26:13Z</time>
      </trkpt>
      <trkpt lat="44.30224" lon="4.58708">
        <ele>60</ele>
        <time>2022-06-12T06:26:14Z</time>
      </trkpt>
      <trkpt lat="44.30223" lon="4.58718">
        <ele>59.9</ele>
        <time>2022-06-12T06:26:15Z</time>
      </trkpt>
      <trkpt lat="44.30222" lon="4.58727">
        <ele>59.8</ele>
        <time>2022-06-12T06:26:16Z</time>
      </trkpt>
      <trkpt lat="44.3022" lon="4.58736">
        <ele>59.7</ele>
        <time>2022-06-12T06:26:17Z</time>
      </trkpt>
      <trkpt lat="44.30219" lon="4.58745">
        <ele>59.7</ele>
        <time>2022-06-12T06:26:18Z</time>
      </trkpt>
      <trkpt lat="44.30218" lon="4.58755">
        <ele>59.6</ele>
        <time>2022-06-12T06:26:19Z</time>
      </trkpt>
      <trkpt lat="44.30217" lon="4.58764">
        <ele>59.5</ele>
        <time>2022-06-12T06:26:20Z</time>
      </trkpt>
      <trkpt lat="44.30216" lon="4.58773">
        <ele>59.4</ele>
        <time>2022-06-12T06:26:21Z</time>
      </trkpt>
      <trkpt lat="44.30215" lon="4.58782">
        <ele>59.4</ele>
        <time>2022-06-12T06:26:22Z</time>
      </trkpt>
      <trkpt lat="44.30213" lon="4.58791">
        <ele>59.3</ele>
        <time>2022-06-12T06:26:23Z</time>
      </trkpt>
      <trkpt lat="44.30212" lon="4.588">
        <ele>59.2</ele>
        <time>2022-06-12T06:26:24Z</time>
      </trkpt>
      <trkpt lat="44.30211" lon="4.58809">
        <ele>59.1</ele>
        <time>2022-06-12T06:26:25Z</time>
      </trkpt>
      <trkpt lat="44.3021" lon="4.58818">
        <ele>59</ele>
        <time>2022-06-12T06:26:26Z</time>
      </trkpt>
      <trkpt lat="44.30209" lon="4.58827">
        <ele>59</ele>
        <time>2022-06-12T06:26:27Z</time>
      </trkpt>
      <trkpt lat="44.30208" lon="4.58836">
        <ele>58.9</ele>
        <time>2022-06-12T06:26:28Z</time>
      </trkpt>
      <trkpt lat="44.30207" lon="4.58845">
        <ele>58.8</ele>
        <time>2022-06-12T06:26:29Z</time>
      </trkpt>
      <trkpt lat="44.30206" lon="4.58853">
        <ele>58.7</ele>
        <time>2022-06-12T06:26:30Z</time>
      </trkpt>
      <trkpt lat="44.30204" lon="4.58862">
        <ele>58.6</ele>
        <time>2022-06-12T06:26:31Z</time>
      </trkpt>
      <trkpt lat="44.30203" lon="4.5887">
        <ele>58.6</ele>
        <time>2022-06-12T06:26:32Z</time>
      </trkpt>
      <trkpt lat="44.30202" lon="4.58877">
        <ele>58.5</ele>
        <time>2022-06-12T06:26:33Z</time>
      </trkpt>
      <trkpt lat="44.30202" lon="4.58882">
        <ele>58.5</ele>
        <time>2022-06-12T06:26:34Z</time>
      </trkpt>
      <trkpt lat="44.30201" lon="4.58884">
        <ele>58.5</ele>
        <time>2022-06-12T06:26:35Z</time>
      </trkpt>
      <trkpt lat="44.30201" lon="4.58885">
        <ele>58.5</ele>
        <time>2022-06-12T06:26:36Z</time>
      </trkpt>
      <trkpt lat="44.30201" lon="4.58886">
        <ele>58.5</ele>
        <time>2022-06-12T06:26:37Z</time>
      </trkpt>
      <trkpt lat="44.30201" lon="4.58886">
        <ele>58.5</ele>
        <time>2022-06-12T06:26:39Z</time>
      </trkpt>
      <trkpt lat="44.30201" lon="4.58887">
        <ele>58.5</ele>
        <time>2022-06-12T06:26:40Z</time>
      </trkpt>
      <trkpt lat="44.30201" lon="4.58888">
        <ele>58.5</ele>
        <time>2022-06-12T06:26:42Z</time>
      </trkpt>
      <trkpt lat="44.30201" lon="4.58888">
        <ele>58.5</ele>
        <time>2022-06-12T06:26:43Z</time>
      </trkpt>
      <trkpt lat="44.30201" lon="4.58889">
        <ele>58.5</ele>
        <time>2022-06-12T06:26:45Z</time>
      </trkpt>
      <trkpt lat="44.30201" lon="4.5889">
        <ele>58.5</ele>
        <time>2022-06-12T06:26:46Z</time>
      </trkpt>
      <trkpt lat="44.30201" lon="4.5889">
        <ele>58.5</ele>
        <time>2022-06-12T06:26:48Z</time>
      </trkpt>
      <trkpt lat="44.30201" lon="4.58891">
        <ele>58.5</ele>
        <time>2022-06-12T06:28:33Z</time>
      </trkpt>
      <trkpt lat="44.30201" lon="4.58891">
        <ele>58.5</ele>
        <time>2022-06-12T06:28:34Z</time>
      </trkpt>
      <trkpt lat="44.302" lon="4.58897">
        <ele>58.4</ele>
        <time>2022-06-12T06:28:35Z</time>
      </trkpt>
      <trkpt lat="44.302" lon="4.58899">
        <ele>58.4</ele>
        <time>2022-06-12T06:28:36Z</time>
      </trkpt>
      <trkpt lat="44.302" lon="4.58904">
        <ele>58.4</ele>
        <time>2022-06-12T06:28:37Z</time>
      </trkpt>
      <trkpt lat="44.302" lon="4.58906">
        <ele>58.4</ele>
        <time>2022-06-12T06:28:38Z</time>
      </trkpt>
      <trkpt lat="44.302" lon="4.58914">
        <ele>58.4</ele>
        <time>2022-06-12T06:28:40Z</time>
      </trkpt>
      <trkpt lat="44.30201" lon="4.58918">
        <ele>58.3</ele>
        <time>2022-06-12T06:28:41Z</time>
      </trkpt>
      <trkpt lat="44.30199" lon="4.58926">
        <ele>58.3</ele>
        <time>2022-06-12T06:28:42Z</time>
      </trkpt>
      <trkpt lat="44.30196" lon="4.58937">
        <ele>58.3</ele>
        <time>2022-06-12T06:28:43Z</time>
      </trkpt>
      <trkpt lat="44.30196" lon="4.58945">
        <ele>58.2</ele>
        <time>2022-06-12T06:28:44Z</time>
      </trkpt>
      <trkpt lat="44.30194" lon="4.58951">
        <ele>58.2</ele>
        <time>2022-06-12T06:28:45Z</time>
      </trkpt>
      <trkpt lat="44.30193" lon="4.58958">
        <ele>58.2</ele>
        <time>2022-06-12T06:28:46Z</time>
      </trkpt>
      <trkpt lat="44.30193" lon="4.58965">
        <ele>58.2</ele>
        <time>2022-06-12T06:28:47Z</time>
      </trkpt>
      <trkpt lat="44.30191" lon="4.58972">
        <ele>58.2</ele>
        <time>2022-06-12T06:28:48Z</time>
      </trkpt>
      <trkpt lat="44.30191" lon="4.58979">
        <ele>58.2</ele>
        <time>2022-06-12T06:28:49Z</time>
      </trkpt>
      <trkpt lat="44.3019" lon="4.58986">
        <ele>58.2</ele>
        <time>2022-06-12T06:28:50Z</time>
      </trkpt>
      <trkpt lat="44.3019" lon="4.58993">
        <ele>58.3</ele>
        <time>2022-06-12T06:28:51Z</time>
      </trkpt>
      <trkpt lat="44.30189" lon="4.58999">
        <ele>58.3</ele>
        <time>2022-06-12T06:28:52Z</time>
      </trkpt>
      <trkpt lat="44.30188" lon="4.59006">
        <ele>58.3</ele>
        <time>2022-06-12T06:28:53Z</time>
      </trkpt>
      <trkpt lat="44.30187" lon="4.59013">
        <ele>58.2</ele>
        <time>2022-06-12T06:28:54Z</time>
      </trkpt>
      <trkpt lat="44.30186" lon="4.5902">
        <ele>58.2</ele>
        <time>2022-06-12T06:28:55Z</time>
      </trkpt>
      <trkpt lat="44.30185" lon="4.59027">
        <ele>58.2</ele>
        <time>2022-06-12T06:28:56Z</time>
      </trkpt>
      <trkpt lat="44.30185" lon="4.59034">
        <ele>58.2</ele>
        <time>2022-06-12T06:28:57Z</time>
      </trkpt>
      <trkpt lat="44.30184" lon="4.59041">
        <ele>58.2</ele>
        <time>2022-06-12T06:28:58Z</time>
      </trkpt>
      <trkpt lat="44.30183" lon="4.59048">
        <ele>58.2</ele>
        <time>2022-06-12T06:28:59Z</time>
      </trkpt>
      <trkpt lat="44.30182" lon="4.59055">
        <ele>58.2</ele>
        <time>2022-06-12T06:29:00Z</time>
      </trkpt>
      <trkpt lat="44.30181" lon="4.59062">
        <ele>58.2</ele>
        <time>2022-06-12T06:29:01Z</time>
      </trkpt>
      <trkpt lat="44.3018" lon="4.59069">
        <ele>58.2</ele>
        <time>2022-06-12T06:29:02Z</time>
      </trkpt>
      <trkpt lat="44.30179" lon="4.59076">
        <ele>58.2</ele>
        <time>2022-06-12T06:29:03Z</time>
      </trkpt>
      <trkpt lat="44.30178" lon="4.59083">
        <ele>58.2</ele>
        <time>2022-06-12T06:29:04Z</time>
      </trkpt>
      <trkpt lat="44.30177" lon="4.5909">
        <ele>58.2</ele>
        <time>2022-06-12T06:29:05Z</time>
      </trkpt>
      <trkpt lat="44.30176" lon="4.59097">
        <ele>58.2</ele>
        <time>2022-06-12T06:29:06Z</time>
      </trkpt>
      <trkpt lat="44.30175" lon="4.59104">
        <ele>58.2</ele>
        <time>2022-06-12T06:29:07Z</time>
      </trkpt>
      <trkpt lat="44.30174" lon="4.59111">
        <ele>58.2</ele>
        <time>2022-06-12T06:29:08Z</time>
      </trkpt>
      <trkpt lat="44.30174" lon="4.59118">
        <ele>58.2</ele>
        <time>2022-06-12T06:29:09Z</time>
      </trkpt>
      <trkpt lat="44.30173" lon="4.59126">
        <ele>58.2</ele>
        <time>2022-06-12T06:29:10Z</time>
      </trkpt>
      <trkpt lat="44.30172" lon="4.59133">
        <ele>58.3</ele>
        <time>2022-06-12T06:29:11Z</time>
      </trkpt>
      <trkpt lat="44.30171" lon="4.5914">
        <ele>58.3</ele>
        <time>2022-06-12T06:29:12Z</time>
      </trkpt>
      <trkpt lat="44.3017" lon="4.59148">
        <ele>58.3</ele>
        <time>2022-06-12T06:29:13Z</time>
      </trkpt>
      <trkpt lat="44.3017" lon="4.59155">
        <ele>58.3</ele>
        <time>2022-06-12T06:29:14Z</time>
      </trkpt>
      <trkpt lat="44.3017" lon="4.59163">
        <ele>58.3</ele>
        <time>2022-06-12T06:29:15Z</time>
      </trkpt>
      <trkpt lat="44.3017" lon="4.5917">
        <ele>58.3</ele>
        <time>2022-06-12T06:29:16Z</time>
      </trkpt>
      <trkpt lat="44.3017" lon="4.59177">
        <ele>58.3</ele>
        <time>2022-06-12T06:29:17Z</time>
      </trkpt>
      <trkpt lat="44.30169" lon="4.59184">
        <ele>58.4</ele>
        <time>2022-06-12T06:29:18Z</time>
      </trkpt>
      <trkpt lat="44.30169" lon="4.59191">
        <ele>58.4</ele>
        <time>2022-06-12T06:29:19Z</time>
      </trkpt>
      <trkpt lat="44.30169" lon="4.59199">
        <ele>58.4</ele>
        <time>2022-06-12T06:29:20Z</time>
      </trkpt>
      <trkpt lat="44.30169" lon="4.59206">
        <ele>58.5</ele>
        <time>2022-06-12T06:29:21Z</time>
      </trkpt>
      <trkpt lat="44.30169" lon="4.59213">
        <ele>58.5</ele>
        <time>2022-06-12T06:29:22Z</time>
      </trkpt>
      <trkpt lat="44.30169" lon="4.5922">
        <ele>58.5</ele>
        <time>2022-06-12T06:29:23Z</time>
      </trkpt>
      <trkpt lat="44.30169" lon="4.59227">
        <ele>58.6</ele>
        <time>2022-06-12T06:29:24Z</time>
      </trkpt>
      <trkpt lat="44.30169" lon="4.59234">
        <ele>58.6</ele>
        <time>2022-06-12T06:29:25Z</time>
      </trkpt>
      <trkpt lat="44.30169" lon="4.5924">
        <ele>58.7</ele>
        <time>2022-06-12T06:29:26Z</time>
      </trkpt>
      <trkpt lat="44.30169" lon="4.59247">
        <ele>58.8</ele>
        <time>2022-06-12T06:29:27Z</time>
      </trkpt>
      <trkpt lat="44.30169" lon="4.59254">
        <ele>58.8</ele>
        <time>2022-06-12T06:29:28Z</time>
      </trkpt>
      <trkpt lat="44.30169" lon="4.59261">
        <ele>58.9</ele>
        <time>2022-06-12T06:29:29Z</time>
      </trkpt>
      <trkpt lat="44.30168" lon="4.59268">
        <ele>58.9</ele>
        <time>2022-06-12T06:29:30Z</time>
      </trkpt>
      <trkpt lat="44.30168" lon="4.59274">
        <ele>58.9</ele>
        <time>2022-06-12T06:29:31Z</time>
      </trkpt>
      <trkpt lat="44.30168" lon="4.5928">
        <ele>59</ele>
        <time>2022-06-12T06:29:32Z</time>
      </trkpt>
      <trkpt lat="44.30168" lon="4.59287">
        <ele>59</ele>
        <time>2022-06-12T06:29:33Z</time>
      </trkpt>
      <trkpt lat="44.30168" lon="4.59293">
        <ele>59.1</ele>
        <time>2022-06-12T06:29:34Z</time>
      </trkpt>
      <trkpt lat="44.30168" lon="4.593">
        <ele>59.1</ele>
        <time>2022-06-12T06:29:35Z</time>
      </trkpt>
      <trkpt lat="44.30168" lon="4.59306">
        <ele>59.1</ele>
        <time>2022-06-12T06:29:36Z</time>
      </trkpt>
      <trkpt lat="44.30168" lon="4.59312">
        <ele>59.2</ele>
        <time>2022-06-12T06:29:37Z</time>
      </trkpt>
      <trkpt lat="44.30168" lon="4.59317">
        <ele>59.3</ele>
        <time>2022-06-12T06:29:38Z</time>
      </trkpt>
      <trkpt lat="44.30168" lon="4.59323">
        <ele>59.4</ele>
        <time>2022-06-12T06:29:39Z</time>
      </trkpt>
      <trkpt lat="44.30168" lon="4.5933">
        <ele>59.5</ele>
        <time>2022-06-12T06:29:40Z</time>
      </trkpt>
      <trkpt lat="44.30168" lon="4.59335">
        <ele>59.5</ele>
        <time>2022-06-12T06:29:41Z</time>
      </trkpt>
      <trkpt lat="44.30168" lon="4.59342">
        <ele>59.6</ele>
        <time>2022-06-12T06:29:42Z</time>
      </trkpt>
      <trkpt lat="44.30168" lon="4.59347">
        <ele>59.7</ele>
        <time>2022-06-12T06:29:43Z</time>
      </trkpt>
      <trkpt lat="44.30168" lon="4.59353">
        <ele>59.8</ele>
        <time>2022-06-12T06:29:44Z</time>
      </trkpt>
      <trkpt lat="44.30167" lon="4.59358">
        <ele>59.8</ele>
        <time>2022-06-12T06:29:45Z</time>
      </trkpt>
      <trkpt lat="44.30167" lon="4.59369">
        <ele>60</ele>
        <time>2022-06-12T06:29:47Z</time>
      </trkpt>
      <trkpt lat="44.30167" lon="4.59376">
        <ele>60.1</ele>
        <time>2022-06-12T06:29:48Z</time>
      </trkpt>
      <trkpt lat="44.30167" lon="4.59382">
        <ele>60.2</ele>
        <time>2022-06-12T06:29:49Z</time>
      </trkpt>
      <trkpt lat="44.30168" lon="4.5939">
        <ele>60.3</ele>
        <time>2022-06-12T06:29:51Z</time>
      </trkpt>
      <trkpt lat="44.30168" lon="4.59398">
        <ele>60.4</ele>
        <time>2022-06-12T06:29:52Z</time>
      </trkpt>
      <trkpt lat="44.30168" lon="4.59404">
        <ele>60.5</ele>
        <time>2022-06-12T06:29:53Z</time>
      </trkpt>
      <trkpt lat="44.30168" lon="4.5941">
        <ele>60.6</ele>
        <time>2022-06-12T06:29:54Z</time>
      </trkpt>
      <trkpt lat="44.30168" lon="4.59417">
        <ele>60.7</ele>
        <time>2022-06-12T06:29:55Z</time>
      </trkpt>
      <trkpt lat="44.30167" lon="4.59425">
        <ele>60.8</ele>
        <time>2022-06-12T06:29:57Z</time>
      </trkpt>
      <trkpt lat="44.30167" lon="4.59433">
        <ele>60.9</ele>
        <time>2022-06-12T06:29:58Z</time>
      </trkpt>
      <trkpt lat="44.30167" lon="4.5944">
        <ele>61</ele>
        <time>2022-06-12T06:30:00Z</time>
      </trkpt>
      <trkpt lat="44.30167" lon="4.59446">
        <ele>61.1</ele>
        <time>2022-06-12T06:30:01Z</time>
      </trkpt>
      <trkpt lat="44.30167" lon="4.59454">
        <ele>61.3</ele>
        <time>2022-06-12T06:30:02Z</time>
      </trkpt>
      <trkpt lat="44.30167" lon="4.59458">
        <ele>61.3</ele>
        <time>2022-06-12T06:30:03Z</time>
      </trkpt>
      <trkpt lat="44.30167" lon="4.59465">
        <ele>61.4</ele>
        <time>2022-06-12T06:30:04Z</time>
      </trkpt>
      <trkpt lat="44.30167" lon="4.5947">
        <ele>61.5</ele>
        <time>2022-06-12T06:30:05Z</time>
      </trkpt>
      <trkpt lat="44.30167" lon="4.59475">
        <ele>61.6</ele>
        <time>2022-06-12T06:30:06Z</time>
      </trkpt>
      <trkpt lat="44.30167" lon="4.5948">
        <ele>61.7</ele>
        <time>2022-06-12T06:30:07Z</time>
      </trkpt>
      <trkpt lat="44.30167" lon="4.59489">
        <ele>61.8</ele>
        <time>2022-06-12T06:30:09Z</time>
      </trkpt>
      <trkpt lat="44.30168" lon="4.59496">
        <ele>62</ele>
        <time>2022-06-12T06:30:10Z</time>
      </trkpt>
      <trkpt lat="44.30168" lon="4.59501">
        <ele>62</ele>
        <time>2022-06-12T06:30:11Z</time>
      </trkpt>
      <trkpt lat="44.30168" lon="4.59507">
        <ele>62.1</ele>
        <time>2022-06-12T06:30:12Z</time>
      </trkpt>
      <trkpt lat="44.30168" lon="4.59515">
        <ele>62.3</ele>
        <time>2022-06-12T06:30:14Z</time>
      </trkpt>
      <trkpt lat="44.30168" lon="4.59521">
        <ele>62.3</ele>
        <time>2022-06-12T06:30:15Z</time>
      </trkpt>
      <trkpt lat="44.30168" lon="4.59527">
        <ele>62.4</ele>
        <time>2022-06-12T06:30:16Z</time>
      </trkpt>
      <trkpt lat="44.30168" lon="4.59534">
        <ele>62.5</ele>
        <time>2022-06-12T06:30:17Z</time>
      </trkpt>
      <trkpt lat="44.30168" lon="4.59539">
        <ele>62.6</ele>
        <time>2022-06-12T06:30:18Z</time>
      </trkpt>
      <trkpt lat="44.30168" lon="4.59544">
        <ele>62.7</ele>
        <time>2022-06-12T06:30:19Z</time>
      </trkpt>
      <trkpt lat="44.30167" lon="4.5955">
        <ele>62.7</ele>
        <time>2022-06-12T06:30:21Z</time>
      </trkpt>
      <trkpt lat="44.30168" lon="4.59556">
        <ele>62.8</ele>
        <time>2022-06-12T06:30:22Z</time>
      </trkpt>
      <trkpt lat="44.30168" lon="4.59563">
        <ele>62.9</ele>
        <time>2022-06-12T06:30:23Z</time>
      </trkpt>
      <trkpt lat="44.30168" lon="4.59568">
        <ele>63</ele>
        <time>2022-06-12T06:30:24Z</time>
      </trkpt>
      <trkpt lat="44.30168" lon="4.59574">
        <ele>63.1</ele>
        <time>2022-06-12T06:30:25Z</time>
      </trkpt>
      <trkpt lat="44.30167" lon="4.5958">
        <ele>63.1</ele>
        <time>2022-06-12T06:30:26Z</time>
      </trkpt>
      <trkpt lat="44.30167" lon="4.59585">
        <ele>63.2</ele>
        <time>2022-06-12T06:30:27Z</time>
      </trkpt>
      <trkpt lat="44.30167" lon="4.59591">
        <ele>63.2</ele>
        <time>2022-06-12T06:30:28Z</time>
      </trkpt>
      <trkpt lat="44.30167" lon="4.59596">
        <ele>63.3</ele>
        <time>2022-06-12T06:30:29Z</time>
      </trkpt>
      <trkpt lat="44.30167" lon="4.59601">
        <ele>63.3</ele>
        <time>2022-06-12T06:30:30Z</time>
      </trkpt>
      <trkpt lat="44.30167" lon="4.59607">
        <ele>63.4</ele>
        <time>2022-06-12T06:30:31Z</time>
      </trkpt>
      <trkpt lat="44.30167" lon="4.59613">
        <ele>63.5</ele>
        <time>2022-06-12T06:30:32Z</time>
      </trkpt>
      <trkpt lat="44.30166" lon="4.59618">
        <ele>63.5</ele>
        <time>2022-06-12T06:30:33Z</time>
      </trkpt>
      <trkpt lat="44.30166" lon="4.59624">
        <ele>63.6</ele>
        <time>2022-06-12T06:30:34Z</time>
      </trkpt>
      <trkpt lat="44.30166" lon="4.59632">
        <ele>63.7</ele>
        <time>2022-06-12T06:30:36Z</time>
      </trkpt>
      <trkpt lat="44.30166" lon="4.59639">
        <ele>63.7</ele>
        <time>2022-06-12T06:30:37Z</time>
      </trkpt>
      <trkpt lat="44.30165" lon="4.59647">
        <ele>63.7</ele>
        <time>2022-06-12T06:30:38Z</time>
      </trkpt>
      <trkpt lat="44.30166" lon="4.59653">
        <ele>63.8</ele>
        <time>2022-06-12T06:30:39Z</time>
      </trkpt>
      <trkpt lat="44.30166" lon="4.59662">
        <ele>63.8</ele>
        <time>2022-06-12T06:30:41Z</time>
      </trkpt>
      <trkpt lat="44.30167" lon="4.59669">
        <ele>63.9</ele>
        <time>2022-06-12T06:30:42Z</time>
      </trkpt>
      <trkpt lat="44.30167" lon="4.59677">
        <ele>63.9</ele>
        <time>2022-06-12T06:30:43Z</time>
      </trkpt>
      <trkpt lat="44.30166" lon="4.59685">
        <ele>63.9</ele>
        <time>2022-06-12T06:30:44Z</time>
      </trkpt>
      <trkpt lat="44.30166" lon="4.59692">
        <ele>63.9</ele>
        <time>2022-06-12T06:30:45Z</time>
      </trkpt>
      <trkpt lat="44.30166" lon="4.59699">
        <ele>63.9</ele>
        <time>2022-06-12T06:30:46Z</time>
      </trkpt>
      <trkpt lat="44.30166" lon="4.59705">
        <ele>63.9</ele>
        <time>2022-06-12T06:30:47Z</time>
      </trkpt>
      <trkpt lat="44.30166" lon="4.59712">
        <ele>63.9</ele>
        <time>2022-06-12T06:30:48Z</time>
      </trkpt>
      <trkpt lat="44.30167" lon="4.59719">
        <ele>63.9</ele>
        <time>2022-06-12T06:30:49Z</time>
      </trkpt>
      <trkpt lat="44.30167" lon="4.59725">
        <ele>63.9</ele>
        <time>2022-06-12T06:30:50Z</time>
      </trkpt>
      <trkpt lat="44.30167" lon="4.59732">
        <ele>63.9</ele>
        <time>2022-06-12T06:30:51Z</time>
      </trkpt>
      <trkpt lat="44.30167" lon="4.59739">
        <ele>63.9</ele>
        <time>2022-06-12T06:30:52Z</time>
      </trkpt>
      <trkpt lat="44.30167" lon="4.59747">
        <ele>63.8</ele>
        <time>2022-06-12T06:30:53Z</time>
      </trkpt>
      <trkpt lat="44.30167" lon="4.59754">
        <ele>63.8</ele>
        <time>2022-06-12T06:30:54Z</time>
      </trkpt>
      <trkpt lat="44.30167" lon="4.59761">
        <ele>63.8</ele>
        <time>2022-06-12T06:30:55Z</time>
      </trkpt>
      <trkpt lat="44.30167" lon="4.59769">
        <ele>63.7</ele>
        <time>2022-06-12T06:30:56Z</time>
      </trkpt>
      <trkpt lat="44.30167" lon="4.59777">
        <ele>63.7</ele>
        <time>2022-06-12T06:30:57Z</time>
      </trkpt>
      <trkpt lat="44.30167" lon="4.59784">
        <ele>63.7</ele>
        <time>2022-06-12T06:30:58Z</time>
      </trkpt>
      <trkpt lat="44.30167" lon="4.59792">
        <ele>63.6</ele>
        <time>2022-06-12T06:30:59Z</time>
      </trkpt>
      <trkpt lat="44.30167" lon="4.598">
        <ele>63.6</ele>
        <time>2022-06-12T06:31:00Z</time>
      </trkpt>
      <trkpt lat="44.30167" lon="4.59808">
        <ele>63.5</ele>
        <time>2022-06-12T06:31:01Z</time>
      </trkpt>
      <trkpt lat="44.30166" lon="4.59816">
        <ele>63.5</ele>
        <time>2022-06-12T06:31:02Z</time>
      </trkpt>
      <trkpt lat="44.30166" lon="4.59824">
        <ele>63.4</ele>
        <time>2022-06-12T06:31:03Z</time>
      </trkpt>
      <trkpt lat="44.30166" lon="4.59831">
        <ele>63.4</ele>
        <time>2022-06-12T06:31:04Z</time>
      </trkpt>
      <trkpt lat="44.30165" lon="4.59839">
        <ele>63.3</ele>
        <time>2022-06-12T06:31:05Z</time>
      </trkpt>
      <trkpt lat="44.30164" lon="4.59847">
        <ele>63.3</ele>
        <time>2022-06-12T06:31:06Z</time>
      </trkpt>
      <trkpt lat="44.30164" lon="4.59855">
        <ele>63.2</ele>
        <time>2022-06-12T06:31:07Z</time>
      </trkpt>
      <trkpt lat="44.30163" lon="4.59863">
        <ele>63.1</ele>
        <time>2022-06-12T06:31:08Z</time>
      </trkpt>
      <trkpt lat="44.30162" lon="4.59871">
        <ele>63.1</ele>
        <time>2022-06-12T06:31:09Z</time>
      </trkpt>
      <trkpt lat="44.30161" lon="4.59879">
        <ele>63</ele>
        <time>2022-06-12T06:31:10Z</time>
      </trkpt>
      <trkpt lat="44.3016" lon="4.59887">
        <ele>62.9</ele>
        <time>2022-06-12T06:31:11Z</time>
      </trkpt>
      <trkpt lat="44.30158" lon="4.59895">
        <ele>62.8</ele>
        <time>2022-06-12T06:31:12Z</time>
      </trkpt>
      <trkpt lat="44.30157" lon="4.59903">
        <ele>62.8</ele>
        <time>2022-06-12T06:31:13Z</time>
      </trkpt>
      <trkpt lat="44.30155" lon="4.59912">
        <ele>62.7</ele>
        <time>2022-06-12T06:31:14Z</time>
      </trkpt>
      <trkpt lat="44.30154" lon="4.5992">
        <ele>62.7</ele>
        <time>2022-06-12T06:31:15Z</time>
      </trkpt>
      <trkpt lat="44.30152" lon="4.59928">
        <ele>62.6</ele>
        <time>2022-06-12T06:31:16Z</time>
      </trkpt>
      <trkpt lat="44.30151" lon="4.59936">
        <ele>62.6</ele>
        <time>2022-06-12T06:31:17Z</time>
      </trkpt>
      <trkpt lat="44.30149" lon="4.59944">
        <ele>62.5</ele>
        <time>2022-06-12T06:31:18Z</time>
      </trkpt>
      <trkpt lat="44.30147" lon="4.59952">
        <ele>62.5</ele>
        <time>2022-06-12T06:31:19Z</time>
      </trkpt>
      <trkpt lat="44.30146" lon="4.59961">
        <ele>62.4</ele>
        <time>2022-06-12T06:31:20Z</time>
      </trkpt>
      <trkpt lat="44.30144" lon="4.59969">
        <ele>62.4</ele>
        <time>2022-06-12T06:31:21Z</time>
      </trkpt>
      <trkpt lat="44.30143" lon="4.59977">
        <ele>62.3</ele>
        <time>2022-06-12T06:31:22Z</time>
      </trkpt>
      <trkpt lat="44.30142" lon="4.59985">
        <ele>62.3</ele>
        <time>2022-06-12T06:31:23Z</time>
      </trkpt>
      <trkpt lat="44.3014" lon="4.59992">
        <ele>62.2</ele>
        <time>2022-06-12T06:31:24Z</time>
      </trkpt>
      <trkpt lat="44.30139" lon="4.60001">
        <ele>62.2</ele>
        <time>2022-06-12T06:31:25Z</time>
      </trkpt>
      <trkpt lat="44.30138" lon="4.60009">
        <ele>62.1</ele>
        <time>2022-06-12T06:31:26Z</time>
      </trkpt>
      <trkpt lat="44.30137" lon="4.60017">
        <ele>62.1</ele>
        <time>2022-06-12T06:31:27Z</time>
      </trkpt>
      <trkpt lat="44.30136" lon="4.60025">
        <ele>62</ele>
        <time>2022-06-12T06:31:28Z</time>
      </trkpt>
      <trkpt lat="44.30135" lon="4.60034">
        <ele>62</ele>
        <time>2022-06-12T06:31:29Z</time>
      </trkpt>
      <trkpt lat="44.30134" lon="4.60042">
        <ele>62</ele>
        <time>2022-06-12T06:31:30Z</time>
      </trkpt>
      <trkpt lat="44.30134" lon="4.6005">
        <ele>61.9</ele>
        <time>2022-06-12T06:31:31Z</time>
      </trkpt>
      <trkpt lat="44.30133" lon="4.60059">
        <ele>61.9</ele>
        <time>2022-06-12T06:31:32Z</time>
      </trkpt>
      <trkpt lat="44.30133" lon="4.60067">
        <ele>61.8</ele>
        <time>2022-06-12T06:31:33Z</time>
      </trkpt>
      <trkpt lat="44.30133" lon="4.60075">
        <ele>61.8</ele>
        <time>2022-06-12T06:31:34Z</time>
      </trkpt>
      <trkpt lat="44.30133" lon="4.60083">
        <ele>61.7</ele>
        <time>2022-06-12T06:31:35Z</time>
      </trkpt>
      <trkpt lat="44.30133" lon="4.60092">
        <ele>61.6</ele>
        <time>2022-06-12T06:31:36Z</time>
      </trkpt>
      <trkpt lat="44.30133" lon="4.601">
        <ele>61.6</ele>
        <time>2022-06-12T06:31:37Z</time>
      </trkpt>
      <trkpt lat="44.30133" lon="4.60109">
        <ele>61.5</ele>
        <time>2022-06-12T06:31:38Z</time>
      </trkpt>
      <trkpt lat="44.30134" lon="4.60118">
        <ele>61.4</ele>
        <time>2022-06-12T06:31:39Z</time>
      </trkpt>
      <trkpt lat="44.30134" lon="4.60127">
        <ele>61.3</ele>
        <time>2022-06-12T06:31:40Z</time>
      </trkpt>
      <trkpt lat="44.30134" lon="4.60136">
        <ele>61.3</ele>
        <time>2022-06-12T06:31:41Z</time>
      </trkpt>
      <trkpt lat="44.30135" lon="4.60145">
        <ele>61.2</ele>
        <time>2022-06-12T06:31:42Z</time>
      </trkpt>
      <trkpt lat="44.30135" lon="4.60154">
        <ele>61.1</ele>
        <time>2022-06-12T06:31:43Z</time>
      </trkpt>
      <trkpt lat="44.30135" lon="4.60163">
        <ele>61.1</ele>
        <time>2022-06-12T06:31:44Z</time>
      </trkpt>
      <trkpt lat="44.30136" lon="4.60172">
        <ele>61.1</ele>
        <time>2022-06-12T06:31:45Z</time>
      </trkpt>
      <trkpt lat="44.30136" lon="4.60181">
        <ele>61</ele>
        <time>2022-06-12T06:31:46Z</time>
      </trkpt>
      <trkpt lat="44.30136" lon="4.60189">
        <ele>61</ele>
        <time>2022-06-12T06:31:47Z</time>
      </trkpt>
      <trkpt lat="44.30137" lon="4.60198">
        <ele>61</ele>
        <time>2022-06-12T06:31:48Z</time>
      </trkpt>
      <trkpt lat="44.30137" lon="4.60208">
        <ele>61</ele>
        <time>2022-06-12T06:31:49Z</time>
      </trkpt>
      <trkpt lat="44.30137" lon="4.60216">
        <ele>60.9</ele>
        <time>2022-06-12T06:31:50Z</time>
      </trkpt>
      <trkpt lat="44.30138" lon="4.60225">
        <ele>60.9</ele>
        <time>2022-06-12T06:31:51Z</time>
      </trkpt>
      <trkpt lat="44.30139" lon="4.60234">
        <ele>60.9</ele>
        <time>2022-06-12T06:31:52Z</time>
      </trkpt>
      <trkpt lat="44.30139" lon="4.60242">
        <ele>60.9</ele>
        <time>2022-06-12T06:31:53Z</time>
      </trkpt>
      <trkpt lat="44.30139" lon="4.60251">
        <ele>60.9</ele>
        <time>2022-06-12T06:31:54Z</time>
      </trkpt>
      <trkpt lat="44.30139" lon="4.6026">
        <ele>60.9</ele>
        <time>2022-06-12T06:31:55Z</time>
      </trkpt>
      <trkpt lat="44.3014" lon="4.60268">
        <ele>60.9</ele>
        <time>2022-06-12T06:31:56Z</time>
      </trkpt>
      <trkpt lat="44.3014" lon="4.60277">
        <ele>60.9</ele>
        <time>2022-06-12T06:31:57Z</time>
      </trkpt>
      <trkpt lat="44.30139" lon="4.60285">
        <ele>60.9</ele>
        <time>2022-06-12T06:31:58Z</time>
      </trkpt>
      <trkpt lat="44.3014" lon="4.60293">
        <ele>61</ele>
        <time>2022-06-12T06:31:59Z</time>
      </trkpt>
      <trkpt lat="44.3014" lon="4.60302">
        <ele>61</ele>
        <time>2022-06-12T06:32:00Z</time>
      </trkpt>
      <trkpt lat="44.3014" lon="4.6031">
        <ele>61</ele>
        <time>2022-06-12T06:32:01Z</time>
      </trkpt>
      <trkpt lat="44.3014" lon="4.60318">
        <ele>61.1</ele>
        <time>2022-06-12T06:32:02Z</time>
      </trkpt>
      <trkpt lat="44.30141" lon="4.60326">
        <ele>61.1</ele>
        <time>2022-06-12T06:32:03Z</time>
      </trkpt>
      <trkpt lat="44.30141" lon="4.60334">
        <ele>61.2</ele>
        <time>2022-06-12T06:32:04Z</time>
      </trkpt>
      <trkpt lat="44.30142" lon="4.60342">
        <ele>61.3</ele>
        <time>2022-06-12T06:32:05Z</time>
      </trkpt>
      <trkpt lat="44.30142" lon="4.6035">
        <ele>61.3</ele>
        <time>2022-06-12T06:32:06Z</time>
      </trkpt>
      <trkpt lat="44.30142" lon="4.60357">
        <ele>61.4</ele>
        <time>2022-06-12T06:32:07Z</time>
      </trkpt>
      <trkpt lat="44.30142" lon="4.60364">
        <ele>61.5</ele>
        <time>2022-06-12T06:32:09Z</time>
      </trkpt>
      <trkpt lat="44.30142" lon="4.60365">
        <ele>61.5</ele>
        <time>2022-06-12T06:32:10Z</time>
      </trkpt>
      <trkpt lat="44.30142" lon="4.60365">
        <ele>61.5</ele>
        <time>2022-06-12T06:32:11Z</time>
      </trkpt>
      <trkpt lat="44.30142" lon="4.60366">
        <ele>61.5</ele>
        <time>2022-06-12T06:32:12Z</time>
      </trkpt>
      <trkpt lat="44.30142" lon="4.60366">
        <ele>61.5</ele>
        <time>2022-06-12T06:32:13Z</time>
      </trkpt>
      <trkpt lat="44.30142" lon="4.60367">
        <ele>61.5</ele>
        <time>2022-06-12T06:32:14Z</time>
      </trkpt>
      <trkpt lat="44.30142" lon="4.60368">
        <ele>61.5</ele>
        <time>2022-06-12T06:32:15Z</time>
      </trkpt>
      <trkpt lat="44.30142" lon="4.60368">
        <ele>61.5</ele>
        <time>2022-06-12T06:32:16Z</time>
      </trkpt>
      <trkpt lat="44.30142" lon="4.60369">
        <ele>61.5</ele>
        <time>2022-06-12T06:32:17Z</time>
      </trkpt>
      <trkpt lat="44.30142" lon="4.60369">
        <ele>61.5</ele>
        <time>2022-06-12T06:32:19Z</time>
      </trkpt>
      <trkpt lat="44.30142" lon="4.6037">
        <ele>61.5</ele>
        <time>2022-06-12T06:32:20Z</time>
      </trkpt>
      <trkpt lat="44.30142" lon="4.60371">
        <ele>61.5</ele>
        <time>2022-06-12T06:32:21Z</time>
      </trkpt>
      <trkpt lat="44.30142" lon="4.60371">
        <ele>61.5</ele>
        <time>2022-06-12T06:32:22Z</time>
      </trkpt>
      <trkpt lat="44.30142" lon="4.60372">
        <ele>61.5</ele>
        <time>2022-06-12T06:32:23Z</time>
      </trkpt>
      <trkpt lat="44.30142" lon="4.60372">
        <ele>61.6</ele>
        <time>2022-06-12T06:33:29Z</time>
      </trkpt>
      <trkpt lat="44.30142" lon="4.60373">
        <ele>61.6</ele>
        <time>2022-06-12T06:33:31Z</time>
      </trkpt>
      <trkpt lat="44.30142" lon="4.60373">
        <ele>61.6</ele>
        <time>2022-06-12T06:33:32Z</time>
      </trkpt>
      <trkpt lat="44.30142" lon="4.60379">
        <ele>61.6</ele>
        <time>2022-06-12T06:33:33Z</time>
      </trkpt>
      <trkpt lat="44.30143" lon="4.60383">
        <ele>61.7</ele>
        <time>2022-06-12T06:33:34Z</time>
      </trkpt>
      <trkpt lat="44.30143" lon="4.60389">
        <ele>61.7</ele>
        <time>2022-06-12T06:33:36Z</time>
      </trkpt>
      <trkpt lat="44.30143" lon="4.60394">
        <ele>61.7</ele>
        <time>2022-06-12T06:33:37Z</time>
      </trkpt>
      <trkpt lat="44.30143" lon="4.60401">
        <ele>61.8</ele>
        <time>2022-06-12T06:33:38Z</time>
      </trkpt>
      <trkpt lat="44.30143" lon="4.60407">
        <ele>61.9</ele>
        <time>2022-06-12T06:33:39Z</time>
      </trkpt>
      <trkpt lat="44.30144" lon="4.60412">
        <ele>61.9</ele>
        <time>2022-06-12T06:33:40Z</time>
      </trkpt>
      <trkpt lat="44.30144" lon="4.60418">
        <ele>62</ele>
        <time>2022-06-12T06:33:41Z</time>
      </trkpt>
      <trkpt lat="44.30144" lon="4.60425">
        <ele>62.1</ele>
        <time>2022-06-12T06:33:43Z</time>
      </trkpt>
      <trkpt lat="44.30144" lon="4.60433">
        <ele>62.1</ele>
        <time>2022-06-12T06:33:44Z</time>
      </trkpt>
      <trkpt lat="44.30143" lon="4.60439">
        <ele>62.2</ele>
        <time>2022-06-12T06:33:45Z</time>
      </trkpt>
      <trkpt lat="44.30143" lon="4.60446">
        <ele>62.2</ele>
        <time>2022-06-12T06:33:46Z</time>
      </trkpt>
      <trkpt lat="44.30143" lon="4.60455">
        <ele>62.3</ele>
        <time>2022-06-12T06:33:48Z</time>
      </trkpt>
      <trkpt lat="44.30143" lon="4.60462">
        <ele>62.4</ele>
        <time>2022-06-12T06:33:49Z</time>
      </trkpt>
      <trkpt lat="44.30143" lon="4.60468">
        <ele>62.4</ele>
        <time>2022-06-12T06:33:50Z</time>
      </trkpt>
      <trkpt lat="44.30143" lon="4.60475">
        <ele>62.5</ele>
        <time>2022-06-12T06:33:51Z</time>
      </trkpt>
      <trkpt lat="44.30143" lon="4.60482">
        <ele>62.5</ele>
        <time>2022-06-12T06:33:52Z</time>
      </trkpt>
      <trkpt lat="44.30143" lon="4.60488">
        <ele>62.6</ele>
        <time>2022-06-12T06:33:53Z</time>
      </trkpt>
      <trkpt lat="44.30142" lon="4.60497">
        <ele>62.6</ele>
        <time>2022-06-12T06:33:55Z</time>
      </trkpt>
      <trkpt lat="44.30141" lon="4.60504">
        <ele>62.7</ele>
        <time>2022-06-12T06:33:56Z</time>
      </trkpt>
      <trkpt lat="44.30139" lon="4.60514">
        <ele>62.8</ele>
        <time>2022-06-12T06:33:57Z</time>
      </trkpt>
      <trkpt lat="44.30139" lon="4.6052">
        <ele>62.8</ele>
        <time>2022-06-12T06:33:58Z</time>
      </trkpt>
      <trkpt lat="44.30138" lon="4.60527">
        <ele>62.9</ele>
        <time>2022-06-12T06:33:59Z</time>
      </trkpt>
      <trkpt lat="44.30138" lon="4.60533">
        <ele>62.9</ele>
        <time>2022-06-12T06:34:00Z</time>
      </trkpt>
      <trkpt lat="44.30138" lon="4.60539">
        <ele>63</ele>
        <time>2022-06-12T06:34:01Z</time>
      </trkpt>
      <trkpt lat="44.30138" lon="4.60546">
        <ele>63</ele>
        <time>2022-06-12T06:34:02Z</time>
      </trkpt>
      <trkpt lat="44.30137" lon="4.60552">
        <ele>63.1</ele>
        <time>2022-06-12T06:34:03Z</time>
      </trkpt>
      <trkpt lat="44.30137" lon="4.60559">
        <ele>63.1</ele>
        <time>2022-06-12T06:34:04Z</time>
      </trkpt>
      <trkpt lat="44.30136" lon="4.60565">
        <ele>63.2</ele>
        <time>2022-06-12T06:34:05Z</time>
      </trkpt>
      <trkpt lat="44.30135" lon="4.60572">
        <ele>63.2</ele>
        <time>2022-06-12T06:34:06Z</time>
      </trkpt>
      <trkpt lat="44.30135" lon="4.60578">
        <ele>63.3</ele>
        <time>2022-06-12T06:34:07Z</time>
      </trkpt>
      <trkpt lat="44.30135" lon="4.60585">
        <ele>63.3</ele>
        <time>2022-06-12T06:34:08Z</time>
      </trkpt>
      <trkpt lat="44.30135" lon="4.60592">
        <ele>63.4</ele>
        <time>2022-06-12T06:34:09Z</time>
      </trkpt>
      <trkpt lat="44.30135" lon="4.60598">
        <ele>63.4</ele>
        <time>2022-06-12T06:34:10Z</time>
      </trkpt>
      <trkpt lat="44.30134" lon="4.60605">
        <ele>63.4</ele>
        <time>2022-06-12T06:34:11Z</time>
      </trkpt>
      <trkpt lat="44.30134" lon="4.60611">
        <ele>63.5</ele>
        <time>2022-06-12T06:34:12Z</time>
      </trkpt>
      <trkpt lat="44.30133" lon="4.60618">
        <ele>63.5</ele>
        <time>2022-06-12T06:34:13Z</time>
      </trkpt>
      <trkpt lat="44.30133" lon="4.60625">
        <ele>63.5</ele>
        <time>2022-06-12T06:34:14Z</time>
      </trkpt>
      <trkpt lat="44.30133" lon="4.60632">
        <ele>63.5</ele>
        <time>2022-06-12T06:34:15Z</time>
      </trkpt>
      <trkpt lat="44.30132" lon="4.60638">
        <ele>63.5</ele>
        <time>2022-06-12T06:34:16Z</time>
      </trkpt>
      <trkpt lat="44.30132" lon="4.60645">
        <ele>63.5</ele>
        <time>2022-06-12T06:34:17Z</time>
      </trkpt>
      <trkpt lat="44.30131" lon="4.60652">
        <ele>63.6</ele>
        <time>2022-06-12T06:34:18Z</time>
      </trkpt>
      <trkpt lat="44.30131" lon="4.60659">
        <ele>63.5</ele>
        <time>2022-06-12T06:34:19Z</time>
      </trkpt>
      <trkpt lat="44.30131" lon="4.60666">
        <ele>63.5</ele>
        <time>2022-06-12T06:34:20Z</time>
      </trkpt>
      <trkpt lat="44.3013" lon="4.60673">
        <ele>63.5</ele>
        <time>2022-06-12T06:34:21Z</time>
      </trkpt>
      <trkpt lat="44.3013" lon="4.6068">
        <ele>63.5</ele>
        <time>2022-06-12T06:34:22Z</time>
      </trkpt>
      <trkpt lat="44.30129" lon="4.60687">
        <ele>63.4</ele>
        <time>2022-06-12T06:34:23Z</time>
      </trkpt>
      <trkpt lat="44.30129" lon="4.60695">
        <ele>63.4</ele>
        <time>2022-06-12T06:34:24Z</time>
      </trkpt>
      <trkpt lat="44.30128" lon="4.60702">
        <ele>63.3</ele>
        <time>2022-06-12T06:34:25Z</time>
      </trkpt>
      <trkpt lat="44.30128" lon="4.6071">
        <ele>63.3</ele>
        <time>2022-06-12T06:34:26Z</time>
      </trkpt>
      <trkpt lat="44.30127" lon="4.60718">
        <ele>63.3</ele>
        <time>2022-06-12T06:34:27Z</time>
      </trkpt>
      <trkpt lat="44.30126" lon="4.60725">
        <ele>63.2</ele>
        <time>2022-06-12T06:34:28Z</time>
      </trkpt>
      <trkpt lat="44.30126" lon="4.60733">
        <ele>63.2</ele>
        <time>2022-06-12T06:34:29Z</time>
      </trkpt>
      <trkpt lat="44.30125" lon="4.60741">
        <ele>63.1</ele>
        <time>2022-06-12T06:34:30Z</time>
      </trkpt>
      <trkpt lat="44.30124" lon="4.60749">
        <ele>63.1</ele>
        <time>2022-06-12T06:34:31Z</time>
      </trkpt>
      <trkpt lat="44.30124" lon="4.60758">
        <ele>63</ele>
        <time>2022-06-12T06:34:32Z</time>
      </trkpt>
      <trkpt lat="44.30123" lon="4.60766">
        <ele>62.9</ele>
        <time>2022-06-12T06:34:33Z</time>
      </trkpt>
      <trkpt lat="44.30123" lon="4.60774">
        <ele>62.9</ele>
        <time>2022-06-12T06:34:34Z</time>
      </trkpt>
      <trkpt lat="44.30122" lon="4.60782">
        <ele>62.8</ele>
        <time>2022-06-12T06:34:35Z</time>
      </trkpt>
      <trkpt lat="44.30122" lon="4.6079">
        <ele>62.8</ele>
        <time>2022-06-12T06:34:36Z</time>
      </trkpt>
      <trkpt lat="44.30122" lon="4.60799">
        <ele>62.7</ele>
        <time>2022-06-12T06:34:37Z</time>
      </trkpt>
      <trkpt lat="44.30121" lon="4.60807">
        <ele>62.7</ele>
        <time>2022-06-12T06:34:38Z</time>
      </trkpt>
      <trkpt lat="44.3012" lon="4.60815">
        <ele>62.6</ele>
        <time>2022-06-12T06:34:39Z</time>
      </trkpt>
      <trkpt lat="44.3012" lon="4.60823">
        <ele>62.6</ele>
        <time>2022-06-12T06:34:40Z</time>
      </trkpt>
      <trkpt lat="44.30119" lon="4.60831">
        <ele>62.6</ele>
        <time>2022-06-12T06:34:41Z</time>
      </trkpt>
      <trkpt lat="44.30119" lon="4.6084">
        <ele>62.5</ele>
        <time>2022-06-12T06:34:42Z</time>
      </trkpt>
      <trkpt lat="44.30118" lon="4.60848">
        <ele>62.5</ele>
        <time>2022-06-12T06:34:43Z</time>
      </trkpt>
      <trkpt lat="44.30118" lon="4.60856">
        <ele>62.5</ele>
        <time>2022-06-12T06:34:44Z</time>
      </trkpt>
      <trkpt lat="44.30117" lon="4.60864">
        <ele>62.5</ele>
        <time>2022-06-12T06:34:45Z</time>
      </trkpt>
      <trkpt lat="44.30117" lon="4.60873">
        <ele>62.5</ele>
        <time>2022-06-12T06:34:46Z</time>
      </trkpt>
      <trkpt lat="44.30117" lon="4.6088">
        <ele>62.5</ele>
        <time>2022-06-12T06:34:47Z</time>
      </trkpt>
      <trkpt lat="44.30117" lon="4.60888">
        <ele>62.5</ele>
        <time>2022-06-12T06:34:48Z</time>
      </trkpt>
      <trkpt lat="44.30116" lon="4.60896">
        <ele>62.5</ele>
        <time>2022-06-12T06:34:49Z</time>
      </trkpt>
      <trkpt lat="44.30116" lon="4.60903">
        <ele>62.5</ele>
        <time>2022-06-12T06:34:50Z</time>
      </trkpt>
      <trkpt lat="44.30115" lon="4.60911">
        <ele>62.6</ele>
        <time>2022-06-12T06:34:51Z</time>
      </trkpt>
      <trkpt lat="44.30115" lon="4.60919">
        <ele>62.6</ele>
        <time>2022-06-12T06:34:52Z</time>
      </trkpt>
      <trkpt lat="44.30116" lon="4.60926">
        <ele>62.6</ele>
        <time>2022-06-12T06:34:53Z</time>
      </trkpt>
      <trkpt lat="44.30116" lon="4.60933">
        <ele>62.7</ele>
        <time>2022-06-12T06:34:54Z</time>
      </trkpt>
      <trkpt lat="44.30116" lon="4.60941">
        <ele>62.7</ele>
        <time>2022-06-12T06:34:55Z</time>
      </trkpt>
      <trkpt lat="44.30116" lon="4.60948">
        <ele>62.8</ele>
        <time>2022-06-12T06:34:56Z</time>
      </trkpt>
      <trkpt lat="44.30116" lon="4.60956">
        <ele>62.9</ele>
        <time>2022-06-12T06:34:57Z</time>
      </trkpt>
      <trkpt lat="44.30116" lon="4.60963">
        <ele>62.9</ele>
        <time>2022-06-12T06:34:58Z</time>
      </trkpt>
      <trkpt lat="44.30116" lon="4.6097">
        <ele>63</ele>
        <time>2022-06-12T06:34:59Z</time>
      </trkpt>
      <trkpt lat="44.30117" lon="4.60978">
        <ele>63.1</ele>
        <time>2022-06-12T06:35:00Z</time>
      </trkpt>
      <trkpt lat="44.30117" lon="4.60984">
        <ele>63.1</ele>
        <time>2022-06-12T06:35:01Z</time>
      </trkpt>
      <trkpt lat="44.30117" lon="4.60991">
        <ele>63.2</ele>
        <time>2022-06-12T06:35:02Z</time>
      </trkpt>
      <trkpt lat="44.30118" lon="4.60998">
        <ele>63.3</ele>
        <time>2022-06-12T06:35:03Z</time>
      </trkpt>
      <trkpt lat="44.30118" lon="4.61006">
        <ele>63.4</ele>
        <time>2022-06-12T06:35:04Z</time>
      </trkpt>
      <trkpt lat="44.30119" lon="4.61012">
        <ele>63.5</ele>
        <time>2022-06-12T06:35:05Z</time>
      </trkpt>
      <trkpt lat="44.30119" lon="4.6102">
        <ele>63.6</ele>
        <time>2022-06-12T06:35:06Z</time>
      </trkpt>
      <trkpt lat="44.3012" lon="4.61026">
        <ele>63.7</ele>
        <time>2022-06-12T06:35:07Z</time>
      </trkpt>
      <trkpt lat="44.3012" lon="4.61033">
        <ele>63.9</ele>
        <time>2022-06-12T06:35:08Z</time>
      </trkpt>
      <trkpt lat="44.3012" lon="4.6104">
        <ele>64</ele>
        <time>2022-06-12T06:35:09Z</time>
      </trkpt>
      <trkpt lat="44.3012" lon="4.61046">
        <ele>64.1</ele>
        <time>2022-06-12T06:35:10Z</time>
      </trkpt>
      <trkpt lat="44.3012" lon="4.61052">
        <ele>64.3</ele>
        <time>2022-06-12T06:35:11Z</time>
      </trkpt>
      <trkpt lat="44.30121" lon="4.61059">
        <ele>64.4</ele>
        <time>2022-06-12T06:35:12Z</time>
      </trkpt>
      <trkpt lat="44.30121" lon="4.61065">
        <ele>64.6</ele>
        <time>2022-06-12T06:35:13Z</time>
      </trkpt>
      <trkpt lat="44.30121" lon="4.61072">
        <ele>64.8</ele>
        <time>2022-06-12T06:35:14Z</time>
      </trkpt>
      <trkpt lat="44.30121" lon="4.61076">
        <ele>64.8</ele>
        <time>2022-06-12T06:35:15Z</time>
      </trkpt>
      <trkpt lat="44.30122" lon="4.61082">
        <ele>65</ele>
        <time>2022-06-12T06:35:16Z</time>
      </trkpt>
      <trkpt lat="44.30122" lon="4.61087">
        <ele>65.1</ele>
        <time>2022-06-12T06:35:17Z</time>
      </trkpt>
      <trkpt lat="44.30122" lon="4.61093">
        <ele>65.2</ele>
        <time>2022-06-12T06:35:18Z</time>
      </trkpt>
      <trkpt lat="44.30122" lon="4.61099">
        <ele>65.4</ele>
        <time>2022-06-12T06:35:19Z</time>
      </trkpt>
      <trkpt lat="44.30123" lon="4.61104">
        <ele>65.5</ele>
        <time>2022-06-12T06:35:20Z</time>
      </trkpt>
      <trkpt lat="44.30125" lon="4.61109">
        <ele>65.6</ele>
        <time>2022-06-12T06:35:22Z</time>
      </trkpt>
      <trkpt lat="44.30124" lon="4.61117">
        <ele>65.8</ele>
        <time>2022-06-12T06:35:23Z</time>
      </trkpt>
      <trkpt lat="44.30124" lon="4.61124">
        <ele>66</ele>
        <time>2022-06-12T06:35:24Z</time>
      </trkpt>
      <trkpt lat="44.30125" lon="4.61129">
        <ele>66.2</ele>
        <time>2022-06-12T06:35:25Z</time>
      </trkpt>
      <trkpt lat="44.30124" lon="4.61135">
        <ele>66.3</ele>
        <time>2022-06-12T06:35:26Z</time>
      </trkpt>
      <trkpt lat="44.30124" lon="4.61143">
        <ele>66.4</ele>
        <time>2022-06-12T06:35:28Z</time>
      </trkpt>
      <trkpt lat="44.30124" lon="4.61149">
        <ele>66.6</ele>
        <time>2022-06-12T06:35:29Z</time>
      </trkpt>
      <trkpt lat="44.30125" lon="4.61156">
        <ele>66.7</ele>
        <time>2022-06-12T06:35:30Z</time>
      </trkpt>
      <trkpt lat="44.30125" lon="4.6116">
        <ele>66.8</ele>
        <time>2022-06-12T06:35:31Z</time>
      </trkpt>
      <trkpt lat="44.30125" lon="4.61165">
        <ele>67</ele>
        <time>2022-06-12T06:35:32Z</time>
      </trkpt>
      <trkpt lat="44.30125" lon="4.61172">
        <ele>67.2</ele>
        <time>2022-06-12T06:35:34Z</time>
      </trkpt>
      <trkpt lat="44.30126" lon="4.61177">
        <ele>67.3</ele>
        <time>2022-06-12T06:35:35Z</time>
      </trkpt>
      <trkpt lat="44.30126" lon="4.61184">
        <ele>67.5</ele>
        <time>2022-06-12T06:35:36Z</time>
      </trkpt>
      <trkpt lat="44.30127" lon="4.61191">
        <ele>67.7</ele>
        <time>2022-06-12T06:35:38Z</time>
      </trkpt>
      <trkpt lat="44.30127" lon="4.61197">
        <ele>67.9</ele>
        <time>2022-06-12T06:35:39Z</time>
      </trkpt>
      <trkpt lat="44.30127" lon="4.61202">
        <ele>68</ele>
        <time>2022-06-12T06:35:40Z</time>
      </trkpt>
      <trkpt lat="44.30126" lon="4.61207">
        <ele>68.2</ele>
        <time>2022-06-12T06:35:41Z</time>
      </trkpt>
      <trkpt lat="44.30126" lon="4.61212">
        <ele>68.3</ele>
        <time>2022-06-12T06:35:42Z</time>
      </trkpt>
      <trkpt lat="44.30127" lon="4.61216">
        <ele>68.4</ele>
        <time>2022-06-12T06:35:43Z</time>
      </trkpt>
      <trkpt lat="44.30128" lon="4.61222">
        <ele>68.6</ele>
        <time>2022-06-12T06:35:45Z</time>
      </trkpt>
      <trkpt lat="44.30128" lon="4.61227">
        <ele>68.7</ele>
        <time>2022-06-12T06:35:46Z</time>
      </trkpt>
      <trkpt lat="44.30128" lon="4.61233">
        <ele>68.9</ele>
        <time>2022-06-12T06:35:47Z</time>
      </trkpt>
      <trkpt lat="44.30129" lon="4.61237">
        <ele>69.1</ele>
        <time>2022-06-12T06:35:48Z</time>
      </trkpt>
      <trkpt lat="44.30129" lon="4.61241">
        <ele>69.2</ele>
        <time>2022-06-12T06:35:49Z</time>
      </trkpt>
      <trkpt lat="44.30129" lon="4.61245">
        <ele>69.3</ele>
        <time>2022-06-12T06:35:50Z</time>
      </trkpt>
      <trkpt lat="44.3013" lon="4.61249">
        <ele>69.4</ele>
        <time>2022-06-12T06:35:51Z</time>
      </trkpt>
      <trkpt lat="44.30129" lon="4.61253">
        <ele>69.6</ele>
        <time>2022-06-12T06:35:52Z</time>
      </trkpt>
      <trkpt lat="44.3013" lon="4.61257">
        <ele>69.7</ele>
        <time>2022-06-12T06:35:53Z</time>
      </trkpt>
      <trkpt lat="44.3013" lon="4.61264">
        <ele>69.9</ele>
        <time>2022-06-12T06:35:55Z</time>
      </trkpt>
      <trkpt lat="44.3013" lon="4.61268">
        <ele>70</ele>
        <time>2022-06-12T06:35:56Z</time>
      </trkpt>
      <trkpt lat="44.3013" lon="4.61274">
        <ele>70.2</ele>
        <time>2022-06-12T06:35:57Z</time>
      </trkpt>
      <trkpt lat="44.3013" lon="4.61279">
        <ele>70.3</ele>
        <time>2022-06-12T06:35:58Z</time>
      </trkpt>
      <trkpt lat="44.3013" lon="4.61283">
        <ele>70.4</ele>
        <time>2022-06-12T06:35:59Z</time>
      </trkpt>
      <trkpt lat="44.3013" lon="4.61288">
        <ele>70.6</ele>
        <time>2022-06-12T06:36:00Z</time>
      </trkpt>
      <trkpt lat="44.3013" lon="4.61295">
        <ele>70.7</ele>
        <time>2022-06-12T06:36:02Z</time>
      </trkpt>
      <trkpt lat="44.3013" lon="4.61301">
        <ele>70.9</ele>
        <time>2022-06-12T06:36:03Z</time>
      </trkpt>
      <trkpt lat="44.30129" lon="4.61307">
        <ele>71</ele>
        <time>2022-06-12T06:36:04Z</time>
      </trkpt>
      <trkpt lat="44.30128" lon="4.61311">
        <ele>71.1</ele>
        <time>2022-06-12T06:36:05Z</time>
      </trkpt>
      <trkpt lat="44.30127" lon="4.61315">
        <ele>71.2</ele>
        <time>2022-06-12T06:36:06Z</time>
      </trkpt>
      <trkpt lat="44.30124" lon="4.61318">
        <ele>71.3</ele>
        <time>2022-06-12T06:36:07Z</time>
      </trkpt>
      <trkpt lat="44.30122" lon="4.61322">
        <ele>71.3</ele>
        <time>2022-06-12T06:36:08Z</time>
      </trkpt>
      <trkpt lat="44.3012" lon="4.61326">
        <ele>71.2</ele>
        <time>2022-06-12T06:36:09Z</time>
      </trkpt>
      <trkpt lat="44.30118" lon="4.61334">
        <ele>71.2</ele>
        <time>2022-06-12T06:36:11Z</time>
      </trkpt>
      <trkpt lat="44.30118" lon="4.61342">
        <ele>71.1</ele>
        <time>2022-06-12T06:36:12Z</time>
      </trkpt>
      <trkpt lat="44.30118" lon="4.61349">
        <ele>71</ele>
        <time>2022-06-12T06:36:13Z</time>
      </trkpt>
      <trkpt lat="44.3012" lon="4.61354">
        <ele>70.9</ele>
        <time>2022-06-12T06:36:14Z</time>
      </trkpt>
      <trkpt lat="44.30123" lon="4.61362">
        <ele>71</ele>
        <time>2022-06-12T06:36:16Z</time>
      </trkpt>
      <trkpt lat="44.30129" lon="4.61367">
        <ele>71.2</ele>
        <time>2022-06-12T06:36:17Z</time>
      </trkpt>
      <trkpt lat="44.30133" lon="4.61367">
        <ele>71.3</ele>
        <time>2022-06-12T06:36:18Z</time>
      </trkpt>
      <trkpt lat="44.30137" lon="4.61368">
        <ele>71.4</ele>
        <time>2022-06-12T06:36:19Z</time>
      </trkpt>
      <trkpt lat="44.3014" lon="4.61367">
        <ele>71.4</ele>
        <time>2022-06-12T06:36:20Z</time>
      </trkpt>
      <trkpt lat="44.30144" lon="4.61366">
        <ele>71.5</ele>
        <time>2022-06-12T06:36:21Z</time>
      </trkpt>
      <trkpt lat="44.30149" lon="4.61362">
        <ele>71.7</ele>
        <time>2022-06-12T06:36:23Z</time>
      </trkpt>
      <trkpt lat="44.30156" lon="4.61356">
        <ele>72</ele>
        <time>2022-06-12T06:36:25Z</time>
      </trkpt>
      <trkpt lat="44.3016" lon="4.61354">
        <ele>72.2</ele>
        <time>2022-06-12T06:36:26Z</time>
      </trkpt>
      <trkpt lat="44.30165" lon="4.61353">
        <ele>72.4</ele>
        <time>2022-06-12T06:36:28Z</time>
      </trkpt>
      <trkpt lat="44.30171" lon="4.61352">
        <ele>72.6</ele>
        <time>2022-06-12T06:36:29Z</time>
      </trkpt>
      <trkpt lat="44.30174" lon="4.61351">
        <ele>72.8</ele>
        <time>2022-06-12T06:36:30Z</time>
      </trkpt>
      <trkpt lat="44.30177" lon="4.61351">
        <ele>72.9</ele>
        <time>2022-06-12T06:36:31Z</time>
      </trkpt>
      <trkpt lat="44.3018" lon="4.6135">
        <ele>73.1</ele>
        <time>2022-06-12T06:36:32Z</time>
      </trkpt>
      <trkpt lat="44.30184" lon="4.6135">
        <ele>73.3</ele>
        <time>2022-06-12T06:36:33Z</time>
      </trkpt>
      <trkpt lat="44.30187" lon="4.61349">
        <ele>73.5</ele>
        <time>2022-06-12T06:36:34Z</time>
      </trkpt>
      <trkpt lat="44.3019" lon="4.6135">
        <ele>73.7</ele>
        <time>2022-06-12T06:36:35Z</time>
      </trkpt>
      <trkpt lat="44.30193" lon="4.61349">
        <ele>73.9</ele>
        <time>2022-06-12T06:36:36Z</time>
      </trkpt>
      <trkpt lat="44.30196" lon="4.61349">
        <ele>74.1</ele>
        <time>2022-06-12T06:36:37Z</time>
      </trkpt>
      <trkpt lat="44.30199" lon="4.61348">
        <ele>74.3</ele>
        <time>2022-06-12T06:36:38Z</time>
      </trkpt>
      <trkpt lat="44.30202" lon="4.61348">
        <ele>74.5</ele>
        <time>2022-06-12T06:36:39Z</time>
      </trkpt>
      <trkpt lat="44.30203" lon="4.61348">
        <ele>74.6</ele>
        <time>2022-06-12T06:36:40Z</time>
      </trkpt>
      <trkpt lat="44.30206" lon="4.61348">
        <ele>74.8</ele>
        <time>2022-06-12T06:36:41Z</time>
      </trkpt>
      <trkpt lat="44.30209" lon="4.61347">
        <ele>75</ele>
        <time>2022-06-12T06:36:42Z</time>
      </trkpt>
      <trkpt lat="44.30212" lon="4.61347">
        <ele>75.2</ele>
        <time>2022-06-12T06:36:43Z</time>
      </trkpt>
      <trkpt lat="44.30213" lon="4.61347">
        <ele>75.3</ele>
        <time>2022-06-12T06:36:44Z</time>
      </trkpt>
      <trkpt lat="44.30217" lon="4.61346">
        <ele>75.5</ele>
        <time>2022-06-12T06:36:45Z</time>
      </trkpt>
      <trkpt lat="44.3022" lon="4.61346">
        <ele>75.8</ele>
        <time>2022-06-12T06:36:46Z</time>
      </trkpt>
      <trkpt lat="44.30222" lon="4.61345">
        <ele>75.8</ele>
        <time>2022-06-12T06:36:47Z</time>
      </trkpt>
      <trkpt lat="44.30225" lon="4.61345">
        <ele>76.1</ele>
        <time>2022-06-12T06:36:48Z</time>
      </trkpt>
      <trkpt lat="44.30226" lon="4.61345">
        <ele>76.2</ele>
        <time>2022-06-12T06:36:49Z</time>
      </trkpt>
      <trkpt lat="44.3023" lon="4.61345">
        <ele>76.4</ele>
        <time>2022-06-12T06:36:50Z</time>
      </trkpt>
      <trkpt lat="44.30231" lon="4.61345">
        <ele>76.5</ele>
        <time>2022-06-12T06:36:51Z</time>
      </trkpt>
      <trkpt lat="44.30235" lon="4.61344">
        <ele>76.7</ele>
        <time>2022-06-12T06:36:52Z</time>
      </trkpt>
      <trkpt lat="44.30236" lon="4.61344">
        <ele>76.8</ele>
        <time>2022-06-12T06:36:53Z</time>
      </trkpt>
      <trkpt lat="44.30238" lon="4.61343">
        <ele>77</ele>
        <time>2022-06-12T06:36:54Z</time>
      </trkpt>
      <trkpt lat="44.30242" lon="4.61344">
        <ele>77.2</ele>
        <time>2022-06-12T06:36:56Z</time>
      </trkpt>
      <trkpt lat="44.30245" lon="4.61345">
        <ele>77.4</ele>
        <time>2022-06-12T06:36:57Z</time>
      </trkpt>
      <trkpt lat="44.30246" lon="4.61345">
        <ele>77.4</ele>
        <time>2022-06-12T06:36:58Z</time>
      </trkpt>
      <trkpt lat="44.30249" lon="4.61344">
        <ele>77.6</ele>
        <time>2022-06-12T06:36:59Z</time>
      </trkpt>
      <trkpt lat="44.30251" lon="4.61344">
        <ele>77.7</ele>
        <time>2022-06-12T06:37:00Z</time>
      </trkpt>
      <trkpt lat="44.30254" lon="4.61344">
        <ele>77.8</ele>
        <time>2022-06-12T06:37:01Z</time>
      </trkpt>
      <trkpt lat="44.30255" lon="4.61344">
        <ele>77.9</ele>
        <time>2022-06-12T06:37:02Z</time>
      </trkpt>
      <trkpt lat="44.3026" lon="4.61344">
        <ele>78.1</ele>
        <time>2022-06-12T06:37:04Z</time>
      </trkpt>
      <trkpt lat="44.30263" lon="4.61344">
        <ele>78.4</ele>
        <time>2022-06-12T06:37:05Z</time>
      </trkpt>
      <trkpt lat="44.30265" lon="4.61343">
        <ele>78.6</ele>
        <time>2022-06-12T06:37:06Z</time>
      </trkpt>
      <trkpt lat="44.30267" lon="4.61343">
        <ele>78.8</ele>
        <time>2022-06-12T06:37:07Z</time>
      </trkpt>
      <trkpt lat="44.30272" lon="4.61343">
        <ele>79.4</ele>
        <time>2022-06-12T06:37:09Z</time>
      </trkpt>
      <trkpt lat="44.30276" lon="4.61343">
        <ele>79.8</ele>
        <time>2022-06-12T06:37:10Z</time>
      </trkpt>
      <trkpt lat="44.30277" lon="4.61343">
        <ele>79.9</ele>
        <time>2022-06-12T06:37:11Z</time>
      </trkpt>
      <trkpt lat="44.30281" lon="4.61342">
        <ele>80.3</ele>
        <time>2022-06-12T06:37:12Z</time>
      </trkpt>
      <trkpt lat="44.30282" lon="4.61342">
        <ele>80.5</ele>
        <time>2022-06-12T06:37:13Z</time>
      </trkpt>
      <trkpt lat="44.30286" lon="4.61342">
        <ele>80.6</ele>
        <time>2022-06-12T06:37:14Z</time>
      </trkpt>
      <trkpt lat="44.30287" lon="4.61342">
        <ele>80.6</ele>
        <time>2022-06-12T06:37:15Z</time>
      </trkpt>
      <trkpt lat="44.3029" lon="4.61342">
        <ele>80.8</ele>
        <time>2022-06-12T06:37:16Z</time>
      </trkpt>
      <trkpt lat="44.30293" lon="4.61342">
        <ele>81</ele>
        <time>2022-06-12T06:37:17Z</time>
      </trkpt>
      <trkpt lat="44.30294" lon="4.61342">
        <ele>81.1</ele>
        <time>2022-06-12T06:37:18Z</time>
      </trkpt>
      <trkpt lat="44.30298" lon="4.61342">
        <ele>81.3</ele>
        <time>2022-06-12T06:37:19Z</time>
      </trkpt>
      <trkpt lat="44.30299" lon="4.61342">
        <ele>81.4</ele>
        <time>2022-06-12T06:37:20Z</time>
      </trkpt>
      <trkpt lat="44.30305" lon="4.61341">
        <ele>81.7</ele>
        <time>2022-06-12T06:37:22Z</time>
      </trkpt>
      <trkpt lat="44.30308" lon="4.61341">
        <ele>81.9</ele>
        <time>2022-06-12T06:37:23Z</time>
      </trkpt>
      <trkpt lat="44.30309" lon="4.61341">
        <ele>82</ele>
        <time>2022-06-12T06:37:24Z</time>
      </trkpt>
      <trkpt lat="44.30313" lon="4.61341">
        <ele>82.2</ele>
        <time>2022-06-12T06:37:25Z</time>
      </trkpt>
      <trkpt lat="44.30314" lon="4.61341">
        <ele>82.3</ele>
        <time>2022-06-12T06:37:26Z</time>
      </trkpt>
      <trkpt lat="44.30316" lon="4.6134">
        <ele>82.4</ele>
        <time>2022-06-12T06:37:27Z</time>
      </trkpt>
      <trkpt lat="44.30321" lon="4.6134">
        <ele>82.5</ele>
        <time>2022-06-12T06:37:29Z</time>
      </trkpt>
      <trkpt lat="44.30323" lon="4.6134">
        <ele>82.5</ele>
        <time>2022-06-12T06:37:30Z</time>
      </trkpt>
      <trkpt lat="44.30327" lon="4.61339">
        <ele>82.7</ele>
        <time>2022-06-12T06:37:31Z</time>
      </trkpt>
      <trkpt lat="44.30328" lon="4.6134">
        <ele>82.8</ele>
        <time>2022-06-12T06:37:32Z</time>
      </trkpt>
      <trkpt lat="44.30331" lon="4.61339">
        <ele>83</ele>
        <time>2022-06-12T06:37:33Z</time>
      </trkpt>
      <trkpt lat="44.30332" lon="4.61339">
        <ele>83.1</ele>
        <time>2022-06-12T06:37:34Z</time>
      </trkpt>
      <trkpt lat="44.30336" lon="4.61339">
        <ele>83.3</ele>
        <time>2022-06-12T06:37:35Z</time>
      </trkpt>
      <trkpt lat="44.30337" lon="4.61339">
        <ele>83.4</ele>
        <time>2022-06-12T06:37:36Z</time>
      </trkpt>
      <trkpt lat="44.3034" lon="4.61339">
        <ele>83.6</ele>
        <time>2022-06-12T06:37:37Z</time>
      </trkpt>
      <trkpt lat="44.30341" lon="4.61339">
        <ele>83.6</ele>
        <time>2022-06-12T06:37:38Z</time>
      </trkpt>
      <trkpt lat="44.30344" lon="4.61339">
        <ele>83.8</ele>
        <time>2022-06-12T06:37:39Z</time>
      </trkpt>
      <trkpt lat="44.30345" lon="4.61338">
        <ele>83.8</ele>
        <time>2022-06-12T06:37:40Z</time>
      </trkpt>
      <trkpt lat="44.30349" lon="4.61338">
        <ele>84.1</ele>
        <time>2022-06-12T06:37:41Z</time>
      </trkpt>
      <trkpt lat="44.3035" lon="4.61337">
        <ele>84.1</ele>
        <time>2022-06-12T06:37:42Z</time>
      </trkpt>
      <trkpt lat="44.30354" lon="4.61337">
        <ele>84.3</ele>
        <time>2022-06-12T06:37:43Z</time>
      </trkpt>
      <trkpt lat="44.30355" lon="4.61337">
        <ele>84.4</ele>
        <time>2022-06-12T06:37:44Z</time>
      </trkpt>
      <trkpt lat="44.30359" lon="4.61336">
        <ele>84.6</ele>
        <time>2022-06-12T06:37:45Z</time>
      </trkpt>
      <trkpt lat="44.3036" lon="4.61336">
        <ele>84.6</ele>
        <time>2022-06-12T06:37:46Z</time>
      </trkpt>
      <trkpt lat="44.30363" lon="4.61335">
        <ele>84.8</ele>
        <time>2022-06-12T06:37:47Z</time>
      </trkpt>
      <trkpt lat="44.30366" lon="4.61334">
        <ele>85</ele>
        <time>2022-06-12T06:37:48Z</time>
      </trkpt>
      <trkpt lat="44.30367" lon="4.61334">
        <ele>85</ele>
        <time>2022-06-12T06:37:49Z</time>
      </trkpt>
      <trkpt lat="44.30371" lon="4.61332">
        <ele>85.2</ele>
        <time>2022-06-12T06:37:50Z</time>
      </trkpt>
      <trkpt lat="44.30372" lon="4.61331">
        <ele>85.3</ele>
        <time>2022-06-12T06:37:51Z</time>
      </trkpt>
      <trkpt lat="44.30374" lon="4.61331">
        <ele>85.4</ele>
        <time>2022-06-12T06:37:52Z</time>
      </trkpt>
      <trkpt lat="44.30379" lon="4.61329">
        <ele>85.6</ele>
        <time>2022-06-12T06:37:54Z</time>
      </trkpt>
      <trkpt lat="44.30383" lon="4.61328">
        <ele>85.9</ele>
        <time>2022-06-12T06:37:56Z</time>
      </trkpt>
      <trkpt lat="44.30388" lon="4.61326">
        <ele>86.1</ele>
        <time>2022-06-12T06:37:58Z</time>
      </trkpt>
      <trkpt lat="44.30392" lon="4.61324">
        <ele>86.3</ele>
        <time>2022-06-12T06:38:00Z</time>
      </trkpt>
      <trkpt lat="44.30396" lon="4.61323">
        <ele>86.4</ele>
        <time>2022-06-12T06:38:02Z</time>
      </trkpt>
      <trkpt lat="44.304" lon="4.61323">
        <ele>86.5</ele>
        <time>2022-06-12T06:38:03Z</time>
      </trkpt>
      <trkpt lat="44.30402" lon="4.61322">
        <ele>86.5</ele>
        <time>2022-06-12T06:38:04Z</time>
      </trkpt>
      <trkpt lat="44.30405" lon="4.61321">
        <ele>86.6</ele>
        <time>2022-06-12T06:38:05Z</time>
      </trkpt>
      <trkpt lat="44.3041" lon="4.6132">
        <ele>86.6</ele>
        <time>2022-06-12T06:38:06Z</time>
      </trkpt>
      <trkpt lat="44.30411" lon="4.6132">
        <ele>86.6</ele>
        <time>2022-06-12T06:38:07Z</time>
      </trkpt>
      <trkpt lat="44.30415" lon="4.61319">
        <ele>86.8</ele>
        <time>2022-06-12T06:38:08Z</time>
      </trkpt>
      <trkpt lat="44.30417" lon="4.61319">
        <ele>86.8</ele>
        <time>2022-06-12T06:38:09Z</time>
      </trkpt>
      <trkpt lat="44.30419" lon="4.61318">
        <ele>86.9</ele>
        <time>2022-06-12T06:38:10Z</time>
      </trkpt>
      <trkpt lat="44.30425" lon="4.61318">
        <ele>87</ele>
        <time>2022-06-12T06:38:12Z</time>
      </trkpt>
      <trkpt lat="44.30428" lon="4.61317">
        <ele>87.1</ele>
        <time>2022-06-12T06:38:13Z</time>
      </trkpt>
      <trkpt lat="44.30434" lon="4.61318">
        <ele>87.3</ele>
        <time>2022-06-12T06:38:15Z</time>
      </trkpt>
      <trkpt lat="44.30438" lon="4.61318">
        <ele>87.4</ele>
        <time>2022-06-12T06:38:16Z</time>
      </trkpt>
      <trkpt lat="44.30441" lon="4.61317">
        <ele>87.5</ele>
        <time>2022-06-12T06:38:17Z</time>
      </trkpt>
      <trkpt lat="44.30444" lon="4.61317">
        <ele>87.5</ele>
        <time>2022-06-12T06:38:18Z</time>
      </trkpt>
      <trkpt lat="44.30446" lon="4.61318">
        <ele>87.6</ele>
        <time>2022-06-12T06:38:19Z</time>
      </trkpt>
      <trkpt lat="44.30449" lon="4.61318">
        <ele>87.7</ele>
        <time>2022-06-12T06:38:20Z</time>
      </trkpt>
      <trkpt lat="44.30452" lon="4.6132">
        <ele>87.8</ele>
        <time>2022-06-12T06:38:21Z</time>
      </trkpt>
      <trkpt lat="44.30455" lon="4.6132">
        <ele>87.9</ele>
        <time>2022-06-12T06:38:22Z</time>
      </trkpt>
      <trkpt lat="44.30458" lon="4.6132">
        <ele>87.9</ele>
        <time>2022-06-12T06:38:23Z</time>
      </trkpt>
      <trkpt lat="44.30461" lon="4.6132">
        <ele>88</ele>
        <time>2022-06-12T06:38:24Z</time>
      </trkpt>
      <trkpt lat="44.30464" lon="4.6132">
        <ele>88.1</ele>
        <time>2022-06-12T06:38:25Z</time>
      </trkpt>
      <trkpt lat="44.30468" lon="4.61319">
        <ele>88.2</ele>
        <time>2022-06-12T06:38:26Z</time>
      </trkpt>
      <trkpt lat="44.3047" lon="4.61319">
        <ele>88.3</ele>
        <time>2022-06-12T06:38:27Z</time>
      </trkpt>
      <trkpt lat="44.30472" lon="4.61319">
        <ele>88.3</ele>
        <time>2022-06-12T06:38:28Z</time>
      </trkpt>
      <trkpt lat="44.30477" lon="4.61319">
        <ele>88.5</ele>
        <time>2022-06-12T06:38:29Z</time>
      </trkpt>
      <trkpt lat="44.30479" lon="4.61319">
        <ele>88.5</ele>
        <time>2022-06-12T06:38:30Z</time>
      </trkpt>
      <trkpt lat="44.30485" lon="4.6132">
        <ele>88.6</ele>
        <time>2022-06-12T06:38:32Z</time>
      </trkpt>
      <trkpt lat="44.30488" lon="4.6132">
        <ele>88.7</ele>
        <time>2022-06-12T06:38:33Z</time>
      </trkpt>
      <trkpt lat="44.30492" lon="4.6132">
        <ele>88.8</ele>
        <time>2022-06-12T06:38:34Z</time>
      </trkpt>
      <trkpt lat="44.30494" lon="4.6132">
        <ele>88.8</ele>
        <time>2022-06-12T06:38:35Z</time>
      </trkpt>
      <trkpt lat="44.30497" lon="4.6132">
        <ele>88.9</ele>
        <time>2022-06-12T06:38:36Z</time>
      </trkpt>
      <trkpt lat="44.305" lon="4.6132">
        <ele>89</ele>
        <time>2022-06-12T06:38:37Z</time>
      </trkpt>
      <trkpt lat="44.30503" lon="4.6132">
        <ele>89</ele>
        <time>2022-06-12T06:38:38Z</time>
      </trkpt>
      <trkpt lat="44.30507" lon="4.6132">
        <ele>89.1</ele>
        <time>2022-06-12T06:38:39Z</time>
      </trkpt>
      <trkpt lat="44.3051" lon="4.6132">
        <ele>89.1</ele>
        <time>2022-06-12T06:38:40Z</time>
      </trkpt>
      <trkpt lat="44.30513" lon="4.6132">
        <ele>89.2</ele>
        <time>2022-06-12T06:38:41Z</time>
      </trkpt>
      <trkpt lat="44.30517" lon="4.6132">
        <ele>89.3</ele>
        <time>2022-06-12T06:38:42Z</time>
      </trkpt>
      <trkpt lat="44.3052" lon="4.61321">
        <ele>89.3</ele>
        <time>2022-06-12T06:38:43Z</time>
      </trkpt>
      <trkpt lat="44.30524" lon="4.61321">
        <ele>89.4</ele>
        <time>2022-06-12T06:38:44Z</time>
      </trkpt>
      <trkpt lat="44.30528" lon="4.61321">
        <ele>89.4</ele>
        <time>2022-06-12T06:38:45Z</time>
      </trkpt>
      <trkpt lat="44.30532" lon="4.61322">
        <ele>89.5</ele>
        <time>2022-06-12T06:38:46Z</time>
      </trkpt>
      <trkpt lat="44.30535" lon="4.61322">
        <ele>89.5</ele>
        <time>2022-06-12T06:38:47Z</time>
      </trkpt>
      <trkpt lat="44.30541" lon="4.61323">
        <ele>89.6</ele>
        <time>2022-06-12T06:38:49Z</time>
      </trkpt>
      <trkpt lat="44.30545" lon="4.61324">
        <ele>89.7</ele>
        <time>2022-06-12T06:38:50Z</time>
      </trkpt>
      <trkpt lat="44.30551" lon="4.61324">
        <ele>89.7</ele>
        <time>2022-06-12T06:38:51Z</time>
      </trkpt>
      <trkpt lat="44.30554" lon="4.61325">
        <ele>89.8</ele>
        <time>2022-06-12T06:38:52Z</time>
      </trkpt>
      <trkpt lat="44.3056" lon="4.61326">
        <ele>89.9</ele>
        <time>2022-06-12T06:38:54Z</time>
      </trkpt>
      <trkpt lat="44.30565" lon="4.61326">
        <ele>89.9</ele>
        <time>2022-06-12T06:38:55Z</time>
      </trkpt>
      <trkpt lat="44.30572" lon="4.61327">
        <ele>90</ele>
        <time>2022-06-12T06:38:57Z</time>
      </trkpt>
      <trkpt lat="44.30581" lon="4.61329">
        <ele>90</ele>
        <time>2022-06-12T06:38:58Z</time>
      </trkpt>
      <trkpt lat="44.30586" lon="4.61329">
        <ele>90</ele>
        <time>2022-06-12T06:38:59Z</time>
      </trkpt>
      <trkpt lat="44.30591" lon="4.6133">
        <ele>90</ele>
        <time>2022-06-12T06:39:00Z</time>
      </trkpt>
      <trkpt lat="44.30596" lon="4.6133">
        <ele>90</ele>
        <time>2022-06-12T06:39:01Z</time>
      </trkpt>
      <trkpt lat="44.306" lon="4.6133">
        <ele>90</ele>
        <time>2022-06-12T06:39:02Z</time>
      </trkpt>
      <trkpt lat="44.30605" lon="4.61331">
        <ele>90</ele>
        <time>2022-06-12T06:39:03Z</time>
      </trkpt>
      <trkpt lat="44.3061" lon="4.61331">
        <ele>89.9</ele>
        <time>2022-06-12T06:39:04Z</time>
      </trkpt>
      <trkpt lat="44.30615" lon="4.61331">
        <ele>89.9</ele>
        <time>2022-06-12T06:39:05Z</time>
      </trkpt>
      <trkpt lat="44.3062" lon="4.61331">
        <ele>89.9</ele>
        <time>2022-06-12T06:39:06Z</time>
      </trkpt>
      <trkpt lat="44.30625" lon="4.61331">
        <ele>89.8</ele>
        <time>2022-06-12T06:39:07Z</time>
      </trkpt>
      <trkpt lat="44.3063" lon="4.61332">
        <ele>89.8</ele>
        <time>2022-06-12T06:39:08Z</time>
      </trkpt>
      <trkpt lat="44.30636" lon="4.61332">
        <ele>89.8</ele>
        <time>2022-06-12T06:39:09Z</time>
      </trkpt>
      <trkpt lat="44.30641" lon="4.61333">
        <ele>89.8</ele>
        <time>2022-06-12T06:39:10Z</time>
      </trkpt>
      <trkpt lat="44.30646" lon="4.61333">
        <ele>89.7</ele>
        <time>2022-06-12T06:39:11Z</time>
      </trkpt>
      <trkpt lat="44.30652" lon="4.61334">
        <ele>89.7</ele>
        <time>2022-06-12T06:39:12Z</time>
      </trkpt>
      <trkpt lat="44.30657" lon="4.61334">
        <ele>89.7</ele>
        <time>2022-06-12T06:39:13Z</time>
      </trkpt>
      <trkpt lat="44.30662" lon="4.61334">
        <ele>89.7</ele>
        <time>2022-06-12T06:39:14Z</time>
      </trkpt>
      <trkpt lat="44.30668" lon="4.61335">
        <ele>89.6</ele>
        <time>2022-06-12T06:39:15Z</time>
      </trkpt>
      <trkpt lat="44.30673" lon="4.61335">
        <ele>89.6</ele>
        <time>2022-06-12T06:39:16Z</time>
      </trkpt>
      <trkpt lat="44.30679" lon="4.61336">
        <ele>89.6</ele>
        <time>2022-06-12T06:39:17Z</time>
      </trkpt>
      <trkpt lat="44.30685" lon="4.61337">
        <ele>89.6</ele>
        <time>2022-06-12T06:39:18Z</time>
      </trkpt>
      <trkpt lat="44.3069" lon="4.61337">
        <ele>89.6</ele>
        <time>2022-06-12T06:39:19Z</time>
      </trkpt>
      <trkpt lat="44.30696" lon="4.61337">
        <ele>89.6</ele>
        <time>2022-06-12T06:39:20Z</time>
      </trkpt>
      <trkpt lat="44.30702" lon="4.61337">
        <ele>89.7</ele>
        <time>2022-06-12T06:39:21Z</time>
      </trkpt>
      <trkpt lat="44.30707" lon="4.61338">
        <ele>89.7</ele>
        <time>2022-06-12T06:39:22Z</time>
      </trkpt>
      <trkpt lat="44.30713" lon="4.61338">
        <ele>89.7</ele>
        <time>2022-06-12T06:39:23Z</time>
      </trkpt>
      <trkpt lat="44.30718" lon="4.61339">
        <ele>89.7</ele>
        <time>2022-06-12T06:39:24Z</time>
      </trkpt>
      <trkpt lat="44.30723" lon="4.61339">
        <ele>89.8</ele>
        <time>2022-06-12T06:39:25Z</time>
      </trkpt>
      <trkpt lat="44.30728" lon="4.6134">
        <ele>89.8</ele>
        <time>2022-06-12T06:39:26Z</time>
      </trkpt>
      <trkpt lat="44.30733" lon="4.6134">
        <ele>89.8</ele>
        <time>2022-06-12T06:39:27Z</time>
      </trkpt>
      <trkpt lat="44.30738" lon="4.6134">
        <ele>89.8</ele>
        <time>2022-06-12T06:39:28Z</time>
      </trkpt>
      <trkpt lat="44.30743" lon="4.61341">
        <ele>89.9</ele>
        <time>2022-06-12T06:39:29Z</time>
      </trkpt>
      <trkpt lat="44.30748" lon="4.61343">
        <ele>89.9</ele>
        <time>2022-06-12T06:39:30Z</time>
      </trkpt>
      <trkpt lat="44.30752" lon="4.61344">
        <ele>89.9</ele>
        <time>2022-06-12T06:39:31Z</time>
      </trkpt>
      <trkpt lat="44.30756" lon="4.61346">
        <ele>90</ele>
        <time>2022-06-12T06:39:32Z</time>
      </trkpt>
      <trkpt lat="44.30761" lon="4.61347">
        <ele>90</ele>
        <time>2022-06-12T06:39:33Z</time>
      </trkpt>
      <trkpt lat="44.30764" lon="4.61349">
        <ele>90</ele>
        <time>2022-06-12T06:39:34Z</time>
      </trkpt>
      <trkpt lat="44.30769" lon="4.61351">
        <ele>90.1</ele>
        <time>2022-06-12T06:39:35Z</time>
      </trkpt>
      <trkpt lat="44.30772" lon="4.61353">
        <ele>90.1</ele>
        <time>2022-06-12T06:39:36Z</time>
      </trkpt>
      <trkpt lat="44.30776" lon="4.61355">
        <ele>90.1</ele>
        <time>2022-06-12T06:39:37Z</time>
      </trkpt>
      <trkpt lat="44.3078" lon="4.61355">
        <ele>90.2</ele>
        <time>2022-06-12T06:39:38Z</time>
      </trkpt>
      <trkpt lat="44.30784" lon="4.61355">
        <ele>90.2</ele>
        <time>2022-06-12T06:39:39Z</time>
      </trkpt>
      <trkpt lat="44.30788" lon="4.61355">
        <ele>90.2</ele>
        <time>2022-06-12T06:39:40Z</time>
      </trkpt>
      <trkpt lat="44.30791" lon="4.61354">
        <ele>90.2</ele>
        <time>2022-06-12T06:39:41Z</time>
      </trkpt>
      <trkpt lat="44.30797" lon="4.61353">
        <ele>90.3</ele>
        <time>2022-06-12T06:39:42Z</time>
      </trkpt>
      <trkpt lat="44.30801" lon="4.61352">
        <ele>90.3</ele>
        <time>2022-06-12T06:39:43Z</time>
      </trkpt>
      <trkpt lat="44.30806" lon="4.61352">
        <ele>90.3</ele>
        <time>2022-06-12T06:39:44Z</time>
      </trkpt>
      <trkpt lat="44.30811" lon="4.61351">
        <ele>90.3</ele>
        <time>2022-06-12T06:39:45Z</time>
      </trkpt>
      <trkpt lat="44.30816" lon="4.61351">
        <ele>90.4</ele>
        <time>2022-06-12T06:39:46Z</time>
      </trkpt>
      <trkpt lat="44.30821" lon="4.61351">
        <ele>90.4</ele>
        <time>2022-06-12T06:39:47Z</time>
      </trkpt>
      <trkpt lat="44.30827" lon="4.6135">
        <ele>90.4</ele>
        <time>2022-06-12T06:39:48Z</time>
      </trkpt>
      <trkpt lat="44.30832" lon="4.61351">
        <ele>90.4</ele>
        <time>2022-06-12T06:39:49Z</time>
      </trkpt>
      <trkpt lat="44.30838" lon="4.61351">
        <ele>90.4</ele>
        <time>2022-06-12T06:39:50Z</time>
      </trkpt>
      <trkpt lat="44.30843" lon="4.61352">
        <ele>90.4</ele>
        <time>2022-06-12T06:39:51Z</time>
      </trkpt>
      <trkpt lat="44.30848" lon="4.61353">
        <ele>90.4</ele>
        <time>2022-06-12T06:39:52Z</time>
      </trkpt>
      <trkpt lat="44.30853" lon="4.61354">
        <ele>90.5</ele>
        <time>2022-06-12T06:39:53Z</time>
      </trkpt>
      <trkpt lat="44.30858" lon="4.61356">
        <ele>90.5</ele>
        <time>2022-06-12T06:39:54Z</time>
      </trkpt>
      <trkpt lat="44.30864" lon="4.61357">
        <ele>90.5</ele>
        <time>2022-06-12T06:39:55Z</time>
      </trkpt>
      <trkpt lat="44.30869" lon="4.61358">
        <ele>90.5</ele>
        <time>2022-06-12T06:39:56Z</time>
      </trkpt>
      <trkpt lat="44.30873" lon="4.6136">
        <ele>90.6</ele>
        <time>2022-06-12T06:39:57Z</time>
      </trkpt>
      <trkpt lat="44.30878" lon="4.61361">
        <ele>90.6</ele>
        <time>2022-06-12T06:39:58Z</time>
      </trkpt>
      <trkpt lat="44.30883" lon="4.61362">
        <ele>90.6</ele>
        <time>2022-06-12T06:39:59Z</time>
      </trkpt>
      <trkpt lat="44.30888" lon="4.61363">
        <ele>90.6</ele>
        <time>2022-06-12T06:40:00Z</time>
      </trkpt>
      <trkpt lat="44.30893" lon="4.61364">
        <ele>90.7</ele>
        <time>2022-06-12T06:40:01Z</time>
      </trkpt>
      <trkpt lat="44.30898" lon="4.61364">
        <ele>90.7</ele>
        <time>2022-06-12T06:40:02Z</time>
      </trkpt>
      <trkpt lat="44.30903" lon="4.61365">
        <ele>90.7</ele>
        <time>2022-06-12T06:40:03Z</time>
      </trkpt>
      <trkpt lat="44.30907" lon="4.61366">
        <ele>90.7</ele>
        <time>2022-06-12T06:40:04Z</time>
      </trkpt>
      <trkpt lat="44.30912" lon="4.61368">
        <ele>90.7</ele>
        <time>2022-06-12T06:40:05Z</time>
      </trkpt>
      <trkpt lat="44.30917" lon="4.61369">
        <ele>90.7</ele>
        <time>2022-06-12T06:40:06Z</time>
      </trkpt>
      <trkpt lat="44.30922" lon="4.6137">
        <ele>90.8</ele>
        <time>2022-06-12T06:40:07Z</time>
      </trkpt>
      <trkpt lat="44.30927" lon="4.61371">
        <ele>90.8</ele>
        <time>2022-06-12T06:40:08Z</time>
      </trkpt>
      <trkpt lat="44.30931" lon="4.61372">
        <ele>90.8</ele>
        <time>2022-06-12T06:40:09Z</time>
      </trkpt>
      <trkpt lat="44.30936" lon="4.61373">
        <ele>90.9</ele>
        <time>2022-06-12T06:40:10Z</time>
      </trkpt>
      <trkpt lat="44.30941" lon="4.61374">
        <ele>90.9</ele>
        <time>2022-06-12T06:40:11Z</time>
      </trkpt>
      <trkpt lat="44.30945" lon="4.61375">
        <ele>90.9</ele>
        <time>2022-06-12T06:40:12Z</time>
      </trkpt>
      <trkpt lat="44.3095" lon="4.61376">
        <ele>90.9</ele>
        <time>2022-06-12T06:40:13Z</time>
      </trkpt>
      <trkpt lat="44.30955" lon="4.61378">
        <ele>91</ele>
        <time>2022-06-12T06:40:14Z</time>
      </trkpt>
      <trkpt lat="44.30959" lon="4.61379">
        <ele>91</ele>
        <time>2022-06-12T06:40:15Z</time>
      </trkpt>
      <trkpt lat="44.30964" lon="4.6138">
        <ele>91</ele>
        <time>2022-06-12T06:40:16Z</time>
      </trkpt>
      <trkpt lat="44.30969" lon="4.61382">
        <ele>91</ele>
        <time>2022-06-12T06:40:17Z</time>
      </trkpt>
      <trkpt lat="44.30974" lon="4.61383">
        <ele>91.1</ele>
        <time>2022-06-12T06:40:18Z</time>
      </trkpt>
      <trkpt lat="44.30978" lon="4.61385">
        <ele>91.1</ele>
        <time>2022-06-12T06:40:19Z</time>
      </trkpt>
      <trkpt lat="44.30983" lon="4.61387">
        <ele>91.1</ele>
        <time>2022-06-12T06:40:20Z</time>
      </trkpt>
      <trkpt lat="44.30987" lon="4.61388">
        <ele>91.1</ele>
        <time>2022-06-12T06:40:21Z</time>
      </trkpt>
      <trkpt lat="44.30992" lon="4.6139">
        <ele>91.2</ele>
        <time>2022-06-12T06:40:22Z</time>
      </trkpt>
      <trkpt lat="44.30997" lon="4.61391">
        <ele>91.2</ele>
        <time>2022-06-12T06:40:23Z</time>
      </trkpt>
      <trkpt lat="44.31001" lon="4.61393">
        <ele>91.2</ele>
        <time>2022-06-12T06:40:24Z</time>
      </trkpt>
      <trkpt lat="44.31006" lon="4.61395">
        <ele>91.3</ele>
        <time>2022-06-12T06:40:25Z</time>
      </trkpt>
      <trkpt lat="44.31011" lon="4.61397">
        <ele>91.3</ele>
        <time>2022-06-12T06:40:26Z</time>
      </trkpt>
      <trkpt lat="44.31015" lon="4.61399">
        <ele>91.4</ele>
        <time>2022-06-12T06:40:27Z</time>
      </trkpt>
      <trkpt lat="44.3102" lon="4.614">
        <ele>91.4</ele>
        <time>2022-06-12T06:40:28Z</time>
      </trkpt>
      <trkpt lat="44.31024" lon="4.61402">
        <ele>91.5</ele>
        <time>2022-06-12T06:40:29Z</time>
      </trkpt>
      <trkpt lat="44.31029" lon="4.61404">
        <ele>91.5</ele>
        <time>2022-06-12T06:40:30Z</time>
      </trkpt>
      <trkpt lat="44.31034" lon="4.61406">
        <ele>91.5</ele>
        <time>2022-06-12T06:40:31Z</time>
      </trkpt>
      <trkpt lat="44.31038" lon="4.61408">
        <ele>91.5</ele>
        <time>2022-06-12T06:40:32Z</time>
      </trkpt>
      <trkpt lat="44.31043" lon="4.6141">
        <ele>91.6</ele>
        <time>2022-06-12T06:40:33Z</time>
      </trkpt>
      <trkpt lat="44.31048" lon="4.61412">
        <ele>91.6</ele>
        <time>2022-06-12T06:40:34Z</time>
      </trkpt>
      <trkpt lat="44.31052" lon="4.61415">
        <ele>91.6</ele>
        <time>2022-06-12T06:40:35Z</time>
      </trkpt>
      <trkpt lat="44.31057" lon="4.61417">
        <ele>91.6</ele>
        <time>2022-06-12T06:40:36Z</time>
      </trkpt>
      <trkpt lat="44.31062" lon="4.61419">
        <ele>91.6</ele>
        <time>2022-06-12T06:40:37Z</time>
      </trkpt>
      <trkpt lat="44.31067" lon="4.61421">
        <ele>91.6</ele>
        <time>2022-06-12T06:40:38Z</time>
      </trkpt>
      <trkpt lat="44.31072" lon="4.61423">
        <ele>91.7</ele>
        <time>2022-06-12T06:40:39Z</time>
      </trkpt>
      <trkpt lat="44.31077" lon="4.61425">
        <ele>91.7</ele>
        <time>2022-06-12T06:40:40Z</time>
      </trkpt>
      <trkpt lat="44.31082" lon="4.61427">
        <ele>91.7</ele>
        <time>2022-06-12T06:40:41Z</time>
      </trkpt>
      <trkpt lat="44.31087" lon="4.61429">
        <ele>91.8</ele>
        <time>2022-06-12T06:40:42Z</time>
      </trkpt>
      <trkpt lat="44.31092" lon="4.61431">
        <ele>91.8</ele>
        <time>2022-06-12T06:40:43Z</time>
      </trkpt>
      <trkpt lat="44.31097" lon="4.61433">
        <ele>91.8</ele>
        <time>2022-06-12T06:40:44Z</time>
      </trkpt>
      <trkpt lat="44.31102" lon="4.61436">
        <ele>91.8</ele>
        <time>2022-06-12T06:40:45Z</time>
      </trkpt>
      <trkpt lat="44.31106" lon="4.61438">
        <ele>91.8</ele>
        <time>2022-06-12T06:40:46Z</time>
      </trkpt>
      <trkpt lat="44.31111" lon="4.61439">
        <ele>91.8</ele>
        <time>2022-06-12T06:40:47Z</time>
      </trkpt>
      <trkpt lat="44.31116" lon="4.61441">
        <ele>91.9</ele>
        <time>2022-06-12T06:40:48Z</time>
      </trkpt>
      <trkpt lat="44.31121" lon="4.61443">
        <ele>91.9</ele>
        <time>2022-06-12T06:40:49Z</time>
      </trkpt>
      <trkpt lat="44.31125" lon="4.61445">
        <ele>91.9</ele>
        <time>2022-06-12T06:40:50Z</time>
      </trkpt>
      <trkpt lat="44.3113" lon="4.61447">
        <ele>91.9</ele>
        <time>2022-06-12T06:40:51Z</time>
      </trkpt>
      <trkpt lat="44.31135" lon="4.6145">
        <ele>91.9</ele>
        <time>2022-06-12T06:40:52Z</time>
      </trkpt>
      <trkpt lat="44.3114" lon="4.61452">
        <ele>91.9</ele>
        <time>2022-06-12T06:40:53Z</time>
      </trkpt>
      <trkpt lat="44.31145" lon="4.61454">
        <ele>92</ele>
        <time>2022-06-12T06:40:54Z</time>
      </trkpt>
      <trkpt lat="44.3115" lon="4.61456">
        <ele>92</ele>
        <time>2022-06-12T06:40:55Z</time>
      </trkpt>
      <trkpt lat="44.31155" lon="4.61458">
        <ele>92</ele>
        <time>2022-06-12T06:40:56Z</time>
      </trkpt>
      <trkpt lat="44.31159" lon="4.6146">
        <ele>92</ele>
        <time>2022-06-12T06:40:57Z</time>
      </trkpt>
      <trkpt lat="44.31164" lon="4.61462">
        <ele>92.1</ele>
        <time>2022-06-12T06:40:58Z</time>
      </trkpt>
      <trkpt lat="44.31169" lon="4.61464">
        <ele>92.1</ele>
        <time>2022-06-12T06:40:59Z</time>
      </trkpt>
      <trkpt lat="44.31174" lon="4.61466">
        <ele>92.1</ele>
        <time>2022-06-12T06:41:00Z</time>
      </trkpt>
      <trkpt lat="44.31179" lon="4.61469">
        <ele>92.1</ele>
        <time>2022-06-12T06:41:01Z</time>
      </trkpt>
      <trkpt lat="44.31184" lon="4.61471">
        <ele>92.1</ele>
        <time>2022-06-12T06:41:02Z</time>
      </trkpt>
      <trkpt lat="44.31189" lon="4.61474">
        <ele>92.2</ele>
        <time>2022-06-12T06:41:03Z</time>
      </trkpt>
      <trkpt lat="44.31194" lon="4.61476">
        <ele>92.2</ele>
        <time>2022-06-12T06:41:04Z</time>
      </trkpt>
      <trkpt lat="44.31199" lon="4.61479">
        <ele>92.2</ele>
        <time>2022-06-12T06:41:05Z</time>
      </trkpt>
      <trkpt lat="44.31204" lon="4.61481">
        <ele>92.2</ele>
        <time>2022-06-12T06:41:06Z</time>
      </trkpt>
      <trkpt lat="44.31209" lon="4.61484">
        <ele>92.2</ele>
        <time>2022-06-12T06:41:07Z</time>
      </trkpt>
      <trkpt lat="44.31214" lon="4.61486">
        <ele>92.2</ele>
        <time>2022-06-12T06:41:08Z</time>
      </trkpt>
      <trkpt lat="44.31218" lon="4.61489">
        <ele>92.2</ele>
        <time>2022-06-12T06:41:09Z</time>
      </trkpt>
      <trkpt lat="44.31223" lon="4.61493">
        <ele>92.2</ele>
        <time>2022-06-12T06:41:10Z</time>
      </trkpt>
      <trkpt lat="44.31228" lon="4.61495">
        <ele>92.2</ele>
        <time>2022-06-12T06:41:11Z</time>
      </trkpt>
      <trkpt lat="44.31233" lon="4.61499">
        <ele>92.2</ele>
        <time>2022-06-12T06:41:12Z</time>
      </trkpt>
      <trkpt lat="44.31238" lon="4.61502">
        <ele>92.2</ele>
        <time>2022-06-12T06:41:13Z</time>
      </trkpt>
      <trkpt lat="44.31243" lon="4.61505">
        <ele>92.2</ele>
        <time>2022-06-12T06:41:14Z</time>
      </trkpt>
      <trkpt lat="44.31247" lon="4.61508">
        <ele>92.3</ele>
        <time>2022-06-12T06:41:15Z</time>
      </trkpt>
      <trkpt lat="44.31252" lon="4.61512">
        <ele>92.3</ele>
        <time>2022-06-12T06:41:16Z</time>
      </trkpt>
      <trkpt lat="44.31257" lon="4.61515">
        <ele>92.4</ele>
        <time>2022-06-12T06:41:17Z</time>
      </trkpt>
      <trkpt lat="44.31261" lon="4.61519">
        <ele>92.4</ele>
        <time>2022-06-12T06:41:18Z</time>
      </trkpt>
      <trkpt lat="44.31266" lon="4.61522">
        <ele>92.5</ele>
        <time>2022-06-12T06:41:19Z</time>
      </trkpt>
      <trkpt lat="44.3127" lon="4.61526">
        <ele>92.5</ele>
        <time>2022-06-12T06:41:20Z</time>
      </trkpt>
      <trkpt lat="44.31274" lon="4.61529">
        <ele>92.6</ele>
        <time>2022-06-12T06:41:21Z</time>
      </trkpt>
      <trkpt lat="44.31279" lon="4.61533">
        <ele>92.7</ele>
        <time>2022-06-12T06:41:22Z</time>
      </trkpt>
      <trkpt lat="44.31283" lon="4.61537">
        <ele>92.7</ele>
        <time>2022-06-12T06:41:23Z</time>
      </trkpt>
      <trkpt lat="44.31287" lon="4.61542">
        <ele>92.8</ele>
        <time>2022-06-12T06:41:24Z</time>
      </trkpt>
      <trkpt lat="44.31291" lon="4.61546">
        <ele>92.8</ele>
        <time>2022-06-12T06:41:25Z</time>
      </trkpt>
      <trkpt lat="44.31295" lon="4.6155">
        <ele>92.8</ele>
        <time>2022-06-12T06:41:26Z</time>
      </trkpt>
      <trkpt lat="44.31299" lon="4.61554">
        <ele>92.8</ele>
        <time>2022-06-12T06:41:27Z</time>
      </trkpt>
      <trkpt lat="44.31303" lon="4.61558">
        <ele>92.9</ele>
        <time>2022-06-12T06:41:28Z</time>
      </trkpt>
      <trkpt lat="44.31307" lon="4.61562">
        <ele>92.9</ele>
        <time>2022-06-12T06:41:29Z</time>
      </trkpt>
      <trkpt lat="44.3131" lon="4.61566">
        <ele>92.9</ele>
        <time>2022-06-12T06:41:30Z</time>
      </trkpt>
      <trkpt lat="44.31313" lon="4.61569">
        <ele>93</ele>
        <time>2022-06-12T06:41:31Z</time>
      </trkpt>
      <trkpt lat="44.31316" lon="4.61573">
        <ele>93</ele>
        <time>2022-06-12T06:41:32Z</time>
      </trkpt>
      <trkpt lat="44.31319" lon="4.61576">
        <ele>93</ele>
        <time>2022-06-12T06:41:33Z</time>
      </trkpt>
      <trkpt lat="44.31322" lon="4.61579">
        <ele>93</ele>
        <time>2022-06-12T06:41:34Z</time>
      </trkpt>
      <trkpt lat="44.31326" lon="4.61584">
        <ele>93.1</ele>
        <time>2022-06-12T06:41:35Z</time>
      </trkpt>
      <trkpt lat="44.31333" lon="4.61592">
        <ele>93.2</ele>
        <time>2022-06-12T06:41:37Z</time>
      </trkpt>
      <trkpt lat="44.31337" lon="4.61597">
        <ele>93.2</ele>
        <time>2022-06-12T06:41:38Z</time>
      </trkpt>
      <trkpt lat="44.31341" lon="4.61602">
        <ele>93.2</ele>
        <time>2022-06-12T06:41:39Z</time>
      </trkpt>
      <trkpt lat="44.31345" lon="4.61606">
        <ele>93.2</ele>
        <time>2022-06-12T06:41:40Z</time>
      </trkpt>
      <trkpt lat="44.31348" lon="4.61611">
        <ele>93.3</ele>
        <time>2022-06-12T06:41:41Z</time>
      </trkpt>
      <trkpt lat="44.31352" lon="4.61615">
        <ele>93.3</ele>
        <time>2022-06-12T06:41:42Z</time>
      </trkpt>
      <trkpt lat="44.31355" lon="4.6162">
        <ele>93.3</ele>
        <time>2022-06-12T06:41:43Z</time>
      </trkpt>
      <trkpt lat="44.31359" lon="4.61625">
        <ele>93.3</ele>
        <time>2022-06-12T06:41:44Z</time>
      </trkpt>
      <trkpt lat="44.31363" lon="4.6163">
        <ele>93.3</ele>
        <time>2022-06-12T06:41:45Z</time>
      </trkpt>
      <trkpt lat="44.31366" lon="4.61634">
        <ele>93.3</ele>
        <time>2022-06-12T06:41:46Z</time>
      </trkpt>
      <trkpt lat="44.3137" lon="4.6164">
        <ele>93.3</ele>
        <time>2022-06-12T06:41:47Z</time>
      </trkpt>
      <trkpt lat="44.31374" lon="4.61645">
        <ele>93.4</ele>
        <time>2022-06-12T06:41:48Z</time>
      </trkpt>
      <trkpt lat="44.31377" lon="4.61649">
        <ele>93.4</ele>
        <time>2022-06-12T06:41:49Z</time>
      </trkpt>
      <trkpt lat="44.31381" lon="4.61654">
        <ele>93.4</ele>
        <time>2022-06-12T06:41:50Z</time>
      </trkpt>
      <trkpt lat="44.31384" lon="4.61659">
        <ele>93.4</ele>
        <time>2022-06-12T06:41:51Z</time>
      </trkpt>
      <trkpt lat="44.31388" lon="4.61664">
        <ele>93.4</ele>
        <time>2022-06-12T06:41:52Z</time>
      </trkpt>
      <trkpt lat="44.31391" lon="4.61669">
        <ele>93.4</ele>
        <time>2022-06-12T06:41:53Z</time>
      </trkpt>
      <trkpt lat="44.31395" lon="4.61674">
        <ele>93.5</ele>
        <time>2022-06-12T06:41:54Z</time>
      </trkpt>
      <trkpt lat="44.31399" lon="4.61679">
        <ele>93.5</ele>
        <time>2022-06-12T06:41:55Z</time>
      </trkpt>
      <trkpt lat="44.31402" lon="4.61684">
        <ele>93.5</ele>
        <time>2022-06-12T06:41:56Z</time>
      </trkpt>
      <trkpt lat="44.31406" lon="4.61689">
        <ele>93.5</ele>
        <time>2022-06-12T06:41:57Z</time>
      </trkpt>
      <trkpt lat="44.31409" lon="4.61694">
        <ele>93.5</ele>
        <time>2022-06-12T06:41:58Z</time>
      </trkpt>
      <trkpt lat="44.31413" lon="4.617">
        <ele>93.5</ele>
        <time>2022-06-12T06:41:59Z</time>
      </trkpt>
      <trkpt lat="44.31417" lon="4.61705">
        <ele>93.5</ele>
        <time>2022-06-12T06:42:00Z</time>
      </trkpt>
      <trkpt lat="44.3142" lon="4.61711">
        <ele>93.5</ele>
        <time>2022-06-12T06:42:01Z</time>
      </trkpt>
      <trkpt lat="44.31424" lon="4.61717">
        <ele>93.5</ele>
        <time>2022-06-12T06:42:02Z</time>
      </trkpt>
      <trkpt lat="44.31427" lon="4.61722">
        <ele>93.5</ele>
        <time>2022-06-12T06:42:03Z</time>
      </trkpt>
      <trkpt lat="44.31431" lon="4.61728">
        <ele>93.5</ele>
        <time>2022-06-12T06:42:04Z</time>
      </trkpt>
      <trkpt lat="44.31434" lon="4.61734">
        <ele>93.5</ele>
        <time>2022-06-12T06:42:05Z</time>
      </trkpt>
      <trkpt lat="44.31437" lon="4.6174">
        <ele>93.5</ele>
        <time>2022-06-12T06:42:06Z</time>
      </trkpt>
      <trkpt lat="44.3144" lon="4.61746">
        <ele>93.5</ele>
        <time>2022-06-12T06:42:07Z</time>
      </trkpt>
      <trkpt lat="44.31443" lon="4.61753">
        <ele>93.5</ele>
        <time>2022-06-12T06:42:08Z</time>
      </trkpt>
      <trkpt lat="44.31446" lon="4.6176">
        <ele>93.5</ele>
        <time>2022-06-12T06:42:09Z</time>
      </trkpt>
      <trkpt lat="44.31449" lon="4.61766">
        <ele>93.5</ele>
        <time>2022-06-12T06:42:10Z</time>
      </trkpt>
      <trkpt lat="44.31452" lon="4.61772">
        <ele>93.5</ele>
        <time>2022-06-12T06:42:11Z</time>
      </trkpt>
      <trkpt lat="44.31455" lon="4.61779">
        <ele>93.4</ele>
        <time>2022-06-12T06:42:12Z</time>
      </trkpt>
      <trkpt lat="44.31458" lon="4.61785">
        <ele>93.4</ele>
        <time>2022-06-12T06:42:13Z</time>
      </trkpt>
      <trkpt lat="44.31461" lon="4.61792">
        <ele>93.4</ele>
        <time>2022-06-12T06:42:14Z</time>
      </trkpt>
      <trkpt lat="44.31464" lon="4.61799">
        <ele>93.4</ele>
        <time>2022-06-12T06:42:15Z</time>
      </trkpt>
      <trkpt lat="44.31467" lon="4.61806">
        <ele>93.4</ele>
        <time>2022-06-12T06:42:16Z</time>
      </trkpt>
      <trkpt lat="44.31469" lon="4.61813">
        <ele>93.4</ele>
        <time>2022-06-12T06:42:17Z</time>
      </trkpt>
      <trkpt lat="44.31472" lon="4.6182">
        <ele>93.3</ele>
        <time>2022-06-12T06:42:18Z</time>
      </trkpt>
      <trkpt lat="44.31475" lon="4.61827">
        <ele>93.3</ele>
        <time>2022-06-12T06:42:19Z</time>
      </trkpt>
      <trkpt lat="44.31477" lon="4.61834">
        <ele>93.3</ele>
        <time>2022-06-12T06:42:20Z</time>
      </trkpt>
      <trkpt lat="44.3148" lon="4.61841">
        <ele>93.3</ele>
        <time>2022-06-12T06:42:21Z</time>
      </trkpt>
      <trkpt lat="44.31482" lon="4.61848">
        <ele>93.3</ele>
        <time>2022-06-12T06:42:22Z</time>
      </trkpt>
      <trkpt lat="44.31485" lon="4.61856">
        <ele>93.3</ele>
        <time>2022-06-12T06:42:23Z</time>
      </trkpt>
      <trkpt lat="44.31487" lon="4.61863">
        <ele>93.3</ele>
        <time>2022-06-12T06:42:24Z</time>
      </trkpt>
      <trkpt lat="44.3149" lon="4.6187">
        <ele>93.3</ele>
        <time>2022-06-12T06:42:25Z</time>
      </trkpt>
      <trkpt lat="44.31493" lon="4.61877">
        <ele>93.3</ele>
        <time>2022-06-12T06:42:26Z</time>
      </trkpt>
      <trkpt lat="44.31495" lon="4.61883">
        <ele>93.3</ele>
        <time>2022-06-12T06:42:27Z</time>
      </trkpt>
      <trkpt lat="44.31498" lon="4.61891">
        <ele>93.3</ele>
        <time>2022-06-12T06:42:28Z</time>
      </trkpt>
      <trkpt lat="44.31501" lon="4.61898">
        <ele>93.3</ele>
        <time>2022-06-12T06:42:29Z</time>
      </trkpt>
      <trkpt lat="44.31503" lon="4.61905">
        <ele>93.3</ele>
        <time>2022-06-12T06:42:30Z</time>
      </trkpt>
      <trkpt lat="44.31506" lon="4.61912">
        <ele>93.3</ele>
        <time>2022-06-12T06:42:31Z</time>
      </trkpt>
      <trkpt lat="44.31508" lon="4.61919">
        <ele>93.3</ele>
        <time>2022-06-12T06:42:32Z</time>
      </trkpt>
      <trkpt lat="44.31511" lon="4.61926">
        <ele>93.3</ele>
        <time>2022-06-12T06:42:33Z</time>
      </trkpt>
      <trkpt lat="44.31513" lon="4.61934">
        <ele>93.3</ele>
        <time>2022-06-12T06:42:34Z</time>
      </trkpt>
      <trkpt lat="44.31516" lon="4.6194">
        <ele>93.3</ele>
        <time>2022-06-12T06:42:35Z</time>
      </trkpt>
      <trkpt lat="44.31518" lon="4.61947">
        <ele>93.3</ele>
        <time>2022-06-12T06:42:36Z</time>
      </trkpt>
      <trkpt lat="44.31521" lon="4.61954">
        <ele>93.3</ele>
        <time>2022-06-12T06:42:37Z</time>
      </trkpt>
      <trkpt lat="44.31524" lon="4.61961">
        <ele>93.3</ele>
        <time>2022-06-12T06:42:38Z</time>
      </trkpt>
      <trkpt lat="44.31526" lon="4.61967">
        <ele>93.3</ele>
        <time>2022-06-12T06:42:39Z</time>
      </trkpt>
      <trkpt lat="44.31529" lon="4.61974">
        <ele>93.3</ele>
        <time>2022-06-12T06:42:40Z</time>
      </trkpt>
      <trkpt lat="44.31532" lon="4.61981">
        <ele>93.3</ele>
        <time>2022-06-12T06:42:41Z</time>
      </trkpt>
      <trkpt lat="44.31535" lon="4.61987">
        <ele>93.3</ele>
        <time>2022-06-12T06:42:42Z</time>
      </trkpt>
      <trkpt lat="44.31538" lon="4.61994">
        <ele>93.3</ele>
        <time>2022-06-12T06:42:43Z</time>
      </trkpt>
      <trkpt lat="44.31541" lon="4.62">
        <ele>93.3</ele>
        <time>2022-06-12T06:42:44Z</time>
      </trkpt>
      <trkpt lat="44.31544" lon="4.62007">
        <ele>93.4</ele>
        <time>2022-06-12T06:42:45Z</time>
      </trkpt>
      <trkpt lat="44.31547" lon="4.62013">
        <ele>93.4</ele>
        <time>2022-06-12T06:42:46Z</time>
      </trkpt>
      <trkpt lat="44.3155" lon="4.62019">
        <ele>93.4</ele>
        <time>2022-06-12T06:42:47Z</time>
      </trkpt>
      <trkpt lat="44.31554" lon="4.62025">
        <ele>93.4</ele>
        <time>2022-06-12T06:42:48Z</time>
      </trkpt>
      <trkpt lat="44.3156" lon="4.62037">
        <ele>93.5</ele>
        <time>2022-06-12T06:42:50Z</time>
      </trkpt>
      <trkpt lat="44.31564" lon="4.62042">
        <ele>93.5</ele>
        <time>2022-06-12T06:42:51Z</time>
      </trkpt>
      <trkpt lat="44.31567" lon="4.62048">
        <ele>93.5</ele>
        <time>2022-06-12T06:42:52Z</time>
      </trkpt>
      <trkpt lat="44.31571" lon="4.62053">
        <ele>93.5</ele>
        <time>2022-06-12T06:42:53Z</time>
      </trkpt>
      <trkpt lat="44.31575" lon="4.62058">
        <ele>93.5</ele>
        <time>2022-06-12T06:42:54Z</time>
      </trkpt>
      <trkpt lat="44.31578" lon="4.62063">
        <ele>93.5</ele>
        <time>2022-06-12T06:42:55Z</time>
      </trkpt>
      <trkpt lat="44.31582" lon="4.62068">
        <ele>93.5</ele>
        <time>2022-06-12T06:42:56Z</time>
      </trkpt>
      <trkpt lat="44.31586" lon="4.62073">
        <ele>93.5</ele>
        <time>2022-06-12T06:42:57Z</time>
      </trkpt>
      <trkpt lat="44.3159" lon="4.62078">
        <ele>93.5</ele>
        <time>2022-06-12T06:42:58Z</time>
      </trkpt>
      <trkpt lat="44.31594" lon="4.62083">
        <ele>93.5</ele>
        <time>2022-06-12T06:42:59Z</time>
      </trkpt>
      <trkpt lat="44.31598" lon="4.62088">
        <ele>93.5</ele>
        <time>2022-06-12T06:43:00Z</time>
      </trkpt>
      <trkpt lat="44.31602" lon="4.62092">
        <ele>93.5</ele>
        <time>2022-06-12T06:43:01Z</time>
      </trkpt>
      <trkpt lat="44.31606" lon="4.62097">
        <ele>93.5</ele>
        <time>2022-06-12T06:43:02Z</time>
      </trkpt>
      <trkpt lat="44.3161" lon="4.62101">
        <ele>93.4</ele>
        <time>2022-06-12T06:43:03Z</time>
      </trkpt>
      <trkpt lat="44.31614" lon="4.62106">
        <ele>93.4</ele>
        <time>2022-06-12T06:43:04Z</time>
      </trkpt>
      <trkpt lat="44.31619" lon="4.62111">
        <ele>93.4</ele>
        <time>2022-06-12T06:43:05Z</time>
      </trkpt>
      <trkpt lat="44.31623" lon="4.62116">
        <ele>93.4</ele>
        <time>2022-06-12T06:43:06Z</time>
      </trkpt>
      <trkpt lat="44.31627" lon="4.6212">
        <ele>93.4</ele>
        <time>2022-06-12T06:43:07Z</time>
      </trkpt>
      <trkpt lat="44.31631" lon="4.62124">
        <ele>93.4</ele>
        <time>2022-06-12T06:43:08Z</time>
      </trkpt>
      <trkpt lat="44.31636" lon="4.62129">
        <ele>93.3</ele>
        <time>2022-06-12T06:43:09Z</time>
      </trkpt>
      <trkpt lat="44.3164" lon="4.62134">
        <ele>93.3</ele>
        <time>2022-06-12T06:43:10Z</time>
      </trkpt>
      <trkpt lat="44.31645" lon="4.62138">
        <ele>93.3</ele>
        <time>2022-06-12T06:43:11Z</time>
      </trkpt>
      <trkpt lat="44.31649" lon="4.62143">
        <ele>93.3</ele>
        <time>2022-06-12T06:43:12Z</time>
      </trkpt>
      <trkpt lat="44.31654" lon="4.62148">
        <ele>93.3</ele>
        <time>2022-06-12T06:43:13Z</time>
      </trkpt>
      <trkpt lat="44.31658" lon="4.62152">
        <ele>93.2</ele>
        <time>2022-06-12T06:43:14Z</time>
      </trkpt>
      <trkpt lat="44.31663" lon="4.62157">
        <ele>93.2</ele>
        <time>2022-06-12T06:43:15Z</time>
      </trkpt>
      <trkpt lat="44.31667" lon="4.62161">
        <ele>93.2</ele>
        <time>2022-06-12T06:43:16Z</time>
      </trkpt>
      <trkpt lat="44.31672" lon="4.62166">
        <ele>93.2</ele>
        <time>2022-06-12T06:43:17Z</time>
      </trkpt>
      <trkpt lat="44.31677" lon="4.62171">
        <ele>93.2</ele>
        <time>2022-06-12T06:43:18Z</time>
      </trkpt>
      <trkpt lat="44.31681" lon="4.62175">
        <ele>93.2</ele>
        <time>2022-06-12T06:43:19Z</time>
      </trkpt>
      <trkpt lat="44.31686" lon="4.62179">
        <ele>93.2</ele>
        <time>2022-06-12T06:43:20Z</time>
      </trkpt>
      <trkpt lat="44.3169" lon="4.62184">
        <ele>93.2</ele>
        <time>2022-06-12T06:43:21Z</time>
      </trkpt>
      <trkpt lat="44.31695" lon="4.62188">
        <ele>93.3</ele>
        <time>2022-06-12T06:43:22Z</time>
      </trkpt>
      <trkpt lat="44.317" lon="4.62192">
        <ele>93.3</ele>
        <time>2022-06-12T06:43:23Z</time>
      </trkpt>
      <trkpt lat="44.31705" lon="4.62196">
        <ele>93.3</ele>
        <time>2022-06-12T06:43:24Z</time>
      </trkpt>
      <trkpt lat="44.31709" lon="4.622">
        <ele>93.3</ele>
        <time>2022-06-12T06:43:25Z</time>
      </trkpt>
      <trkpt lat="44.31714" lon="4.62204">
        <ele>93.4</ele>
        <time>2022-06-12T06:43:26Z</time>
      </trkpt>
      <trkpt lat="44.31719" lon="4.62208">
        <ele>93.4</ele>
        <time>2022-06-12T06:43:27Z</time>
      </trkpt>
      <trkpt lat="44.31723" lon="4.62212">
        <ele>93.4</ele>
        <time>2022-06-12T06:43:28Z</time>
      </trkpt>
      <trkpt lat="44.31727" lon="4.62216">
        <ele>93.4</ele>
        <time>2022-06-12T06:43:29Z</time>
      </trkpt>
      <trkpt lat="44.31732" lon="4.6222">
        <ele>93.4</ele>
        <time>2022-06-12T06:43:30Z</time>
      </trkpt>
      <trkpt lat="44.31736" lon="4.62224">
        <ele>93.5</ele>
        <time>2022-06-12T06:43:31Z</time>
      </trkpt>
      <trkpt lat="44.31741" lon="4.62228">
        <ele>93.5</ele>
        <time>2022-06-12T06:43:32Z</time>
      </trkpt>
      <trkpt lat="44.31746" lon="4.62232">
        <ele>93.5</ele>
        <time>2022-06-12T06:43:33Z</time>
      </trkpt>
      <trkpt lat="44.3175" lon="4.62235">
        <ele>93.5</ele>
        <time>2022-06-12T06:43:34Z</time>
      </trkpt>
      <trkpt lat="44.31755" lon="4.62239">
        <ele>93.5</ele>
        <time>2022-06-12T06:43:35Z</time>
      </trkpt>
      <trkpt lat="44.3176" lon="4.62243">
        <ele>93.5</ele>
        <time>2022-06-12T06:43:36Z</time>
      </trkpt>
      <trkpt lat="44.31765" lon="4.62247">
        <ele>93.5</ele>
        <time>2022-06-12T06:43:37Z</time>
      </trkpt>
      <trkpt lat="44.31769" lon="4.62251">
        <ele>93.6</ele>
        <time>2022-06-12T06:43:38Z</time>
      </trkpt>
      <trkpt lat="44.31774" lon="4.62255">
        <ele>93.6</ele>
        <time>2022-06-12T06:43:39Z</time>
      </trkpt>
      <trkpt lat="44.31778" lon="4.62259">
        <ele>93.6</ele>
        <time>2022-06-12T06:43:40Z</time>
      </trkpt>
      <trkpt lat="44.31783" lon="4.62262">
        <ele>93.7</ele>
        <time>2022-06-12T06:43:41Z</time>
      </trkpt>
      <trkpt lat="44.31788" lon="4.62266">
        <ele>93.7</ele>
        <time>2022-06-12T06:43:42Z</time>
      </trkpt>
      <trkpt lat="44.31793" lon="4.6227">
        <ele>93.7</ele>
        <time>2022-06-12T06:43:43Z</time>
      </trkpt>
      <trkpt lat="44.31798" lon="4.62274">
        <ele>93.8</ele>
        <time>2022-06-12T06:43:44Z</time>
      </trkpt>
      <trkpt lat="44.31803" lon="4.62278">
        <ele>93.8</ele>
        <time>2022-06-12T06:43:45Z</time>
      </trkpt>
      <trkpt lat="44.31808" lon="4.62281">
        <ele>93.9</ele>
        <time>2022-06-12T06:43:46Z</time>
      </trkpt>
      <trkpt lat="44.31812" lon="4.62285">
        <ele>93.9</ele>
        <time>2022-06-12T06:43:47Z</time>
      </trkpt>
      <trkpt lat="44.31817" lon="4.62289">
        <ele>94</ele>
        <time>2022-06-12T06:43:48Z</time>
      </trkpt>
      <trkpt lat="44.31822" lon="4.62293">
        <ele>94</ele>
        <time>2022-06-12T06:43:49Z</time>
      </trkpt>
      <trkpt lat="44.31827" lon="4.62297">
        <ele>94.1</ele>
        <time>2022-06-12T06:43:50Z</time>
      </trkpt>
      <trkpt lat="44.31832" lon="4.62301">
        <ele>94.1</ele>
        <time>2022-06-12T06:43:51Z</time>
      </trkpt>
      <trkpt lat="44.31837" lon="4.62305">
        <ele>94.1</ele>
        <time>2022-06-12T06:43:52Z</time>
      </trkpt>
      <trkpt lat="44.31842" lon="4.62308">
        <ele>94.2</ele>
        <time>2022-06-12T06:43:53Z</time>
      </trkpt>
      <trkpt lat="44.31846" lon="4.62312">
        <ele>94.2</ele>
        <time>2022-06-12T06:43:54Z</time>
      </trkpt>
      <trkpt lat="44.31851" lon="4.62316">
        <ele>94.2</ele>
        <time>2022-06-12T06:43:55Z</time>
      </trkpt>
      <trkpt lat="44.31856" lon="4.6232">
        <ele>94.3</ele>
        <time>2022-06-12T06:43:56Z</time>
      </trkpt>
      <trkpt lat="44.31861" lon="4.62323">
        <ele>94.3</ele>
        <time>2022-06-12T06:43:57Z</time>
      </trkpt>
      <trkpt lat="44.31866" lon="4.62327">
        <ele>94.4</ele>
        <time>2022-06-12T06:43:58Z</time>
      </trkpt>
      <trkpt lat="44.3187" lon="4.62331">
        <ele>94.4</ele>
        <time>2022-06-12T06:43:59Z</time>
      </trkpt>
      <trkpt lat="44.31875" lon="4.62335">
        <ele>94.4</ele>
        <time>2022-06-12T06:44:00Z</time>
      </trkpt>
      <trkpt lat="44.3188" lon="4.62339">
        <ele>94.5</ele>
        <time>2022-06-12T06:44:01Z</time>
      </trkpt>
      <trkpt lat="44.31885" lon="4.62342">
        <ele>94.5</ele>
        <time>2022-06-12T06:44:02Z</time>
      </trkpt>
      <trkpt lat="44.31889" lon="4.62346">
        <ele>94.5</ele>
        <time>2022-06-12T06:44:03Z</time>
      </trkpt>
      <trkpt lat="44.31894" lon="4.62349">
        <ele>94.5</ele>
        <time>2022-06-12T06:44:04Z</time>
      </trkpt>
      <trkpt lat="44.31898" lon="4.62353">
        <ele>94.5</ele>
        <time>2022-06-12T06:44:05Z</time>
      </trkpt>
      <trkpt lat="44.31903" lon="4.62357">
        <ele>94.5</ele>
        <time>2022-06-12T06:44:06Z</time>
      </trkpt>
      <trkpt lat="44.31907" lon="4.6236">
        <ele>94.5</ele>
        <time>2022-06-12T06:44:07Z</time>
      </trkpt>
      <trkpt lat="44.31912" lon="4.62364">
        <ele>94.5</ele>
        <time>2022-06-12T06:44:08Z</time>
      </trkpt>
      <trkpt lat="44.31916" lon="4.62368">
        <ele>94.5</ele>
        <time>2022-06-12T06:44:09Z</time>
      </trkpt>
      <trkpt lat="44.31921" lon="4.62372">
        <ele>94.5</ele>
        <time>2022-06-12T06:44:10Z</time>
      </trkpt>
      <trkpt lat="44.31926" lon="4.62375">
        <ele>94.4</ele>
        <time>2022-06-12T06:44:11Z</time>
      </trkpt>
      <trkpt lat="44.3193" lon="4.62379">
        <ele>94.4</ele>
        <time>2022-06-12T06:44:12Z</time>
      </trkpt>
      <trkpt lat="44.31935" lon="4.62383">
        <ele>94.4</ele>
        <time>2022-06-12T06:44:13Z</time>
      </trkpt>
      <trkpt lat="44.3194" lon="4.62387">
        <ele>94.3</ele>
        <time>2022-06-12T06:44:14Z</time>
      </trkpt>
      <trkpt lat="44.31945" lon="4.6239">
        <ele>94.3</ele>
        <time>2022-06-12T06:44:15Z</time>
      </trkpt>
      <trkpt lat="44.3195" lon="4.62394">
        <ele>94.3</ele>
        <time>2022-06-12T06:44:16Z</time>
      </trkpt>
      <trkpt lat="44.31955" lon="4.62398">
        <ele>94.2</ele>
        <time>2022-06-12T06:44:17Z</time>
      </trkpt>
      <trkpt lat="44.3196" lon="4.62402">
        <ele>94.2</ele>
        <time>2022-06-12T06:44:18Z</time>
      </trkpt>
      <trkpt lat="44.31965" lon="4.62406">
        <ele>94.1</ele>
        <time>2022-06-12T06:44:19Z</time>
      </trkpt>
      <trkpt lat="44.3197" lon="4.6241">
        <ele>94.1</ele>
        <time>2022-06-12T06:44:20Z</time>
      </trkpt>
      <trkpt lat="44.31975" lon="4.62414">
        <ele>94.1</ele>
        <time>2022-06-12T06:44:21Z</time>
      </trkpt>
      <trkpt lat="44.3198" lon="4.62418">
        <ele>94</ele>
        <time>2022-06-12T06:44:22Z</time>
      </trkpt>
      <trkpt lat="44.31985" lon="4.62422">
        <ele>94</ele>
        <time>2022-06-12T06:44:23Z</time>
      </trkpt>
      <trkpt lat="44.31991" lon="4.62426">
        <ele>94</ele>
        <time>2022-06-12T06:44:24Z</time>
      </trkpt>
      <trkpt lat="44.31996" lon="4.6243">
        <ele>93.9</ele>
        <time>2022-06-12T06:44:25Z</time>
      </trkpt>
      <trkpt lat="44.32001" lon="4.62435">
        <ele>93.9</ele>
        <time>2022-06-12T06:44:26Z</time>
      </trkpt>
      <trkpt lat="44.32006" lon="4.62439">
        <ele>93.9</ele>
        <time>2022-06-12T06:44:27Z</time>
      </trkpt>
      <trkpt lat="44.3201" lon="4.62443">
        <ele>93.9</ele>
        <time>2022-06-12T06:44:28Z</time>
      </trkpt>
      <trkpt lat="44.32015" lon="4.62447">
        <ele>93.8</ele>
        <time>2022-06-12T06:44:29Z</time>
      </trkpt>
      <trkpt lat="44.3202" lon="4.62451">
        <ele>93.8</ele>
        <time>2022-06-12T06:44:30Z</time>
      </trkpt>
      <trkpt lat="44.32025" lon="4.62456">
        <ele>93.8</ele>
        <time>2022-06-12T06:44:31Z</time>
      </trkpt>
      <trkpt lat="44.3203" lon="4.6246">
        <ele>93.7</ele>
        <time>2022-06-12T06:44:32Z</time>
      </trkpt>
      <trkpt lat="44.32035" lon="4.62464">
        <ele>93.7</ele>
        <time>2022-06-12T06:44:33Z</time>
      </trkpt>
      <trkpt lat="44.32041" lon="4.62468">
        <ele>93.7</ele>
        <time>2022-06-12T06:44:34Z</time>
      </trkpt>
      <trkpt lat="44.32046" lon="4.62472">
        <ele>93.7</ele>
        <time>2022-06-12T06:44:35Z</time>
      </trkpt>
      <trkpt lat="44.32051" lon="4.62477">
        <ele>93.7</ele>
        <time>2022-06-12T06:44:36Z</time>
      </trkpt>
      <trkpt lat="44.32056" lon="4.62481">
        <ele>93.7</ele>
        <time>2022-06-12T06:44:37Z</time>
      </trkpt>
      <trkpt lat="44.32061" lon="4.62486">
        <ele>93.7</ele>
        <time>2022-06-12T06:44:38Z</time>
      </trkpt>
      <trkpt lat="44.32065" lon="4.6249">
        <ele>93.7</ele>
        <time>2022-06-12T06:44:39Z</time>
      </trkpt>
      <trkpt lat="44.3207" lon="4.62494">
        <ele>93.7</ele>
        <time>2022-06-12T06:44:40Z</time>
      </trkpt>
      <trkpt lat="44.32075" lon="4.62499">
        <ele>93.7</ele>
        <time>2022-06-12T06:44:41Z</time>
      </trkpt>
      <trkpt lat="44.32079" lon="4.62503">
        <ele>93.8</ele>
        <time>2022-06-12T06:44:42Z</time>
      </trkpt>
      <trkpt lat="44.32084" lon="4.62507">
        <ele>93.8</ele>
        <time>2022-06-12T06:44:43Z</time>
      </trkpt>
      <trkpt lat="44.32088" lon="4.62511">
        <ele>93.8</ele>
        <time>2022-06-12T06:44:44Z</time>
      </trkpt>
      <trkpt lat="44.32092" lon="4.62515">
        <ele>93.8</ele>
        <time>2022-06-12T06:44:45Z</time>
      </trkpt>
      <trkpt lat="44.32097" lon="4.62519">
        <ele>93.9</ele>
        <time>2022-06-12T06:44:46Z</time>
      </trkpt>
      <trkpt lat="44.32101" lon="4.62523">
        <ele>93.9</ele>
        <time>2022-06-12T06:44:47Z</time>
      </trkpt>
      <trkpt lat="44.32105" lon="4.62527">
        <ele>93.9</ele>
        <time>2022-06-12T06:44:48Z</time>
      </trkpt>
      <trkpt lat="44.32109" lon="4.6253">
        <ele>94</ele>
        <time>2022-06-12T06:44:49Z</time>
      </trkpt>
      <trkpt lat="44.32114" lon="4.62534">
        <ele>94.1</ele>
        <time>2022-06-12T06:44:50Z</time>
      </trkpt>
      <trkpt lat="44.32118" lon="4.62538">
        <ele>94.1</ele>
        <time>2022-06-12T06:44:51Z</time>
      </trkpt>
      <trkpt lat="44.32122" lon="4.62542">
        <ele>94.1</ele>
        <time>2022-06-12T06:44:52Z</time>
      </trkpt>
      <trkpt lat="44.32126" lon="4.62545">
        <ele>94.2</ele>
        <time>2022-06-12T06:44:53Z</time>
      </trkpt>
      <trkpt lat="44.3213" lon="4.62549">
        <ele>94.2</ele>
        <time>2022-06-12T06:44:54Z</time>
      </trkpt>
      <trkpt lat="44.32134" lon="4.62553">
        <ele>94.3</ele>
        <time>2022-06-12T06:44:55Z</time>
      </trkpt>
      <trkpt lat="44.32138" lon="4.62556">
        <ele>94.3</ele>
        <time>2022-06-12T06:44:56Z</time>
      </trkpt>
      <trkpt lat="44.32141" lon="4.6256">
        <ele>94.3</ele>
        <time>2022-06-12T06:44:57Z</time>
      </trkpt>
      <trkpt lat="44.32145" lon="4.62563">
        <ele>94.4</ele>
        <time>2022-06-12T06:44:58Z</time>
      </trkpt>
      <trkpt lat="44.3215" lon="4.62567">
        <ele>94.4</ele>
        <time>2022-06-12T06:44:59Z</time>
      </trkpt>
      <trkpt lat="44.32154" lon="4.6257">
        <ele>94.5</ele>
        <time>2022-06-12T06:45:00Z</time>
      </trkpt>
      <trkpt lat="44.32158" lon="4.62574">
        <ele>94.5</ele>
        <time>2022-06-12T06:45:01Z</time>
      </trkpt>
      <trkpt lat="44.32161" lon="4.62577">
        <ele>94.6</ele>
        <time>2022-06-12T06:45:02Z</time>
      </trkpt>
      <trkpt lat="44.32165" lon="4.6258">
        <ele>94.7</ele>
        <time>2022-06-12T06:45:03Z</time>
      </trkpt>
      <trkpt lat="44.32169" lon="4.62583">
        <ele>94.7</ele>
        <time>2022-06-12T06:45:04Z</time>
      </trkpt>
      <trkpt lat="44.32173" lon="4.62587">
        <ele>94.8</ele>
        <time>2022-06-12T06:45:05Z</time>
      </trkpt>
      <trkpt lat="44.32177" lon="4.6259">
        <ele>94.8</ele>
        <time>2022-06-12T06:45:06Z</time>
      </trkpt>
      <trkpt lat="44.32183" lon="4.62596">
        <ele>94.9</ele>
        <time>2022-06-12T06:45:08Z</time>
      </trkpt>
      <trkpt lat="44.32188" lon="4.626">
        <ele>95</ele>
        <time>2022-06-12T06:45:09Z</time>
      </trkpt>
      <trkpt lat="44.32192" lon="4.62604">
        <ele>95</ele>
        <time>2022-06-12T06:45:10Z</time>
      </trkpt>
      <trkpt lat="44.32194" lon="4.62607">
        <ele>95.1</ele>
        <time>2022-06-12T06:45:11Z</time>
      </trkpt>
      <trkpt lat="44.32198" lon="4.62611">
        <ele>95.1</ele>
        <time>2022-06-12T06:45:12Z</time>
      </trkpt>
      <trkpt lat="44.32202" lon="4.62614">
        <ele>95.2</ele>
        <time>2022-06-12T06:45:13Z</time>
      </trkpt>
      <trkpt lat="44.32209" lon="4.62621">
        <ele>95.3</ele>
        <time>2022-06-12T06:45:15Z</time>
      </trkpt>
      <trkpt lat="44.32212" lon="4.62624">
        <ele>95.4</ele>
        <time>2022-06-12T06:45:16Z</time>
      </trkpt>
      <trkpt lat="44.32211" lon="4.62627">
        <ele>95.4</ele>
        <time>2022-06-12T06:45:17Z</time>
      </trkpt>
      <trkpt lat="44.32219" lon="4.62632">
        <ele>95.5</ele>
        <time>2022-06-12T06:45:19Z</time>
      </trkpt>
      <trkpt lat="44.32224" lon="4.62638">
        <ele>95.6</ele>
        <time>2022-06-12T06:45:20Z</time>
      </trkpt>
      <trkpt lat="44.32228" lon="4.62643">
        <ele>95.7</ele>
        <time>2022-06-12T06:45:21Z</time>
      </trkpt>
      <trkpt lat="44.32233" lon="4.62649">
        <ele>95.8</ele>
        <time>2022-06-12T06:45:23Z</time>
      </trkpt>
      <trkpt lat="44.32237" lon="4.62654">
        <ele>95.8</ele>
        <time>2022-06-12T06:45:24Z</time>
      </trkpt>
      <trkpt lat="44.3224" lon="4.62659">
        <ele>95.9</ele>
        <time>2022-06-12T06:45:25Z</time>
      </trkpt>
      <trkpt lat="44.32244" lon="4.62665">
        <ele>96</ele>
        <time>2022-06-12T06:45:26Z</time>
      </trkpt>
      <trkpt lat="44.32249" lon="4.62671">
        <ele>96.1</ele>
        <time>2022-06-12T06:45:28Z</time>
      </trkpt>
      <trkpt lat="44.32252" lon="4.62675">
        <ele>96.1</ele>
        <time>2022-06-12T06:45:29Z</time>
      </trkpt>
      <trkpt lat="44.32255" lon="4.6268">
        <ele>96.2</ele>
        <time>2022-06-12T06:45:30Z</time>
      </trkpt>
      <trkpt lat="44.32259" lon="4.62686">
        <ele>96.3</ele>
        <time>2022-06-12T06:45:31Z</time>
      </trkpt>
      <trkpt lat="44.32261" lon="4.62691">
        <ele>96.4</ele>
        <time>2022-06-12T06:45:32Z</time>
      </trkpt>
      <trkpt lat="44.32264" lon="4.62696">
        <ele>96.5</ele>
        <time>2022-06-12T06:45:33Z</time>
      </trkpt>
      <trkpt lat="44.32266" lon="4.627">
        <ele>96.5</ele>
        <time>2022-06-12T06:45:34Z</time>
      </trkpt>
      <trkpt lat="44.32269" lon="4.62704">
        <ele>96.6</ele>
        <time>2022-06-12T06:45:35Z</time>
      </trkpt>
      <trkpt lat="44.32271" lon="4.62709">
        <ele>96.7</ele>
        <time>2022-06-12T06:45:36Z</time>
      </trkpt>
      <trkpt lat="44.32275" lon="4.62716">
        <ele>96.8</ele>
        <time>2022-06-12T06:45:38Z</time>
      </trkpt>
      <trkpt lat="44.32278" lon="4.62722">
        <ele>96.9</ele>
        <time>2022-06-12T06:45:39Z</time>
      </trkpt>
      <trkpt lat="44.3228" lon="4.62728">
        <ele>96.9</ele>
        <time>2022-06-12T06:45:40Z</time>
      </trkpt>
      <trkpt lat="44.32282" lon="4.62733">
        <ele>97</ele>
        <time>2022-06-12T06:45:41Z</time>
      </trkpt>
      <trkpt lat="44.32284" lon="4.62738">
        <ele>97.1</ele>
        <time>2022-06-12T06:45:42Z</time>
      </trkpt>
      <trkpt lat="44.32286" lon="4.62743">
        <ele>97.1</ele>
        <time>2022-06-12T06:45:43Z</time>
      </trkpt>
      <trkpt lat="44.32288" lon="4.62748">
        <ele>97.2</ele>
        <time>2022-06-12T06:45:44Z</time>
      </trkpt>
      <trkpt lat="44.32291" lon="4.62755">
        <ele>97.2</ele>
        <time>2022-06-12T06:45:46Z</time>
      </trkpt>
      <trkpt lat="44.32293" lon="4.62761">
        <ele>97.3</ele>
        <time>2022-06-12T06:45:47Z</time>
      </trkpt>
      <trkpt lat="44.32296" lon="4.62767">
        <ele>97.3</ele>
        <time>2022-06-12T06:45:48Z</time>
      </trkpt>
      <trkpt lat="44.32298" lon="4.62772">
        <ele>97.4</ele>
        <time>2022-06-12T06:45:49Z</time>
      </trkpt>
      <trkpt lat="44.32301" lon="4.6278">
        <ele>97.4</ele>
        <time>2022-06-12T06:45:50Z</time>
      </trkpt>
      <trkpt lat="44.32303" lon="4.62785">
        <ele>97.4</ele>
        <time>2022-06-12T06:45:51Z</time>
      </trkpt>
      <trkpt lat="44.32305" lon="4.6279">
        <ele>97.5</ele>
        <time>2022-06-12T06:45:52Z</time>
      </trkpt>
      <trkpt lat="44.32307" lon="4.62795">
        <ele>97.5</ele>
        <time>2022-06-12T06:45:53Z</time>
      </trkpt>
      <trkpt lat="44.3231" lon="4.62801">
        <ele>97.5</ele>
        <time>2022-06-12T06:45:54Z</time>
      </trkpt>
      <trkpt lat="44.32312" lon="4.62806">
        <ele>97.5</ele>
        <time>2022-06-12T06:45:55Z</time>
      </trkpt>
      <trkpt lat="44.32315" lon="4.62814">
        <ele>97.5</ele>
        <time>2022-06-12T06:45:57Z</time>
      </trkpt>
      <trkpt lat="44.3232" lon="4.62823">
        <ele>97.5</ele>
        <time>2022-06-12T06:45:58Z</time>
      </trkpt>
      <trkpt lat="44.32322" lon="4.62828">
        <ele>97.5</ele>
        <time>2022-06-12T06:45:59Z</time>
      </trkpt>
      <trkpt lat="44.32324" lon="4.62833">
        <ele>97.5</ele>
        <time>2022-06-12T06:46:00Z</time>
      </trkpt>
      <trkpt lat="44.32327" lon="4.62839">
        <ele>97.5</ele>
        <time>2022-06-12T06:46:01Z</time>
      </trkpt>
      <trkpt lat="44.3233" lon="4.62844">
        <ele>97.5</ele>
        <time>2022-06-12T06:46:02Z</time>
      </trkpt>
      <trkpt lat="44.32333" lon="4.62849">
        <ele>97.5</ele>
        <time>2022-06-12T06:46:03Z</time>
      </trkpt>
      <trkpt lat="44.32336" lon="4.62855">
        <ele>97.4</ele>
        <time>2022-06-12T06:46:04Z</time>
      </trkpt>
      <trkpt lat="44.3234" lon="4.6286">
        <ele>97.4</ele>
        <time>2022-06-12T06:46:05Z</time>
      </trkpt>
      <trkpt lat="44.32343" lon="4.62866">
        <ele>97.4</ele>
        <time>2022-06-12T06:46:06Z</time>
      </trkpt>
      <trkpt lat="44.32346" lon="4.62871">
        <ele>97.4</ele>
        <time>2022-06-12T06:46:07Z</time>
      </trkpt>
      <trkpt lat="44.32349" lon="4.62877">
        <ele>97.4</ele>
        <time>2022-06-12T06:46:08Z</time>
      </trkpt>
      <trkpt lat="44.32353" lon="4.62882">
        <ele>97.4</ele>
        <time>2022-06-12T06:46:09Z</time>
      </trkpt>
      <trkpt lat="44.32356" lon="4.62887">
        <ele>97.4</ele>
        <time>2022-06-12T06:46:10Z</time>
      </trkpt>
      <trkpt lat="44.32359" lon="4.62892">
        <ele>97.4</ele>
        <time>2022-06-12T06:46:11Z</time>
      </trkpt>
      <trkpt lat="44.32363" lon="4.62897">
        <ele>97.4</ele>
        <time>2022-06-12T06:46:12Z</time>
      </trkpt>
      <trkpt lat="44.32367" lon="4.62902">
        <ele>97.3</ele>
        <time>2022-06-12T06:46:13Z</time>
      </trkpt>
      <trkpt lat="44.3237" lon="4.62907">
        <ele>97.3</ele>
        <time>2022-06-12T06:46:14Z</time>
      </trkpt>
      <trkpt lat="44.32374" lon="4.62912">
        <ele>97.3</ele>
        <time>2022-06-12T06:46:15Z</time>
      </trkpt>
      <trkpt lat="44.32378" lon="4.62917">
        <ele>97.3</ele>
        <time>2022-06-12T06:46:16Z</time>
      </trkpt>
      <trkpt lat="44.32382" lon="4.62922">
        <ele>97.3</ele>
        <time>2022-06-12T06:46:17Z</time>
      </trkpt>
      <trkpt lat="44.32386" lon="4.62927">
        <ele>97.3</ele>
        <time>2022-06-12T06:46:18Z</time>
      </trkpt>
      <trkpt lat="44.32389" lon="4.62932">
        <ele>97.3</ele>
        <time>2022-06-12T06:46:19Z</time>
      </trkpt>
      <trkpt lat="44.32393" lon="4.62937">
        <ele>97.3</ele>
        <time>2022-06-12T06:46:20Z</time>
      </trkpt>
      <trkpt lat="44.32397" lon="4.62942">
        <ele>97.3</ele>
        <time>2022-06-12T06:46:21Z</time>
      </trkpt>
      <trkpt lat="44.32401" lon="4.62947">
        <ele>97.3</ele>
        <time>2022-06-12T06:46:22Z</time>
      </trkpt>
      <trkpt lat="44.32405" lon="4.62952">
        <ele>97.3</ele>
        <time>2022-06-12T06:46:23Z</time>
      </trkpt>
      <trkpt lat="44.32408" lon="4.62957">
        <ele>97.4</ele>
        <time>2022-06-12T06:46:24Z</time>
      </trkpt>
      <trkpt lat="44.32412" lon="4.62963">
        <ele>97.4</ele>
        <time>2022-06-12T06:46:25Z</time>
      </trkpt>
      <trkpt lat="44.32416" lon="4.62968">
        <ele>97.4</ele>
        <time>2022-06-12T06:46:26Z</time>
      </trkpt>
      <trkpt lat="44.3242" lon="4.62973">
        <ele>97.5</ele>
        <time>2022-06-12T06:46:27Z</time>
      </trkpt>
      <trkpt lat="44.32424" lon="4.62979">
        <ele>97.5</ele>
        <time>2022-06-12T06:46:28Z</time>
      </trkpt>
      <trkpt lat="44.32428" lon="4.62984">
        <ele>97.6</ele>
        <time>2022-06-12T06:46:29Z</time>
      </trkpt>
      <trkpt lat="44.32432" lon="4.62989">
        <ele>97.7</ele>
        <time>2022-06-12T06:46:30Z</time>
      </trkpt>
      <trkpt lat="44.32436" lon="4.62994">
        <ele>97.7</ele>
        <time>2022-06-12T06:46:31Z</time>
      </trkpt>
      <trkpt lat="44.3244" lon="4.62999">
        <ele>97.7</ele>
        <time>2022-06-12T06:46:32Z</time>
      </trkpt>
      <trkpt lat="44.32444" lon="4.63005">
        <ele>97.7</ele>
        <time>2022-06-12T06:46:33Z</time>
      </trkpt>
      <trkpt lat="44.32448" lon="4.6301">
        <ele>97.7</ele>
        <time>2022-06-12T06:46:34Z</time>
      </trkpt>
      <trkpt lat="44.32452" lon="4.63015">
        <ele>97.8</ele>
        <time>2022-06-12T06:46:35Z</time>
      </trkpt>
      <trkpt lat="44.32457" lon="4.6302">
        <ele>97.8</ele>
        <time>2022-06-12T06:46:36Z</time>
      </trkpt>
      <trkpt lat="44.3246" lon="4.63026">
        <ele>97.8</ele>
        <time>2022-06-12T06:46:37Z</time>
      </trkpt>
      <trkpt lat="44.32464" lon="4.63031">
        <ele>97.8</ele>
        <time>2022-06-12T06:46:38Z</time>
      </trkpt>
      <trkpt lat="44.32468" lon="4.63037">
        <ele>97.8</ele>
        <time>2022-06-12T06:46:39Z</time>
      </trkpt>
      <trkpt lat="44.32472" lon="4.63043">
        <ele>97.8</ele>
        <time>2022-06-12T06:46:40Z</time>
      </trkpt>
      <trkpt lat="44.32476" lon="4.63049">
        <ele>97.8</ele>
        <time>2022-06-12T06:46:41Z</time>
      </trkpt>
      <trkpt lat="44.3248" lon="4.63056">
        <ele>97.8</ele>
        <time>2022-06-12T06:46:42Z</time>
      </trkpt>
      <trkpt lat="44.32484" lon="4.63063">
        <ele>97.8</ele>
        <time>2022-06-12T06:46:43Z</time>
      </trkpt>
      <trkpt lat="44.32487" lon="4.6307">
        <ele>97.8</ele>
        <time>2022-06-12T06:46:44Z</time>
      </trkpt>
      <trkpt lat="44.3249" lon="4.63076">
        <ele>97.9</ele>
        <time>2022-06-12T06:46:45Z</time>
      </trkpt>
      <trkpt lat="44.32494" lon="4.63084">
        <ele>97.9</ele>
        <time>2022-06-12T06:46:46Z</time>
      </trkpt>
      <trkpt lat="44.32497" lon="4.63091">
        <ele>97.9</ele>
        <time>2022-06-12T06:46:47Z</time>
      </trkpt>
      <trkpt lat="44.32499" lon="4.63098">
        <ele>97.9</ele>
        <time>2022-06-12T06:46:48Z</time>
      </trkpt>
      <trkpt lat="44.32502" lon="4.63105">
        <ele>97.9</ele>
        <time>2022-06-12T06:46:49Z</time>
      </trkpt>
      <trkpt lat="44.32505" lon="4.63111">
        <ele>97.9</ele>
        <time>2022-06-12T06:46:50Z</time>
      </trkpt>
      <trkpt lat="44.32508" lon="4.63118">
        <ele>97.9</ele>
        <time>2022-06-12T06:46:51Z</time>
      </trkpt>
      <trkpt lat="44.32511" lon="4.63124">
        <ele>97.9</ele>
        <time>2022-06-12T06:46:52Z</time>
      </trkpt>
      <trkpt lat="44.32514" lon="4.63131">
        <ele>98</ele>
        <time>2022-06-12T06:46:53Z</time>
      </trkpt>
      <trkpt lat="44.32516" lon="4.63138">
        <ele>98</ele>
        <time>2022-06-12T06:46:54Z</time>
      </trkpt>
      <trkpt lat="44.32519" lon="4.63145">
        <ele>98</ele>
        <time>2022-06-12T06:46:55Z</time>
      </trkpt>
      <trkpt lat="44.32522" lon="4.63151">
        <ele>98</ele>
        <time>2022-06-12T06:46:56Z</time>
      </trkpt>
      <trkpt lat="44.32524" lon="4.63158">
        <ele>98</ele>
        <time>2022-06-12T06:46:57Z</time>
      </trkpt>
      <trkpt lat="44.32527" lon="4.63165">
        <ele>98</ele>
        <time>2022-06-12T06:46:58Z</time>
      </trkpt>
      <trkpt lat="44.32529" lon="4.63172">
        <ele>98</ele>
        <time>2022-06-12T06:46:59Z</time>
      </trkpt>
      <trkpt lat="44.32532" lon="4.63179">
        <ele>98</ele>
        <time>2022-06-12T06:47:00Z</time>
      </trkpt>
      <trkpt lat="44.32535" lon="4.63185">
        <ele>98.1</ele>
        <time>2022-06-12T06:47:01Z</time>
      </trkpt>
      <trkpt lat="44.32537" lon="4.63192">
        <ele>98.1</ele>
        <time>2022-06-12T06:47:02Z</time>
      </trkpt>
      <trkpt lat="44.32539" lon="4.63199">
        <ele>98.1</ele>
        <time>2022-06-12T06:47:03Z</time>
      </trkpt>
      <trkpt lat="44.32542" lon="4.63205">
        <ele>98.1</ele>
        <time>2022-06-12T06:47:04Z</time>
      </trkpt>
      <trkpt lat="44.32544" lon="4.63212">
        <ele>98.1</ele>
        <time>2022-06-12T06:47:05Z</time>
      </trkpt>
      <trkpt lat="44.32547" lon="4.63219">
        <ele>98.1</ele>
        <time>2022-06-12T06:47:06Z</time>
      </trkpt>
      <trkpt lat="44.32549" lon="4.63226">
        <ele>98.1</ele>
        <time>2022-06-12T06:47:07Z</time>
      </trkpt>
      <trkpt lat="44.32552" lon="4.63232">
        <ele>98.1</ele>
        <time>2022-06-12T06:47:08Z</time>
      </trkpt>
      <trkpt lat="44.32554" lon="4.63239">
        <ele>98.1</ele>
        <time>2022-06-12T06:47:09Z</time>
      </trkpt>
      <trkpt lat="44.32557" lon="4.63245">
        <ele>98.1</ele>
        <time>2022-06-12T06:47:10Z</time>
      </trkpt>
      <trkpt lat="44.32559" lon="4.63251">
        <ele>98.1</ele>
        <time>2022-06-12T06:47:11Z</time>
      </trkpt>
      <trkpt lat="44.32562" lon="4.63258">
        <ele>98.1</ele>
        <time>2022-06-12T06:47:12Z</time>
      </trkpt>
      <trkpt lat="44.32564" lon="4.63264">
        <ele>98.1</ele>
        <time>2022-06-12T06:47:13Z</time>
      </trkpt>
      <trkpt lat="44.32566" lon="4.63271">
        <ele>98.1</ele>
        <time>2022-06-12T06:47:14Z</time>
      </trkpt>
      <trkpt lat="44.32569" lon="4.63278">
        <ele>98.1</ele>
        <time>2022-06-12T06:47:15Z</time>
      </trkpt>
      <trkpt lat="44.32571" lon="4.63284">
        <ele>98.1</ele>
        <time>2022-06-12T06:47:16Z</time>
      </trkpt>
      <trkpt lat="44.32573" lon="4.63291">
        <ele>98.1</ele>
        <time>2022-06-12T06:47:17Z</time>
      </trkpt>
      <trkpt lat="44.32576" lon="4.63297">
        <ele>98.1</ele>
        <time>2022-06-12T06:47:18Z</time>
      </trkpt>
      <trkpt lat="44.32579" lon="4.63304">
        <ele>98.1</ele>
        <time>2022-06-12T06:47:19Z</time>
      </trkpt>
      <trkpt lat="44.32581" lon="4.6331">
        <ele>98.1</ele>
        <time>2022-06-12T06:47:20Z</time>
      </trkpt>
      <trkpt lat="44.32584" lon="4.63316">
        <ele>98.1</ele>
        <time>2022-06-12T06:47:21Z</time>
      </trkpt>
      <trkpt lat="44.32587" lon="4.63322">
        <ele>98.1</ele>
        <time>2022-06-12T06:47:22Z</time>
      </trkpt>
      <trkpt lat="44.32589" lon="4.63328">
        <ele>98.2</ele>
        <time>2022-06-12T06:47:23Z</time>
      </trkpt>
      <trkpt lat="44.32592" lon="4.63335">
        <ele>98.2</ele>
        <time>2022-06-12T06:47:24Z</time>
      </trkpt>
      <trkpt lat="44.32595" lon="4.63341">
        <ele>98.2</ele>
        <time>2022-06-12T06:47:25Z</time>
      </trkpt>
      <trkpt lat="44.32598" lon="4.63346">
        <ele>98.2</ele>
        <time>2022-06-12T06:47:26Z</time>
      </trkpt>
      <trkpt lat="44.32601" lon="4.63352">
        <ele>98.2</ele>
        <time>2022-06-12T06:47:27Z</time>
      </trkpt>
      <trkpt lat="44.32604" lon="4.63358">
        <ele>98.2</ele>
        <time>2022-06-12T06:47:28Z</time>
      </trkpt>
      <trkpt lat="44.32608" lon="4.63364">
        <ele>98.2</ele>
        <time>2022-06-12T06:47:29Z</time>
      </trkpt>
      <trkpt lat="44.32611" lon="4.6337">
        <ele>98.2</ele>
        <time>2022-06-12T06:47:30Z</time>
      </trkpt>
      <trkpt lat="44.32615" lon="4.63375">
        <ele>98.2</ele>
        <time>2022-06-12T06:47:31Z</time>
      </trkpt>
      <trkpt lat="44.32619" lon="4.63381">
        <ele>98.2</ele>
        <time>2022-06-12T06:47:32Z</time>
      </trkpt>
      <trkpt lat="44.32622" lon="4.63386">
        <ele>98.2</ele>
        <time>2022-06-12T06:47:33Z</time>
      </trkpt>
      <trkpt lat="44.32626" lon="4.63391">
        <ele>98.2</ele>
        <time>2022-06-12T06:47:34Z</time>
      </trkpt>
      <trkpt lat="44.3263" lon="4.63396">
        <ele>98.2</ele>
        <time>2022-06-12T06:47:35Z</time>
      </trkpt>
      <trkpt lat="44.32634" lon="4.63402">
        <ele>98.3</ele>
        <time>2022-06-12T06:47:36Z</time>
      </trkpt>
      <trkpt lat="44.32637" lon="4.63407">
        <ele>98.3</ele>
        <time>2022-06-12T06:47:37Z</time>
      </trkpt>
      <trkpt lat="44.32642" lon="4.63412">
        <ele>98.3</ele>
        <time>2022-06-12T06:47:38Z</time>
      </trkpt>
      <trkpt lat="44.32646" lon="4.63416">
        <ele>98.3</ele>
        <time>2022-06-12T06:47:39Z</time>
      </trkpt>
      <trkpt lat="44.3265" lon="4.63421">
        <ele>98.3</ele>
        <time>2022-06-12T06:47:40Z</time>
      </trkpt>
      <trkpt lat="44.32655" lon="4.63426">
        <ele>98.3</ele>
        <time>2022-06-12T06:47:41Z</time>
      </trkpt>
      <trkpt lat="44.32659" lon="4.6343">
        <ele>98.3</ele>
        <time>2022-06-12T06:47:42Z</time>
      </trkpt>
      <trkpt lat="44.32663" lon="4.63435">
        <ele>98.3</ele>
        <time>2022-06-12T06:47:43Z</time>
      </trkpt>
      <trkpt lat="44.32667" lon="4.63439">
        <ele>98.2</ele>
        <time>2022-06-12T06:47:44Z</time>
      </trkpt>
      <trkpt lat="44.32672" lon="4.63443">
        <ele>98.2</ele>
        <time>2022-06-12T06:47:45Z</time>
      </trkpt>
      <trkpt lat="44.32677" lon="4.63447">
        <ele>98.2</ele>
        <time>2022-06-12T06:47:46Z</time>
      </trkpt>
      <trkpt lat="44.32681" lon="4.63452">
        <ele>98.2</ele>
        <time>2022-06-12T06:47:47Z</time>
      </trkpt>
      <trkpt lat="44.32686" lon="4.63456">
        <ele>98.2</ele>
        <time>2022-06-12T06:47:48Z</time>
      </trkpt>
      <trkpt lat="44.3269" lon="4.6346">
        <ele>98.2</ele>
        <time>2022-06-12T06:47:49Z</time>
      </trkpt>
      <trkpt lat="44.32694" lon="4.63464">
        <ele>98.2</ele>
        <time>2022-06-12T06:47:50Z</time>
      </trkpt>
      <trkpt lat="44.32699" lon="4.63468">
        <ele>98.2</ele>
        <time>2022-06-12T06:47:51Z</time>
      </trkpt>
      <trkpt lat="44.32703" lon="4.63473">
        <ele>98.2</ele>
        <time>2022-06-12T06:47:52Z</time>
      </trkpt>
      <trkpt lat="44.32707" lon="4.63477">
        <ele>98.2</ele>
        <time>2022-06-12T06:47:53Z</time>
      </trkpt>
      <trkpt lat="44.32711" lon="4.63481">
        <ele>98.2</ele>
        <time>2022-06-12T06:47:54Z</time>
      </trkpt>
      <trkpt lat="44.32715" lon="4.63485">
        <ele>98.1</ele>
        <time>2022-06-12T06:47:55Z</time>
      </trkpt>
      <trkpt lat="44.3272" lon="4.63489">
        <ele>98.1</ele>
        <time>2022-06-12T06:47:56Z</time>
      </trkpt>
      <trkpt lat="44.32724" lon="4.63493">
        <ele>98.1</ele>
        <time>2022-06-12T06:47:57Z</time>
      </trkpt>
      <trkpt lat="44.32728" lon="4.63497">
        <ele>98</ele>
        <time>2022-06-12T06:47:58Z</time>
      </trkpt>
      <trkpt lat="44.32733" lon="4.63501">
        <ele>98</ele>
        <time>2022-06-12T06:47:59Z</time>
      </trkpt>
      <trkpt lat="44.32737" lon="4.63506">
        <ele>98</ele>
        <time>2022-06-12T06:48:00Z</time>
      </trkpt>
      <trkpt lat="44.32742" lon="4.6351">
        <ele>98</ele>
        <time>2022-06-12T06:48:01Z</time>
      </trkpt>
      <trkpt lat="44.32746" lon="4.63514">
        <ele>98</ele>
        <time>2022-06-12T06:48:02Z</time>
      </trkpt>
      <trkpt lat="44.32751" lon="4.63518">
        <ele>98</ele>
        <time>2022-06-12T06:48:03Z</time>
      </trkpt>
      <trkpt lat="44.32755" lon="4.63523">
        <ele>98</ele>
        <time>2022-06-12T06:48:04Z</time>
      </trkpt>
      <trkpt lat="44.32759" lon="4.63527">
        <ele>98</ele>
        <time>2022-06-12T06:48:05Z</time>
      </trkpt>
      <trkpt lat="44.32763" lon="4.63531">
        <ele>98</ele>
        <time>2022-06-12T06:48:06Z</time>
      </trkpt>
      <trkpt lat="44.32768" lon="4.63535">
        <ele>98</ele>
        <time>2022-06-12T06:48:07Z</time>
      </trkpt>
      <trkpt lat="44.32772" lon="4.63539">
        <ele>98</ele>
        <time>2022-06-12T06:48:08Z</time>
      </trkpt>
      <trkpt lat="44.32776" lon="4.63544">
        <ele>97.9</ele>
        <time>2022-06-12T06:48:09Z</time>
      </trkpt>
      <trkpt lat="44.32781" lon="4.63548">
        <ele>97.9</ele>
        <time>2022-06-12T06:48:10Z</time>
      </trkpt>
      <trkpt lat="44.32785" lon="4.63552">
        <ele>97.9</ele>
        <time>2022-06-12T06:48:11Z</time>
      </trkpt>
      <trkpt lat="44.32789" lon="4.63556">
        <ele>97.9</ele>
        <time>2022-06-12T06:48:12Z</time>
      </trkpt>
      <trkpt lat="44.32793" lon="4.6356">
        <ele>97.9</ele>
        <time>2022-06-12T06:48:13Z</time>
      </trkpt>
      <trkpt lat="44.32798" lon="4.63563">
        <ele>97.9</ele>
        <time>2022-06-12T06:48:14Z</time>
      </trkpt>
      <trkpt lat="44.32802" lon="4.63568">
        <ele>97.9</ele>
        <time>2022-06-12T06:48:15Z</time>
      </trkpt>
      <trkpt lat="44.32806" lon="4.63572">
        <ele>97.9</ele>
        <time>2022-06-12T06:48:16Z</time>
      </trkpt>
      <trkpt lat="44.32811" lon="4.63576">
        <ele>97.8</ele>
        <time>2022-06-12T06:48:17Z</time>
      </trkpt>
      <trkpt lat="44.32815" lon="4.6358">
        <ele>97.8</ele>
        <time>2022-06-12T06:48:18Z</time>
      </trkpt>
      <trkpt lat="44.3282" lon="4.63585">
        <ele>97.8</ele>
        <time>2022-06-12T06:48:19Z</time>
      </trkpt>
      <trkpt lat="44.32824" lon="4.63589">
        <ele>97.8</ele>
        <time>2022-06-12T06:48:20Z</time>
      </trkpt>
      <trkpt lat="44.32828" lon="4.63594">
        <ele>97.8</ele>
        <time>2022-06-12T06:48:21Z</time>
      </trkpt>
      <trkpt lat="44.32833" lon="4.63598">
        <ele>97.7</ele>
        <time>2022-06-12T06:48:22Z</time>
      </trkpt>
      <trkpt lat="44.32838" lon="4.63602">
        <ele>97.7</ele>
        <time>2022-06-12T06:48:23Z</time>
      </trkpt>
      <trkpt lat="44.32842" lon="4.63607">
        <ele>97.7</ele>
        <time>2022-06-12T06:48:24Z</time>
      </trkpt>
      <trkpt lat="44.32847" lon="4.63611">
        <ele>97.7</ele>
        <time>2022-06-12T06:48:25Z</time>
      </trkpt>
      <trkpt lat="44.32852" lon="4.63615">
        <ele>97.6</ele>
        <time>2022-06-12T06:48:26Z</time>
      </trkpt>
      <trkpt lat="44.32856" lon="4.63619">
        <ele>97.6</ele>
        <time>2022-06-12T06:48:27Z</time>
      </trkpt>
      <trkpt lat="44.32861" lon="4.63624">
        <ele>97.6</ele>
        <time>2022-06-12T06:48:28Z</time>
      </trkpt>
      <trkpt lat="44.32865" lon="4.63629">
        <ele>97.6</ele>
        <time>2022-06-12T06:48:29Z</time>
      </trkpt>
      <trkpt lat="44.3287" lon="4.63633">
        <ele>97.6</ele>
        <time>2022-06-12T06:48:30Z</time>
      </trkpt>
      <trkpt lat="44.32875" lon="4.63638">
        <ele>97.6</ele>
        <time>2022-06-12T06:48:31Z</time>
      </trkpt>
      <trkpt lat="44.3288" lon="4.63643">
        <ele>97.6</ele>
        <time>2022-06-12T06:48:32Z</time>
      </trkpt>
      <trkpt lat="44.32885" lon="4.63647">
        <ele>97.6</ele>
        <time>2022-06-12T06:48:33Z</time>
      </trkpt>
      <trkpt lat="44.3289" lon="4.63652">
        <ele>97.6</ele>
        <time>2022-06-12T06:48:34Z</time>
      </trkpt>
      <trkpt lat="44.32895" lon="4.63656">
        <ele>97.6</ele>
        <time>2022-06-12T06:48:35Z</time>
      </trkpt>
      <trkpt lat="44.329" lon="4.63661">
        <ele>97.5</ele>
        <time>2022-06-12T06:48:36Z</time>
      </trkpt>
      <trkpt lat="44.32905" lon="4.63666">
        <ele>97.5</ele>
        <time>2022-06-12T06:48:37Z</time>
      </trkpt>
      <trkpt lat="44.3291" lon="4.63671">
        <ele>97.5</ele>
        <time>2022-06-12T06:48:38Z</time>
      </trkpt>
      <trkpt lat="44.32915" lon="4.63676">
        <ele>97.5</ele>
        <time>2022-06-12T06:48:39Z</time>
      </trkpt>
      <trkpt lat="44.3292" lon="4.63681">
        <ele>97.5</ele>
        <time>2022-06-12T06:48:40Z</time>
      </trkpt>
      <trkpt lat="44.32924" lon="4.63685">
        <ele>97.5</ele>
        <time>2022-06-12T06:48:41Z</time>
      </trkpt>
      <trkpt lat="44.32929" lon="4.6369">
        <ele>97.4</ele>
        <time>2022-06-12T06:48:42Z</time>
      </trkpt>
      <trkpt lat="44.32934" lon="4.63694">
        <ele>97.4</ele>
        <time>2022-06-12T06:48:43Z</time>
      </trkpt>
      <trkpt lat="44.32939" lon="4.63699">
        <ele>97.4</ele>
        <time>2022-06-12T06:48:44Z</time>
      </trkpt>
      <trkpt lat="44.32944" lon="4.63704">
        <ele>97.4</ele>
        <time>2022-06-12T06:48:45Z</time>
      </trkpt>
      <trkpt lat="44.32949" lon="4.63709">
        <ele>97.3</ele>
        <time>2022-06-12T06:48:46Z</time>
      </trkpt>
      <trkpt lat="44.32954" lon="4.63713">
        <ele>97.3</ele>
        <time>2022-06-12T06:48:47Z</time>
      </trkpt>
      <trkpt lat="44.32959" lon="4.63717">
        <ele>97.3</ele>
        <time>2022-06-12T06:48:48Z</time>
      </trkpt>
      <trkpt lat="44.32964" lon="4.63722">
        <ele>97.3</ele>
        <time>2022-06-12T06:48:49Z</time>
      </trkpt>
      <trkpt lat="44.32968" lon="4.63726">
        <ele>97.3</ele>
        <time>2022-06-12T06:48:50Z</time>
      </trkpt>
      <trkpt lat="44.32973" lon="4.6373">
        <ele>97.3</ele>
        <time>2022-06-12T06:48:51Z</time>
      </trkpt>
      <trkpt lat="44.32978" lon="4.63735">
        <ele>97.3</ele>
        <time>2022-06-12T06:48:52Z</time>
      </trkpt>
      <trkpt lat="44.32983" lon="4.6374">
        <ele>97.3</ele>
        <time>2022-06-12T06:48:53Z</time>
      </trkpt>
      <trkpt lat="44.32988" lon="4.63745">
        <ele>97.3</ele>
        <time>2022-06-12T06:48:54Z</time>
      </trkpt>
      <trkpt lat="44.32993" lon="4.63749">
        <ele>97.3</ele>
        <time>2022-06-12T06:48:55Z</time>
      </trkpt>
      <trkpt lat="44.32998" lon="4.63754">
        <ele>97.3</ele>
        <time>2022-06-12T06:48:56Z</time>
      </trkpt>
      <trkpt lat="44.33002" lon="4.63759">
        <ele>97.3</ele>
        <time>2022-06-12T06:48:57Z</time>
      </trkpt>
      <trkpt lat="44.33007" lon="4.63763">
        <ele>97.2</ele>
        <time>2022-06-12T06:48:58Z</time>
      </trkpt>
      <trkpt lat="44.33012" lon="4.63768">
        <ele>97.2</ele>
        <time>2022-06-12T06:48:59Z</time>
      </trkpt>
      <trkpt lat="44.33017" lon="4.63772">
        <ele>97.2</ele>
        <time>2022-06-12T06:49:00Z</time>
      </trkpt>
      <trkpt lat="44.33022" lon="4.63776">
        <ele>97.2</ele>
        <time>2022-06-12T06:49:01Z</time>
      </trkpt>
      <trkpt lat="44.33026" lon="4.63781">
        <ele>97.2</ele>
        <time>2022-06-12T06:49:02Z</time>
      </trkpt>
      <trkpt lat="44.3303" lon="4.63785">
        <ele>97.2</ele>
        <time>2022-06-12T06:49:03Z</time>
      </trkpt>
      <trkpt lat="44.33035" lon="4.6379">
        <ele>97.1</ele>
        <time>2022-06-12T06:49:04Z</time>
      </trkpt>
      <trkpt lat="44.3304" lon="4.63794">
        <ele>97.1</ele>
        <time>2022-06-12T06:49:05Z</time>
      </trkpt>
      <trkpt lat="44.33045" lon="4.63799">
        <ele>97.1</ele>
        <time>2022-06-12T06:49:06Z</time>
      </trkpt>
      <trkpt lat="44.3305" lon="4.63803">
        <ele>97.1</ele>
        <time>2022-06-12T06:49:07Z</time>
      </trkpt>
      <trkpt lat="44.33055" lon="4.63806">
        <ele>97.1</ele>
        <time>2022-06-12T06:49:08Z</time>
      </trkpt>
      <trkpt lat="44.3306" lon="4.6381">
        <ele>97</ele>
        <time>2022-06-12T06:49:09Z</time>
      </trkpt>
      <trkpt lat="44.33065" lon="4.63813">
        <ele>97</ele>
        <time>2022-06-12T06:49:10Z</time>
      </trkpt>
      <trkpt lat="44.3307" lon="4.63817">
        <ele>97</ele>
        <time>2022-06-12T06:49:11Z</time>
      </trkpt>
      <trkpt lat="44.33075" lon="4.6382">
        <ele>97</ele>
        <time>2022-06-12T06:49:12Z</time>
      </trkpt>
      <trkpt lat="44.3308" lon="4.63823">
        <ele>97</ele>
        <time>2022-06-12T06:49:13Z</time>
      </trkpt>
      <trkpt lat="44.33085" lon="4.63826">
        <ele>96.9</ele>
        <time>2022-06-12T06:49:14Z</time>
      </trkpt>
      <trkpt lat="44.3309" lon="4.63829">
        <ele>96.9</ele>
        <time>2022-06-12T06:49:15Z</time>
      </trkpt>
      <trkpt lat="44.33095" lon="4.63832">
        <ele>96.9</ele>
        <time>2022-06-12T06:49:16Z</time>
      </trkpt>
      <trkpt lat="44.331" lon="4.63834">
        <ele>96.9</ele>
        <time>2022-06-12T06:49:17Z</time>
      </trkpt>
      <trkpt lat="44.33105" lon="4.63837">
        <ele>96.9</ele>
        <time>2022-06-12T06:49:18Z</time>
      </trkpt>
      <trkpt lat="44.3311" lon="4.6384">
        <ele>96.8</ele>
        <time>2022-06-12T06:49:19Z</time>
      </trkpt>
      <trkpt lat="44.33115" lon="4.63843">
        <ele>96.8</ele>
        <time>2022-06-12T06:49:20Z</time>
      </trkpt>
      <trkpt lat="44.3312" lon="4.63846">
        <ele>96.7</ele>
        <time>2022-06-12T06:49:21Z</time>
      </trkpt>
      <trkpt lat="44.33125" lon="4.63849">
        <ele>96.7</ele>
        <time>2022-06-12T06:49:22Z</time>
      </trkpt>
      <trkpt lat="44.3313" lon="4.63852">
        <ele>96.6</ele>
        <time>2022-06-12T06:49:23Z</time>
      </trkpt>
      <trkpt lat="44.33136" lon="4.63856">
        <ele>96.5</ele>
        <time>2022-06-12T06:49:24Z</time>
      </trkpt>
      <trkpt lat="44.33141" lon="4.63859">
        <ele>96.5</ele>
        <time>2022-06-12T06:49:25Z</time>
      </trkpt>
      <trkpt lat="44.33146" lon="4.63863">
        <ele>96.4</ele>
        <time>2022-06-12T06:49:26Z</time>
      </trkpt>
      <trkpt lat="44.33152" lon="4.63866">
        <ele>96.4</ele>
        <time>2022-06-12T06:49:27Z</time>
      </trkpt>
      <trkpt lat="44.33157" lon="4.6387">
        <ele>96.4</ele>
        <time>2022-06-12T06:49:28Z</time>
      </trkpt>
      <trkpt lat="44.33162" lon="4.63872">
        <ele>96.3</ele>
        <time>2022-06-12T06:49:29Z</time>
      </trkpt>
      <trkpt lat="44.33168" lon="4.63876">
        <ele>96.3</ele>
        <time>2022-06-12T06:49:30Z</time>
      </trkpt>
      <trkpt lat="44.33173" lon="4.63879">
        <ele>96.2</ele>
        <time>2022-06-12T06:49:31Z</time>
      </trkpt>
      <trkpt lat="44.33178" lon="4.63882">
        <ele>96.2</ele>
        <time>2022-06-12T06:49:32Z</time>
      </trkpt>
      <trkpt lat="44.33183" lon="4.63886">
        <ele>96.2</ele>
        <time>2022-06-12T06:49:33Z</time>
      </trkpt>
      <trkpt lat="44.33188" lon="4.63889">
        <ele>96.1</ele>
        <time>2022-06-12T06:49:34Z</time>
      </trkpt>
      <trkpt lat="44.33193" lon="4.63893">
        <ele>96.1</ele>
        <time>2022-06-12T06:49:35Z</time>
      </trkpt>
      <trkpt lat="44.33199" lon="4.63896">
        <ele>96.1</ele>
        <time>2022-06-12T06:49:36Z</time>
      </trkpt>
      <trkpt lat="44.33204" lon="4.63898">
        <ele>96</ele>
        <time>2022-06-12T06:49:37Z</time>
      </trkpt>
      <trkpt lat="44.33209" lon="4.63902">
        <ele>95.9</ele>
        <time>2022-06-12T06:49:38Z</time>
      </trkpt>
      <trkpt lat="44.33215" lon="4.63905">
        <ele>95.8</ele>
        <time>2022-06-12T06:49:39Z</time>
      </trkpt>
      <trkpt lat="44.3322" lon="4.63909">
        <ele>95.7</ele>
        <time>2022-06-12T06:49:40Z</time>
      </trkpt>
      <trkpt lat="44.33225" lon="4.63912">
        <ele>95.6</ele>
        <time>2022-06-12T06:49:41Z</time>
      </trkpt>
      <trkpt lat="44.3323" lon="4.63914">
        <ele>95.5</ele>
        <time>2022-06-12T06:49:42Z</time>
      </trkpt>
      <trkpt lat="44.33236" lon="4.63917">
        <ele>95.4</ele>
        <time>2022-06-12T06:49:43Z</time>
      </trkpt>
      <trkpt lat="44.33241" lon="4.6392">
        <ele>95.2</ele>
        <time>2022-06-12T06:49:44Z</time>
      </trkpt>
      <trkpt lat="44.33246" lon="4.63923">
        <ele>95</ele>
        <time>2022-06-12T06:49:45Z</time>
      </trkpt>
      <trkpt lat="44.33252" lon="4.63927">
        <ele>94.7</ele>
        <time>2022-06-12T06:49:46Z</time>
      </trkpt>
      <trkpt lat="44.33257" lon="4.6393">
        <ele>94.5</ele>
        <time>2022-06-12T06:49:47Z</time>
      </trkpt>
      <trkpt lat="44.33263" lon="4.63934">
        <ele>94.2</ele>
        <time>2022-06-12T06:49:48Z</time>
      </trkpt>
      <trkpt lat="44.33269" lon="4.63937">
        <ele>93.9</ele>
        <time>2022-06-12T06:49:49Z</time>
      </trkpt>
      <trkpt lat="44.33275" lon="4.63941">
        <ele>93.6</ele>
        <time>2022-06-12T06:49:50Z</time>
      </trkpt>
      <trkpt lat="44.33281" lon="4.63945">
        <ele>93.2</ele>
        <time>2022-06-12T06:49:51Z</time>
      </trkpt>
      <trkpt lat="44.33287" lon="4.63948">
        <ele>92.8</ele>
        <time>2022-06-12T06:49:52Z</time>
      </trkpt>
      <trkpt lat="44.33294" lon="4.63952">
        <ele>92.5</ele>
        <time>2022-06-12T06:49:53Z</time>
      </trkpt>
      <trkpt lat="44.33307" lon="4.63959">
        <ele>91.7</ele>
        <time>2022-06-12T06:49:55Z</time>
      </trkpt>
      <trkpt lat="44.33315" lon="4.63963">
        <ele>91.3</ele>
        <time>2022-06-12T06:49:56Z</time>
      </trkpt>
      <trkpt lat="44.33322" lon="4.63967">
        <ele>90.9</ele>
        <time>2022-06-12T06:49:57Z</time>
      </trkpt>
      <trkpt lat="44.33329" lon="4.63972">
        <ele>90.5</ele>
        <time>2022-06-12T06:49:58Z</time>
      </trkpt>
      <trkpt lat="44.33337" lon="4.63976">
        <ele>90.1</ele>
        <time>2022-06-12T06:49:59Z</time>
      </trkpt>
      <trkpt lat="44.33345" lon="4.63981">
        <ele>89.6</ele>
        <time>2022-06-12T06:50:00Z</time>
      </trkpt>
      <trkpt lat="44.33353" lon="4.63985">
        <ele>89.2</ele>
        <time>2022-06-12T06:50:01Z</time>
      </trkpt>
      <trkpt lat="44.33361" lon="4.63989">
        <ele>88.7</ele>
        <time>2022-06-12T06:50:02Z</time>
      </trkpt>
      <trkpt lat="44.33369" lon="4.63994">
        <ele>88.3</ele>
        <time>2022-06-12T06:50:03Z</time>
      </trkpt>
      <trkpt lat="44.33377" lon="4.63999">
        <ele>87.8</ele>
        <time>2022-06-12T06:50:04Z</time>
      </trkpt>
      <trkpt lat="44.33386" lon="4.64004">
        <ele>87.3</ele>
        <time>2022-06-12T06:50:05Z</time>
      </trkpt>
      <trkpt lat="44.33394" lon="4.64009">
        <ele>86.8</ele>
        <time>2022-06-12T06:50:06Z</time>
      </trkpt>
      <trkpt lat="44.33403" lon="4.64014">
        <ele>86.3</ele>
        <time>2022-06-12T06:50:07Z</time>
      </trkpt>
      <trkpt lat="44.33412" lon="4.64019">
        <ele>85.9</ele>
        <time>2022-06-12T06:50:08Z</time>
      </trkpt>
      <trkpt lat="44.33421" lon="4.64024">
        <ele>85.4</ele>
        <time>2022-06-12T06:50:09Z</time>
      </trkpt>
      <trkpt lat="44.33429" lon="4.6403">
        <ele>84.9</ele>
        <time>2022-06-12T06:50:10Z</time>
      </trkpt>
      <trkpt lat="44.33438" lon="4.64035">
        <ele>84.4</ele>
        <time>2022-06-12T06:50:11Z</time>
      </trkpt>
      <trkpt lat="44.33447" lon="4.6404">
        <ele>83.9</ele>
        <time>2022-06-12T06:50:12Z</time>
      </trkpt>
      <trkpt lat="44.33456" lon="4.64045">
        <ele>83.4</ele>
        <time>2022-06-12T06:50:13Z</time>
      </trkpt>
      <trkpt lat="44.33465" lon="4.6405">
        <ele>82.9</ele>
        <time>2022-06-12T06:50:14Z</time>
      </trkpt>
      <trkpt lat="44.33474" lon="4.64055">
        <ele>82.4</ele>
        <time>2022-06-12T06:50:15Z</time>
      </trkpt>
      <trkpt lat="44.33482" lon="4.64059">
        <ele>81.8</ele>
        <time>2022-06-12T06:50:16Z</time>
      </trkpt>
      <trkpt lat="44.33491" lon="4.64064">
        <ele>81.3</ele>
        <time>2022-06-12T06:50:17Z</time>
      </trkpt>
      <trkpt lat="44.33501" lon="4.64069">
        <ele>80.8</ele>
        <time>2022-06-12T06:50:18Z</time>
      </trkpt>
      <trkpt lat="44.3351" lon="4.64075">
        <ele>80.2</ele>
        <time>2022-06-12T06:50:19Z</time>
      </trkpt>
      <trkpt lat="44.33519" lon="4.64081">
        <ele>79.7</ele>
        <time>2022-06-12T06:50:20Z</time>
      </trkpt>
      <trkpt lat="44.33528" lon="4.64086">
        <ele>79.1</ele>
        <time>2022-06-12T06:50:21Z</time>
      </trkpt>
      <trkpt lat="44.33538" lon="4.64092">
        <ele>78.6</ele>
        <time>2022-06-12T06:50:22Z</time>
      </trkpt>
      <trkpt lat="44.33547" lon="4.64097">
        <ele>78</ele>
        <time>2022-06-12T06:50:23Z</time>
      </trkpt>
      <trkpt lat="44.33557" lon="4.64103">
        <ele>77.4</ele>
        <time>2022-06-12T06:50:24Z</time>
      </trkpt>
      <trkpt lat="44.33567" lon="4.64109">
        <ele>76.9</ele>
        <time>2022-06-12T06:50:25Z</time>
      </trkpt>
      <trkpt lat="44.33576" lon="4.64115">
        <ele>76.3</ele>
        <time>2022-06-12T06:50:26Z</time>
      </trkpt>
      <trkpt lat="44.33585" lon="4.64121">
        <ele>75.8</ele>
        <time>2022-06-12T06:50:27Z</time>
      </trkpt>
      <trkpt lat="44.33595" lon="4.64126">
        <ele>75.3</ele>
        <time>2022-06-12T06:50:28Z</time>
      </trkpt>
      <trkpt lat="44.33604" lon="4.64132">
        <ele>74.8</ele>
        <time>2022-06-12T06:50:29Z</time>
      </trkpt>
      <trkpt lat="44.33614" lon="4.64137">
        <ele>74.3</ele>
        <time>2022-06-12T06:50:30Z</time>
      </trkpt>
      <trkpt lat="44.33623" lon="4.64143">
        <ele>73.9</ele>
        <time>2022-06-12T06:50:31Z</time>
      </trkpt>
      <trkpt lat="44.33633" lon="4.64148">
        <ele>73.7</ele>
        <time>2022-06-12T06:50:32Z</time>
      </trkpt>
      <trkpt lat="44.33642" lon="4.64154">
        <ele>73.1</ele>
        <time>2022-06-12T06:50:33Z</time>
      </trkpt>
      <trkpt lat="44.33651" lon="4.6416">
        <ele>72.6</ele>
        <time>2022-06-12T06:50:34Z</time>
      </trkpt>
      <trkpt lat="44.3366" lon="4.64165">
        <ele>72</ele>
        <time>2022-06-12T06:50:35Z</time>
      </trkpt>
      <trkpt lat="44.3367" lon="4.64171">
        <ele>71.4</ele>
        <time>2022-06-12T06:50:36Z</time>
      </trkpt>
      <trkpt lat="44.33679" lon="4.64177">
        <ele>70.9</ele>
        <time>2022-06-12T06:50:37Z</time>
      </trkpt>
      <trkpt lat="44.33688" lon="4.64182">
        <ele>70.3</ele>
        <time>2022-06-12T06:50:38Z</time>
      </trkpt>
      <trkpt lat="44.33697" lon="4.64188">
        <ele>69.8</ele>
        <time>2022-06-12T06:50:39Z</time>
      </trkpt>
      <trkpt lat="44.33706" lon="4.64193">
        <ele>69.2</ele>
        <time>2022-06-12T06:50:40Z</time>
      </trkpt>
      <trkpt lat="44.33715" lon="4.64199">
        <ele>68.7</ele>
        <time>2022-06-12T06:50:41Z</time>
      </trkpt>
      <trkpt lat="44.33725" lon="4.64203">
        <ele>68.1</ele>
        <time>2022-06-12T06:50:42Z</time>
      </trkpt>
      <trkpt lat="44.33734" lon="4.64207">
        <ele>67.6</ele>
        <time>2022-06-12T06:50:43Z</time>
      </trkpt>
      <trkpt lat="44.33743" lon="4.64209">
        <ele>67.1</ele>
        <time>2022-06-12T06:50:44Z</time>
      </trkpt>
      <trkpt lat="44.33753" lon="4.64211">
        <ele>66.5</ele>
        <time>2022-06-12T06:50:45Z</time>
      </trkpt>
      <trkpt lat="44.33762" lon="4.64211">
        <ele>65.9</ele>
        <time>2022-06-12T06:50:46Z</time>
      </trkpt>
      <trkpt lat="44.33772" lon="4.6421">
        <ele>65.3</ele>
        <time>2022-06-12T06:50:47Z</time>
      </trkpt>
      <trkpt lat="44.33781" lon="4.64207">
        <ele>64.6</ele>
        <time>2022-06-12T06:50:48Z</time>
      </trkpt>
      <trkpt lat="44.3379" lon="4.64202">
        <ele>64</ele>
        <time>2022-06-12T06:50:49Z</time>
      </trkpt>
      <trkpt lat="44.33798" lon="4.64196">
        <ele>63.4</ele>
        <time>2022-06-12T06:50:50Z</time>
      </trkpt>
      <trkpt lat="44.33805" lon="4.64188">
        <ele>62.8</ele>
        <time>2022-06-12T06:50:51Z</time>
      </trkpt>
      <trkpt lat="44.33812" lon="4.64179">
        <ele>62.2</ele>
        <time>2022-06-12T06:50:52Z</time>
      </trkpt>
      <trkpt lat="44.33818" lon="4.64169">
        <ele>61.6</ele>
        <time>2022-06-12T06:50:53Z</time>
      </trkpt>
      <trkpt lat="44.33824" lon="4.64158">
        <ele>61</ele>
        <time>2022-06-12T06:50:54Z</time>
      </trkpt>
      <trkpt lat="44.33829" lon="4.64147">
        <ele>60.4</ele>
        <time>2022-06-12T06:50:55Z</time>
      </trkpt>
      <trkpt lat="44.33834" lon="4.64136">
        <ele>59.9</ele>
        <time>2022-06-12T06:50:56Z</time>
      </trkpt>
      <trkpt lat="44.33839" lon="4.64124">
        <ele>59.4</ele>
        <time>2022-06-12T06:50:57Z</time>
      </trkpt>
      <trkpt lat="44.33845" lon="4.64113">
        <ele>58.9</ele>
        <time>2022-06-12T06:50:58Z</time>
      </trkpt>
      <trkpt lat="44.3385" lon="4.64102">
        <ele>58.5</ele>
        <time>2022-06-12T06:50:59Z</time>
      </trkpt>
      <trkpt lat="44.33855" lon="4.64091">
        <ele>58.1</ele>
        <time>2022-06-12T06:51:00Z</time>
      </trkpt>
      <trkpt lat="44.33861" lon="4.64079">
        <ele>57.7</ele>
        <time>2022-06-12T06:51:01Z</time>
      </trkpt>
      <trkpt lat="44.33867" lon="4.64067">
        <ele>57.5</ele>
        <time>2022-06-12T06:51:02Z</time>
      </trkpt>
      <trkpt lat="44.33872" lon="4.64056">
        <ele>57.4</ele>
        <time>2022-06-12T06:51:03Z</time>
      </trkpt>
      <trkpt lat="44.33877" lon="4.64045">
        <ele>57.3</ele>
        <time>2022-06-12T06:51:04Z</time>
      </trkpt>
      <trkpt lat="44.33883" lon="4.64035">
        <ele>57.3</ele>
        <time>2022-06-12T06:51:05Z</time>
      </trkpt>
      <trkpt lat="44.33889" lon="4.64024">
        <ele>57.4</ele>
        <time>2022-06-12T06:51:06Z</time>
      </trkpt>
      <trkpt lat="44.33894" lon="4.64014">
        <ele>57.4</ele>
        <time>2022-06-12T06:51:07Z</time>
      </trkpt>
      <trkpt lat="44.33899" lon="4.64004">
        <ele>57.4</ele>
        <time>2022-06-12T06:51:08Z</time>
      </trkpt>
      <trkpt lat="44.33904" lon="4.63994">
        <ele>57.5</ele>
        <time>2022-06-12T06:51:09Z</time>
      </trkpt>
      <trkpt lat="44.33909" lon="4.63985">
        <ele>57.5</ele>
        <time>2022-06-12T06:51:10Z</time>
      </trkpt>
      <trkpt lat="44.33914" lon="4.63975">
        <ele>57.6</ele>
        <time>2022-06-12T06:51:11Z</time>
      </trkpt>
      <trkpt lat="44.33919" lon="4.63966">
        <ele>57.7</ele>
        <time>2022-06-12T06:51:12Z</time>
      </trkpt>
      <trkpt lat="44.33923" lon="4.63957">
        <ele>57.7</ele>
        <time>2022-06-12T06:51:13Z</time>
      </trkpt>
      <trkpt lat="44.33928" lon="4.63948">
        <ele>57.8</ele>
        <time>2022-06-12T06:51:14Z</time>
      </trkpt>
      <trkpt lat="44.33932" lon="4.6394">
        <ele>57.8</ele>
        <time>2022-06-12T06:51:15Z</time>
      </trkpt>
      <trkpt lat="44.33936" lon="4.63931">
        <ele>57.9</ele>
        <time>2022-06-12T06:51:16Z</time>
      </trkpt>
      <trkpt lat="44.3394" lon="4.63923">
        <ele>57.9</ele>
        <time>2022-06-12T06:51:17Z</time>
      </trkpt>
      <trkpt lat="44.33945" lon="4.63915">
        <ele>58</ele>
        <time>2022-06-12T06:51:18Z</time>
      </trkpt>
      <trkpt lat="44.3395" lon="4.63907">
        <ele>58</ele>
        <time>2022-06-12T06:51:19Z</time>
      </trkpt>
      <trkpt lat="44.33954" lon="4.63899">
        <ele>58</ele>
        <time>2022-06-12T06:51:20Z</time>
      </trkpt>
      <trkpt lat="44.3396" lon="4.63892">
        <ele>58</ele>
        <time>2022-06-12T06:51:21Z</time>
      </trkpt>
      <trkpt lat="44.33965" lon="4.63885">
        <ele>58.1</ele>
        <time>2022-06-12T06:51:22Z</time>
      </trkpt>
      <trkpt lat="44.3397" lon="4.63879">
        <ele>58.1</ele>
        <time>2022-06-12T06:51:23Z</time>
      </trkpt>
      <trkpt lat="44.33976" lon="4.63873">
        <ele>58.1</ele>
        <time>2022-06-12T06:51:24Z</time>
      </trkpt>
      <trkpt lat="44.33981" lon="4.63868">
        <ele>58.2</ele>
        <time>2022-06-12T06:51:25Z</time>
      </trkpt>
      <trkpt lat="44.33987" lon="4.63863">
        <ele>58.2</ele>
        <time>2022-06-12T06:51:26Z</time>
      </trkpt>
      <trkpt lat="44.33993" lon="4.63858">
        <ele>58.1</ele>
        <time>2022-06-12T06:51:27Z</time>
      </trkpt>
      <trkpt lat="44.33998" lon="4.63853">
        <ele>58.1</ele>
        <time>2022-06-12T06:51:28Z</time>
      </trkpt>
      <trkpt lat="44.34004" lon="4.63848">
        <ele>58.1</ele>
        <time>2022-06-12T06:51:29Z</time>
      </trkpt>
      <trkpt lat="44.34009" lon="4.63844">
        <ele>58.1</ele>
        <time>2022-06-12T06:51:30Z</time>
      </trkpt>
      <trkpt lat="44.34015" lon="4.6384">
        <ele>58.2</ele>
        <time>2022-06-12T06:51:31Z</time>
      </trkpt>
      <trkpt lat="44.34021" lon="4.63835">
        <ele>58.2</ele>
        <time>2022-06-12T06:51:32Z</time>
      </trkpt>
      <trkpt lat="44.34027" lon="4.63831">
        <ele>58.2</ele>
        <time>2022-06-12T06:51:33Z</time>
      </trkpt>
      <trkpt lat="44.34032" lon="4.63827">
        <ele>58.2</ele>
        <time>2022-06-12T06:51:34Z</time>
      </trkpt>
      <trkpt lat="44.34038" lon="4.63823">
        <ele>58.2</ele>
        <time>2022-06-12T06:51:35Z</time>
      </trkpt>
      <trkpt lat="44.34044" lon="4.6382">
        <ele>58.2</ele>
        <time>2022-06-12T06:51:36Z</time>
      </trkpt>
      <trkpt lat="44.3405" lon="4.63816">
        <ele>58.2</ele>
        <time>2022-06-12T06:51:37Z</time>
      </trkpt>
      <trkpt lat="44.34055" lon="4.63812">
        <ele>58.2</ele>
        <time>2022-06-12T06:51:38Z</time>
      </trkpt>
      <trkpt lat="44.34061" lon="4.63808">
        <ele>58.2</ele>
        <time>2022-06-12T06:51:39Z</time>
      </trkpt>
      <trkpt lat="44.34067" lon="4.63804">
        <ele>58.2</ele>
        <time>2022-06-12T06:51:40Z</time>
      </trkpt>
      <trkpt lat="44.34072" lon="4.638">
        <ele>58.2</ele>
        <time>2022-06-12T06:51:41Z</time>
      </trkpt>
      <trkpt lat="44.34078" lon="4.63796">
        <ele>58.2</ele>
        <time>2022-06-12T06:51:42Z</time>
      </trkpt>
      <trkpt lat="44.34083" lon="4.63793">
        <ele>58.2</ele>
        <time>2022-06-12T06:51:43Z</time>
      </trkpt>
      <trkpt lat="44.34088" lon="4.63789">
        <ele>58.2</ele>
        <time>2022-06-12T06:51:44Z</time>
      </trkpt>
      <trkpt lat="44.34093" lon="4.63786">
        <ele>58.3</ele>
        <time>2022-06-12T06:51:45Z</time>
      </trkpt>
      <trkpt lat="44.34098" lon="4.63782">
        <ele>58.3</ele>
        <time>2022-06-12T06:51:46Z</time>
      </trkpt>
      <trkpt lat="44.34103" lon="4.63778">
        <ele>58.3</ele>
        <time>2022-06-12T06:51:47Z</time>
      </trkpt>
      <trkpt lat="44.34108" lon="4.63774">
        <ele>58.4</ele>
        <time>2022-06-12T06:51:48Z</time>
      </trkpt>
      <trkpt lat="44.34114" lon="4.63771">
        <ele>58.4</ele>
        <time>2022-06-12T06:51:49Z</time>
      </trkpt>
      <trkpt lat="44.34119" lon="4.63767">
        <ele>58.4</ele>
        <time>2022-06-12T06:51:50Z</time>
      </trkpt>
      <trkpt lat="44.34124" lon="4.63763">
        <ele>58.4</ele>
        <time>2022-06-12T06:51:51Z</time>
      </trkpt>
      <trkpt lat="44.34129" lon="4.6376">
        <ele>58.4</ele>
        <time>2022-06-12T06:51:52Z</time>
      </trkpt>
      <trkpt lat="44.34135" lon="4.63756">
        <ele>58.4</ele>
        <time>2022-06-12T06:51:53Z</time>
      </trkpt>
      <trkpt lat="44.3414" lon="4.63752">
        <ele>58.3</ele>
        <time>2022-06-12T06:51:54Z</time>
      </trkpt>
      <trkpt lat="44.34146" lon="4.63749">
        <ele>58.3</ele>
        <time>2022-06-12T06:51:55Z</time>
      </trkpt>
      <trkpt lat="44.34151" lon="4.63745">
        <ele>58.3</ele>
        <time>2022-06-12T06:51:56Z</time>
      </trkpt>
      <trkpt lat="44.34157" lon="4.63742">
        <ele>58.3</ele>
        <time>2022-06-12T06:51:57Z</time>
      </trkpt>
      <trkpt lat="44.34163" lon="4.63738">
        <ele>58.2</ele>
        <time>2022-06-12T06:51:58Z</time>
      </trkpt>
      <trkpt lat="44.34168" lon="4.63735">
        <ele>58.1</ele>
        <time>2022-06-12T06:51:59Z</time>
      </trkpt>
      <trkpt lat="44.34174" lon="4.63731">
        <ele>58.1</ele>
        <time>2022-06-12T06:52:00Z</time>
      </trkpt>
      <trkpt lat="44.3418" lon="4.63728">
        <ele>58</ele>
        <time>2022-06-12T06:52:01Z</time>
      </trkpt>
      <trkpt lat="44.34185" lon="4.63725">
        <ele>57.9</ele>
        <time>2022-06-12T06:52:02Z</time>
      </trkpt>
      <trkpt lat="44.34191" lon="4.63721">
        <ele>57.9</ele>
        <time>2022-06-12T06:52:03Z</time>
      </trkpt>
      <trkpt lat="44.34197" lon="4.63718">
        <ele>57.8</ele>
        <time>2022-06-12T06:52:04Z</time>
      </trkpt>
      <trkpt lat="44.34202" lon="4.63714">
        <ele>57.7</ele>
        <time>2022-06-12T06:52:05Z</time>
      </trkpt>
      <trkpt lat="44.34208" lon="4.63711">
        <ele>57.7</ele>
        <time>2022-06-12T06:52:06Z</time>
      </trkpt>
      <trkpt lat="44.34214" lon="4.63708">
        <ele>57.6</ele>
        <time>2022-06-12T06:52:07Z</time>
      </trkpt>
      <trkpt lat="44.34219" lon="4.63704">
        <ele>57.5</ele>
        <time>2022-06-12T06:52:08Z</time>
      </trkpt>
      <trkpt lat="44.34225" lon="4.63701">
        <ele>57.4</ele>
        <time>2022-06-12T06:52:09Z</time>
      </trkpt>
      <trkpt lat="44.34231" lon="4.63698">
        <ele>57.3</ele>
        <time>2022-06-12T06:52:10Z</time>
      </trkpt>
      <trkpt lat="44.34237" lon="4.63694">
        <ele>57.3</ele>
        <time>2022-06-12T06:52:11Z</time>
      </trkpt>
      <trkpt lat="44.34242" lon="4.6369">
        <ele>57.2</ele>
        <time>2022-06-12T06:52:12Z</time>
      </trkpt>
      <trkpt lat="44.34248" lon="4.63687">
        <ele>57.2</ele>
        <time>2022-06-12T06:52:13Z</time>
      </trkpt>
      <trkpt lat="44.34253" lon="4.63684">
        <ele>57.2</ele>
        <time>2022-06-12T06:52:14Z</time>
      </trkpt>
      <trkpt lat="44.34259" lon="4.63681">
        <ele>57.1</ele>
        <time>2022-06-12T06:52:15Z</time>
      </trkpt>
      <trkpt lat="44.34264" lon="4.63678">
        <ele>57.1</ele>
        <time>2022-06-12T06:52:16Z</time>
      </trkpt>
      <trkpt lat="44.3427" lon="4.63674">
        <ele>57</ele>
        <time>2022-06-12T06:52:17Z</time>
      </trkpt>
      <trkpt lat="44.34276" lon="4.6367">
        <ele>57</ele>
        <time>2022-06-12T06:52:18Z</time>
      </trkpt>
      <trkpt lat="44.34281" lon="4.63667">
        <ele>56.9</ele>
        <time>2022-06-12T06:52:19Z</time>
      </trkpt>
      <trkpt lat="44.34287" lon="4.63663">
        <ele>56.9</ele>
        <time>2022-06-12T06:52:20Z</time>
      </trkpt>
      <trkpt lat="44.34292" lon="4.63659">
        <ele>56.9</ele>
        <time>2022-06-12T06:52:21Z</time>
      </trkpt>
      <trkpt lat="44.34298" lon="4.63655">
        <ele>56.9</ele>
        <time>2022-06-12T06:52:22Z</time>
      </trkpt>
      <trkpt lat="44.34303" lon="4.63651">
        <ele>57</ele>
        <time>2022-06-12T06:52:23Z</time>
      </trkpt>
      <trkpt lat="44.34308" lon="4.63647">
        <ele>57</ele>
        <time>2022-06-12T06:52:24Z</time>
      </trkpt>
      <trkpt lat="44.34313" lon="4.63643">
        <ele>57.1</ele>
        <time>2022-06-12T06:52:25Z</time>
      </trkpt>
      <trkpt lat="44.34317" lon="4.63638">
        <ele>57.1</ele>
        <time>2022-06-12T06:52:26Z</time>
      </trkpt>
      <trkpt lat="44.34322" lon="4.63634">
        <ele>57.2</ele>
        <time>2022-06-12T06:52:27Z</time>
      </trkpt>
      <trkpt lat="44.34327" lon="4.63629">
        <ele>57.2</ele>
        <time>2022-06-12T06:52:28Z</time>
      </trkpt>
      <trkpt lat="44.34331" lon="4.63624">
        <ele>57.3</ele>
        <time>2022-06-12T06:52:29Z</time>
      </trkpt>
      <trkpt lat="44.34336" lon="4.6362">
        <ele>57.4</ele>
        <time>2022-06-12T06:52:30Z</time>
      </trkpt>
      <trkpt lat="44.34341" lon="4.63615">
        <ele>57.5</ele>
        <time>2022-06-12T06:52:31Z</time>
      </trkpt>
      <trkpt lat="44.34346" lon="4.6361">
        <ele>57.6</ele>
        <time>2022-06-12T06:52:32Z</time>
      </trkpt>
      <trkpt lat="44.3435" lon="4.63606">
        <ele>57.7</ele>
        <time>2022-06-12T06:52:33Z</time>
      </trkpt>
      <trkpt lat="44.34355" lon="4.63601">
        <ele>57.8</ele>
        <time>2022-06-12T06:52:34Z</time>
      </trkpt>
      <trkpt lat="44.34359" lon="4.63596">
        <ele>58</ele>
        <time>2022-06-12T06:52:35Z</time>
      </trkpt>
      <trkpt lat="44.34364" lon="4.63591">
        <ele>58.1</ele>
        <time>2022-06-12T06:52:36Z</time>
      </trkpt>
      <trkpt lat="44.34368" lon="4.63587">
        <ele>58.3</ele>
        <time>2022-06-12T06:52:37Z</time>
      </trkpt>
      <trkpt lat="44.34373" lon="4.63583">
        <ele>58.4</ele>
        <time>2022-06-12T06:52:38Z</time>
      </trkpt>
      <trkpt lat="44.34377" lon="4.6358">
        <ele>58.6</ele>
        <time>2022-06-12T06:52:39Z</time>
      </trkpt>
      <trkpt lat="44.34382" lon="4.63577">
        <ele>58.7</ele>
        <time>2022-06-12T06:52:40Z</time>
      </trkpt>
      <trkpt lat="44.34386" lon="4.63574">
        <ele>58.9</ele>
        <time>2022-06-12T06:52:41Z</time>
      </trkpt>
      <trkpt lat="44.34391" lon="4.63571">
        <ele>59.1</ele>
        <time>2022-06-12T06:52:42Z</time>
      </trkpt>
      <trkpt lat="44.34396" lon="4.6357">
        <ele>59.2</ele>
        <time>2022-06-12T06:52:43Z</time>
      </trkpt>
      <trkpt lat="44.344" lon="4.63568">
        <ele>59.4</ele>
        <time>2022-06-12T06:52:44Z</time>
      </trkpt>
      <trkpt lat="44.34405" lon="4.63567">
        <ele>59.7</ele>
        <time>2022-06-12T06:52:45Z</time>
      </trkpt>
      <trkpt lat="44.34409" lon="4.63566">
        <ele>59.8</ele>
        <time>2022-06-12T06:52:46Z</time>
      </trkpt>
      <trkpt lat="44.34417" lon="4.63565">
        <ele>60.1</ele>
        <time>2022-06-12T06:52:48Z</time>
      </trkpt>
      <trkpt lat="44.34421" lon="4.63565">
        <ele>60.2</ele>
        <time>2022-06-12T06:52:49Z</time>
      </trkpt>
      <trkpt lat="44.34425" lon="4.63565">
        <ele>60.1</ele>
        <time>2022-06-12T06:52:50Z</time>
      </trkpt>
      <trkpt lat="44.34429" lon="4.63566">
        <ele>60.2</ele>
        <time>2022-06-12T06:52:51Z</time>
      </trkpt>
      <trkpt lat="44.34433" lon="4.63566">
        <ele>60.2</ele>
        <time>2022-06-12T06:52:52Z</time>
      </trkpt>
      <trkpt lat="44.34437" lon="4.63566">
        <ele>60.3</ele>
        <time>2022-06-12T06:52:53Z</time>
      </trkpt>
      <trkpt lat="44.3444" lon="4.63567">
        <ele>60.4</ele>
        <time>2022-06-12T06:52:54Z</time>
      </trkpt>
      <trkpt lat="44.34438" lon="4.63566">
        <ele>60.5</ele>
        <time>2022-06-12T06:52:55Z</time>
      </trkpt>
      <trkpt lat="44.34442" lon="4.63567">
        <ele>60.6</ele>
        <time>2022-06-12T06:52:56Z</time>
      </trkpt>
      <trkpt lat="44.34451" lon="4.63569">
        <ele>60.9</ele>
        <time>2022-06-12T06:52:58Z</time>
      </trkpt>
      <trkpt lat="44.34456" lon="4.63571">
        <ele>61</ele>
        <time>2022-06-12T06:52:59Z</time>
      </trkpt>
      <trkpt lat="44.3446" lon="4.63572">
        <ele>61.2</ele>
        <time>2022-06-12T06:53:00Z</time>
      </trkpt>
      <trkpt lat="44.34465" lon="4.63573">
        <ele>61.4</ele>
        <time>2022-06-12T06:53:01Z</time>
      </trkpt>
      <trkpt lat="44.34469" lon="4.63574">
        <ele>61.5</ele>
        <time>2022-06-12T06:53:02Z</time>
      </trkpt>
      <trkpt lat="44.34472" lon="4.63576">
        <ele>61.6</ele>
        <time>2022-06-12T06:53:03Z</time>
      </trkpt>
      <trkpt lat="44.34477" lon="4.63579">
        <ele>61.8</ele>
        <time>2022-06-12T06:53:05Z</time>
      </trkpt>
      <trkpt lat="44.3448" lon="4.6358">
        <ele>61.9</ele>
        <time>2022-06-12T06:53:06Z</time>
      </trkpt>
      <trkpt lat="44.34484" lon="4.63581">
        <ele>62</ele>
        <time>2022-06-12T06:53:07Z</time>
      </trkpt>
      <trkpt lat="44.34488" lon="4.63582">
        <ele>62.3</ele>
        <time>2022-06-12T06:53:08Z</time>
      </trkpt>
      <trkpt lat="44.34491" lon="4.63583">
        <ele>62.5</ele>
        <time>2022-06-12T06:53:09Z</time>
      </trkpt>
      <trkpt lat="44.34496" lon="4.63584">
        <ele>62.7</ele>
        <time>2022-06-12T06:53:11Z</time>
      </trkpt>
      <trkpt lat="44.345" lon="4.63585">
        <ele>62.9</ele>
        <time>2022-06-12T06:53:12Z</time>
      </trkpt>
      <trkpt lat="44.34503" lon="4.63586">
        <ele>63.1</ele>
        <time>2022-06-12T06:53:13Z</time>
      </trkpt>
      <trkpt lat="44.34505" lon="4.63587">
        <ele>63.2</ele>
        <time>2022-06-12T06:53:14Z</time>
      </trkpt>
      <trkpt lat="44.3451" lon="4.63589">
        <ele>63.4</ele>
        <time>2022-06-12T06:53:16Z</time>
      </trkpt>
      <trkpt lat="44.34512" lon="4.6359">
        <ele>63.6</ele>
        <time>2022-06-12T06:53:17Z</time>
      </trkpt>
      <trkpt lat="44.34516" lon="4.6359">
        <ele>63.8</ele>
        <time>2022-06-12T06:53:18Z</time>
      </trkpt>
      <trkpt lat="44.3452" lon="4.63591">
        <ele>64</ele>
        <time>2022-06-12T06:53:19Z</time>
      </trkpt>
      <trkpt lat="44.34522" lon="4.63592">
        <ele>64.2</ele>
        <time>2022-06-12T06:53:20Z</time>
      </trkpt>
      <trkpt lat="44.34525" lon="4.63593">
        <ele>64.4</ele>
        <time>2022-06-12T06:53:21Z</time>
      </trkpt>
      <trkpt lat="44.34528" lon="4.63594">
        <ele>64.5</ele>
        <time>2022-06-12T06:53:22Z</time>
      </trkpt>
      <trkpt lat="44.34532" lon="4.63595">
        <ele>64.8</ele>
        <time>2022-06-12T06:53:23Z</time>
      </trkpt>
      <trkpt lat="44.34533" lon="4.63595">
        <ele>64.9</ele>
        <time>2022-06-12T06:53:24Z</time>
      </trkpt>
      <trkpt lat="44.34536" lon="4.63596">
        <ele>65</ele>
        <time>2022-06-12T06:53:25Z</time>
      </trkpt>
      <trkpt lat="44.3454" lon="4.63598">
        <ele>65.2</ele>
        <time>2022-06-12T06:53:27Z</time>
      </trkpt>
      <trkpt lat="44.34544" lon="4.63599">
        <ele>65.5</ele>
        <time>2022-06-12T06:53:28Z</time>
      </trkpt>
      <trkpt lat="44.34548" lon="4.636">
        <ele>65.7</ele>
        <time>2022-06-12T06:53:29Z</time>
      </trkpt>
      <trkpt lat="44.3455" lon="4.636">
        <ele>65.8</ele>
        <time>2022-06-12T06:53:30Z</time>
      </trkpt>
      <trkpt lat="44.34553" lon="4.63601">
        <ele>65.9</ele>
        <time>2022-06-12T06:53:31Z</time>
      </trkpt>
      <trkpt lat="44.34556" lon="4.63602">
        <ele>66.1</ele>
        <time>2022-06-12T06:53:32Z</time>
      </trkpt>
      <trkpt lat="44.34557" lon="4.63602">
        <ele>66.2</ele>
        <time>2022-06-12T06:53:33Z</time>
      </trkpt>
      <trkpt lat="44.34561" lon="4.63603">
        <ele>66.4</ele>
        <time>2022-06-12T06:53:34Z</time>
      </trkpt>
      <trkpt lat="44.34563" lon="4.63604">
        <ele>66.4</ele>
        <time>2022-06-12T06:53:35Z</time>
      </trkpt>
      <trkpt lat="44.34566" lon="4.63605">
        <ele>66.6</ele>
        <time>2022-06-12T06:53:36Z</time>
      </trkpt>
      <trkpt lat="44.34568" lon="4.63605">
        <ele>66.7</ele>
        <time>2022-06-12T06:53:37Z</time>
      </trkpt>
      <trkpt lat="44.34571" lon="4.63606">
        <ele>66.8</ele>
        <time>2022-06-12T06:53:38Z</time>
      </trkpt>
      <trkpt lat="44.34575" lon="4.63607">
        <ele>67</ele>
        <time>2022-06-12T06:53:39Z</time>
      </trkpt>
      <trkpt lat="44.34576" lon="4.63607">
        <ele>67.1</ele>
        <time>2022-06-12T06:53:40Z</time>
      </trkpt>
      <trkpt lat="44.34579" lon="4.63608">
        <ele>67.3</ele>
        <time>2022-06-12T06:53:41Z</time>
      </trkpt>
      <trkpt lat="44.34581" lon="4.63608">
        <ele>67.4</ele>
        <time>2022-06-12T06:53:42Z</time>
      </trkpt>
      <trkpt lat="44.34584" lon="4.63608">
        <ele>67.5</ele>
        <time>2022-06-12T06:53:43Z</time>
      </trkpt>
      <trkpt lat="44.34586" lon="4.6361">
        <ele>67.7</ele>
        <time>2022-06-12T06:53:44Z</time>
      </trkpt>
      <trkpt lat="44.34589" lon="4.63611">
        <ele>67.8</ele>
        <time>2022-06-12T06:53:45Z</time>
      </trkpt>
      <trkpt lat="44.34592" lon="4.63613">
        <ele>68</ele>
        <time>2022-06-12T06:53:46Z</time>
      </trkpt>
      <trkpt lat="44.34594" lon="4.63614">
        <ele>68.1</ele>
        <time>2022-06-12T06:53:47Z</time>
      </trkpt>
      <trkpt lat="44.34597" lon="4.63615">
        <ele>68.3</ele>
        <time>2022-06-12T06:53:48Z</time>
      </trkpt>
      <trkpt lat="44.346" lon="4.63616">
        <ele>68.4</ele>
        <time>2022-06-12T06:53:49Z</time>
      </trkpt>
      <trkpt lat="44.34603" lon="4.63617">
        <ele>68.5</ele>
        <time>2022-06-12T06:53:50Z</time>
      </trkpt>
      <trkpt lat="44.34606" lon="4.63618">
        <ele>68.7</ele>
        <time>2022-06-12T06:53:51Z</time>
      </trkpt>
      <trkpt lat="44.34608" lon="4.63619">
        <ele>68.8</ele>
        <time>2022-06-12T06:53:52Z</time>
      </trkpt>
      <trkpt lat="44.34612" lon="4.6362">
        <ele>69</ele>
        <time>2022-06-12T06:53:53Z</time>
      </trkpt>
      <trkpt lat="44.34615" lon="4.63622">
        <ele>69.2</ele>
        <time>2022-06-12T06:53:54Z</time>
      </trkpt>
      <trkpt lat="44.34617" lon="4.63624">
        <ele>69.3</ele>
        <time>2022-06-12T06:53:55Z</time>
      </trkpt>
      <trkpt lat="44.34619" lon="4.63626">
        <ele>69.4</ele>
        <time>2022-06-12T06:53:56Z</time>
      </trkpt>
      <trkpt lat="44.34622" lon="4.63627">
        <ele>69.6</ele>
        <time>2022-06-12T06:53:57Z</time>
      </trkpt>
      <trkpt lat="44.34626" lon="4.63629">
        <ele>69.8</ele>
        <time>2022-06-12T06:53:58Z</time>
      </trkpt>
      <trkpt lat="44.34627" lon="4.6363">
        <ele>69.9</ele>
        <time>2022-06-12T06:53:59Z</time>
      </trkpt>
      <trkpt lat="44.34631" lon="4.63632">
        <ele>70.1</ele>
        <time>2022-06-12T06:54:01Z</time>
      </trkpt>
      <trkpt lat="44.34634" lon="4.63634">
        <ele>70.2</ele>
        <time>2022-06-12T06:54:02Z</time>
      </trkpt>
      <trkpt lat="44.34637" lon="4.63636">
        <ele>70.4</ele>
        <time>2022-06-12T06:54:03Z</time>
      </trkpt>
      <trkpt lat="44.34639" lon="4.63637">
        <ele>70.5</ele>
        <time>2022-06-12T06:54:04Z</time>
      </trkpt>
      <trkpt lat="44.34642" lon="4.6364">
        <ele>70.7</ele>
        <time>2022-06-12T06:54:05Z</time>
      </trkpt>
      <trkpt lat="44.34645" lon="4.63642">
        <ele>70.9</ele>
        <time>2022-06-12T06:54:06Z</time>
      </trkpt>
      <trkpt lat="44.34648" lon="4.63644">
        <ele>71</ele>
        <time>2022-06-12T06:54:07Z</time>
      </trkpt>
      <trkpt lat="44.34652" lon="4.63647">
        <ele>71.2</ele>
        <time>2022-06-12T06:54:09Z</time>
      </trkpt>
      <trkpt lat="44.34655" lon="4.6365">
        <ele>71.4</ele>
        <time>2022-06-12T06:54:10Z</time>
      </trkpt>
      <trkpt lat="44.34658" lon="4.63653">
        <ele>71.6</ele>
        <time>2022-06-12T06:54:11Z</time>
      </trkpt>
      <trkpt lat="44.3466" lon="4.63655">
        <ele>71.7</ele>
        <time>2022-06-12T06:54:12Z</time>
      </trkpt>
      <trkpt lat="44.34665" lon="4.63656">
        <ele>71.9</ele>
        <time>2022-06-12T06:54:14Z</time>
      </trkpt>
      <trkpt lat="44.34667" lon="4.63659">
        <ele>72.1</ele>
        <time>2022-06-12T06:54:15Z</time>
      </trkpt>
      <trkpt lat="44.34671" lon="4.63662">
        <ele>72.3</ele>
        <time>2022-06-12T06:54:16Z</time>
      </trkpt>
      <trkpt lat="44.34674" lon="4.63664">
        <ele>72.5</ele>
        <time>2022-06-12T06:54:18Z</time>
      </trkpt>
      <trkpt lat="44.34677" lon="4.63666">
        <ele>72.6</ele>
        <time>2022-06-12T06:54:19Z</time>
      </trkpt>
      <trkpt lat="44.3468" lon="4.63668">
        <ele>72.8</ele>
        <time>2022-06-12T06:54:20Z</time>
      </trkpt>
      <trkpt lat="44.34684" lon="4.63671">
        <ele>73</ele>
        <time>2022-06-12T06:54:21Z</time>
      </trkpt>
      <trkpt lat="44.34685" lon="4.63672">
        <ele>73.1</ele>
        <time>2022-06-12T06:54:22Z</time>
      </trkpt>
      <trkpt lat="44.34688" lon="4.63674">
        <ele>73.3</ele>
        <time>2022-06-12T06:54:23Z</time>
      </trkpt>
      <trkpt lat="44.34689" lon="4.63675">
        <ele>73.4</ele>
        <time>2022-06-12T06:54:24Z</time>
      </trkpt>
      <trkpt lat="44.34692" lon="4.63676">
        <ele>73.5</ele>
        <time>2022-06-12T06:54:25Z</time>
      </trkpt>
      <trkpt lat="44.34696" lon="4.63678">
        <ele>73.7</ele>
        <time>2022-06-12T06:54:26Z</time>
      </trkpt>
      <trkpt lat="44.34697" lon="4.63678">
        <ele>73.8</ele>
        <time>2022-06-12T06:54:27Z</time>
      </trkpt>
      <trkpt lat="44.34699" lon="4.6368">
        <ele>73.9</ele>
        <time>2022-06-12T06:54:28Z</time>
      </trkpt>
      <trkpt lat="44.34703" lon="4.63682">
        <ele>74.1</ele>
        <time>2022-06-12T06:54:29Z</time>
      </trkpt>
      <trkpt lat="44.34704" lon="4.63683">
        <ele>74.2</ele>
        <time>2022-06-12T06:54:30Z</time>
      </trkpt>
      <trkpt lat="44.34707" lon="4.63684">
        <ele>74.3</ele>
        <time>2022-06-12T06:54:31Z</time>
      </trkpt>
      <trkpt lat="44.3471" lon="4.63685">
        <ele>74.5</ele>
        <time>2022-06-12T06:54:32Z</time>
      </trkpt>
      <trkpt lat="44.34713" lon="4.63686">
        <ele>74.6</ele>
        <time>2022-06-12T06:54:33Z</time>
      </trkpt>
      <trkpt lat="44.34716" lon="4.63687">
        <ele>74.8</ele>
        <time>2022-06-12T06:54:34Z</time>
      </trkpt>
      <trkpt lat="44.34718" lon="4.63688">
        <ele>74.9</ele>
        <time>2022-06-12T06:54:35Z</time>
      </trkpt>
      <trkpt lat="44.34721" lon="4.63689">
        <ele>75</ele>
        <time>2022-06-12T06:54:36Z</time>
      </trkpt>
      <trkpt lat="44.34724" lon="4.6369">
        <ele>75.1</ele>
        <time>2022-06-12T06:54:37Z</time>
      </trkpt>
      <trkpt lat="44.34727" lon="4.63691">
        <ele>75.3</ele>
        <time>2022-06-12T06:54:38Z</time>
      </trkpt>
      <trkpt lat="44.34729" lon="4.63692">
        <ele>75.4</ele>
        <time>2022-06-12T06:54:39Z</time>
      </trkpt>
      <trkpt lat="44.34732" lon="4.63694">
        <ele>75.5</ele>
        <time>2022-06-12T06:54:40Z</time>
      </trkpt>
      <trkpt lat="44.34735" lon="4.63695">
        <ele>75.6</ele>
        <time>2022-06-12T06:54:41Z</time>
      </trkpt>
      <trkpt lat="44.34738" lon="4.63696">
        <ele>75.7</ele>
        <time>2022-06-12T06:54:42Z</time>
      </trkpt>
      <trkpt lat="44.34741" lon="4.63697">
        <ele>75.7</ele>
        <time>2022-06-12T06:54:43Z</time>
      </trkpt>
      <trkpt lat="44.34744" lon="4.63698">
        <ele>75.8</ele>
        <time>2022-06-12T06:54:44Z</time>
      </trkpt>
      <trkpt lat="44.34747" lon="4.63699">
        <ele>75.9</ele>
        <time>2022-06-12T06:54:45Z</time>
      </trkpt>
      <trkpt lat="44.3475" lon="4.637">
        <ele>76</ele>
        <time>2022-06-12T06:54:46Z</time>
      </trkpt>
      <trkpt lat="44.34753" lon="4.63701">
        <ele>76.1</ele>
        <time>2022-06-12T06:54:47Z</time>
      </trkpt>
      <trkpt lat="44.34756" lon="4.63701">
        <ele>76.2</ele>
        <time>2022-06-12T06:54:48Z</time>
      </trkpt>
      <trkpt lat="44.3476" lon="4.63702">
        <ele>76.3</ele>
        <time>2022-06-12T06:54:49Z</time>
      </trkpt>
      <trkpt lat="44.34764" lon="4.63703">
        <ele>76.3</ele>
        <time>2022-06-12T06:54:50Z</time>
      </trkpt>
      <trkpt lat="44.34767" lon="4.63704">
        <ele>76.4</ele>
        <time>2022-06-12T06:54:51Z</time>
      </trkpt>
      <trkpt lat="44.3477" lon="4.63706">
        <ele>76.5</ele>
        <time>2022-06-12T06:54:52Z</time>
      </trkpt>
      <trkpt lat="44.34774" lon="4.63707">
        <ele>76.5</ele>
        <time>2022-06-12T06:54:53Z</time>
      </trkpt>
      <trkpt lat="44.34777" lon="4.63709">
        <ele>76.5</ele>
        <time>2022-06-12T06:54:54Z</time>
      </trkpt>
      <trkpt lat="44.34781" lon="4.6371">
        <ele>76.6</ele>
        <time>2022-06-12T06:54:56Z</time>
      </trkpt>
      <trkpt lat="44.34787" lon="4.63713">
        <ele>76.6</ele>
        <time>2022-06-12T06:54:57Z</time>
      </trkpt>
      <trkpt lat="44.34791" lon="4.63715">
        <ele>76.7</ele>
        <time>2022-06-12T06:54:58Z</time>
      </trkpt>
      <trkpt lat="44.34794" lon="4.63716">
        <ele>76.7</ele>
        <time>2022-06-12T06:54:59Z</time>
      </trkpt>
      <trkpt lat="44.348" lon="4.63717">
        <ele>76.7</ele>
        <time>2022-06-12T06:55:01Z</time>
      </trkpt>
      <trkpt lat="44.34805" lon="4.63719">
        <ele>76.7</ele>
        <time>2022-06-12T06:55:02Z</time>
      </trkpt>
      <trkpt lat="44.34809" lon="4.63721">
        <ele>76.6</ele>
        <time>2022-06-12T06:55:03Z</time>
      </trkpt>
      <trkpt lat="44.34814" lon="4.63723">
        <ele>76.6</ele>
        <time>2022-06-12T06:55:04Z</time>
      </trkpt>
      <trkpt lat="44.34821" lon="4.63726">
        <ele>76.5</ele>
        <time>2022-06-12T06:55:05Z</time>
      </trkpt>
      <trkpt lat="44.34826" lon="4.63728">
        <ele>76.4</ele>
        <time>2022-06-12T06:55:06Z</time>
      </trkpt>
      <trkpt lat="44.34831" lon="4.6373">
        <ele>76.3</ele>
        <time>2022-06-12T06:55:07Z</time>
      </trkpt>
      <trkpt lat="44.34835" lon="4.63731">
        <ele>76.3</ele>
        <time>2022-06-12T06:55:08Z</time>
      </trkpt>
      <trkpt lat="44.3484" lon="4.63734">
        <ele>76.2</ele>
        <time>2022-06-12T06:55:09Z</time>
      </trkpt>
      <trkpt lat="44.34845" lon="4.63735">
        <ele>76</ele>
        <time>2022-06-12T06:55:10Z</time>
      </trkpt>
      <trkpt lat="44.3485" lon="4.63737">
        <ele>75.9</ele>
        <time>2022-06-12T06:55:11Z</time>
      </trkpt>
      <trkpt lat="44.34855" lon="4.63739">
        <ele>75.8</ele>
        <time>2022-06-12T06:55:12Z</time>
      </trkpt>
      <trkpt lat="44.34861" lon="4.63742">
        <ele>75.7</ele>
        <time>2022-06-12T06:55:13Z</time>
      </trkpt>
      <trkpt lat="44.34867" lon="4.63744">
        <ele>75.6</ele>
        <time>2022-06-12T06:55:14Z</time>
      </trkpt>
      <trkpt lat="44.34872" lon="4.63746">
        <ele>75.4</ele>
        <time>2022-06-12T06:55:15Z</time>
      </trkpt>
      <trkpt lat="44.34878" lon="4.63749">
        <ele>75.3</ele>
        <time>2022-06-12T06:55:16Z</time>
      </trkpt>
      <trkpt lat="44.34884" lon="4.63751">
        <ele>75.2</ele>
        <time>2022-06-12T06:55:17Z</time>
      </trkpt>
      <trkpt lat="44.3489" lon="4.63753">
        <ele>75.1</ele>
        <time>2022-06-12T06:55:18Z</time>
      </trkpt>
      <trkpt lat="44.34896" lon="4.63755">
        <ele>74.9</ele>
        <time>2022-06-12T06:55:19Z</time>
      </trkpt>
      <trkpt lat="44.34902" lon="4.63758">
        <ele>74.8</ele>
        <time>2022-06-12T06:55:20Z</time>
      </trkpt>
      <trkpt lat="44.34908" lon="4.63761">
        <ele>74.7</ele>
        <time>2022-06-12T06:55:21Z</time>
      </trkpt>
      <trkpt lat="44.34914" lon="4.63764">
        <ele>74.6</ele>
        <time>2022-06-12T06:55:22Z</time>
      </trkpt>
      <trkpt lat="44.34921" lon="4.63766">
        <ele>74.5</ele>
        <time>2022-06-12T06:55:23Z</time>
      </trkpt>
      <trkpt lat="44.34927" lon="4.63769">
        <ele>74.3</ele>
        <time>2022-06-12T06:55:24Z</time>
      </trkpt>
      <trkpt lat="44.34933" lon="4.63771">
        <ele>74.2</ele>
        <time>2022-06-12T06:55:25Z</time>
      </trkpt>
      <trkpt lat="44.34939" lon="4.63774">
        <ele>74.1</ele>
        <time>2022-06-12T06:55:26Z</time>
      </trkpt>
      <trkpt lat="44.34946" lon="4.63776">
        <ele>74</ele>
        <time>2022-06-12T06:55:27Z</time>
      </trkpt>
      <trkpt lat="44.34952" lon="4.63779">
        <ele>73.9</ele>
        <time>2022-06-12T06:55:28Z</time>
      </trkpt>
      <trkpt lat="44.34958" lon="4.63782">
        <ele>73.8</ele>
        <time>2022-06-12T06:55:29Z</time>
      </trkpt>
      <trkpt lat="44.34964" lon="4.63784">
        <ele>73.7</ele>
        <time>2022-06-12T06:55:30Z</time>
      </trkpt>
      <trkpt lat="44.34971" lon="4.63786">
        <ele>73.6</ele>
        <time>2022-06-12T06:55:31Z</time>
      </trkpt>
      <trkpt lat="44.34977" lon="4.63789">
        <ele>73.4</ele>
        <time>2022-06-12T06:55:32Z</time>
      </trkpt>
      <trkpt lat="44.34984" lon="4.63792">
        <ele>73.2</ele>
        <time>2022-06-12T06:55:33Z</time>
      </trkpt>
      <trkpt lat="44.3499" lon="4.63795">
        <ele>73</ele>
        <time>2022-06-12T06:55:34Z</time>
      </trkpt>
      <trkpt lat="44.34996" lon="4.63797">
        <ele>72.9</ele>
        <time>2022-06-12T06:55:35Z</time>
      </trkpt>
      <trkpt lat="44.35002" lon="4.638">
        <ele>72.7</ele>
        <time>2022-06-12T06:55:36Z</time>
      </trkpt>
      <trkpt lat="44.35009" lon="4.63802">
        <ele>72.6</ele>
        <time>2022-06-12T06:55:37Z</time>
      </trkpt>
      <trkpt lat="44.35015" lon="4.63805">
        <ele>72.5</ele>
        <time>2022-06-12T06:55:38Z</time>
      </trkpt>
      <trkpt lat="44.35021" lon="4.63808">
        <ele>72.3</ele>
        <time>2022-06-12T06:55:39Z</time>
      </trkpt>
      <trkpt lat="44.35027" lon="4.63811">
        <ele>72.2</ele>
        <time>2022-06-12T06:55:40Z</time>
      </trkpt>
      <trkpt lat="44.35033" lon="4.63814">
        <ele>72.1</ele>
        <time>2022-06-12T06:55:41Z</time>
      </trkpt>
      <trkpt lat="44.35039" lon="4.63818">
        <ele>72</ele>
        <time>2022-06-12T06:55:42Z</time>
      </trkpt>
      <trkpt lat="44.35045" lon="4.63822">
        <ele>71.9</ele>
        <time>2022-06-12T06:55:43Z</time>
      </trkpt>
      <trkpt lat="44.35051" lon="4.63826">
        <ele>71.7</ele>
        <time>2022-06-12T06:55:44Z</time>
      </trkpt>
      <trkpt lat="44.35057" lon="4.63831">
        <ele>71.6</ele>
        <time>2022-06-12T06:55:45Z</time>
      </trkpt>
      <trkpt lat="44.35063" lon="4.63835">
        <ele>71.4</ele>
        <time>2022-06-12T06:55:46Z</time>
      </trkpt>
      <trkpt lat="44.35068" lon="4.63841">
        <ele>71.3</ele>
        <time>2022-06-12T06:55:47Z</time>
      </trkpt>
      <trkpt lat="44.35074" lon="4.63846">
        <ele>71.2</ele>
        <time>2022-06-12T06:55:48Z</time>
      </trkpt>
      <trkpt lat="44.3508" lon="4.63851">
        <ele>71</ele>
        <time>2022-06-12T06:55:49Z</time>
      </trkpt>
      <trkpt lat="44.35085" lon="4.63856">
        <ele>70.9</ele>
        <time>2022-06-12T06:55:50Z</time>
      </trkpt>
      <trkpt lat="44.35091" lon="4.63862">
        <ele>70.7</ele>
        <time>2022-06-12T06:55:51Z</time>
      </trkpt>
      <trkpt lat="44.35096" lon="4.63867">
        <ele>70.6</ele>
        <time>2022-06-12T06:55:52Z</time>
      </trkpt>
      <trkpt lat="44.35102" lon="4.63872">
        <ele>70.4</ele>
        <time>2022-06-12T06:55:53Z</time>
      </trkpt>
      <trkpt lat="44.35108" lon="4.63877">
        <ele>70.2</ele>
        <time>2022-06-12T06:55:54Z</time>
      </trkpt>
      <trkpt lat="44.35114" lon="4.63882">
        <ele>70.1</ele>
        <time>2022-06-12T06:55:55Z</time>
      </trkpt>
      <trkpt lat="44.3512" lon="4.63888">
        <ele>69.9</ele>
        <time>2022-06-12T06:55:56Z</time>
      </trkpt>
      <trkpt lat="44.35125" lon="4.63893">
        <ele>69.7</ele>
        <time>2022-06-12T06:55:57Z</time>
      </trkpt>
      <trkpt lat="44.35131" lon="4.63897">
        <ele>69.6</ele>
        <time>2022-06-12T06:55:58Z</time>
      </trkpt>
      <trkpt lat="44.35137" lon="4.63902">
        <ele>69.4</ele>
        <time>2022-06-12T06:55:59Z</time>
      </trkpt>
      <trkpt lat="44.35143" lon="4.63906">
        <ele>69.2</ele>
        <time>2022-06-12T06:56:00Z</time>
      </trkpt>
      <trkpt lat="44.35149" lon="4.63911">
        <ele>69</ele>
        <time>2022-06-12T06:56:01Z</time>
      </trkpt>
      <trkpt lat="44.35155" lon="4.63914">
        <ele>68.8</ele>
        <time>2022-06-12T06:56:02Z</time>
      </trkpt>
      <trkpt lat="44.35161" lon="4.63918">
        <ele>68.7</ele>
        <time>2022-06-12T06:56:03Z</time>
      </trkpt>
      <trkpt lat="44.35168" lon="4.63921">
        <ele>68.5</ele>
        <time>2022-06-12T06:56:04Z</time>
      </trkpt>
      <trkpt lat="44.35174" lon="4.63925">
        <ele>68.3</ele>
        <time>2022-06-12T06:56:05Z</time>
      </trkpt>
      <trkpt lat="44.3518" lon="4.63928">
        <ele>68.2</ele>
        <time>2022-06-12T06:56:06Z</time>
      </trkpt>
      <trkpt lat="44.35187" lon="4.63931">
        <ele>68</ele>
        <time>2022-06-12T06:56:07Z</time>
      </trkpt>
      <trkpt lat="44.35193" lon="4.63933">
        <ele>67.8</ele>
        <time>2022-06-12T06:56:08Z</time>
      </trkpt>
      <trkpt lat="44.352" lon="4.63936">
        <ele>67.7</ele>
        <time>2022-06-12T06:56:09Z</time>
      </trkpt>
      <trkpt lat="44.35207" lon="4.63938">
        <ele>67.5</ele>
        <time>2022-06-12T06:56:10Z</time>
      </trkpt>
      <trkpt lat="44.35214" lon="4.63941">
        <ele>67.3</ele>
        <time>2022-06-12T06:56:11Z</time>
      </trkpt>
      <trkpt lat="44.35221" lon="4.63944">
        <ele>67.1</ele>
        <time>2022-06-12T06:56:12Z</time>
      </trkpt>
      <trkpt lat="44.35228" lon="4.63946">
        <ele>67</ele>
        <time>2022-06-12T06:56:13Z</time>
      </trkpt>
      <trkpt lat="44.35236" lon="4.63949">
        <ele>66.8</ele>
        <time>2022-06-12T06:56:14Z</time>
      </trkpt>
      <trkpt lat="44.35243" lon="4.63951">
        <ele>66.6</ele>
        <time>2022-06-12T06:56:15Z</time>
      </trkpt>
      <trkpt lat="44.35258" lon="4.63954">
        <ele>66.4</ele>
        <time>2022-06-12T06:56:17Z</time>
      </trkpt>
      <trkpt lat="44.35265" lon="4.63956">
        <ele>66.2</ele>
        <time>2022-06-12T06:56:18Z</time>
      </trkpt>
      <trkpt lat="44.35272" lon="4.63958">
        <ele>66.2</ele>
        <time>2022-06-12T06:56:19Z</time>
      </trkpt>
      <trkpt lat="44.3528" lon="4.63959">
        <ele>66.1</ele>
        <time>2022-06-12T06:56:20Z</time>
      </trkpt>
      <trkpt lat="44.35287" lon="4.6396">
        <ele>66.1</ele>
        <time>2022-06-12T06:56:21Z</time>
      </trkpt>
      <trkpt lat="44.35294" lon="4.63961">
        <ele>66</ele>
        <time>2022-06-12T06:56:22Z</time>
      </trkpt>
      <trkpt lat="44.35301" lon="4.63961">
        <ele>66</ele>
        <time>2022-06-12T06:56:23Z</time>
      </trkpt>
      <trkpt lat="44.35308" lon="4.63962">
        <ele>66</ele>
        <time>2022-06-12T06:56:24Z</time>
      </trkpt>
      <trkpt lat="44.35315" lon="4.63962">
        <ele>66</ele>
        <time>2022-06-12T06:56:25Z</time>
      </trkpt>
      <trkpt lat="44.35322" lon="4.63962">
        <ele>66</ele>
        <time>2022-06-12T06:56:26Z</time>
      </trkpt>
      <trkpt lat="44.3533" lon="4.63962">
        <ele>66.2</ele>
        <time>2022-06-12T06:56:27Z</time>
      </trkpt>
      <trkpt lat="44.35337" lon="4.63962">
        <ele>66.3</ele>
        <time>2022-06-12T06:56:28Z</time>
      </trkpt>
      <trkpt lat="44.35343" lon="4.63961">
        <ele>66.5</ele>
        <time>2022-06-12T06:56:29Z</time>
      </trkpt>
      <trkpt lat="44.3535" lon="4.63961">
        <ele>66.8</ele>
        <time>2022-06-12T06:56:30Z</time>
      </trkpt>
      <trkpt lat="44.35357" lon="4.6396">
        <ele>67</ele>
        <time>2022-06-12T06:56:31Z</time>
      </trkpt>
      <trkpt lat="44.35363" lon="4.6396">
        <ele>67.3</ele>
        <time>2022-06-12T06:56:32Z</time>
      </trkpt>
      <trkpt lat="44.35368" lon="4.6396">
        <ele>67.5</ele>
        <time>2022-06-12T06:56:33Z</time>
      </trkpt>
      <trkpt lat="44.35373" lon="4.63961">
        <ele>67.8</ele>
        <time>2022-06-12T06:56:34Z</time>
      </trkpt>
      <trkpt lat="44.35378" lon="4.63961">
        <ele>68</ele>
        <time>2022-06-12T06:56:35Z</time>
      </trkpt>
      <trkpt lat="44.35383" lon="4.63963">
        <ele>68.2</ele>
        <time>2022-06-12T06:56:36Z</time>
      </trkpt>
      <trkpt lat="44.35388" lon="4.63965">
        <ele>68.5</ele>
        <time>2022-06-12T06:56:37Z</time>
      </trkpt>
      <trkpt lat="44.35392" lon="4.63968">
        <ele>68.7</ele>
        <time>2022-06-12T06:56:38Z</time>
      </trkpt>
      <trkpt lat="44.35396" lon="4.63972">
        <ele>68.9</ele>
        <time>2022-06-12T06:56:39Z</time>
      </trkpt>
      <trkpt lat="44.354" lon="4.63975">
        <ele>69.1</ele>
        <time>2022-06-12T06:56:40Z</time>
      </trkpt>
      <trkpt lat="44.35404" lon="4.6398">
        <ele>69.2</ele>
        <time>2022-06-12T06:56:41Z</time>
      </trkpt>
      <trkpt lat="44.35408" lon="4.63984">
        <ele>69.4</ele>
        <time>2022-06-12T06:56:42Z</time>
      </trkpt>
      <trkpt lat="44.35411" lon="4.63989">
        <ele>69.6</ele>
        <time>2022-06-12T06:56:43Z</time>
      </trkpt>
      <trkpt lat="44.35413" lon="4.63995">
        <ele>69.8</ele>
        <time>2022-06-12T06:56:44Z</time>
      </trkpt>
      <trkpt lat="44.35416" lon="4.64">
        <ele>70</ele>
        <time>2022-06-12T06:56:45Z</time>
      </trkpt>
      <trkpt lat="44.35417" lon="4.64005">
        <ele>70</ele>
        <time>2022-06-12T06:56:46Z</time>
      </trkpt>
      <trkpt lat="44.35419" lon="4.6401">
        <ele>70</ele>
        <time>2022-06-12T06:56:47Z</time>
      </trkpt>
      <trkpt lat="44.3542" lon="4.64015">
        <ele>70</ele>
        <time>2022-06-12T06:56:48Z</time>
      </trkpt>
      <trkpt lat="44.35421" lon="4.64019">
        <ele>70</ele>
        <time>2022-06-12T06:56:49Z</time>
      </trkpt>
      <trkpt lat="44.35423" lon="4.64023">
        <ele>70</ele>
        <time>2022-06-12T06:56:50Z</time>
      </trkpt>
      <trkpt lat="44.35425" lon="4.64027">
        <ele>70.1</ele>
        <time>2022-06-12T06:56:51Z</time>
      </trkpt>
      <trkpt lat="44.35426" lon="4.64032">
        <ele>70.2</ele>
        <time>2022-06-12T06:56:52Z</time>
      </trkpt>
      <trkpt lat="44.35428" lon="4.64038">
        <ele>70.3</ele>
        <time>2022-06-12T06:56:54Z</time>
      </trkpt>
      <trkpt lat="44.35429" lon="4.6404">
        <ele>70.4</ele>
        <time>2022-06-12T06:56:55Z</time>
      </trkpt>
      <trkpt lat="44.35431" lon="4.64044">
        <ele>70.4</ele>
        <time>2022-06-12T06:56:56Z</time>
      </trkpt>
      <trkpt lat="44.35434" lon="4.64047">
        <ele>70.5</ele>
        <time>2022-06-12T06:56:57Z</time>
      </trkpt>
      <trkpt lat="44.35437" lon="4.6405">
        <ele>70.5</ele>
        <time>2022-06-12T06:56:58Z</time>
      </trkpt>
      <trkpt lat="44.35441" lon="4.64054">
        <ele>70.6</ele>
        <time>2022-06-12T06:56:59Z</time>
      </trkpt>
      <trkpt lat="44.35445" lon="4.64057">
        <ele>70.6</ele>
        <time>2022-06-12T06:57:00Z</time>
      </trkpt>
      <trkpt lat="44.35448" lon="4.64059">
        <ele>70.6</ele>
        <time>2022-06-12T06:57:01Z</time>
      </trkpt>
      <trkpt lat="44.35452" lon="4.64061">
        <ele>70.6</ele>
        <time>2022-06-12T06:57:02Z</time>
      </trkpt>
      <trkpt lat="44.35455" lon="4.64063">
        <ele>70.6</ele>
        <time>2022-06-12T06:57:03Z</time>
      </trkpt>
      <trkpt lat="44.35459" lon="4.64064">
        <ele>70.5</ele>
        <time>2022-06-12T06:57:04Z</time>
      </trkpt>
      <trkpt lat="44.35463" lon="4.64065">
        <ele>70.5</ele>
        <time>2022-06-12T06:57:05Z</time>
      </trkpt>
      <trkpt lat="44.3547" lon="4.64064">
        <ele>70.4</ele>
        <time>2022-06-12T06:57:06Z</time>
      </trkpt>
      <trkpt lat="44.35475" lon="4.64063">
        <ele>70.3</ele>
        <time>2022-06-12T06:57:07Z</time>
      </trkpt>
      <trkpt lat="44.35479" lon="4.64063">
        <ele>70.2</ele>
        <time>2022-06-12T06:57:08Z</time>
      </trkpt>
      <trkpt lat="44.35485" lon="4.64063">
        <ele>70.1</ele>
        <time>2022-06-12T06:57:09Z</time>
      </trkpt>
      <trkpt lat="44.3549" lon="4.64062">
        <ele>69.9</ele>
        <time>2022-06-12T06:57:10Z</time>
      </trkpt>
      <trkpt lat="44.35495" lon="4.64062">
        <ele>69.8</ele>
        <time>2022-06-12T06:57:11Z</time>
      </trkpt>
      <trkpt lat="44.35501" lon="4.64061">
        <ele>69.6</ele>
        <time>2022-06-12T06:57:12Z</time>
      </trkpt>
      <trkpt lat="44.35507" lon="4.64061">
        <ele>69.5</ele>
        <time>2022-06-12T06:57:13Z</time>
      </trkpt>
      <trkpt lat="44.35513" lon="4.64061">
        <ele>69.3</ele>
        <time>2022-06-12T06:57:14Z</time>
      </trkpt>
      <trkpt lat="44.35519" lon="4.64061">
        <ele>69.2</ele>
        <time>2022-06-12T06:57:15Z</time>
      </trkpt>
      <trkpt lat="44.35525" lon="4.64061">
        <ele>69.1</ele>
        <time>2022-06-12T06:57:16Z</time>
      </trkpt>
      <trkpt lat="44.35532" lon="4.64062">
        <ele>69</ele>
        <time>2022-06-12T06:57:17Z</time>
      </trkpt>
      <trkpt lat="44.35538" lon="4.64062">
        <ele>69</ele>
        <time>2022-06-12T06:57:18Z</time>
      </trkpt>
      <trkpt lat="44.35545" lon="4.64063">
        <ele>68.9</ele>
        <time>2022-06-12T06:57:19Z</time>
      </trkpt>
      <trkpt lat="44.35551" lon="4.64064">
        <ele>68.9</ele>
        <time>2022-06-12T06:57:20Z</time>
      </trkpt>
      <trkpt lat="44.35558" lon="4.64065">
        <ele>68.9</ele>
        <time>2022-06-12T06:57:21Z</time>
      </trkpt>
      <trkpt lat="44.35564" lon="4.64066">
        <ele>68.9</ele>
        <time>2022-06-12T06:57:22Z</time>
      </trkpt>
      <trkpt lat="44.3557" lon="4.64067">
        <ele>68.9</ele>
        <time>2022-06-12T06:57:23Z</time>
      </trkpt>
      <trkpt lat="44.35576" lon="4.64068">
        <ele>68.9</ele>
        <time>2022-06-12T06:57:24Z</time>
      </trkpt>
      <trkpt lat="44.35582" lon="4.64069">
        <ele>68.9</ele>
        <time>2022-06-12T06:57:25Z</time>
      </trkpt>
      <trkpt lat="44.35588" lon="4.6407">
        <ele>68.9</ele>
        <time>2022-06-12T06:57:26Z</time>
      </trkpt>
      <trkpt lat="44.35594" lon="4.64071">
        <ele>68.9</ele>
        <time>2022-06-12T06:57:27Z</time>
      </trkpt>
      <trkpt lat="44.356" lon="4.64072">
        <ele>68.9</ele>
        <time>2022-06-12T06:57:28Z</time>
      </trkpt>
      <trkpt lat="44.35606" lon="4.64073">
        <ele>68.8</ele>
        <time>2022-06-12T06:57:29Z</time>
      </trkpt>
      <trkpt lat="44.35612" lon="4.64075">
        <ele>68.8</ele>
        <time>2022-06-12T06:57:30Z</time>
      </trkpt>
      <trkpt lat="44.35617" lon="4.64077">
        <ele>68.7</ele>
        <time>2022-06-12T06:57:31Z</time>
      </trkpt>
      <trkpt lat="44.35623" lon="4.64079">
        <ele>68.6</ele>
        <time>2022-06-12T06:57:32Z</time>
      </trkpt>
      <trkpt lat="44.35629" lon="4.64081">
        <ele>68.6</ele>
        <time>2022-06-12T06:57:33Z</time>
      </trkpt>
      <trkpt lat="44.35635" lon="4.64085">
        <ele>68.4</ele>
        <time>2022-06-12T06:57:34Z</time>
      </trkpt>
      <trkpt lat="44.35641" lon="4.64089">
        <ele>68.3</ele>
        <time>2022-06-12T06:57:35Z</time>
      </trkpt>
      <trkpt lat="44.35646" lon="4.64092">
        <ele>68.2</ele>
        <time>2022-06-12T06:57:36Z</time>
      </trkpt>
      <trkpt lat="44.35652" lon="4.64096">
        <ele>68.1</ele>
        <time>2022-06-12T06:57:37Z</time>
      </trkpt>
      <trkpt lat="44.35657" lon="4.64099">
        <ele>68</ele>
        <time>2022-06-12T06:57:38Z</time>
      </trkpt>
      <trkpt lat="44.35662" lon="4.64103">
        <ele>67.9</ele>
        <time>2022-06-12T06:57:39Z</time>
      </trkpt>
      <trkpt lat="44.35667" lon="4.64107">
        <ele>67.7</ele>
        <time>2022-06-12T06:57:40Z</time>
      </trkpt>
      <trkpt lat="44.35673" lon="4.6411">
        <ele>67.6</ele>
        <time>2022-06-12T06:57:41Z</time>
      </trkpt>
      <trkpt lat="44.35678" lon="4.64114">
        <ele>67.5</ele>
        <time>2022-06-12T06:57:42Z</time>
      </trkpt>
      <trkpt lat="44.35683" lon="4.64117">
        <ele>67.4</ele>
        <time>2022-06-12T06:57:43Z</time>
      </trkpt>
      <trkpt lat="44.35689" lon="4.64121">
        <ele>67.2</ele>
        <time>2022-06-12T06:57:44Z</time>
      </trkpt>
      <trkpt lat="44.35695" lon="4.64124">
        <ele>67.1</ele>
        <time>2022-06-12T06:57:45Z</time>
      </trkpt>
      <trkpt lat="44.35701" lon="4.64126">
        <ele>66.9</ele>
        <time>2022-06-12T06:57:46Z</time>
      </trkpt>
      <trkpt lat="44.35707" lon="4.64129">
        <ele>66.8</ele>
        <time>2022-06-12T06:57:47Z</time>
      </trkpt>
      <trkpt lat="44.35713" lon="4.64131">
        <ele>66.7</ele>
        <time>2022-06-12T06:57:48Z</time>
      </trkpt>
      <trkpt lat="44.3572" lon="4.64133">
        <ele>66.5</ele>
        <time>2022-06-12T06:57:49Z</time>
      </trkpt>
      <trkpt lat="44.35727" lon="4.64134">
        <ele>66.4</ele>
        <time>2022-06-12T06:57:50Z</time>
      </trkpt>
      <trkpt lat="44.35734" lon="4.64135">
        <ele>66.3</ele>
        <time>2022-06-12T06:57:51Z</time>
      </trkpt>
      <trkpt lat="44.3574" lon="4.64137">
        <ele>66.2</ele>
        <time>2022-06-12T06:57:52Z</time>
      </trkpt>
      <trkpt lat="44.35747" lon="4.64138">
        <ele>66.1</ele>
        <time>2022-06-12T06:57:53Z</time>
      </trkpt>
      <trkpt lat="44.35753" lon="4.6414">
        <ele>66</ele>
        <time>2022-06-12T06:57:54Z</time>
      </trkpt>
      <trkpt lat="44.35759" lon="4.64142">
        <ele>65.9</ele>
        <time>2022-06-12T06:57:55Z</time>
      </trkpt>
      <trkpt lat="44.35766" lon="4.64143">
        <ele>65.7</ele>
        <time>2022-06-12T06:57:56Z</time>
      </trkpt>
      <trkpt lat="44.35773" lon="4.64145">
        <ele>65.5</ele>
        <time>2022-06-12T06:57:57Z</time>
      </trkpt>
      <trkpt lat="44.35779" lon="4.64147">
        <ele>65.3</ele>
        <time>2022-06-12T06:57:58Z</time>
      </trkpt>
      <trkpt lat="44.35786" lon="4.6415">
        <ele>65</ele>
        <time>2022-06-12T06:57:59Z</time>
      </trkpt>
      <trkpt lat="44.35793" lon="4.64153">
        <ele>64.8</ele>
        <time>2022-06-12T06:58:00Z</time>
      </trkpt>
      <trkpt lat="44.35799" lon="4.64155">
        <ele>64.5</ele>
        <time>2022-06-12T06:58:01Z</time>
      </trkpt>
      <trkpt lat="44.35806" lon="4.64158">
        <ele>64.3</ele>
        <time>2022-06-12T06:58:02Z</time>
      </trkpt>
      <trkpt lat="44.35814" lon="4.64161">
        <ele>64</ele>
        <time>2022-06-12T06:58:03Z</time>
      </trkpt>
      <trkpt lat="44.35821" lon="4.64163">
        <ele>63.8</ele>
        <time>2022-06-12T06:58:04Z</time>
      </trkpt>
      <trkpt lat="44.35828" lon="4.64166">
        <ele>63.5</ele>
        <time>2022-06-12T06:58:05Z</time>
      </trkpt>
      <trkpt lat="44.35835" lon="4.64169">
        <ele>63.3</ele>
        <time>2022-06-12T06:58:06Z</time>
      </trkpt>
      <trkpt lat="44.35843" lon="4.64172">
        <ele>63</ele>
        <time>2022-06-12T06:58:07Z</time>
      </trkpt>
      <trkpt lat="44.3585" lon="4.64175">
        <ele>62.7</ele>
        <time>2022-06-12T06:58:08Z</time>
      </trkpt>
      <trkpt lat="44.35857" lon="4.6418">
        <ele>62.4</ele>
        <time>2022-06-12T06:58:09Z</time>
      </trkpt>
      <trkpt lat="44.35864" lon="4.64185">
        <ele>62.1</ele>
        <time>2022-06-12T06:58:10Z</time>
      </trkpt>
      <trkpt lat="44.35871" lon="4.6419">
        <ele>61.9</ele>
        <time>2022-06-12T06:58:11Z</time>
      </trkpt>
      <trkpt lat="44.35877" lon="4.64195">
        <ele>61.6</ele>
        <time>2022-06-12T06:58:12Z</time>
      </trkpt>
      <trkpt lat="44.35884" lon="4.642">
        <ele>61.4</ele>
        <time>2022-06-12T06:58:13Z</time>
      </trkpt>
      <trkpt lat="44.3589" lon="4.64206">
        <ele>61.1</ele>
        <time>2022-06-12T06:58:14Z</time>
      </trkpt>
      <trkpt lat="44.35897" lon="4.64211">
        <ele>60.9</ele>
        <time>2022-06-12T06:58:15Z</time>
      </trkpt>
      <trkpt lat="44.35903" lon="4.64216">
        <ele>60.7</ele>
        <time>2022-06-12T06:58:16Z</time>
      </trkpt>
      <trkpt lat="44.3591" lon="4.64222">
        <ele>60.5</ele>
        <time>2022-06-12T06:58:17Z</time>
      </trkpt>
      <trkpt lat="44.35916" lon="4.64227">
        <ele>60.3</ele>
        <time>2022-06-12T06:58:18Z</time>
      </trkpt>
      <trkpt lat="44.35923" lon="4.64232">
        <ele>60.2</ele>
        <time>2022-06-12T06:58:19Z</time>
      </trkpt>
      <trkpt lat="44.3593" lon="4.64237">
        <ele>60</ele>
        <time>2022-06-12T06:58:20Z</time>
      </trkpt>
      <trkpt lat="44.35936" lon="4.64242">
        <ele>59.9</ele>
        <time>2022-06-12T06:58:21Z</time>
      </trkpt>
      <trkpt lat="44.35942" lon="4.64247">
        <ele>59.8</ele>
        <time>2022-06-12T06:58:22Z</time>
      </trkpt>
      <trkpt lat="44.35949" lon="4.64252">
        <ele>59.7</ele>
        <time>2022-06-12T06:58:23Z</time>
      </trkpt>
      <trkpt lat="44.35955" lon="4.64257">
        <ele>59.7</ele>
        <time>2022-06-12T06:58:24Z</time>
      </trkpt>
      <trkpt lat="44.35961" lon="4.64262">
        <ele>59.6</ele>
        <time>2022-06-12T06:58:25Z</time>
      </trkpt>
      <trkpt lat="44.35967" lon="4.64267">
        <ele>59.6</ele>
        <time>2022-06-12T06:58:26Z</time>
      </trkpt>
      <trkpt lat="44.35972" lon="4.64272">
        <ele>59.6</ele>
        <time>2022-06-12T06:58:27Z</time>
      </trkpt>
      <trkpt lat="44.35978" lon="4.64277">
        <ele>59.7</ele>
        <time>2022-06-12T06:58:28Z</time>
      </trkpt>
      <trkpt lat="44.35984" lon="4.64282">
        <ele>59.7</ele>
        <time>2022-06-12T06:58:29Z</time>
      </trkpt>
      <trkpt lat="44.35989" lon="4.64286">
        <ele>59.8</ele>
        <time>2022-06-12T06:58:30Z</time>
      </trkpt>
      <trkpt lat="44.35995" lon="4.64291">
        <ele>59.8</ele>
        <time>2022-06-12T06:58:31Z</time>
      </trkpt>
      <trkpt lat="44.36" lon="4.64296">
        <ele>59.8</ele>
        <time>2022-06-12T06:58:32Z</time>
      </trkpt>
      <trkpt lat="44.36004" lon="4.64301">
        <ele>59.8</ele>
        <time>2022-06-12T06:58:33Z</time>
      </trkpt>
      <trkpt lat="44.36009" lon="4.64306">
        <ele>59.8</ele>
        <time>2022-06-12T06:58:34Z</time>
      </trkpt>
      <trkpt lat="44.36014" lon="4.6431">
        <ele>59.7</ele>
        <time>2022-06-12T06:58:35Z</time>
      </trkpt>
      <trkpt lat="44.3602" lon="4.64314">
        <ele>59.6</ele>
        <time>2022-06-12T06:58:36Z</time>
      </trkpt>
      <trkpt lat="44.36024" lon="4.64318">
        <ele>59.5</ele>
        <time>2022-06-12T06:58:37Z</time>
      </trkpt>
      <trkpt lat="44.3603" lon="4.64323">
        <ele>59.5</ele>
        <time>2022-06-12T06:58:38Z</time>
      </trkpt>
      <trkpt lat="44.36034" lon="4.64327">
        <ele>59.4</ele>
        <time>2022-06-12T06:58:39Z</time>
      </trkpt>
      <trkpt lat="44.36039" lon="4.64331">
        <ele>59.3</ele>
        <time>2022-06-12T06:58:40Z</time>
      </trkpt>
      <trkpt lat="44.36045" lon="4.64335">
        <ele>59.2</ele>
        <time>2022-06-12T06:58:41Z</time>
      </trkpt>
      <trkpt lat="44.36049" lon="4.6434">
        <ele>59.1</ele>
        <time>2022-06-12T06:58:42Z</time>
      </trkpt>
      <trkpt lat="44.36055" lon="4.64344">
        <ele>59</ele>
        <time>2022-06-12T06:58:43Z</time>
      </trkpt>
      <trkpt lat="44.36059" lon="4.64348">
        <ele>58.9</ele>
        <time>2022-06-12T06:58:44Z</time>
      </trkpt>
      <trkpt lat="44.36064" lon="4.64352">
        <ele>58.8</ele>
        <time>2022-06-12T06:58:45Z</time>
      </trkpt>
      <trkpt lat="44.36069" lon="4.64357">
        <ele>58.6</ele>
        <time>2022-06-12T06:58:46Z</time>
      </trkpt>
      <trkpt lat="44.36074" lon="4.64361">
        <ele>58.5</ele>
        <time>2022-06-12T06:58:47Z</time>
      </trkpt>
      <trkpt lat="44.36079" lon="4.64365">
        <ele>58.4</ele>
        <time>2022-06-12T06:58:48Z</time>
      </trkpt>
      <trkpt lat="44.36084" lon="4.6437">
        <ele>58.3</ele>
        <time>2022-06-12T06:58:49Z</time>
      </trkpt>
      <trkpt lat="44.36089" lon="4.64374">
        <ele>58.1</ele>
        <time>2022-06-12T06:58:50Z</time>
      </trkpt>
      <trkpt lat="44.36094" lon="4.64378">
        <ele>58</ele>
        <time>2022-06-12T06:58:51Z</time>
      </trkpt>
      <trkpt lat="44.36099" lon="4.64382">
        <ele>57.8</ele>
        <time>2022-06-12T06:58:52Z</time>
      </trkpt>
      <trkpt lat="44.36105" lon="4.64387">
        <ele>57.6</ele>
        <time>2022-06-12T06:58:54Z</time>
      </trkpt>
      <trkpt lat="44.36107" lon="4.64389">
        <ele>57.6</ele>
        <time>2022-06-12T06:58:55Z</time>
      </trkpt>
      <trkpt lat="44.36107" lon="4.64389">
        <ele>57.5</ele>
        <time>2022-06-12T06:58:56Z</time>
      </trkpt>
      <trkpt lat="44.36108" lon="4.64389">
        <ele>57.5</ele>
        <time>2022-06-12T06:58:57Z</time>
      </trkpt>
      <trkpt lat="44.36108" lon="4.64389">
        <ele>57.5</ele>
        <time>2022-06-12T06:58:58Z</time>
      </trkpt>
      <trkpt lat="44.36109" lon="4.64389">
        <ele>57.5</ele>
        <time>2022-06-12T06:58:59Z</time>
      </trkpt>
      <trkpt lat="44.36109" lon="4.64389">
        <ele>57.5</ele>
        <time>2022-06-12T06:59:00Z</time>
      </trkpt>
      <trkpt lat="44.3611" lon="4.64389">
        <ele>57.5</ele>
        <time>2022-06-12T06:59:02Z</time>
      </trkpt>
      <trkpt lat="44.3611" lon="4.6439">
        <ele>57.5</ele>
        <time>2022-06-12T06:59:03Z</time>
      </trkpt>
      <trkpt lat="44.3611" lon="4.6439">
        <ele>57.5</ele>
        <time>2022-06-12T06:59:04Z</time>
      </trkpt>
      <trkpt lat="44.36111" lon="4.6439">
        <ele>57.4</ele>
        <time>2022-06-12T06:59:05Z</time>
      </trkpt>
      <trkpt lat="44.36111" lon="4.6439">
        <ele>57.4</ele>
        <time>2022-06-12T06:59:06Z</time>
      </trkpt>
      <trkpt lat="44.36112" lon="4.6439">
        <ele>57.4</ele>
        <time>2022-06-12T06:59:08Z</time>
      </trkpt>
      <trkpt lat="44.36112" lon="4.6439">
        <ele>57.4</ele>
        <time>2022-06-12T06:59:30Z</time>
      </trkpt>
      <trkpt lat="44.36113" lon="4.6439">
        <ele>57.4</ele>
        <time>2022-06-12T06:59:31Z</time>
      </trkpt>
      <trkpt lat="44.36116" lon="4.64392">
        <ele>57.3</ele>
        <time>2022-06-12T06:59:32Z</time>
      </trkpt>
      <trkpt lat="44.36119" lon="4.64394">
        <ele>57.2</ele>
        <time>2022-06-12T06:59:33Z</time>
      </trkpt>
      <trkpt lat="44.36123" lon="4.64397">
        <ele>57</ele>
        <time>2022-06-12T06:59:34Z</time>
      </trkpt>
      <trkpt lat="44.36127" lon="4.64399">
        <ele>56.9</ele>
        <time>2022-06-12T06:59:35Z</time>
      </trkpt>
      <trkpt lat="44.36133" lon="4.64403">
        <ele>56.7</ele>
        <time>2022-06-12T06:59:36Z</time>
      </trkpt>
      <trkpt lat="44.36137" lon="4.64406">
        <ele>56.5</ele>
        <time>2022-06-12T06:59:37Z</time>
      </trkpt>
      <trkpt lat="44.36142" lon="4.64409">
        <ele>56.4</ele>
        <time>2022-06-12T06:59:38Z</time>
      </trkpt>
      <trkpt lat="44.36146" lon="4.64413">
        <ele>56.2</ele>
        <time>2022-06-12T06:59:39Z</time>
      </trkpt>
      <trkpt lat="44.3615" lon="4.64418">
        <ele>56</ele>
        <time>2022-06-12T06:59:40Z</time>
      </trkpt>
      <trkpt lat="44.36154" lon="4.64424">
        <ele>55.9</ele>
        <time>2022-06-12T06:59:41Z</time>
      </trkpt>
      <trkpt lat="44.36157" lon="4.6443">
        <ele>55.7</ele>
        <time>2022-06-12T06:59:42Z</time>
      </trkpt>
      <trkpt lat="44.36162" lon="4.64434">
        <ele>55.6</ele>
        <time>2022-06-12T06:59:43Z</time>
      </trkpt>
      <trkpt lat="44.36168" lon="4.64437">
        <ele>55.5</ele>
        <time>2022-06-12T06:59:44Z</time>
      </trkpt>
      <trkpt lat="44.36174" lon="4.64439">
        <ele>55.2</ele>
        <time>2022-06-12T06:59:45Z</time>
      </trkpt>
      <trkpt lat="44.36179" lon="4.64441">
        <ele>55</ele>
        <time>2022-06-12T06:59:46Z</time>
      </trkpt>
      <trkpt lat="44.36184" lon="4.64446">
        <ele>54.8</ele>
        <time>2022-06-12T06:59:47Z</time>
      </trkpt>
      <trkpt lat="44.36188" lon="4.64452">
        <ele>54.7</ele>
        <time>2022-06-12T06:59:48Z</time>
      </trkpt>
      <trkpt lat="44.36193" lon="4.64457">
        <ele>54.6</ele>
        <time>2022-06-12T06:59:49Z</time>
      </trkpt>
      <trkpt lat="44.36197" lon="4.64463">
        <ele>54.5</ele>
        <time>2022-06-12T06:59:50Z</time>
      </trkpt>
      <trkpt lat="44.36202" lon="4.64468">
        <ele>54.4</ele>
        <time>2022-06-12T06:59:51Z</time>
      </trkpt>
      <trkpt lat="44.36207" lon="4.64473">
        <ele>54.3</ele>
        <time>2022-06-12T06:59:52Z</time>
      </trkpt>
      <trkpt lat="44.36212" lon="4.64478">
        <ele>54.3</ele>
        <time>2022-06-12T06:59:53Z</time>
      </trkpt>
      <trkpt lat="44.36217" lon="4.64482">
        <ele>54.2</ele>
        <time>2022-06-12T06:59:54Z</time>
      </trkpt>
      <trkpt lat="44.36222" lon="4.64487">
        <ele>54.1</ele>
        <time>2022-06-12T06:59:55Z</time>
      </trkpt>
      <trkpt lat="44.36227" lon="4.64491">
        <ele>54.1</ele>
        <time>2022-06-12T06:59:56Z</time>
      </trkpt>
      <trkpt lat="44.36232" lon="4.64496">
        <ele>54.1</ele>
        <time>2022-06-12T06:59:57Z</time>
      </trkpt>
      <trkpt lat="44.36237" lon="4.645">
        <ele>54</ele>
        <time>2022-06-12T06:59:58Z</time>
      </trkpt>
      <trkpt lat="44.36242" lon="4.64504">
        <ele>54</ele>
        <time>2022-06-12T06:59:59Z</time>
      </trkpt>
      <trkpt lat="44.36248" lon="4.64508">
        <ele>54</ele>
        <time>2022-06-12T07:00:00Z</time>
      </trkpt>
      <trkpt lat="44.36253" lon="4.64512">
        <ele>54</ele>
        <time>2022-06-12T07:00:01Z</time>
      </trkpt>
      <trkpt lat="44.36258" lon="4.64516">
        <ele>54</ele>
        <time>2022-06-12T07:00:02Z</time>
      </trkpt>
      <trkpt lat="44.36263" lon="4.64519">
        <ele>54</ele>
        <time>2022-06-12T07:00:03Z</time>
      </trkpt>
      <trkpt lat="44.36268" lon="4.64523">
        <ele>54</ele>
        <time>2022-06-12T07:00:04Z</time>
      </trkpt>
      <trkpt lat="44.36273" lon="4.64526">
        <ele>54</ele>
        <time>2022-06-12T07:00:05Z</time>
      </trkpt>
      <trkpt lat="44.36278" lon="4.6453">
        <ele>54</ele>
        <time>2022-06-12T07:00:06Z</time>
      </trkpt>
      <trkpt lat="44.36284" lon="4.64533">
        <ele>54</ele>
        <time>2022-06-12T07:00:07Z</time>
      </trkpt>
      <trkpt lat="44.36289" lon="4.64536">
        <ele>54.1</ele>
        <time>2022-06-12T07:00:08Z</time>
      </trkpt>
      <trkpt lat="44.36294" lon="4.64539">
        <ele>54.1</ele>
        <time>2022-06-12T07:00:09Z</time>
      </trkpt>
      <trkpt lat="44.36299" lon="4.64542">
        <ele>54.1</ele>
        <time>2022-06-12T07:00:10Z</time>
      </trkpt>
      <trkpt lat="44.36304" lon="4.64546">
        <ele>54.1</ele>
        <time>2022-06-12T07:00:11Z</time>
      </trkpt>
      <trkpt lat="44.36309" lon="4.64549">
        <ele>54.1</ele>
        <time>2022-06-12T07:00:12Z</time>
      </trkpt>
      <trkpt lat="44.36314" lon="4.64552">
        <ele>54.2</ele>
        <time>2022-06-12T07:00:13Z</time>
      </trkpt>
      <trkpt lat="44.36319" lon="4.64555">
        <ele>54.2</ele>
        <time>2022-06-12T07:00:14Z</time>
      </trkpt>
      <trkpt lat="44.36324" lon="4.64558">
        <ele>54.2</ele>
        <time>2022-06-12T07:00:15Z</time>
      </trkpt>
      <trkpt lat="44.36329" lon="4.6456">
        <ele>54.2</ele>
        <time>2022-06-12T07:00:16Z</time>
      </trkpt>
      <trkpt lat="44.36335" lon="4.64563">
        <ele>54.2</ele>
        <time>2022-06-12T07:00:17Z</time>
      </trkpt>
      <trkpt lat="44.3634" lon="4.64565">
        <ele>54.2</ele>
        <time>2022-06-12T07:00:18Z</time>
      </trkpt>
      <trkpt lat="44.36345" lon="4.64568">
        <ele>54.2</ele>
        <time>2022-06-12T07:00:19Z</time>
      </trkpt>
      <trkpt lat="44.3635" lon="4.6457">
        <ele>54.2</ele>
        <time>2022-06-12T07:00:20Z</time>
      </trkpt>
      <trkpt lat="44.36355" lon="4.64573">
        <ele>54.3</ele>
        <time>2022-06-12T07:00:21Z</time>
      </trkpt>
      <trkpt lat="44.3636" lon="4.64575">
        <ele>54.3</ele>
        <time>2022-06-12T07:00:22Z</time>
      </trkpt>
      <trkpt lat="44.36366" lon="4.64577">
        <ele>54.3</ele>
        <time>2022-06-12T07:00:23Z</time>
      </trkpt>
      <trkpt lat="44.36371" lon="4.6458">
        <ele>54.4</ele>
        <time>2022-06-12T07:00:24Z</time>
      </trkpt>
      <trkpt lat="44.36376" lon="4.64582">
        <ele>54.4</ele>
        <time>2022-06-12T07:00:25Z</time>
      </trkpt>
      <trkpt lat="44.36382" lon="4.64585">
        <ele>54.4</ele>
        <time>2022-06-12T07:00:26Z</time>
      </trkpt>
      <trkpt lat="44.36387" lon="4.64587">
        <ele>54.4</ele>
        <time>2022-06-12T07:00:27Z</time>
      </trkpt>
      <trkpt lat="44.36392" lon="4.64589">
        <ele>54.4</ele>
        <time>2022-06-12T07:00:28Z</time>
      </trkpt>
      <trkpt lat="44.36397" lon="4.64591">
        <ele>54.5</ele>
        <time>2022-06-12T07:00:29Z</time>
      </trkpt>
      <trkpt lat="44.36402" lon="4.64593">
        <ele>54.5</ele>
        <time>2022-06-12T07:00:30Z</time>
      </trkpt>
      <trkpt lat="44.36407" lon="4.64595">
        <ele>54.6</ele>
        <time>2022-06-12T07:00:31Z</time>
      </trkpt>
      <trkpt lat="44.36412" lon="4.64597">
        <ele>54.6</ele>
        <time>2022-06-12T07:00:32Z</time>
      </trkpt>
      <trkpt lat="44.36417" lon="4.64598">
        <ele>54.6</ele>
        <time>2022-06-12T07:00:33Z</time>
      </trkpt>
      <trkpt lat="44.36422" lon="4.646">
        <ele>54.7</ele>
        <time>2022-06-12T07:00:34Z</time>
      </trkpt>
      <trkpt lat="44.36427" lon="4.64602">
        <ele>54.7</ele>
        <time>2022-06-12T07:00:35Z</time>
      </trkpt>
      <trkpt lat="44.36432" lon="4.64604">
        <ele>54.7</ele>
        <time>2022-06-12T07:00:36Z</time>
      </trkpt>
      <trkpt lat="44.36437" lon="4.64605">
        <ele>54.8</ele>
        <time>2022-06-12T07:00:37Z</time>
      </trkpt>
      <trkpt lat="44.36442" lon="4.64607">
        <ele>54.8</ele>
        <time>2022-06-12T07:00:38Z</time>
      </trkpt>
      <trkpt lat="44.36447" lon="4.64609">
        <ele>54.8</ele>
        <time>2022-06-12T07:00:39Z</time>
      </trkpt>
      <trkpt lat="44.36452" lon="4.6461">
        <ele>54.8</ele>
        <time>2022-06-12T07:00:40Z</time>
      </trkpt>
      <trkpt lat="44.36456" lon="4.64612">
        <ele>54.8</ele>
        <time>2022-06-12T07:00:41Z</time>
      </trkpt>
      <trkpt lat="44.36461" lon="4.64614">
        <ele>54.8</ele>
        <time>2022-06-12T07:00:42Z</time>
      </trkpt>
      <trkpt lat="44.36466" lon="4.64616">
        <ele>54.8</ele>
        <time>2022-06-12T07:00:43Z</time>
      </trkpt>
      <trkpt lat="44.36471" lon="4.64618">
        <ele>54.8</ele>
        <time>2022-06-12T07:00:44Z</time>
      </trkpt>
      <trkpt lat="44.36476" lon="4.64619">
        <ele>54.8</ele>
        <time>2022-06-12T07:00:45Z</time>
      </trkpt>
      <trkpt lat="44.36481" lon="4.64621">
        <ele>54.8</ele>
        <time>2022-06-12T07:00:46Z</time>
      </trkpt>
      <trkpt lat="44.36485" lon="4.64623">
        <ele>54.8</ele>
        <time>2022-06-12T07:00:47Z</time>
      </trkpt>
      <trkpt lat="44.3649" lon="4.64624">
        <ele>54.8</ele>
        <time>2022-06-12T07:00:48Z</time>
      </trkpt>
      <trkpt lat="44.36494" lon="4.64626">
        <ele>54.8</ele>
        <time>2022-06-12T07:00:49Z</time>
      </trkpt>
      <trkpt lat="44.36499" lon="4.64627">
        <ele>54.8</ele>
        <time>2022-06-12T07:00:50Z</time>
      </trkpt>
      <trkpt lat="44.36504" lon="4.64629">
        <ele>54.8</ele>
        <time>2022-06-12T07:00:51Z</time>
      </trkpt>
      <trkpt lat="44.36509" lon="4.64631">
        <ele>54.8</ele>
        <time>2022-06-12T07:00:52Z</time>
      </trkpt>
      <trkpt lat="44.36513" lon="4.64632">
        <ele>54.8</ele>
        <time>2022-06-12T07:00:53Z</time>
      </trkpt>
      <trkpt lat="44.36518" lon="4.64634">
        <ele>54.8</ele>
        <time>2022-06-12T07:00:54Z</time>
      </trkpt>
      <trkpt lat="44.36522" lon="4.64635">
        <ele>54.8</ele>
        <time>2022-06-12T07:00:55Z</time>
      </trkpt>
      <trkpt lat="44.36527" lon="4.64637">
        <ele>54.9</ele>
        <time>2022-06-12T07:00:56Z</time>
      </trkpt>
      <trkpt lat="44.36531" lon="4.64638">
        <ele>54.9</ele>
        <time>2022-06-12T07:00:57Z</time>
      </trkpt>
      <trkpt lat="44.36536" lon="4.6464">
        <ele>54.9</ele>
        <time>2022-06-12T07:00:58Z</time>
      </trkpt>
      <trkpt lat="44.3654" lon="4.64641">
        <ele>54.9</ele>
        <time>2022-06-12T07:00:59Z</time>
      </trkpt>
      <trkpt lat="44.36545" lon="4.64643">
        <ele>54.9</ele>
        <time>2022-06-12T07:01:00Z</time>
      </trkpt>
      <trkpt lat="44.36549" lon="4.64644">
        <ele>54.9</ele>
        <time>2022-06-12T07:01:01Z</time>
      </trkpt>
      <trkpt lat="44.36554" lon="4.64645">
        <ele>54.9</ele>
        <time>2022-06-12T07:01:02Z</time>
      </trkpt>
      <trkpt lat="44.36559" lon="4.64647">
        <ele>54.9</ele>
        <time>2022-06-12T07:01:03Z</time>
      </trkpt>
      <trkpt lat="44.36564" lon="4.64648">
        <ele>54.9</ele>
        <time>2022-06-12T07:01:04Z</time>
      </trkpt>
      <trkpt lat="44.36568" lon="4.6465">
        <ele>54.9</ele>
        <time>2022-06-12T07:01:05Z</time>
      </trkpt>
      <trkpt lat="44.36573" lon="4.64652">
        <ele>54.9</ele>
        <time>2022-06-12T07:01:06Z</time>
      </trkpt>
      <trkpt lat="44.36577" lon="4.64654">
        <ele>54.9</ele>
        <time>2022-06-12T07:01:07Z</time>
      </trkpt>
      <trkpt lat="44.36582" lon="4.64655">
        <ele>54.9</ele>
        <time>2022-06-12T07:01:08Z</time>
      </trkpt>
      <trkpt lat="44.36587" lon="4.64657">
        <ele>54.9</ele>
        <time>2022-06-12T07:01:09Z</time>
      </trkpt>
      <trkpt lat="44.36592" lon="4.64659">
        <ele>54.8</ele>
        <time>2022-06-12T07:01:10Z</time>
      </trkpt>
      <trkpt lat="44.36597" lon="4.6466">
        <ele>54.8</ele>
        <time>2022-06-12T07:01:11Z</time>
      </trkpt>
      <trkpt lat="44.36602" lon="4.64662">
        <ele>54.8</ele>
        <time>2022-06-12T07:01:12Z</time>
      </trkpt>
      <trkpt lat="44.36607" lon="4.64663">
        <ele>54.8</ele>
        <time>2022-06-12T07:01:13Z</time>
      </trkpt>
      <trkpt lat="44.36612" lon="4.64664">
        <ele>54.7</ele>
        <time>2022-06-12T07:01:14Z</time>
      </trkpt>
      <trkpt lat="44.36617" lon="4.64666">
        <ele>54.7</ele>
        <time>2022-06-12T07:01:15Z</time>
      </trkpt>
      <trkpt lat="44.36622" lon="4.64668">
        <ele>54.7</ele>
        <time>2022-06-12T07:01:16Z</time>
      </trkpt>
      <trkpt lat="44.36627" lon="4.6467">
        <ele>54.6</ele>
        <time>2022-06-12T07:01:17Z</time>
      </trkpt>
      <trkpt lat="44.36632" lon="4.64671">
        <ele>54.6</ele>
        <time>2022-06-12T07:01:18Z</time>
      </trkpt>
      <trkpt lat="44.36637" lon="4.64673">
        <ele>54.5</ele>
        <time>2022-06-12T07:01:19Z</time>
      </trkpt>
      <trkpt lat="44.36643" lon="4.64675">
        <ele>54.5</ele>
        <time>2022-06-12T07:01:20Z</time>
      </trkpt>
      <trkpt lat="44.36648" lon="4.64677">
        <ele>54.4</ele>
        <time>2022-06-12T07:01:21Z</time>
      </trkpt>
      <trkpt lat="44.36653" lon="4.64679">
        <ele>54.3</ele>
        <time>2022-06-12T07:01:22Z</time>
      </trkpt>
      <trkpt lat="44.36659" lon="4.64681">
        <ele>54.2</ele>
        <time>2022-06-12T07:01:23Z</time>
      </trkpt>
      <trkpt lat="44.36664" lon="4.64683">
        <ele>54.1</ele>
        <time>2022-06-12T07:01:24Z</time>
      </trkpt>
      <trkpt lat="44.36669" lon="4.64684">
        <ele>54.1</ele>
        <time>2022-06-12T07:01:25Z</time>
      </trkpt>
      <trkpt lat="44.36675" lon="4.64686">
        <ele>54</ele>
        <time>2022-06-12T07:01:26Z</time>
      </trkpt>
      <trkpt lat="44.36681" lon="4.64688">
        <ele>53.9</ele>
        <time>2022-06-12T07:01:27Z</time>
      </trkpt>
      <trkpt lat="44.36687" lon="4.64689">
        <ele>53.8</ele>
        <time>2022-06-12T07:01:28Z</time>
      </trkpt>
      <trkpt lat="44.36693" lon="4.64689">
        <ele>53.8</ele>
        <time>2022-06-12T07:01:29Z</time>
      </trkpt>
      <trkpt lat="44.36698" lon="4.6469">
        <ele>53.7</ele>
        <time>2022-06-12T07:01:30Z</time>
      </trkpt>
      <trkpt lat="44.36704" lon="4.64692">
        <ele>53.6</ele>
        <time>2022-06-12T07:01:31Z</time>
      </trkpt>
      <trkpt lat="44.36709" lon="4.64695">
        <ele>53.6</ele>
        <time>2022-06-12T07:01:32Z</time>
      </trkpt>
      <trkpt lat="44.36714" lon="4.64699">
        <ele>53.5</ele>
        <time>2022-06-12T07:01:33Z</time>
      </trkpt>
      <trkpt lat="44.36718" lon="4.64702">
        <ele>53.5</ele>
        <time>2022-06-12T07:01:34Z</time>
      </trkpt>
      <trkpt lat="44.36725" lon="4.64707">
        <ele>53.3</ele>
        <time>2022-06-12T07:01:36Z</time>
      </trkpt>
      <trkpt lat="44.36728" lon="4.64707">
        <ele>53.3</ele>
        <time>2022-06-12T07:01:37Z</time>
      </trkpt>
      <trkpt lat="44.36732" lon="4.64705">
        <ele>53.2</ele>
        <time>2022-06-12T07:01:38Z</time>
      </trkpt>
      <trkpt lat="44.36736" lon="4.64702">
        <ele>53.2</ele>
        <time>2022-06-12T07:01:39Z</time>
      </trkpt>
      <trkpt lat="44.36739" lon="4.64697">
        <ele>53.1</ele>
        <time>2022-06-12T07:01:40Z</time>
      </trkpt>
      <trkpt lat="44.36741" lon="4.6469">
        <ele>53</ele>
        <time>2022-06-12T07:01:41Z</time>
      </trkpt>
      <trkpt lat="44.36742" lon="4.64685">
        <ele>53.2</ele>
        <time>2022-06-12T07:01:42Z</time>
      </trkpt>
      <trkpt lat="44.36745" lon="4.64682">
        <ele>53.3</ele>
        <time>2022-06-12T07:01:43Z</time>
      </trkpt>
      <trkpt lat="44.36749" lon="4.64674">
        <ele>53.5</ele>
        <time>2022-06-12T07:01:45Z</time>
      </trkpt>
      <trkpt lat="44.36756" lon="4.64671">
        <ele>53.6</ele>
        <time>2022-06-12T07:01:47Z</time>
      </trkpt>
      <trkpt lat="44.36759" lon="4.64672">
        <ele>53.6</ele>
        <time>2022-06-12T07:01:48Z</time>
      </trkpt>
      <trkpt lat="44.36764" lon="4.64674">
        <ele>53.7</ele>
        <time>2022-06-12T07:01:50Z</time>
      </trkpt>
      <trkpt lat="44.36768" lon="4.64675">
        <ele>53.8</ele>
        <time>2022-06-12T07:01:51Z</time>
      </trkpt>
      <trkpt lat="44.36773" lon="4.64676">
        <ele>53.8</ele>
        <time>2022-06-12T07:01:52Z</time>
      </trkpt>
      <trkpt lat="44.36777" lon="4.64677">
        <ele>53.9</ele>
        <time>2022-06-12T07:01:53Z</time>
      </trkpt>
      <trkpt lat="44.36781" lon="4.64677">
        <ele>53.9</ele>
        <time>2022-06-12T07:01:54Z</time>
      </trkpt>
      <trkpt lat="44.36785" lon="4.64678">
        <ele>54</ele>
        <time>2022-06-12T07:01:55Z</time>
      </trkpt>
      <trkpt lat="44.36786" lon="4.64679">
        <ele>54</ele>
        <time>2022-06-12T07:01:56Z</time>
      </trkpt>
      <trkpt lat="44.36792" lon="4.64681">
        <ele>54.2</ele>
        <time>2022-06-12T07:01:58Z</time>
      </trkpt>
      <trkpt lat="44.36798" lon="4.64682">
        <ele>54.3</ele>
        <time>2022-06-12T07:01:59Z</time>
      </trkpt>
      <trkpt lat="44.36802" lon="4.64683">
        <ele>54.4</ele>
        <time>2022-06-12T07:02:00Z</time>
      </trkpt>
      <trkpt lat="44.36806" lon="4.64685">
        <ele>54.5</ele>
        <time>2022-06-12T07:02:01Z</time>
      </trkpt>
      <trkpt lat="44.3681" lon="4.64686">
        <ele>54.6</ele>
        <time>2022-06-12T07:02:02Z</time>
      </trkpt>
      <trkpt lat="44.36814" lon="4.64687">
        <ele>54.7</ele>
        <time>2022-06-12T07:02:03Z</time>
      </trkpt>
      <trkpt lat="44.36818" lon="4.64688">
        <ele>54.8</ele>
        <time>2022-06-12T07:02:04Z</time>
      </trkpt>
      <trkpt lat="44.36823" lon="4.64689">
        <ele>54.9</ele>
        <time>2022-06-12T07:02:05Z</time>
      </trkpt>
      <trkpt lat="44.36827" lon="4.64691">
        <ele>55</ele>
        <time>2022-06-12T07:02:06Z</time>
      </trkpt>
      <trkpt lat="44.36831" lon="4.64692">
        <ele>55.1</ele>
        <time>2022-06-12T07:02:07Z</time>
      </trkpt>
      <trkpt lat="44.36837" lon="4.64695">
        <ele>55.4</ele>
        <time>2022-06-12T07:02:09Z</time>
      </trkpt>
      <trkpt lat="44.36841" lon="4.64697">
        <ele>55.5</ele>
        <time>2022-06-12T07:02:10Z</time>
      </trkpt>
      <trkpt lat="44.36845" lon="4.647">
        <ele>55.7</ele>
        <time>2022-06-12T07:02:11Z</time>
      </trkpt>
      <trkpt lat="44.36847" lon="4.64702">
        <ele>55.8</ele>
        <time>2022-06-12T07:02:12Z</time>
      </trkpt>
      <trkpt lat="44.3685" lon="4.64705">
        <ele>56</ele>
        <time>2022-06-12T07:02:13Z</time>
      </trkpt>
      <trkpt lat="44.36853" lon="4.64707">
        <ele>56.1</ele>
        <time>2022-06-12T07:02:14Z</time>
      </trkpt>
      <trkpt lat="44.36854" lon="4.64711">
        <ele>56.3</ele>
        <time>2022-06-12T07:02:15Z</time>
      </trkpt>
      <trkpt lat="44.36855" lon="4.64715">
        <ele>56.4</ele>
        <time>2022-06-12T07:02:16Z</time>
      </trkpt>
      <trkpt lat="44.36857" lon="4.64718">
        <ele>56.4</ele>
        <time>2022-06-12T07:02:17Z</time>
      </trkpt>
      <trkpt lat="44.3686" lon="4.6472">
        <ele>56.5</ele>
        <time>2022-06-12T07:02:18Z</time>
      </trkpt>
      <trkpt lat="44.36863" lon="4.64722">
        <ele>56.6</ele>
        <time>2022-06-12T07:02:19Z</time>
      </trkpt>
      <trkpt lat="44.36867" lon="4.64721">
        <ele>56.6</ele>
        <time>2022-06-12T07:02:20Z</time>
      </trkpt>
      <trkpt lat="44.3687" lon="4.64719">
        <ele>56.6</ele>
        <time>2022-06-12T07:02:21Z</time>
      </trkpt>
      <trkpt lat="44.36872" lon="4.64716">
        <ele>56.6</ele>
        <time>2022-06-12T07:02:22Z</time>
      </trkpt>
      <trkpt lat="44.36874" lon="4.64712">
        <ele>56.6</ele>
        <time>2022-06-12T07:02:23Z</time>
      </trkpt>
      <trkpt lat="44.36874" lon="4.64709">
        <ele>56.6</ele>
        <time>2022-06-12T07:02:24Z</time>
      </trkpt>
      <trkpt lat="44.36872" lon="4.64705">
        <ele>56.6</ele>
        <time>2022-06-12T07:02:25Z</time>
      </trkpt>
      <trkpt lat="44.36869" lon="4.64702">
        <ele>56.6</ele>
        <time>2022-06-12T07:02:26Z</time>
      </trkpt>
      <trkpt lat="44.36865" lon="4.64701">
        <ele>56.5</ele>
        <time>2022-06-12T07:02:27Z</time>
      </trkpt>
      <trkpt lat="44.36861" lon="4.64701">
        <ele>56.4</ele>
        <time>2022-06-12T07:02:28Z</time>
      </trkpt>
      <trkpt lat="44.36858" lon="4.64704">
        <ele>56.3</ele>
        <time>2022-06-12T07:02:29Z</time>
      </trkpt>
      <trkpt lat="44.36856" lon="4.64709">
        <ele>56.3</ele>
        <time>2022-06-12T07:02:30Z</time>
      </trkpt>
      <trkpt lat="44.36857" lon="4.64716">
        <ele>56.4</ele>
        <time>2022-06-12T07:02:31Z</time>
      </trkpt>
      <trkpt lat="44.36858" lon="4.64721">
        <ele>56.6</ele>
        <time>2022-06-12T07:02:32Z</time>
      </trkpt>
      <trkpt lat="44.36858" lon="4.64726">
        <ele>56.7</ele>
        <time>2022-06-12T07:02:33Z</time>
      </trkpt>
      <trkpt lat="44.36857" lon="4.64731">
        <ele>56.7</ele>
        <time>2022-06-12T07:02:35Z</time>
      </trkpt>
      <trkpt lat="44.36855" lon="4.64737">
        <ele>56.8</ele>
        <time>2022-06-12T07:02:36Z</time>
      </trkpt>
      <trkpt lat="44.36855" lon="4.64743">
        <ele>56.9</ele>
        <time>2022-06-12T07:02:37Z</time>
      </trkpt>
      <trkpt lat="44.36856" lon="4.64748">
        <ele>57</ele>
        <time>2022-06-12T07:02:39Z</time>
      </trkpt>
      <trkpt lat="44.36857" lon="4.64752">
        <ele>57</ele>
        <time>2022-06-12T07:02:40Z</time>
      </trkpt>
      <trkpt lat="44.36857" lon="4.64756">
        <ele>57.1</ele>
        <time>2022-06-12T07:02:41Z</time>
      </trkpt>
      <trkpt lat="44.36857" lon="4.64762">
        <ele>57.3</ele>
        <time>2022-06-12T07:02:43Z</time>
      </trkpt>
      <trkpt lat="44.36856" lon="4.64766">
        <ele>57.4</ele>
        <time>2022-06-12T07:02:45Z</time>
      </trkpt>
      <trkpt lat="44.36856" lon="4.64772">
        <ele>57.5</ele>
        <time>2022-06-12T07:02:46Z</time>
      </trkpt>
      <trkpt lat="44.36856" lon="4.64776">
        <ele>57.6</ele>
        <time>2022-06-12T07:02:47Z</time>
      </trkpt>
      <trkpt lat="44.36856" lon="4.64781">
        <ele>57.8</ele>
        <time>2022-06-12T07:02:48Z</time>
      </trkpt>
      <trkpt lat="44.36856" lon="4.64785">
        <ele>57.9</ele>
        <time>2022-06-12T07:02:49Z</time>
      </trkpt>
      <trkpt lat="44.36856" lon="4.6479">
        <ele>58.1</ele>
        <time>2022-06-12T07:02:51Z</time>
      </trkpt>
      <trkpt lat="44.36855" lon="4.64795">
        <ele>58.3</ele>
        <time>2022-06-12T07:02:52Z</time>
      </trkpt>
      <trkpt lat="44.36855" lon="4.64799">
        <ele>58.4</ele>
        <time>2022-06-12T07:02:53Z</time>
      </trkpt>
      <trkpt lat="44.36855" lon="4.64805">
        <ele>58.6</ele>
        <time>2022-06-12T07:02:54Z</time>
      </trkpt>
      <trkpt lat="44.36855" lon="4.64806">
        <ele>58.7</ele>
        <time>2022-06-12T07:02:55Z</time>
      </trkpt>
      <trkpt lat="44.36854" lon="4.64809">
        <ele>58.8</ele>
        <time>2022-06-12T07:02:56Z</time>
      </trkpt>
      <trkpt lat="44.36853" lon="4.64815">
        <ele>59</ele>
        <time>2022-06-12T07:02:58Z</time>
      </trkpt>
      <trkpt lat="44.36853" lon="4.6482">
        <ele>59.2</ele>
        <time>2022-06-12T07:02:59Z</time>
      </trkpt>
      <trkpt lat="44.36853" lon="4.64822">
        <ele>59.2</ele>
        <time>2022-06-12T07:03:00Z</time>
      </trkpt>
      <trkpt lat="44.36853" lon="4.64826">
        <ele>59.4</ele>
        <time>2022-06-12T07:03:01Z</time>
      </trkpt>
      <trkpt lat="44.36852" lon="4.64831">
        <ele>59.5</ele>
        <time>2022-06-12T07:03:02Z</time>
      </trkpt>
      <trkpt lat="44.36852" lon="4.64835">
        <ele>59.7</ele>
        <time>2022-06-12T07:03:03Z</time>
      </trkpt>
      <trkpt lat="44.36852" lon="4.64839">
        <ele>59.8</ele>
        <time>2022-06-12T07:03:04Z</time>
      </trkpt>
      <trkpt lat="44.36851" lon="4.64844">
        <ele>59.9</ele>
        <time>2022-06-12T07:03:06Z</time>
      </trkpt>
      <trkpt lat="44.36851" lon="4.64849">
        <ele>60.1</ele>
        <time>2022-06-12T07:03:07Z</time>
      </trkpt>
      <trkpt lat="44.36851" lon="4.64853">
        <ele>60.2</ele>
        <time>2022-06-12T07:03:08Z</time>
      </trkpt>
      <trkpt lat="44.36851" lon="4.64857">
        <ele>60.3</ele>
        <time>2022-06-12T07:03:09Z</time>
      </trkpt>
      <trkpt lat="44.3685" lon="4.64862">
        <ele>60.5</ele>
        <time>2022-06-12T07:03:10Z</time>
      </trkpt>
      <trkpt lat="44.3685" lon="4.64869">
        <ele>60.6</ele>
        <time>2022-06-12T07:03:12Z</time>
      </trkpt>
      <trkpt lat="44.3685" lon="4.64874">
        <ele>60.7</ele>
        <time>2022-06-12T07:03:13Z</time>
      </trkpt>
      <trkpt lat="44.36849" lon="4.64878">
        <ele>60.8</ele>
        <time>2022-06-12T07:03:14Z</time>
      </trkpt>
      <trkpt lat="44.36849" lon="4.64883">
        <ele>60.9</ele>
        <time>2022-06-12T07:03:15Z</time>
      </trkpt>
      <trkpt lat="44.36848" lon="4.64887">
        <ele>61</ele>
        <time>2022-06-12T07:03:16Z</time>
      </trkpt>
      <trkpt lat="44.36848" lon="4.64891">
        <ele>61</ele>
        <time>2022-06-12T07:03:17Z</time>
      </trkpt>
      <trkpt lat="44.36847" lon="4.64896">
        <ele>61.1</ele>
        <time>2022-06-12T07:03:18Z</time>
      </trkpt>
      <trkpt lat="44.36847" lon="4.649">
        <ele>61.2</ele>
        <time>2022-06-12T07:03:19Z</time>
      </trkpt>
      <trkpt lat="44.36846" lon="4.64905">
        <ele>61.2</ele>
        <time>2022-06-12T07:03:20Z</time>
      </trkpt>
      <trkpt lat="44.36846" lon="4.64909">
        <ele>61.3</ele>
        <time>2022-06-12T07:03:21Z</time>
      </trkpt>
      <trkpt lat="44.36845" lon="4.64914">
        <ele>61.4</ele>
        <time>2022-06-12T07:03:22Z</time>
      </trkpt>
      <trkpt lat="44.36844" lon="4.64919">
        <ele>61.5</ele>
        <time>2022-06-12T07:03:23Z</time>
      </trkpt>
      <trkpt lat="44.36844" lon="4.64924">
        <ele>61.5</ele>
        <time>2022-06-12T07:03:24Z</time>
      </trkpt>
      <trkpt lat="44.36843" lon="4.64928">
        <ele>61.6</ele>
        <time>2022-06-12T07:03:25Z</time>
      </trkpt>
      <trkpt lat="44.36843" lon="4.64934">
        <ele>61.6</ele>
        <time>2022-06-12T07:03:26Z</time>
      </trkpt>
      <trkpt lat="44.36842" lon="4.64939">
        <ele>61.6</ele>
        <time>2022-06-12T07:03:27Z</time>
      </trkpt>
      <trkpt lat="44.36841" lon="4.64944">
        <ele>61.7</ele>
        <time>2022-06-12T07:03:28Z</time>
      </trkpt>
      <trkpt lat="44.36841" lon="4.64949">
        <ele>61.7</ele>
        <time>2022-06-12T07:03:29Z</time>
      </trkpt>
      <trkpt lat="44.3684" lon="4.64955">
        <ele>61.7</ele>
        <time>2022-06-12T07:03:30Z</time>
      </trkpt>
      <trkpt lat="44.3684" lon="4.6496">
        <ele>61.7</ele>
        <time>2022-06-12T07:03:31Z</time>
      </trkpt>
      <trkpt lat="44.3684" lon="4.64965">
        <ele>61.7</ele>
        <time>2022-06-12T07:03:32Z</time>
      </trkpt>
      <trkpt lat="44.36839" lon="4.64971">
        <ele>61.7</ele>
        <time>2022-06-12T07:03:33Z</time>
      </trkpt>
      <trkpt lat="44.36838" lon="4.64976">
        <ele>61.7</ele>
        <time>2022-06-12T07:03:34Z</time>
      </trkpt>
      <trkpt lat="44.36837" lon="4.64983">
        <ele>61.6</ele>
        <time>2022-06-12T07:03:36Z</time>
      </trkpt>
      <trkpt lat="44.36836" lon="4.64989">
        <ele>61.6</ele>
        <time>2022-06-12T07:03:37Z</time>
      </trkpt>
      <trkpt lat="44.36836" lon="4.64995">
        <ele>61.6</ele>
        <time>2022-06-12T07:03:38Z</time>
      </trkpt>
      <trkpt lat="44.36835" lon="4.65002">
        <ele>61.5</ele>
        <time>2022-06-12T07:03:39Z</time>
      </trkpt>
      <trkpt lat="44.36834" lon="4.65014">
        <ele>61.3</ele>
        <time>2022-06-12T07:03:40Z</time>
      </trkpt>
      <trkpt lat="44.36833" lon="4.6502">
        <ele>61.1</ele>
        <time>2022-06-12T07:03:41Z</time>
      </trkpt>
      <trkpt lat="44.36832" lon="4.65027">
        <ele>61</ele>
        <time>2022-06-12T07:03:42Z</time>
      </trkpt>
      <trkpt lat="44.36832" lon="4.65034">
        <ele>60.8</ele>
        <time>2022-06-12T07:03:43Z</time>
      </trkpt>
      <trkpt lat="44.36831" lon="4.65041">
        <ele>60.7</ele>
        <time>2022-06-12T07:03:44Z</time>
      </trkpt>
      <trkpt lat="44.36831" lon="4.65049">
        <ele>60.5</ele>
        <time>2022-06-12T07:03:45Z</time>
      </trkpt>
      <trkpt lat="44.3683" lon="4.65056">
        <ele>60.3</ele>
        <time>2022-06-12T07:03:46Z</time>
      </trkpt>
      <trkpt lat="44.36829" lon="4.65064">
        <ele>60.1</ele>
        <time>2022-06-12T07:03:47Z</time>
      </trkpt>
      <trkpt lat="44.36828" lon="4.65073">
        <ele>59.9</ele>
        <time>2022-06-12T07:03:48Z</time>
      </trkpt>
      <trkpt lat="44.36827" lon="4.65081">
        <ele>59.7</ele>
        <time>2022-06-12T07:03:49Z</time>
      </trkpt>
      <trkpt lat="44.36827" lon="4.6509">
        <ele>59.5</ele>
        <time>2022-06-12T07:03:50Z</time>
      </trkpt>
      <trkpt lat="44.36826" lon="4.65098">
        <ele>59.3</ele>
        <time>2022-06-12T07:03:51Z</time>
      </trkpt>
      <trkpt lat="44.36825" lon="4.65106">
        <ele>59</ele>
        <time>2022-06-12T07:03:52Z</time>
      </trkpt>
      <trkpt lat="44.36824" lon="4.65114">
        <ele>58.8</ele>
        <time>2022-06-12T07:03:53Z</time>
      </trkpt>
      <trkpt lat="44.36823" lon="4.65124">
        <ele>58.6</ele>
        <time>2022-06-12T07:03:54Z</time>
      </trkpt>
      <trkpt lat="44.36823" lon="4.65133">
        <ele>58.4</ele>
        <time>2022-06-12T07:03:55Z</time>
      </trkpt>
      <trkpt lat="44.36822" lon="4.65143">
        <ele>58.2</ele>
        <time>2022-06-12T07:03:56Z</time>
      </trkpt>
      <trkpt lat="44.3682" lon="4.65153">
        <ele>58</ele>
        <time>2022-06-12T07:03:57Z</time>
      </trkpt>
      <trkpt lat="44.36819" lon="4.65162">
        <ele>57.8</ele>
        <time>2022-06-12T07:03:58Z</time>
      </trkpt>
      <trkpt lat="44.36818" lon="4.65172">
        <ele>57.6</ele>
        <time>2022-06-12T07:03:59Z</time>
      </trkpt>
      <trkpt lat="44.36817" lon="4.65182">
        <ele>57.4</ele>
        <time>2022-06-12T07:04:00Z</time>
      </trkpt>
      <trkpt lat="44.36816" lon="4.65191">
        <ele>57.2</ele>
        <time>2022-06-12T07:04:01Z</time>
      </trkpt>
      <trkpt lat="44.36815" lon="4.65201">
        <ele>57</ele>
        <time>2022-06-12T07:04:02Z</time>
      </trkpt>
      <trkpt lat="44.36815" lon="4.65211">
        <ele>56.9</ele>
        <time>2022-06-12T07:04:03Z</time>
      </trkpt>
      <trkpt lat="44.36814" lon="4.65221">
        <ele>56.6</ele>
        <time>2022-06-12T07:04:04Z</time>
      </trkpt>
      <trkpt lat="44.36813" lon="4.65231">
        <ele>56.5</ele>
        <time>2022-06-12T07:04:05Z</time>
      </trkpt>
      <trkpt lat="44.36812" lon="4.65242">
        <ele>56.3</ele>
        <time>2022-06-12T07:04:06Z</time>
      </trkpt>
      <trkpt lat="44.36811" lon="4.65252">
        <ele>56.2</ele>
        <time>2022-06-12T07:04:07Z</time>
      </trkpt>
      <trkpt lat="44.3681" lon="4.65262">
        <ele>56.1</ele>
        <time>2022-06-12T07:04:08Z</time>
      </trkpt>
      <trkpt lat="44.36809" lon="4.65271">
        <ele>56</ele>
        <time>2022-06-12T07:04:09Z</time>
      </trkpt>
      <trkpt lat="44.36808" lon="4.65281">
        <ele>55.9</ele>
        <time>2022-06-12T07:04:10Z</time>
      </trkpt>
      <trkpt lat="44.36806" lon="4.65291">
        <ele>55.9</ele>
        <time>2022-06-12T07:04:11Z</time>
      </trkpt>
      <trkpt lat="44.36805" lon="4.653">
        <ele>55.8</ele>
        <time>2022-06-12T07:04:12Z</time>
      </trkpt>
      <trkpt lat="44.36804" lon="4.6531">
        <ele>55.8</ele>
        <time>2022-06-12T07:04:13Z</time>
      </trkpt>
      <trkpt lat="44.36804" lon="4.65319">
        <ele>55.7</ele>
        <time>2022-06-12T07:04:14Z</time>
      </trkpt>
      <trkpt lat="44.36803" lon="4.65329">
        <ele>55.7</ele>
        <time>2022-06-12T07:04:15Z</time>
      </trkpt>
      <trkpt lat="44.36802" lon="4.65338">
        <ele>55.7</ele>
        <time>2022-06-12T07:04:16Z</time>
      </trkpt>
      <trkpt lat="44.36802" lon="4.65347">
        <ele>55.6</ele>
        <time>2022-06-12T07:04:17Z</time>
      </trkpt>
      <trkpt lat="44.36801" lon="4.65356">
        <ele>55.6</ele>
        <time>2022-06-12T07:04:18Z</time>
      </trkpt>
      <trkpt lat="44.368" lon="4.65364">
        <ele>55.6</ele>
        <time>2022-06-12T07:04:19Z</time>
      </trkpt>
      <trkpt lat="44.36799" lon="4.65373">
        <ele>55.6</ele>
        <time>2022-06-12T07:04:20Z</time>
      </trkpt>
      <trkpt lat="44.36799" lon="4.65382">
        <ele>55.6</ele>
        <time>2022-06-12T07:04:21Z</time>
      </trkpt>
      <trkpt lat="44.36798" lon="4.65391">
        <ele>55.6</ele>
        <time>2022-06-12T07:04:22Z</time>
      </trkpt>
      <trkpt lat="44.36797" lon="4.654">
        <ele>55.5</ele>
        <time>2022-06-12T07:04:23Z</time>
      </trkpt>
      <trkpt lat="44.36796" lon="4.65408">
        <ele>55.5</ele>
        <time>2022-06-12T07:04:24Z</time>
      </trkpt>
      <trkpt lat="44.36796" lon="4.65417">
        <ele>55.5</ele>
        <time>2022-06-12T07:04:25Z</time>
      </trkpt>
      <trkpt lat="44.36795" lon="4.65425">
        <ele>55.5</ele>
        <time>2022-06-12T07:04:26Z</time>
      </trkpt>
      <trkpt lat="44.36794" lon="4.65433">
        <ele>55.5</ele>
        <time>2022-06-12T07:04:27Z</time>
      </trkpt>
      <trkpt lat="44.36793" lon="4.65442">
        <ele>55.4</ele>
        <time>2022-06-12T07:04:28Z</time>
      </trkpt>
      <trkpt lat="44.36793" lon="4.6545">
        <ele>55.4</ele>
        <time>2022-06-12T07:04:29Z</time>
      </trkpt>
      <trkpt lat="44.36792" lon="4.65458">
        <ele>55.4</ele>
        <time>2022-06-12T07:04:30Z</time>
      </trkpt>
      <trkpt lat="44.36791" lon="4.65466">
        <ele>55.4</ele>
        <time>2022-06-12T07:04:31Z</time>
      </trkpt>
      <trkpt lat="44.36791" lon="4.65474">
        <ele>55.4</ele>
        <time>2022-06-12T07:04:32Z</time>
      </trkpt>
      <trkpt lat="44.3679" lon="4.65482">
        <ele>55.3</ele>
        <time>2022-06-12T07:04:33Z</time>
      </trkpt>
      <trkpt lat="44.3679" lon="4.65491">
        <ele>55.3</ele>
        <time>2022-06-12T07:04:34Z</time>
      </trkpt>
      <trkpt lat="44.36789" lon="4.65499">
        <ele>55.3</ele>
        <time>2022-06-12T07:04:35Z</time>
      </trkpt>
      <trkpt lat="44.36788" lon="4.65507">
        <ele>55.2</ele>
        <time>2022-06-12T07:04:36Z</time>
      </trkpt>
      <trkpt lat="44.36787" lon="4.65516">
        <ele>55.2</ele>
        <time>2022-06-12T07:04:37Z</time>
      </trkpt>
      <trkpt lat="44.36787" lon="4.65524">
        <ele>55.2</ele>
        <time>2022-06-12T07:04:38Z</time>
      </trkpt>
      <trkpt lat="44.36786" lon="4.65532">
        <ele>55.1</ele>
        <time>2022-06-12T07:04:39Z</time>
      </trkpt>
      <trkpt lat="44.36786" lon="4.6554">
        <ele>55.1</ele>
        <time>2022-06-12T07:04:40Z</time>
      </trkpt>
      <trkpt lat="44.36785" lon="4.65548">
        <ele>55.1</ele>
        <time>2022-06-12T07:04:41Z</time>
      </trkpt>
      <trkpt lat="44.36784" lon="4.65556">
        <ele>55.1</ele>
        <time>2022-06-12T07:04:42Z</time>
      </trkpt>
      <trkpt lat="44.36783" lon="4.65564">
        <ele>55.1</ele>
        <time>2022-06-12T07:04:43Z</time>
      </trkpt>
      <trkpt lat="44.36782" lon="4.65573">
        <ele>55.1</ele>
        <time>2022-06-12T07:04:44Z</time>
      </trkpt>
      <trkpt lat="44.36782" lon="4.65581">
        <ele>55.1</ele>
        <time>2022-06-12T07:04:45Z</time>
      </trkpt>
      <trkpt lat="44.36781" lon="4.65589">
        <ele>55.1</ele>
        <time>2022-06-12T07:04:46Z</time>
      </trkpt>
      <trkpt lat="44.3678" lon="4.65598">
        <ele>55.1</ele>
        <time>2022-06-12T07:04:47Z</time>
      </trkpt>
      <trkpt lat="44.36779" lon="4.65606">
        <ele>55</ele>
        <time>2022-06-12T07:04:48Z</time>
      </trkpt>
      <trkpt lat="44.36778" lon="4.65614">
        <ele>55</ele>
        <time>2022-06-12T07:04:49Z</time>
      </trkpt>
      <trkpt lat="44.36778" lon="4.65622">
        <ele>55</ele>
        <time>2022-06-12T07:04:50Z</time>
      </trkpt>
      <trkpt lat="44.36777" lon="4.6563">
        <ele>55</ele>
        <time>2022-06-12T07:04:51Z</time>
      </trkpt>
      <trkpt lat="44.36774" lon="4.65636">
        <ele>55</ele>
        <time>2022-06-12T07:04:52Z</time>
      </trkpt>
      <trkpt lat="44.3677" lon="4.65641">
        <ele>55</ele>
        <time>2022-06-12T07:04:53Z</time>
      </trkpt>
      <trkpt lat="44.36766" lon="4.65645">
        <ele>54.9</ele>
        <time>2022-06-12T07:04:54Z</time>
      </trkpt>
      <trkpt lat="44.36765" lon="4.6565">
        <ele>54.9</ele>
        <time>2022-06-12T07:04:55Z</time>
      </trkpt>
      <trkpt lat="44.36766" lon="4.65656">
        <ele>54.9</ele>
        <time>2022-06-12T07:04:56Z</time>
      </trkpt>
      <trkpt lat="44.36769" lon="4.65659">
        <ele>54.9</ele>
        <time>2022-06-12T07:04:57Z</time>
      </trkpt>
      <trkpt lat="44.36771" lon="4.65662">
        <ele>54.9</ele>
        <time>2022-06-12T07:04:58Z</time>
      </trkpt>
      <trkpt lat="44.36772" lon="4.65668">
        <ele>54.9</ele>
        <time>2022-06-12T07:04:59Z</time>
      </trkpt>
      <trkpt lat="44.36772" lon="4.65673">
        <ele>54.8</ele>
        <time>2022-06-12T07:05:00Z</time>
      </trkpt>
      <trkpt lat="44.36772" lon="4.65678">
        <ele>54.8</ele>
        <time>2022-06-12T07:05:01Z</time>
      </trkpt>
      <trkpt lat="44.36771" lon="4.65686">
        <ele>54.8</ele>
        <time>2022-06-12T07:05:02Z</time>
      </trkpt>
      <trkpt lat="44.3677" lon="4.65694">
        <ele>54.8</ele>
        <time>2022-06-12T07:05:03Z</time>
      </trkpt>
      <trkpt lat="44.36769" lon="4.657">
        <ele>54.7</ele>
        <time>2022-06-12T07:05:04Z</time>
      </trkpt>
      <trkpt lat="44.36769" lon="4.65707">
        <ele>54.7</ele>
        <time>2022-06-12T07:05:05Z</time>
      </trkpt>
      <trkpt lat="44.36768" lon="4.65714">
        <ele>54.7</ele>
        <time>2022-06-12T07:05:06Z</time>
      </trkpt>
      <trkpt lat="44.36768" lon="4.65721">
        <ele>54.7</ele>
        <time>2022-06-12T07:05:07Z</time>
      </trkpt>
      <trkpt lat="44.36767" lon="4.65728">
        <ele>54.6</ele>
        <time>2022-06-12T07:05:08Z</time>
      </trkpt>
      <trkpt lat="44.36767" lon="4.65735">
        <ele>54.6</ele>
        <time>2022-06-12T07:05:09Z</time>
      </trkpt>
      <trkpt lat="44.36766" lon="4.65742">
        <ele>54.6</ele>
        <time>2022-06-12T07:05:10Z</time>
      </trkpt>
      <trkpt lat="44.36766" lon="4.65749">
        <ele>54.6</ele>
        <time>2022-06-12T07:05:11Z</time>
      </trkpt>
      <trkpt lat="44.36765" lon="4.65757">
        <ele>54.6</ele>
        <time>2022-06-12T07:05:12Z</time>
      </trkpt>
      <trkpt lat="44.36765" lon="4.65764">
        <ele>54.5</ele>
        <time>2022-06-12T07:05:13Z</time>
      </trkpt>
      <trkpt lat="44.36765" lon="4.65772">
        <ele>54.5</ele>
        <time>2022-06-12T07:05:14Z</time>
      </trkpt>
      <trkpt lat="44.36764" lon="4.65779">
        <ele>54.5</ele>
        <time>2022-06-12T07:05:15Z</time>
      </trkpt>
      <trkpt lat="44.36764" lon="4.65787">
        <ele>54.5</ele>
        <time>2022-06-12T07:05:16Z</time>
      </trkpt>
      <trkpt lat="44.36763" lon="4.65795">
        <ele>54.5</ele>
        <time>2022-06-12T07:05:17Z</time>
      </trkpt>
      <trkpt lat="44.36763" lon="4.65803">
        <ele>54.5</ele>
        <time>2022-06-12T07:05:18Z</time>
      </trkpt>
      <trkpt lat="44.36763" lon="4.65811">
        <ele>54.5</ele>
        <time>2022-06-12T07:05:19Z</time>
      </trkpt>
      <trkpt lat="44.36763" lon="4.65819">
        <ele>54.4</ele>
        <time>2022-06-12T07:05:20Z</time>
      </trkpt>
      <trkpt lat="44.36763" lon="4.65827">
        <ele>54.4</ele>
        <time>2022-06-12T07:05:21Z</time>
      </trkpt>
      <trkpt lat="44.36763" lon="4.65835">
        <ele>54.4</ele>
        <time>2022-06-12T07:05:22Z</time>
      </trkpt>
      <trkpt lat="44.36763" lon="4.65843">
        <ele>54.4</ele>
        <time>2022-06-12T07:05:23Z</time>
      </trkpt>
      <trkpt lat="44.36763" lon="4.65851">
        <ele>54.4</ele>
        <time>2022-06-12T07:05:24Z</time>
      </trkpt>
      <trkpt lat="44.36763" lon="4.65859">
        <ele>54.4</ele>
        <time>2022-06-12T07:05:25Z</time>
      </trkpt>
      <trkpt lat="44.36763" lon="4.65866">
        <ele>54.4</ele>
        <time>2022-06-12T07:05:26Z</time>
      </trkpt>
      <trkpt lat="44.36763" lon="4.65873">
        <ele>54.3</ele>
        <time>2022-06-12T07:05:27Z</time>
      </trkpt>
      <trkpt lat="44.36763" lon="4.6588">
        <ele>54.3</ele>
        <time>2022-06-12T07:05:28Z</time>
      </trkpt>
      <trkpt lat="44.36764" lon="4.65887">
        <ele>54.3</ele>
        <time>2022-06-12T07:05:29Z</time>
      </trkpt>
      <trkpt lat="44.36764" lon="4.65895">
        <ele>54.3</ele>
        <time>2022-06-12T07:05:30Z</time>
      </trkpt>
      <trkpt lat="44.36765" lon="4.65902">
        <ele>54.3</ele>
        <time>2022-06-12T07:05:31Z</time>
      </trkpt>
      <trkpt lat="44.36765" lon="4.6591">
        <ele>54.2</ele>
        <time>2022-06-12T07:05:32Z</time>
      </trkpt>
      <trkpt lat="44.36765" lon="4.65917">
        <ele>54.2</ele>
        <time>2022-06-12T07:05:33Z</time>
      </trkpt>
      <trkpt lat="44.36765" lon="4.65925">
        <ele>54.2</ele>
        <time>2022-06-12T07:05:34Z</time>
      </trkpt>
      <trkpt lat="44.36766" lon="4.65932">
        <ele>54.2</ele>
        <time>2022-06-12T07:05:35Z</time>
      </trkpt>
      <trkpt lat="44.36766" lon="4.6594">
        <ele>54.2</ele>
        <time>2022-06-12T07:05:36Z</time>
      </trkpt>
      <trkpt lat="44.36767" lon="4.65948">
        <ele>54.1</ele>
        <time>2022-06-12T07:05:37Z</time>
      </trkpt>
      <trkpt lat="44.36767" lon="4.65955">
        <ele>54.1</ele>
        <time>2022-06-12T07:05:38Z</time>
      </trkpt>
      <trkpt lat="44.36768" lon="4.65963">
        <ele>54.1</ele>
        <time>2022-06-12T07:05:39Z</time>
      </trkpt>
      <trkpt lat="44.36769" lon="4.65971">
        <ele>54.1</ele>
        <time>2022-06-12T07:05:40Z</time>
      </trkpt>
      <trkpt lat="44.36769" lon="4.65978">
        <ele>54.1</ele>
        <time>2022-06-12T07:05:41Z</time>
      </trkpt>
      <trkpt lat="44.3677" lon="4.65986">
        <ele>54.1</ele>
        <time>2022-06-12T07:05:42Z</time>
      </trkpt>
      <trkpt lat="44.3677" lon="4.65993">
        <ele>54.1</ele>
        <time>2022-06-12T07:05:43Z</time>
      </trkpt>
      <trkpt lat="44.36771" lon="4.66">
        <ele>54.1</ele>
        <time>2022-06-12T07:05:44Z</time>
      </trkpt>
      <trkpt lat="44.36771" lon="4.66008">
        <ele>54.1</ele>
        <time>2022-06-12T07:05:45Z</time>
      </trkpt>
      <trkpt lat="44.36771" lon="4.66015">
        <ele>54.1</ele>
        <time>2022-06-12T07:05:46Z</time>
      </trkpt>
      <trkpt lat="44.36772" lon="4.66023">
        <ele>54.1</ele>
        <time>2022-06-12T07:05:47Z</time>
      </trkpt>
      <trkpt lat="44.36772" lon="4.66031">
        <ele>54.1</ele>
        <time>2022-06-12T07:05:48Z</time>
      </trkpt>
      <trkpt lat="44.36773" lon="4.66039">
        <ele>54</ele>
        <time>2022-06-12T07:05:49Z</time>
      </trkpt>
      <trkpt lat="44.36773" lon="4.66047">
        <ele>54</ele>
        <time>2022-06-12T07:05:50Z</time>
      </trkpt>
      <trkpt lat="44.36774" lon="4.66055">
        <ele>54</ele>
        <time>2022-06-12T07:05:51Z</time>
      </trkpt>
      <trkpt lat="44.36774" lon="4.66063">
        <ele>54</ele>
        <time>2022-06-12T07:05:52Z</time>
      </trkpt>
      <trkpt lat="44.36775" lon="4.6607">
        <ele>54</ele>
        <time>2022-06-12T07:05:53Z</time>
      </trkpt>
      <trkpt lat="44.36775" lon="4.66078">
        <ele>54</ele>
        <time>2022-06-12T07:05:54Z</time>
      </trkpt>
      <trkpt lat="44.36776" lon="4.66086">
        <ele>53.9</ele>
        <time>2022-06-12T07:05:55Z</time>
      </trkpt>
      <trkpt lat="44.36776" lon="4.66094">
        <ele>53.9</ele>
        <time>2022-06-12T07:05:56Z</time>
      </trkpt>
      <trkpt lat="44.36777" lon="4.66102">
        <ele>53.9</ele>
        <time>2022-06-12T07:05:57Z</time>
      </trkpt>
      <trkpt lat="44.36778" lon="4.6611">
        <ele>53.9</ele>
        <time>2022-06-12T07:05:58Z</time>
      </trkpt>
      <trkpt lat="44.36779" lon="4.66118">
        <ele>53.8</ele>
        <time>2022-06-12T07:05:59Z</time>
      </trkpt>
      <trkpt lat="44.36779" lon="4.66125">
        <ele>53.8</ele>
        <time>2022-06-12T07:06:00Z</time>
      </trkpt>
      <trkpt lat="44.36781" lon="4.66133">
        <ele>53.8</ele>
        <time>2022-06-12T07:06:01Z</time>
      </trkpt>
      <trkpt lat="44.36782" lon="4.6614">
        <ele>53.7</ele>
        <time>2022-06-12T07:06:02Z</time>
      </trkpt>
      <trkpt lat="44.36782" lon="4.66148">
        <ele>53.6</ele>
        <time>2022-06-12T07:06:03Z</time>
      </trkpt>
      <trkpt lat="44.36783" lon="4.66156">
        <ele>53.6</ele>
        <time>2022-06-12T07:06:04Z</time>
      </trkpt>
      <trkpt lat="44.36783" lon="4.66164">
        <ele>53.5</ele>
        <time>2022-06-12T07:06:05Z</time>
      </trkpt>
      <trkpt lat="44.36783" lon="4.66172">
        <ele>53.4</ele>
        <time>2022-06-12T07:06:06Z</time>
      </trkpt>
      <trkpt lat="44.36783" lon="4.6618">
        <ele>53.3</ele>
        <time>2022-06-12T07:06:07Z</time>
      </trkpt>
      <trkpt lat="44.36783" lon="4.66188">
        <ele>53.2</ele>
        <time>2022-06-12T07:06:08Z</time>
      </trkpt>
      <trkpt lat="44.36783" lon="4.66195">
        <ele>53.1</ele>
        <time>2022-06-12T07:06:09Z</time>
      </trkpt>
      <trkpt lat="44.36783" lon="4.66203">
        <ele>53</ele>
        <time>2022-06-12T07:06:10Z</time>
      </trkpt>
      <trkpt lat="44.36782" lon="4.66211">
        <ele>52.9</ele>
        <time>2022-06-12T07:06:11Z</time>
      </trkpt>
      <trkpt lat="44.36783" lon="4.66218">
        <ele>52.9</ele>
        <time>2022-06-12T07:06:12Z</time>
      </trkpt>
      <trkpt lat="44.36784" lon="4.66226">
        <ele>52.8</ele>
        <time>2022-06-12T07:06:13Z</time>
      </trkpt>
      <trkpt lat="44.36785" lon="4.66234">
        <ele>52.8</ele>
        <time>2022-06-12T07:06:14Z</time>
      </trkpt>
      <trkpt lat="44.36788" lon="4.6624">
        <ele>52.9</ele>
        <time>2022-06-12T07:06:15Z</time>
      </trkpt>
      <trkpt lat="44.36793" lon="4.66244">
        <ele>53</ele>
        <time>2022-06-12T07:06:16Z</time>
      </trkpt>
      <trkpt lat="44.36797" lon="4.66248">
        <ele>53.1</ele>
        <time>2022-06-12T07:06:17Z</time>
      </trkpt>
      <trkpt lat="44.36803" lon="4.6625">
        <ele>53.1</ele>
        <time>2022-06-12T07:06:18Z</time>
      </trkpt>
      <trkpt lat="44.36808" lon="4.66251">
        <ele>53.1</ele>
        <time>2022-06-12T07:06:19Z</time>
      </trkpt>
      <trkpt lat="44.36813" lon="4.66252">
        <ele>53.1</ele>
        <time>2022-06-12T07:06:20Z</time>
      </trkpt>
      <trkpt lat="44.36818" lon="4.66253">
        <ele>53</ele>
        <time>2022-06-12T07:06:21Z</time>
      </trkpt>
      <trkpt lat="44.36823" lon="4.66255">
        <ele>52.9</ele>
        <time>2022-06-12T07:06:22Z</time>
      </trkpt>
      <trkpt lat="44.36828" lon="4.66259">
        <ele>52.9</ele>
        <time>2022-06-12T07:06:23Z</time>
      </trkpt>
      <trkpt lat="44.36832" lon="4.66264">
        <ele>52.9</ele>
        <time>2022-06-12T07:06:24Z</time>
      </trkpt>
      <trkpt lat="44.36835" lon="4.66269">
        <ele>52.9</ele>
        <time>2022-06-12T07:06:25Z</time>
      </trkpt>
      <trkpt lat="44.36838" lon="4.66275">
        <ele>52.9</ele>
        <time>2022-06-12T07:06:26Z</time>
      </trkpt>
      <trkpt lat="44.3684" lon="4.66281">
        <ele>52.9</ele>
        <time>2022-06-12T07:06:27Z</time>
      </trkpt>
      <trkpt lat="44.36842" lon="4.66287">
        <ele>52.8</ele>
        <time>2022-06-12T07:06:28Z</time>
      </trkpt>
      <trkpt lat="44.36844" lon="4.66293">
        <ele>52.8</ele>
        <time>2022-06-12T07:06:29Z</time>
      </trkpt>
      <trkpt lat="44.36846" lon="4.66298">
        <ele>52.8</ele>
        <time>2022-06-12T07:06:30Z</time>
      </trkpt>
      <trkpt lat="44.36848" lon="4.66304">
        <ele>52.8</ele>
        <time>2022-06-12T07:06:31Z</time>
      </trkpt>
      <trkpt lat="44.3685" lon="4.66313">
        <ele>52.8</ele>
        <time>2022-06-12T07:06:33Z</time>
      </trkpt>
      <trkpt lat="44.36851" lon="4.66314">
        <ele>52.8</ele>
        <time>2022-06-12T07:06:34Z</time>
      </trkpt>
      <trkpt lat="44.36851" lon="4.66316">
        <ele>52.8</ele>
        <time>2022-06-12T07:06:35Z</time>
      </trkpt>
      <trkpt lat="44.36852" lon="4.66316">
        <ele>52.8</ele>
        <time>2022-06-12T07:06:36Z</time>
      </trkpt>
      <trkpt lat="44.36852" lon="4.66317">
        <ele>52.8</ele>
        <time>2022-06-12T07:06:37Z</time>
      </trkpt>
      <trkpt lat="44.36852" lon="4.66318">
        <ele>52.8</ele>
        <time>2022-06-12T07:06:38Z</time>
      </trkpt>
      <trkpt lat="44.36852" lon="4.66318">
        <ele>52.8</ele>
        <time>2022-06-12T07:06:39Z</time>
      </trkpt>
      <trkpt lat="44.36852" lon="4.66319">
        <ele>52.8</ele>
        <time>2022-06-12T07:06:40Z</time>
      </trkpt>
      <trkpt lat="44.36853" lon="4.66319">
        <ele>52.8</ele>
        <time>2022-06-12T07:06:41Z</time>
      </trkpt>
      <trkpt lat="44.36853" lon="4.6632">
        <ele>52.8</ele>
        <time>2022-06-12T07:06:42Z</time>
      </trkpt>
      <trkpt lat="44.36853" lon="4.6632">
        <ele>52.8</ele>
        <time>2022-06-12T07:06:43Z</time>
      </trkpt>
      <trkpt lat="44.36853" lon="4.66321">
        <ele>52.8</ele>
        <time>2022-06-12T07:06:44Z</time>
      </trkpt>
      <trkpt lat="44.36854" lon="4.66321">
        <ele>52.8</ele>
        <time>2022-06-12T07:06:45Z</time>
      </trkpt>
      <trkpt lat="44.36854" lon="4.66322">
        <ele>52.8</ele>
        <time>2022-06-12T07:07:08Z</time>
      </trkpt>
      <trkpt lat="44.36854" lon="4.66323">
        <ele>52.8</ele>
        <time>2022-06-12T07:07:09Z</time>
      </trkpt>
      <trkpt lat="44.36854" lon="4.66323">
        <ele>52.8</ele>
        <time>2022-06-12T07:07:10Z</time>
      </trkpt>
      <trkpt lat="44.36854" lon="4.66324">
        <ele>52.8</ele>
        <time>2022-06-12T07:07:11Z</time>
      </trkpt>
      <trkpt lat="44.36855" lon="4.66327">
        <ele>52.8</ele>
        <time>2022-06-12T07:07:12Z</time>
      </trkpt>
      <trkpt lat="44.36856" lon="4.66332">
        <ele>52.7</ele>
        <time>2022-06-12T07:07:13Z</time>
      </trkpt>
      <trkpt lat="44.36858" lon="4.66337">
        <ele>52.7</ele>
        <time>2022-06-12T07:07:14Z</time>
      </trkpt>
      <trkpt lat="44.36859" lon="4.66342">
        <ele>52.7</ele>
        <time>2022-06-12T07:07:15Z</time>
      </trkpt>
      <trkpt lat="44.36861" lon="4.66347">
        <ele>52.7</ele>
        <time>2022-06-12T07:07:16Z</time>
      </trkpt>
      <trkpt lat="44.36865" lon="4.66357">
        <ele>52.7</ele>
        <time>2022-06-12T07:07:18Z</time>
      </trkpt>
      <trkpt lat="44.36867" lon="4.66362">
        <ele>52.7</ele>
        <time>2022-06-12T07:07:19Z</time>
      </trkpt>
      <trkpt lat="44.36869" lon="4.66368">
        <ele>52.7</ele>
        <time>2022-06-12T07:07:20Z</time>
      </trkpt>
      <trkpt lat="44.36871" lon="4.66374">
        <ele>52.7</ele>
        <time>2022-06-12T07:07:21Z</time>
      </trkpt>
      <trkpt lat="44.36872" lon="4.66379">
        <ele>52.7</ele>
        <time>2022-06-12T07:07:22Z</time>
      </trkpt>
      <trkpt lat="44.36874" lon="4.66385">
        <ele>52.7</ele>
        <time>2022-06-12T07:07:23Z</time>
      </trkpt>
      <trkpt lat="44.36876" lon="4.66391">
        <ele>52.7</ele>
        <time>2022-06-12T07:07:24Z</time>
      </trkpt>
      <trkpt lat="44.36879" lon="4.66397">
        <ele>52.8</ele>
        <time>2022-06-12T07:07:25Z</time>
      </trkpt>
      <trkpt lat="44.36881" lon="4.66403">
        <ele>52.8</ele>
        <time>2022-06-12T07:07:26Z</time>
      </trkpt>
      <trkpt lat="44.36882" lon="4.66409">
        <ele>52.7</ele>
        <time>2022-06-12T07:07:27Z</time>
      </trkpt>
      <trkpt lat="44.36884" lon="4.66415">
        <ele>52.7</ele>
        <time>2022-06-12T07:07:28Z</time>
      </trkpt>
      <trkpt lat="44.36887" lon="4.66427">
        <ele>52.7</ele>
        <time>2022-06-12T07:07:30Z</time>
      </trkpt>
      <trkpt lat="44.36889" lon="4.66433">
        <ele>52.8</ele>
        <time>2022-06-12T07:07:31Z</time>
      </trkpt>
      <trkpt lat="44.36891" lon="4.66439">
        <ele>52.8</ele>
        <time>2022-06-12T07:07:32Z</time>
      </trkpt>
      <trkpt lat="44.36892" lon="4.66445">
        <ele>52.8</ele>
        <time>2022-06-12T07:07:33Z</time>
      </trkpt>
      <trkpt lat="44.36894" lon="4.66451">
        <ele>52.8</ele>
        <time>2022-06-12T07:07:34Z</time>
      </trkpt>
      <trkpt lat="44.36896" lon="4.66456">
        <ele>52.8</ele>
        <time>2022-06-12T07:07:35Z</time>
      </trkpt>
      <trkpt lat="44.36898" lon="4.66462">
        <ele>52.9</ele>
        <time>2022-06-12T07:07:36Z</time>
      </trkpt>
      <trkpt lat="44.369" lon="4.66468">
        <ele>52.9</ele>
        <time>2022-06-12T07:07:37Z</time>
      </trkpt>
      <trkpt lat="44.36902" lon="4.66474">
        <ele>52.9</ele>
        <time>2022-06-12T07:07:38Z</time>
      </trkpt>
      <trkpt lat="44.36903" lon="4.66479">
        <ele>52.9</ele>
        <time>2022-06-12T07:07:39Z</time>
      </trkpt>
      <trkpt lat="44.36905" lon="4.66484">
        <ele>53</ele>
        <time>2022-06-12T07:07:40Z</time>
      </trkpt>
      <trkpt lat="44.36907" lon="4.66491">
        <ele>53</ele>
        <time>2022-06-12T07:07:41Z</time>
      </trkpt>
      <trkpt lat="44.36908" lon="4.66496">
        <ele>53</ele>
        <time>2022-06-12T07:07:42Z</time>
      </trkpt>
      <trkpt lat="44.3691" lon="4.66502">
        <ele>53</ele>
        <time>2022-06-12T07:07:43Z</time>
      </trkpt>
      <trkpt lat="44.36912" lon="4.66507">
        <ele>53</ele>
        <time>2022-06-12T07:07:44Z</time>
      </trkpt>
      <trkpt lat="44.36914" lon="4.66511">
        <ele>53</ele>
        <time>2022-06-12T07:07:45Z</time>
      </trkpt>
      <trkpt lat="44.36918" lon="4.66514">
        <ele>53.1</ele>
        <time>2022-06-12T07:07:46Z</time>
      </trkpt>
      <trkpt lat="44.36919" lon="4.66521">
        <ele>53.1</ele>
        <time>2022-06-12T07:07:47Z</time>
      </trkpt>
      <trkpt lat="44.3692" lon="4.66531">
        <ele>53.1</ele>
        <time>2022-06-12T07:07:49Z</time>
      </trkpt>
      <trkpt lat="44.36922" lon="4.66538">
        <ele>53.1</ele>
        <time>2022-06-12T07:07:50Z</time>
      </trkpt>
      <trkpt lat="44.36923" lon="4.66547">
        <ele>53.1</ele>
        <time>2022-06-12T07:07:51Z</time>
      </trkpt>
      <trkpt lat="44.36926" lon="4.66554">
        <ele>53.1</ele>
        <time>2022-06-12T07:07:52Z</time>
      </trkpt>
      <trkpt lat="44.36928" lon="4.66564">
        <ele>53.1</ele>
        <time>2022-06-12T07:07:54Z</time>
      </trkpt>
      <trkpt lat="44.3693" lon="4.6657">
        <ele>53.1</ele>
        <time>2022-06-12T07:07:55Z</time>
      </trkpt>
      <trkpt lat="44.36933" lon="4.66577">
        <ele>53.1</ele>
        <time>2022-06-12T07:07:56Z</time>
      </trkpt>
      <trkpt lat="44.36935" lon="4.66583">
        <ele>53.1</ele>
        <time>2022-06-12T07:07:57Z</time>
      </trkpt>
      <trkpt lat="44.36937" lon="4.66589">
        <ele>53.1</ele>
        <time>2022-06-12T07:07:58Z</time>
      </trkpt>
      <trkpt lat="44.36938" lon="4.66593">
        <ele>53.1</ele>
        <time>2022-06-12T07:07:59Z</time>
      </trkpt>
      <trkpt lat="44.36941" lon="4.66597">
        <ele>53.1</ele>
        <time>2022-06-12T07:08:00Z</time>
      </trkpt>
      <trkpt lat="44.36941" lon="4.66601">
        <ele>53.2</ele>
        <time>2022-06-12T07:08:01Z</time>
      </trkpt>
      <trkpt lat="44.36943" lon="4.66608">
        <ele>53.2</ele>
        <time>2022-06-12T07:08:02Z</time>
      </trkpt>
      <trkpt lat="44.36944" lon="4.66614">
        <ele>53.2</ele>
        <time>2022-06-12T07:08:03Z</time>
      </trkpt>
      <trkpt lat="44.36946" lon="4.6662">
        <ele>53.2</ele>
        <time>2022-06-12T07:08:04Z</time>
      </trkpt>
      <trkpt lat="44.36948" lon="4.66628">
        <ele>53.2</ele>
        <time>2022-06-12T07:08:05Z</time>
      </trkpt>
      <trkpt lat="44.3695" lon="4.66635">
        <ele>53.3</ele>
        <time>2022-06-12T07:08:06Z</time>
      </trkpt>
      <trkpt lat="44.36952" lon="4.66641">
        <ele>53.3</ele>
        <time>2022-06-12T07:08:07Z</time>
      </trkpt>
      <trkpt lat="44.36954" lon="4.66647">
        <ele>53.3</ele>
        <time>2022-06-12T07:08:08Z</time>
      </trkpt>
      <trkpt lat="44.36956" lon="4.66653">
        <ele>53.4</ele>
        <time>2022-06-12T07:08:09Z</time>
      </trkpt>
      <trkpt lat="44.36958" lon="4.66659">
        <ele>53.4</ele>
        <time>2022-06-12T07:08:10Z</time>
      </trkpt>
      <trkpt lat="44.3696" lon="4.66665">
        <ele>53.4</ele>
        <time>2022-06-12T07:08:11Z</time>
      </trkpt>
      <trkpt lat="44.36961" lon="4.66671">
        <ele>53.4</ele>
        <time>2022-06-12T07:08:12Z</time>
      </trkpt>
      <trkpt lat="44.36963" lon="4.66677">
        <ele>53.5</ele>
        <time>2022-06-12T07:08:13Z</time>
      </trkpt>
      <trkpt lat="44.36965" lon="4.66683">
        <ele>53.5</ele>
        <time>2022-06-12T07:08:14Z</time>
      </trkpt>
      <trkpt lat="44.36967" lon="4.66689">
        <ele>53.5</ele>
        <time>2022-06-12T07:08:15Z</time>
      </trkpt>
      <trkpt lat="44.36969" lon="4.66695">
        <ele>53.5</ele>
        <time>2022-06-12T07:08:16Z</time>
      </trkpt>
      <trkpt lat="44.36971" lon="4.66701">
        <ele>53.5</ele>
        <time>2022-06-12T07:08:17Z</time>
      </trkpt>
      <trkpt lat="44.36973" lon="4.66707">
        <ele>53.6</ele>
        <time>2022-06-12T07:08:18Z</time>
      </trkpt>
      <trkpt lat="44.36975" lon="4.66713">
        <ele>53.6</ele>
        <time>2022-06-12T07:08:19Z</time>
      </trkpt>
      <trkpt lat="44.36977" lon="4.66719">
        <ele>53.6</ele>
        <time>2022-06-12T07:08:20Z</time>
      </trkpt>
      <trkpt lat="44.36978" lon="4.66725">
        <ele>53.6</ele>
        <time>2022-06-12T07:08:21Z</time>
      </trkpt>
      <trkpt lat="44.3698" lon="4.6673">
        <ele>53.6</ele>
        <time>2022-06-12T07:08:22Z</time>
      </trkpt>
      <trkpt lat="44.36982" lon="4.66736">
        <ele>53.7</ele>
        <time>2022-06-12T07:08:23Z</time>
      </trkpt>
      <trkpt lat="44.36984" lon="4.66742">
        <ele>53.7</ele>
        <time>2022-06-12T07:08:24Z</time>
      </trkpt>
      <trkpt lat="44.36986" lon="4.66748">
        <ele>53.7</ele>
        <time>2022-06-12T07:08:25Z</time>
      </trkpt>
      <trkpt lat="44.36987" lon="4.66754">
        <ele>53.7</ele>
        <time>2022-06-12T07:08:26Z</time>
      </trkpt>
      <trkpt lat="44.36989" lon="4.6676">
        <ele>53.7</ele>
        <time>2022-06-12T07:08:27Z</time>
      </trkpt>
      <trkpt lat="44.36991" lon="4.66765">
        <ele>53.7</ele>
        <time>2022-06-12T07:08:28Z</time>
      </trkpt>
      <trkpt lat="44.36993" lon="4.66771">
        <ele>53.7</ele>
        <time>2022-06-12T07:08:29Z</time>
      </trkpt>
      <trkpt lat="44.36995" lon="4.66777">
        <ele>53.7</ele>
        <time>2022-06-12T07:08:30Z</time>
      </trkpt>
      <trkpt lat="44.36996" lon="4.66783">
        <ele>53.7</ele>
        <time>2022-06-12T07:08:31Z</time>
      </trkpt>
      <trkpt lat="44.36998" lon="4.66789">
        <ele>53.7</ele>
        <time>2022-06-12T07:08:32Z</time>
      </trkpt>
      <trkpt lat="44.37" lon="4.66795">
        <ele>53.8</ele>
        <time>2022-06-12T07:08:33Z</time>
      </trkpt>
      <trkpt lat="44.37002" lon="4.66801">
        <ele>53.8</ele>
        <time>2022-06-12T07:08:34Z</time>
      </trkpt>
      <trkpt lat="44.37003" lon="4.66807">
        <ele>53.8</ele>
        <time>2022-06-12T07:08:35Z</time>
      </trkpt>
      <trkpt lat="44.37005" lon="4.66811">
        <ele>53.8</ele>
        <time>2022-06-12T07:08:36Z</time>
      </trkpt>
      <trkpt lat="44.37007" lon="4.66817">
        <ele>53.8</ele>
        <time>2022-06-12T07:08:37Z</time>
      </trkpt>
      <trkpt lat="44.37009" lon="4.66822">
        <ele>53.8</ele>
        <time>2022-06-12T07:08:38Z</time>
      </trkpt>
      <trkpt lat="44.37011" lon="4.66829">
        <ele>53.8</ele>
        <time>2022-06-12T07:08:39Z</time>
      </trkpt>
      <trkpt lat="44.37012" lon="4.66835">
        <ele>53.8</ele>
        <time>2022-06-12T07:08:40Z</time>
      </trkpt>
      <trkpt lat="44.37014" lon="4.6684">
        <ele>53.8</ele>
        <time>2022-06-12T07:08:41Z</time>
      </trkpt>
      <trkpt lat="44.37016" lon="4.66846">
        <ele>53.8</ele>
        <time>2022-06-12T07:08:42Z</time>
      </trkpt>
      <trkpt lat="44.37017" lon="4.66852">
        <ele>53.8</ele>
        <time>2022-06-12T07:08:43Z</time>
      </trkpt>
      <trkpt lat="44.37019" lon="4.66858">
        <ele>53.8</ele>
        <time>2022-06-12T07:08:44Z</time>
      </trkpt>
      <trkpt lat="44.37021" lon="4.66863">
        <ele>53.8</ele>
        <time>2022-06-12T07:08:45Z</time>
      </trkpt>
      <trkpt lat="44.37022" lon="4.66868">
        <ele>53.9</ele>
        <time>2022-06-12T07:08:46Z</time>
      </trkpt>
      <trkpt lat="44.37024" lon="4.66874">
        <ele>53.9</ele>
        <time>2022-06-12T07:08:47Z</time>
      </trkpt>
      <trkpt lat="44.37026" lon="4.66879">
        <ele>53.9</ele>
        <time>2022-06-12T07:08:48Z</time>
      </trkpt>
      <trkpt lat="44.37027" lon="4.66884">
        <ele>53.9</ele>
        <time>2022-06-12T07:08:49Z</time>
      </trkpt>
      <trkpt lat="44.37029" lon="4.66888">
        <ele>53.9</ele>
        <time>2022-06-12T07:08:50Z</time>
      </trkpt>
      <trkpt lat="44.3703" lon="4.66894">
        <ele>53.9</ele>
        <time>2022-06-12T07:08:51Z</time>
      </trkpt>
      <trkpt lat="44.37032" lon="4.66899">
        <ele>53.8</ele>
        <time>2022-06-12T07:08:52Z</time>
      </trkpt>
      <trkpt lat="44.37033" lon="4.66904">
        <ele>53.8</ele>
        <time>2022-06-12T07:08:53Z</time>
      </trkpt>
      <trkpt lat="44.37035" lon="4.6691">
        <ele>53.8</ele>
        <time>2022-06-12T07:08:54Z</time>
      </trkpt>
      <trkpt lat="44.37037" lon="4.66915">
        <ele>53.8</ele>
        <time>2022-06-12T07:08:55Z</time>
      </trkpt>
      <trkpt lat="44.37038" lon="4.66921">
        <ele>53.8</ele>
        <time>2022-06-12T07:08:56Z</time>
      </trkpt>
      <trkpt lat="44.37041" lon="4.66926">
        <ele>53.8</ele>
        <time>2022-06-12T07:08:57Z</time>
      </trkpt>
      <trkpt lat="44.37043" lon="4.66932">
        <ele>53.8</ele>
        <time>2022-06-12T07:08:58Z</time>
      </trkpt>
      <trkpt lat="44.37044" lon="4.66937">
        <ele>53.7</ele>
        <time>2022-06-12T07:08:59Z</time>
      </trkpt>
      <trkpt lat="44.37046" lon="4.66943">
        <ele>53.7</ele>
        <time>2022-06-12T07:09:00Z</time>
      </trkpt>
      <trkpt lat="44.37049" lon="4.66954">
        <ele>53.7</ele>
        <time>2022-06-12T07:09:02Z</time>
      </trkpt>
      <trkpt lat="44.37051" lon="4.66961">
        <ele>53.7</ele>
        <time>2022-06-12T07:09:03Z</time>
      </trkpt>
      <trkpt lat="44.37052" lon="4.66966">
        <ele>53.7</ele>
        <time>2022-06-12T07:09:04Z</time>
      </trkpt>
      <trkpt lat="44.37054" lon="4.66971">
        <ele>53.7</ele>
        <time>2022-06-12T07:09:05Z</time>
      </trkpt>
      <trkpt lat="44.37056" lon="4.66977">
        <ele>53.7</ele>
        <time>2022-06-12T07:09:06Z</time>
      </trkpt>
      <trkpt lat="44.37058" lon="4.66983">
        <ele>53.7</ele>
        <time>2022-06-12T07:09:07Z</time>
      </trkpt>
      <trkpt lat="44.37059" lon="4.66989">
        <ele>53.6</ele>
        <time>2022-06-12T07:09:08Z</time>
      </trkpt>
      <trkpt lat="44.37061" lon="4.66994">
        <ele>53.6</ele>
        <time>2022-06-12T07:09:09Z</time>
      </trkpt>
      <trkpt lat="44.37063" lon="4.67">
        <ele>53.6</ele>
        <time>2022-06-12T07:09:10Z</time>
      </trkpt>
      <trkpt lat="44.37065" lon="4.67006">
        <ele>53.6</ele>
        <time>2022-06-12T07:09:11Z</time>
      </trkpt>
      <trkpt lat="44.37067" lon="4.67012">
        <ele>53.6</ele>
        <time>2022-06-12T07:09:12Z</time>
      </trkpt>
      <trkpt lat="44.37068" lon="4.67017">
        <ele>53.6</ele>
        <time>2022-06-12T07:09:13Z</time>
      </trkpt>
      <trkpt lat="44.3707" lon="4.67023">
        <ele>53.6</ele>
        <time>2022-06-12T07:09:14Z</time>
      </trkpt>
      <trkpt lat="44.37071" lon="4.67028">
        <ele>53.6</ele>
        <time>2022-06-12T07:09:15Z</time>
      </trkpt>
      <trkpt lat="44.37073" lon="4.67033">
        <ele>53.6</ele>
        <time>2022-06-12T07:09:16Z</time>
      </trkpt>
      <trkpt lat="44.37075" lon="4.6704">
        <ele>53.5</ele>
        <time>2022-06-12T07:09:17Z</time>
      </trkpt>
      <trkpt lat="44.37077" lon="4.67045">
        <ele>53.5</ele>
        <time>2022-06-12T07:09:18Z</time>
      </trkpt>
      <trkpt lat="44.37078" lon="4.67051">
        <ele>53.5</ele>
        <time>2022-06-12T07:09:19Z</time>
      </trkpt>
      <trkpt lat="44.3708" lon="4.67056">
        <ele>53.5</ele>
        <time>2022-06-12T07:09:20Z</time>
      </trkpt>
      <trkpt lat="44.37082" lon="4.67062">
        <ele>53.5</ele>
        <time>2022-06-12T07:09:21Z</time>
      </trkpt>
      <trkpt lat="44.37084" lon="4.67067">
        <ele>53.5</ele>
        <time>2022-06-12T07:09:22Z</time>
      </trkpt>
      <trkpt lat="44.37085" lon="4.67073">
        <ele>53.5</ele>
        <time>2022-06-12T07:09:23Z</time>
      </trkpt>
      <trkpt lat="44.37087" lon="4.67078">
        <ele>53.5</ele>
        <time>2022-06-12T07:09:24Z</time>
      </trkpt>
      <trkpt lat="44.37089" lon="4.67084">
        <ele>53.5</ele>
        <time>2022-06-12T07:09:25Z</time>
      </trkpt>
      <trkpt lat="44.3709" lon="4.67089">
        <ele>53.5</ele>
        <time>2022-06-12T07:09:26Z</time>
      </trkpt>
      <trkpt lat="44.37092" lon="4.67094">
        <ele>53.5</ele>
        <time>2022-06-12T07:09:27Z</time>
      </trkpt>
      <trkpt lat="44.37094" lon="4.671">
        <ele>53.5</ele>
        <time>2022-06-12T07:09:28Z</time>
      </trkpt>
      <trkpt lat="44.37095" lon="4.67105">
        <ele>53.5</ele>
        <time>2022-06-12T07:09:29Z</time>
      </trkpt>
      <trkpt lat="44.37097" lon="4.67111">
        <ele>53.5</ele>
        <time>2022-06-12T07:09:30Z</time>
      </trkpt>
      <trkpt lat="44.37098" lon="4.67116">
        <ele>53.5</ele>
        <time>2022-06-12T07:09:31Z</time>
      </trkpt>
      <trkpt lat="44.371" lon="4.67121">
        <ele>53.5</ele>
        <time>2022-06-12T07:09:32Z</time>
      </trkpt>
      <trkpt lat="44.37102" lon="4.67126">
        <ele>53.5</ele>
        <time>2022-06-12T07:09:33Z</time>
      </trkpt>
      <trkpt lat="44.37103" lon="4.67131">
        <ele>53.5</ele>
        <time>2022-06-12T07:09:34Z</time>
      </trkpt>
      <trkpt lat="44.37105" lon="4.67137">
        <ele>53.5</ele>
        <time>2022-06-12T07:09:35Z</time>
      </trkpt>
      <trkpt lat="44.37107" lon="4.67142">
        <ele>53.5</ele>
        <time>2022-06-12T07:09:36Z</time>
      </trkpt>
      <trkpt lat="44.37108" lon="4.67148">
        <ele>53.5</ele>
        <time>2022-06-12T07:09:37Z</time>
      </trkpt>
      <trkpt lat="44.3711" lon="4.67154">
        <ele>53.5</ele>
        <time>2022-06-12T07:09:38Z</time>
      </trkpt>
      <trkpt lat="44.37111" lon="4.67159">
        <ele>53.5</ele>
        <time>2022-06-12T07:09:39Z</time>
      </trkpt>
      <trkpt lat="44.37113" lon="4.67164">
        <ele>53.5</ele>
        <time>2022-06-12T07:09:40Z</time>
      </trkpt>
      <trkpt lat="44.37115" lon="4.6717">
        <ele>53.5</ele>
        <time>2022-06-12T07:09:41Z</time>
      </trkpt>
      <trkpt lat="44.37117" lon="4.67175">
        <ele>53.5</ele>
        <time>2022-06-12T07:09:42Z</time>
      </trkpt>
      <trkpt lat="44.37119" lon="4.67181">
        <ele>53.5</ele>
        <time>2022-06-12T07:09:43Z</time>
      </trkpt>
      <trkpt lat="44.3712" lon="4.67186">
        <ele>53.5</ele>
        <time>2022-06-12T07:09:44Z</time>
      </trkpt>
      <trkpt lat="44.37121" lon="4.67192">
        <ele>53.6</ele>
        <time>2022-06-12T07:09:45Z</time>
      </trkpt>
      <trkpt lat="44.37123" lon="4.67197">
        <ele>53.6</ele>
        <time>2022-06-12T07:09:46Z</time>
      </trkpt>
      <trkpt lat="44.37124" lon="4.67201">
        <ele>53.6</ele>
        <time>2022-06-12T07:09:47Z</time>
      </trkpt>
      <trkpt lat="44.37126" lon="4.67206">
        <ele>53.6</ele>
        <time>2022-06-12T07:09:48Z</time>
      </trkpt>
      <trkpt lat="44.37127" lon="4.67211">
        <ele>53.6</ele>
        <time>2022-06-12T07:09:49Z</time>
      </trkpt>
      <trkpt lat="44.37129" lon="4.67216">
        <ele>53.7</ele>
        <time>2022-06-12T07:09:50Z</time>
      </trkpt>
      <trkpt lat="44.37131" lon="4.67221">
        <ele>53.7</ele>
        <time>2022-06-12T07:09:51Z</time>
      </trkpt>
      <trkpt lat="44.37132" lon="4.67227">
        <ele>53.7</ele>
        <time>2022-06-12T07:09:52Z</time>
      </trkpt>
      <trkpt lat="44.37134" lon="4.67233">
        <ele>53.7</ele>
        <time>2022-06-12T07:09:53Z</time>
      </trkpt>
      <trkpt lat="44.37136" lon="4.67239">
        <ele>53.7</ele>
        <time>2022-06-12T07:09:54Z</time>
      </trkpt>
      <trkpt lat="44.37137" lon="4.67244">
        <ele>53.7</ele>
        <time>2022-06-12T07:09:55Z</time>
      </trkpt>
      <trkpt lat="44.37139" lon="4.67249">
        <ele>53.7</ele>
        <time>2022-06-12T07:09:56Z</time>
      </trkpt>
      <trkpt lat="44.37141" lon="4.67255">
        <ele>53.7</ele>
        <time>2022-06-12T07:09:57Z</time>
      </trkpt>
      <trkpt lat="44.37142" lon="4.67261">
        <ele>53.7</ele>
        <time>2022-06-12T07:09:58Z</time>
      </trkpt>
      <trkpt lat="44.37144" lon="4.67266">
        <ele>53.7</ele>
        <time>2022-06-12T07:09:59Z</time>
      </trkpt>
      <trkpt lat="44.37146" lon="4.67272">
        <ele>53.7</ele>
        <time>2022-06-12T07:10:00Z</time>
      </trkpt>
      <trkpt lat="44.37147" lon="4.67277">
        <ele>53.7</ele>
        <time>2022-06-12T07:10:01Z</time>
      </trkpt>
      <trkpt lat="44.37149" lon="4.67283">
        <ele>53.8</ele>
        <time>2022-06-12T07:10:02Z</time>
      </trkpt>
      <trkpt lat="44.37151" lon="4.67288">
        <ele>53.8</ele>
        <time>2022-06-12T07:10:03Z</time>
      </trkpt>
      <trkpt lat="44.37153" lon="4.67294">
        <ele>53.8</ele>
        <time>2022-06-12T07:10:04Z</time>
      </trkpt>
      <trkpt lat="44.37154" lon="4.67299">
        <ele>53.8</ele>
        <time>2022-06-12T07:10:05Z</time>
      </trkpt>
      <trkpt lat="44.37156" lon="4.67305">
        <ele>53.8</ele>
        <time>2022-06-12T07:10:06Z</time>
      </trkpt>
      <trkpt lat="44.37158" lon="4.6731">
        <ele>53.8</ele>
        <time>2022-06-12T07:10:07Z</time>
      </trkpt>
      <trkpt lat="44.37159" lon="4.67316">
        <ele>53.8</ele>
        <time>2022-06-12T07:10:08Z</time>
      </trkpt>
      <trkpt lat="44.37161" lon="4.67322">
        <ele>53.8</ele>
        <time>2022-06-12T07:10:09Z</time>
      </trkpt>
      <trkpt lat="44.37162" lon="4.67327">
        <ele>53.8</ele>
        <time>2022-06-12T07:10:10Z</time>
      </trkpt>
      <trkpt lat="44.37164" lon="4.67333">
        <ele>53.8</ele>
        <time>2022-06-12T07:10:11Z</time>
      </trkpt>
      <trkpt lat="44.37166" lon="4.67338">
        <ele>53.8</ele>
        <time>2022-06-12T07:10:12Z</time>
      </trkpt>
      <trkpt lat="44.37167" lon="4.67344">
        <ele>53.8</ele>
        <time>2022-06-12T07:10:13Z</time>
      </trkpt>
      <trkpt lat="44.37169" lon="4.67349">
        <ele>53.8</ele>
        <time>2022-06-12T07:10:14Z</time>
      </trkpt>
      <trkpt lat="44.37171" lon="4.67355">
        <ele>53.8</ele>
        <time>2022-06-12T07:10:15Z</time>
      </trkpt>
      <trkpt lat="44.37172" lon="4.67361">
        <ele>53.8</ele>
        <time>2022-06-12T07:10:16Z</time>
      </trkpt>
      <trkpt lat="44.37174" lon="4.67366">
        <ele>53.8</ele>
        <time>2022-06-12T07:10:17Z</time>
      </trkpt>
      <trkpt lat="44.37175" lon="4.67372">
        <ele>53.8</ele>
        <time>2022-06-12T07:10:18Z</time>
      </trkpt>
      <trkpt lat="44.37177" lon="4.67377">
        <ele>53.8</ele>
        <time>2022-06-12T07:10:19Z</time>
      </trkpt>
      <trkpt lat="44.37179" lon="4.67382">
        <ele>53.8</ele>
        <time>2022-06-12T07:10:20Z</time>
      </trkpt>
      <trkpt lat="44.37181" lon="4.67387">
        <ele>53.8</ele>
        <time>2022-06-12T07:10:21Z</time>
      </trkpt>
      <trkpt lat="44.37182" lon="4.67393">
        <ele>53.8</ele>
        <time>2022-06-12T07:10:22Z</time>
      </trkpt>
      <trkpt lat="44.37184" lon="4.67398">
        <ele>53.8</ele>
        <time>2022-06-12T07:10:23Z</time>
      </trkpt>
      <trkpt lat="44.37185" lon="4.67403">
        <ele>53.8</ele>
        <time>2022-06-12T07:10:24Z</time>
      </trkpt>
      <trkpt lat="44.37187" lon="4.67408">
        <ele>53.8</ele>
        <time>2022-06-12T07:10:25Z</time>
      </trkpt>
      <trkpt lat="44.37189" lon="4.67414">
        <ele>53.8</ele>
        <time>2022-06-12T07:10:26Z</time>
      </trkpt>
      <trkpt lat="44.37191" lon="4.67419">
        <ele>53.8</ele>
        <time>2022-06-12T07:10:27Z</time>
      </trkpt>
      <trkpt lat="44.37193" lon="4.67425">
        <ele>53.8</ele>
        <time>2022-06-12T07:10:28Z</time>
      </trkpt>
      <trkpt lat="44.37195" lon="4.67431">
        <ele>53.8</ele>
        <time>2022-06-12T07:10:29Z</time>
      </trkpt>
      <trkpt lat="44.37196" lon="4.67437">
        <ele>53.8</ele>
        <time>2022-06-12T07:10:30Z</time>
      </trkpt>
      <trkpt lat="44.37198" lon="4.67443">
        <ele>53.8</ele>
        <time>2022-06-12T07:10:31Z</time>
      </trkpt>
      <trkpt lat="44.372" lon="4.67449">
        <ele>53.8</ele>
        <time>2022-06-12T07:10:32Z</time>
      </trkpt>
      <trkpt lat="44.37201" lon="4.67455">
        <ele>53.8</ele>
        <time>2022-06-12T07:10:33Z</time>
      </trkpt>
      <trkpt lat="44.37203" lon="4.67461">
        <ele>53.7</ele>
        <time>2022-06-12T07:10:34Z</time>
      </trkpt>
      <trkpt lat="44.37205" lon="4.67467">
        <ele>53.7</ele>
        <time>2022-06-12T07:10:35Z</time>
      </trkpt>
      <trkpt lat="44.37207" lon="4.67473">
        <ele>53.7</ele>
        <time>2022-06-12T07:10:36Z</time>
      </trkpt>
      <trkpt lat="44.37208" lon="4.67479">
        <ele>53.7</ele>
        <time>2022-06-12T07:10:37Z</time>
      </trkpt>
      <trkpt lat="44.3721" lon="4.67485">
        <ele>53.8</ele>
        <time>2022-06-12T07:10:38Z</time>
      </trkpt>
      <trkpt lat="44.37212" lon="4.67492">
        <ele>53.8</ele>
        <time>2022-06-12T07:10:39Z</time>
      </trkpt>
      <trkpt lat="44.37214" lon="4.67498">
        <ele>53.8</ele>
        <time>2022-06-12T07:10:40Z</time>
      </trkpt>
      <trkpt lat="44.37216" lon="4.67504">
        <ele>53.8</ele>
        <time>2022-06-12T07:10:41Z</time>
      </trkpt>
      <trkpt lat="44.37218" lon="4.6751">
        <ele>53.8</ele>
        <time>2022-06-12T07:10:42Z</time>
      </trkpt>
      <trkpt lat="44.3722" lon="4.67516">
        <ele>53.8</ele>
        <time>2022-06-12T07:10:43Z</time>
      </trkpt>
      <trkpt lat="44.37222" lon="4.67522">
        <ele>53.8</ele>
        <time>2022-06-12T07:10:44Z</time>
      </trkpt>
      <trkpt lat="44.37223" lon="4.67527">
        <ele>53.8</ele>
        <time>2022-06-12T07:10:45Z</time>
      </trkpt>
      <trkpt lat="44.37225" lon="4.67533">
        <ele>53.8</ele>
        <time>2022-06-12T07:10:46Z</time>
      </trkpt>
      <trkpt lat="44.37227" lon="4.67539">
        <ele>53.8</ele>
        <time>2022-06-12T07:10:47Z</time>
      </trkpt>
      <trkpt lat="44.37229" lon="4.67545">
        <ele>53.8</ele>
        <time>2022-06-12T07:10:48Z</time>
      </trkpt>
      <trkpt lat="44.37231" lon="4.67551">
        <ele>53.8</ele>
        <time>2022-06-12T07:10:49Z</time>
      </trkpt>
      <trkpt lat="44.37232" lon="4.67557">
        <ele>53.9</ele>
        <time>2022-06-12T07:10:50Z</time>
      </trkpt>
      <trkpt lat="44.37234" lon="4.67563">
        <ele>53.9</ele>
        <time>2022-06-12T07:10:51Z</time>
      </trkpt>
      <trkpt lat="44.37236" lon="4.67569">
        <ele>53.9</ele>
        <time>2022-06-12T07:10:52Z</time>
      </trkpt>
      <trkpt lat="44.37238" lon="4.67575">
        <ele>53.9</ele>
        <time>2022-06-12T07:10:53Z</time>
      </trkpt>
      <trkpt lat="44.3724" lon="4.6758">
        <ele>53.9</ele>
        <time>2022-06-12T07:10:54Z</time>
      </trkpt>
      <trkpt lat="44.37242" lon="4.67586">
        <ele>53.9</ele>
        <time>2022-06-12T07:10:55Z</time>
      </trkpt>
      <trkpt lat="44.37243" lon="4.67592">
        <ele>53.9</ele>
        <time>2022-06-12T07:10:56Z</time>
      </trkpt>
      <trkpt lat="44.37245" lon="4.67597">
        <ele>53.9</ele>
        <time>2022-06-12T07:10:57Z</time>
      </trkpt>
      <trkpt lat="44.37247" lon="4.67603">
        <ele>53.9</ele>
        <time>2022-06-12T07:10:58Z</time>
      </trkpt>
      <trkpt lat="44.37248" lon="4.67609">
        <ele>53.9</ele>
        <time>2022-06-12T07:10:59Z</time>
      </trkpt>
      <trkpt lat="44.3725" lon="4.67615">
        <ele>53.9</ele>
        <time>2022-06-12T07:11:00Z</time>
      </trkpt>
      <trkpt lat="44.37252" lon="4.6762">
        <ele>53.9</ele>
        <time>2022-06-12T07:11:01Z</time>
      </trkpt>
      <trkpt lat="44.37253" lon="4.67626">
        <ele>53.9</ele>
        <time>2022-06-12T07:11:02Z</time>
      </trkpt>
      <trkpt lat="44.37255" lon="4.67631">
        <ele>53.9</ele>
        <time>2022-06-12T07:11:03Z</time>
      </trkpt>
      <trkpt lat="44.37257" lon="4.67636">
        <ele>53.9</ele>
        <time>2022-06-12T07:11:04Z</time>
      </trkpt>
      <trkpt lat="44.37259" lon="4.67642">
        <ele>53.9</ele>
        <time>2022-06-12T07:11:05Z</time>
      </trkpt>
      <trkpt lat="44.3726" lon="4.67647">
        <ele>53.9</ele>
        <time>2022-06-12T07:11:06Z</time>
      </trkpt>
      <trkpt lat="44.37262" lon="4.67653">
        <ele>53.9</ele>
        <time>2022-06-12T07:11:07Z</time>
      </trkpt>
      <trkpt lat="44.37264" lon="4.67659">
        <ele>53.9</ele>
        <time>2022-06-12T07:11:08Z</time>
      </trkpt>
      <trkpt lat="44.37265" lon="4.67665">
        <ele>53.9</ele>
        <time>2022-06-12T07:11:09Z</time>
      </trkpt>
      <trkpt lat="44.37267" lon="4.67671">
        <ele>53.9</ele>
        <time>2022-06-12T07:11:10Z</time>
      </trkpt>
      <trkpt lat="44.37268" lon="4.67676">
        <ele>53.9</ele>
        <time>2022-06-12T07:11:11Z</time>
      </trkpt>
      <trkpt lat="44.3727" lon="4.67682">
        <ele>53.9</ele>
        <time>2022-06-12T07:11:12Z</time>
      </trkpt>
      <trkpt lat="44.37272" lon="4.67688">
        <ele>53.9</ele>
        <time>2022-06-12T07:11:13Z</time>
      </trkpt>
      <trkpt lat="44.37274" lon="4.67694">
        <ele>53.9</ele>
        <time>2022-06-12T07:11:14Z</time>
      </trkpt>
      <trkpt lat="44.37276" lon="4.67699">
        <ele>53.9</ele>
        <time>2022-06-12T07:11:15Z</time>
      </trkpt>
      <trkpt lat="44.37278" lon="4.67705">
        <ele>53.9</ele>
        <time>2022-06-12T07:11:16Z</time>
      </trkpt>
      <trkpt lat="44.3728" lon="4.67711">
        <ele>53.9</ele>
        <time>2022-06-12T07:11:17Z</time>
      </trkpt>
      <trkpt lat="44.37281" lon="4.67718">
        <ele>53.9</ele>
        <time>2022-06-12T07:11:18Z</time>
      </trkpt>
      <trkpt lat="44.37283" lon="4.67724">
        <ele>53.9</ele>
        <time>2022-06-12T07:11:19Z</time>
      </trkpt>
      <trkpt lat="44.37285" lon="4.6773">
        <ele>53.9</ele>
        <time>2022-06-12T07:11:20Z</time>
      </trkpt>
      <trkpt lat="44.37287" lon="4.67736">
        <ele>53.9</ele>
        <time>2022-06-12T07:11:21Z</time>
      </trkpt>
      <trkpt lat="44.37288" lon="4.67742">
        <ele>53.9</ele>
        <time>2022-06-12T07:11:22Z</time>
      </trkpt>
      <trkpt lat="44.3729" lon="4.67748">
        <ele>53.9</ele>
        <time>2022-06-12T07:11:23Z</time>
      </trkpt>
      <trkpt lat="44.37292" lon="4.67754">
        <ele>53.9</ele>
        <time>2022-06-12T07:11:24Z</time>
      </trkpt>
      <trkpt lat="44.37294" lon="4.67759">
        <ele>53.9</ele>
        <time>2022-06-12T07:11:25Z</time>
      </trkpt>
      <trkpt lat="44.37296" lon="4.67766">
        <ele>53.9</ele>
        <time>2022-06-12T07:11:26Z</time>
      </trkpt>
      <trkpt lat="44.37298" lon="4.67771">
        <ele>53.9</ele>
        <time>2022-06-12T07:11:27Z</time>
      </trkpt>
      <trkpt lat="44.373" lon="4.67778">
        <ele>53.9</ele>
        <time>2022-06-12T07:11:28Z</time>
      </trkpt>
      <trkpt lat="44.37302" lon="4.67784">
        <ele>53.9</ele>
        <time>2022-06-12T07:11:29Z</time>
      </trkpt>
      <trkpt lat="44.37303" lon="4.6779">
        <ele>53.9</ele>
        <time>2022-06-12T07:11:30Z</time>
      </trkpt>
      <trkpt lat="44.37305" lon="4.67796">
        <ele>53.9</ele>
        <time>2022-06-12T07:11:31Z</time>
      </trkpt>
      <trkpt lat="44.37307" lon="4.67801">
        <ele>53.9</ele>
        <time>2022-06-12T07:11:32Z</time>
      </trkpt>
      <trkpt lat="44.37309" lon="4.67808">
        <ele>53.9</ele>
        <time>2022-06-12T07:11:33Z</time>
      </trkpt>
      <trkpt lat="44.37311" lon="4.67814">
        <ele>53.9</ele>
        <time>2022-06-12T07:11:34Z</time>
      </trkpt>
      <trkpt lat="44.37312" lon="4.6782">
        <ele>53.9</ele>
        <time>2022-06-12T07:11:35Z</time>
      </trkpt>
      <trkpt lat="44.37314" lon="4.67825">
        <ele>53.9</ele>
        <time>2022-06-12T07:11:36Z</time>
      </trkpt>
      <trkpt lat="44.37316" lon="4.67831">
        <ele>53.9</ele>
        <time>2022-06-12T07:11:37Z</time>
      </trkpt>
      <trkpt lat="44.37318" lon="4.67837">
        <ele>53.9</ele>
        <time>2022-06-12T07:11:38Z</time>
      </trkpt>
      <trkpt lat="44.3732" lon="4.67843">
        <ele>53.9</ele>
        <time>2022-06-12T07:11:39Z</time>
      </trkpt>
      <trkpt lat="44.37321" lon="4.67849">
        <ele>53.9</ele>
        <time>2022-06-12T07:11:40Z</time>
      </trkpt>
      <trkpt lat="44.37323" lon="4.67855">
        <ele>53.9</ele>
        <time>2022-06-12T07:11:41Z</time>
      </trkpt>
      <trkpt lat="44.37325" lon="4.67861">
        <ele>53.9</ele>
        <time>2022-06-12T07:11:42Z</time>
      </trkpt>
      <trkpt lat="44.37327" lon="4.67867">
        <ele>53.9</ele>
        <time>2022-06-12T07:11:43Z</time>
      </trkpt>
      <trkpt lat="44.37329" lon="4.67873">
        <ele>53.9</ele>
        <time>2022-06-12T07:11:44Z</time>
      </trkpt>
      <trkpt lat="44.37331" lon="4.67879">
        <ele>54</ele>
        <time>2022-06-12T07:11:45Z</time>
      </trkpt>
      <trkpt lat="44.37332" lon="4.67885">
        <ele>54</ele>
        <time>2022-06-12T07:11:46Z</time>
      </trkpt>
      <trkpt lat="44.37334" lon="4.6789">
        <ele>54</ele>
        <time>2022-06-12T07:11:47Z</time>
      </trkpt>
      <trkpt lat="44.37336" lon="4.67896">
        <ele>54</ele>
        <time>2022-06-12T07:11:48Z</time>
      </trkpt>
      <trkpt lat="44.37338" lon="4.67902">
        <ele>54</ele>
        <time>2022-06-12T07:11:49Z</time>
      </trkpt>
      <trkpt lat="44.3734" lon="4.67908">
        <ele>54</ele>
        <time>2022-06-12T07:11:50Z</time>
      </trkpt>
      <trkpt lat="44.37341" lon="4.67912">
        <ele>54</ele>
        <time>2022-06-12T07:11:51Z</time>
      </trkpt>
      <trkpt lat="44.37343" lon="4.67918">
        <ele>54</ele>
        <time>2022-06-12T07:11:52Z</time>
      </trkpt>
      <trkpt lat="44.37345" lon="4.67922">
        <ele>54</ele>
        <time>2022-06-12T07:11:53Z</time>
      </trkpt>
      <trkpt lat="44.37347" lon="4.67929">
        <ele>54.1</ele>
        <time>2022-06-12T07:11:54Z</time>
      </trkpt>
      <trkpt lat="44.37348" lon="4.67933">
        <ele>54.1</ele>
        <time>2022-06-12T07:11:55Z</time>
      </trkpt>
      <trkpt lat="44.3735" lon="4.67938">
        <ele>54.1</ele>
        <time>2022-06-12T07:11:56Z</time>
      </trkpt>
      <trkpt lat="44.37352" lon="4.67943">
        <ele>54.1</ele>
        <time>2022-06-12T07:11:57Z</time>
      </trkpt>
      <trkpt lat="44.37352" lon="4.67949">
        <ele>54.1</ele>
        <time>2022-06-12T07:11:58Z</time>
      </trkpt>
      <trkpt lat="44.37354" lon="4.67955">
        <ele>54.1</ele>
        <time>2022-06-12T07:11:59Z</time>
      </trkpt>
      <trkpt lat="44.37358" lon="4.67966">
        <ele>54.1</ele>
        <time>2022-06-12T07:12:01Z</time>
      </trkpt>
      <trkpt lat="44.37361" lon="4.67975">
        <ele>54.1</ele>
        <time>2022-06-12T07:12:02Z</time>
      </trkpt>
      <trkpt lat="44.37363" lon="4.67981">
        <ele>54.1</ele>
        <time>2022-06-12T07:12:03Z</time>
      </trkpt>
      <trkpt lat="44.37365" lon="4.67987">
        <ele>54.1</ele>
        <time>2022-06-12T07:12:04Z</time>
      </trkpt>
      <trkpt lat="44.37366" lon="4.67993">
        <ele>54.2</ele>
        <time>2022-06-12T07:12:05Z</time>
      </trkpt>
      <trkpt lat="44.37368" lon="4.67997">
        <ele>54.2</ele>
        <time>2022-06-12T07:12:06Z</time>
      </trkpt>
      <trkpt lat="44.37369" lon="4.68002">
        <ele>54.2</ele>
        <time>2022-06-12T07:12:07Z</time>
      </trkpt>
      <trkpt lat="44.37371" lon="4.68008">
        <ele>54.2</ele>
        <time>2022-06-12T07:12:08Z</time>
      </trkpt>
      <trkpt lat="44.37373" lon="4.68016">
        <ele>54.2</ele>
        <time>2022-06-12T07:12:09Z</time>
      </trkpt>
      <trkpt lat="44.37375" lon="4.68022">
        <ele>54.2</ele>
        <time>2022-06-12T07:12:10Z</time>
      </trkpt>
      <trkpt lat="44.37376" lon="4.68028">
        <ele>54.2</ele>
        <time>2022-06-12T07:12:11Z</time>
      </trkpt>
      <trkpt lat="44.37378" lon="4.68034">
        <ele>54.2</ele>
        <time>2022-06-12T07:12:12Z</time>
      </trkpt>
      <trkpt lat="44.3738" lon="4.68039">
        <ele>54.2</ele>
        <time>2022-06-12T07:12:13Z</time>
      </trkpt>
      <trkpt lat="44.37382" lon="4.68045">
        <ele>54.2</ele>
        <time>2022-06-12T07:12:14Z</time>
      </trkpt>
      <trkpt lat="44.37383" lon="4.68051">
        <ele>54.2</ele>
        <time>2022-06-12T07:12:15Z</time>
      </trkpt>
      <trkpt lat="44.37385" lon="4.68057">
        <ele>54.2</ele>
        <time>2022-06-12T07:12:16Z</time>
      </trkpt>
      <trkpt lat="44.37387" lon="4.68063">
        <ele>54.2</ele>
        <time>2022-06-12T07:12:17Z</time>
      </trkpt>
      <trkpt lat="44.37388" lon="4.6807">
        <ele>54.2</ele>
        <time>2022-06-12T07:12:18Z</time>
      </trkpt>
      <trkpt lat="44.3739" lon="4.68076">
        <ele>54.2</ele>
        <time>2022-06-12T07:12:19Z</time>
      </trkpt>
      <trkpt lat="44.37392" lon="4.68082">
        <ele>54.2</ele>
        <time>2022-06-12T07:12:20Z</time>
      </trkpt>
      <trkpt lat="44.37394" lon="4.68088">
        <ele>54.2</ele>
        <time>2022-06-12T07:12:21Z</time>
      </trkpt>
      <trkpt lat="44.37396" lon="4.68094">
        <ele>54.2</ele>
        <time>2022-06-12T07:12:22Z</time>
      </trkpt>
      <trkpt lat="44.37397" lon="4.681">
        <ele>54.1</ele>
        <time>2022-06-12T07:12:23Z</time>
      </trkpt>
      <trkpt lat="44.37399" lon="4.68107">
        <ele>54.1</ele>
        <time>2022-06-12T07:12:24Z</time>
      </trkpt>
      <trkpt lat="44.37401" lon="4.68113">
        <ele>54.1</ele>
        <time>2022-06-12T07:12:25Z</time>
      </trkpt>
      <trkpt lat="44.37404" lon="4.68119">
        <ele>54.1</ele>
        <time>2022-06-12T07:12:26Z</time>
      </trkpt>
      <trkpt lat="44.37406" lon="4.68125">
        <ele>54.1</ele>
        <time>2022-06-12T07:12:27Z</time>
      </trkpt>
      <trkpt lat="44.37407" lon="4.68132">
        <ele>54.1</ele>
        <time>2022-06-12T07:12:28Z</time>
      </trkpt>
      <trkpt lat="44.37409" lon="4.68138">
        <ele>54.1</ele>
        <time>2022-06-12T07:12:29Z</time>
      </trkpt>
      <trkpt lat="44.37412" lon="4.68145">
        <ele>54.1</ele>
        <time>2022-06-12T07:12:30Z</time>
      </trkpt>
      <trkpt lat="44.37414" lon="4.68151">
        <ele>54.1</ele>
        <time>2022-06-12T07:12:31Z</time>
      </trkpt>
      <trkpt lat="44.37416" lon="4.68158">
        <ele>54.1</ele>
        <time>2022-06-12T07:12:32Z</time>
      </trkpt>
      <trkpt lat="44.37417" lon="4.68164">
        <ele>54.1</ele>
        <time>2022-06-12T07:12:33Z</time>
      </trkpt>
      <trkpt lat="44.37419" lon="4.68171">
        <ele>54.1</ele>
        <time>2022-06-12T07:12:34Z</time>
      </trkpt>
      <trkpt lat="44.37421" lon="4.68177">
        <ele>54.1</ele>
        <time>2022-06-12T07:12:35Z</time>
      </trkpt>
      <trkpt lat="44.37423" lon="4.68183">
        <ele>54.1</ele>
        <time>2022-06-12T07:12:36Z</time>
      </trkpt>
      <trkpt lat="44.37425" lon="4.68189">
        <ele>54.1</ele>
        <time>2022-06-12T07:12:37Z</time>
      </trkpt>
      <trkpt lat="44.37427" lon="4.68196">
        <ele>54.1</ele>
        <time>2022-06-12T07:12:38Z</time>
      </trkpt>
      <trkpt lat="44.37429" lon="4.68202">
        <ele>54.1</ele>
        <time>2022-06-12T07:12:39Z</time>
      </trkpt>
      <trkpt lat="44.37431" lon="4.68208">
        <ele>54.1</ele>
        <time>2022-06-12T07:12:40Z</time>
      </trkpt>
      <trkpt lat="44.37432" lon="4.68214">
        <ele>54.1</ele>
        <time>2022-06-12T07:12:41Z</time>
      </trkpt>
      <trkpt lat="44.37434" lon="4.68221">
        <ele>54.1</ele>
        <time>2022-06-12T07:12:42Z</time>
      </trkpt>
      <trkpt lat="44.37436" lon="4.68227">
        <ele>54.1</ele>
        <time>2022-06-12T07:12:43Z</time>
      </trkpt>
      <trkpt lat="44.37438" lon="4.68233">
        <ele>54.1</ele>
        <time>2022-06-12T07:12:44Z</time>
      </trkpt>
      <trkpt lat="44.3744" lon="4.68239">
        <ele>54.1</ele>
        <time>2022-06-12T07:12:45Z</time>
      </trkpt>
      <trkpt lat="44.37442" lon="4.68246">
        <ele>54.1</ele>
        <time>2022-06-12T07:12:46Z</time>
      </trkpt>
      <trkpt lat="44.37444" lon="4.68252">
        <ele>54</ele>
        <time>2022-06-12T07:12:47Z</time>
      </trkpt>
      <trkpt lat="44.37446" lon="4.68258">
        <ele>54</ele>
        <time>2022-06-12T07:12:48Z</time>
      </trkpt>
      <trkpt lat="44.37448" lon="4.68264">
        <ele>54</ele>
        <time>2022-06-12T07:12:49Z</time>
      </trkpt>
      <trkpt lat="44.3745" lon="4.6827">
        <ele>54</ele>
        <time>2022-06-12T07:12:50Z</time>
      </trkpt>
      <trkpt lat="44.37451" lon="4.68277">
        <ele>54</ele>
        <time>2022-06-12T07:12:51Z</time>
      </trkpt>
      <trkpt lat="44.37454" lon="4.68283">
        <ele>54</ele>
        <time>2022-06-12T07:12:52Z</time>
      </trkpt>
      <trkpt lat="44.37455" lon="4.68289">
        <ele>54</ele>
        <time>2022-06-12T07:12:53Z</time>
      </trkpt>
      <trkpt lat="44.37457" lon="4.68295">
        <ele>54</ele>
        <time>2022-06-12T07:12:54Z</time>
      </trkpt>
      <trkpt lat="44.37459" lon="4.68301">
        <ele>53.9</ele>
        <time>2022-06-12T07:12:55Z</time>
      </trkpt>
      <trkpt lat="44.37461" lon="4.68308">
        <ele>53.9</ele>
        <time>2022-06-12T07:12:56Z</time>
      </trkpt>
      <trkpt lat="44.37463" lon="4.68314">
        <ele>53.9</ele>
        <time>2022-06-12T07:12:57Z</time>
      </trkpt>
      <trkpt lat="44.37465" lon="4.6832">
        <ele>53.9</ele>
        <time>2022-06-12T07:12:58Z</time>
      </trkpt>
      <trkpt lat="44.37467" lon="4.68327">
        <ele>53.9</ele>
        <time>2022-06-12T07:12:59Z</time>
      </trkpt>
      <trkpt lat="44.37468" lon="4.68333">
        <ele>53.9</ele>
        <time>2022-06-12T07:13:00Z</time>
      </trkpt>
      <trkpt lat="44.3747" lon="4.68339">
        <ele>53.9</ele>
        <time>2022-06-12T07:13:01Z</time>
      </trkpt>
      <trkpt lat="44.37473" lon="4.68345">
        <ele>53.9</ele>
        <time>2022-06-12T07:13:02Z</time>
      </trkpt>
      <trkpt lat="44.37475" lon="4.68352">
        <ele>53.9</ele>
        <time>2022-06-12T07:13:03Z</time>
      </trkpt>
      <trkpt lat="44.37476" lon="4.68358">
        <ele>53.9</ele>
        <time>2022-06-12T07:13:04Z</time>
      </trkpt>
      <trkpt lat="44.37478" lon="4.68365">
        <ele>53.9</ele>
        <time>2022-06-12T07:13:05Z</time>
      </trkpt>
      <trkpt lat="44.3748" lon="4.68371">
        <ele>53.9</ele>
        <time>2022-06-12T07:13:06Z</time>
      </trkpt>
      <trkpt lat="44.37482" lon="4.68377">
        <ele>53.9</ele>
        <time>2022-06-12T07:13:07Z</time>
      </trkpt>
      <trkpt lat="44.37485" lon="4.68383">
        <ele>53.9</ele>
        <time>2022-06-12T07:13:08Z</time>
      </trkpt>
      <trkpt lat="44.37487" lon="4.68389">
        <ele>53.9</ele>
        <time>2022-06-12T07:13:09Z</time>
      </trkpt>
      <trkpt lat="44.37488" lon="4.68395">
        <ele>53.9</ele>
        <time>2022-06-12T07:13:10Z</time>
      </trkpt>
      <trkpt lat="44.3749" lon="4.68401">
        <ele>53.8</ele>
        <time>2022-06-12T07:13:11Z</time>
      </trkpt>
      <trkpt lat="44.37492" lon="4.68407">
        <ele>53.8</ele>
        <time>2022-06-12T07:13:12Z</time>
      </trkpt>
      <trkpt lat="44.37494" lon="4.68413">
        <ele>53.8</ele>
        <time>2022-06-12T07:13:13Z</time>
      </trkpt>
      <trkpt lat="44.37495" lon="4.68419">
        <ele>53.8</ele>
        <time>2022-06-12T07:13:14Z</time>
      </trkpt>
      <trkpt lat="44.37497" lon="4.68426">
        <ele>53.8</ele>
        <time>2022-06-12T07:13:15Z</time>
      </trkpt>
      <trkpt lat="44.375" lon="4.68432">
        <ele>53.8</ele>
        <time>2022-06-12T07:13:16Z</time>
      </trkpt>
      <trkpt lat="44.37501" lon="4.68438">
        <ele>53.8</ele>
        <time>2022-06-12T07:13:17Z</time>
      </trkpt>
      <trkpt lat="44.37503" lon="4.68444">
        <ele>53.8</ele>
        <time>2022-06-12T07:13:18Z</time>
      </trkpt>
      <trkpt lat="44.37505" lon="4.6845">
        <ele>53.8</ele>
        <time>2022-06-12T07:13:19Z</time>
      </trkpt>
      <trkpt lat="44.37507" lon="4.68457">
        <ele>53.8</ele>
        <time>2022-06-12T07:13:20Z</time>
      </trkpt>
      <trkpt lat="44.37509" lon="4.68463">
        <ele>53.8</ele>
        <time>2022-06-12T07:13:21Z</time>
      </trkpt>
      <trkpt lat="44.37511" lon="4.6847">
        <ele>53.8</ele>
        <time>2022-06-12T07:13:22Z</time>
      </trkpt>
      <trkpt lat="44.37513" lon="4.68476">
        <ele>53.8</ele>
        <time>2022-06-12T07:13:23Z</time>
      </trkpt>
      <trkpt lat="44.37515" lon="4.68483">
        <ele>53.8</ele>
        <time>2022-06-12T07:13:24Z</time>
      </trkpt>
      <trkpt lat="44.37517" lon="4.6849">
        <ele>53.8</ele>
        <time>2022-06-12T07:13:25Z</time>
      </trkpt>
      <trkpt lat="44.37519" lon="4.68496">
        <ele>53.8</ele>
        <time>2022-06-12T07:13:26Z</time>
      </trkpt>
      <trkpt lat="44.37521" lon="4.68502">
        <ele>53.8</ele>
        <time>2022-06-12T07:13:27Z</time>
      </trkpt>
      <trkpt lat="44.37523" lon="4.68508">
        <ele>53.8</ele>
        <time>2022-06-12T07:13:28Z</time>
      </trkpt>
      <trkpt lat="44.37525" lon="4.68514">
        <ele>53.8</ele>
        <time>2022-06-12T07:13:29Z</time>
      </trkpt>
      <trkpt lat="44.37527" lon="4.68521">
        <ele>53.8</ele>
        <time>2022-06-12T07:13:30Z</time>
      </trkpt>
      <trkpt lat="44.37528" lon="4.68527">
        <ele>53.8</ele>
        <time>2022-06-12T07:13:31Z</time>
      </trkpt>
      <trkpt lat="44.3753" lon="4.68533">
        <ele>53.8</ele>
        <time>2022-06-12T07:13:32Z</time>
      </trkpt>
      <trkpt lat="44.37532" lon="4.6854">
        <ele>53.8</ele>
        <time>2022-06-12T07:13:33Z</time>
      </trkpt>
      <trkpt lat="44.37534" lon="4.68546">
        <ele>53.9</ele>
        <time>2022-06-12T07:13:34Z</time>
      </trkpt>
      <trkpt lat="44.37536" lon="4.68553">
        <ele>53.9</ele>
        <time>2022-06-12T07:13:35Z</time>
      </trkpt>
      <trkpt lat="44.37538" lon="4.68559">
        <ele>53.9</ele>
        <time>2022-06-12T07:13:36Z</time>
      </trkpt>
      <trkpt lat="44.3754" lon="4.68565">
        <ele>53.9</ele>
        <time>2022-06-12T07:13:37Z</time>
      </trkpt>
      <trkpt lat="44.37543" lon="4.68571">
        <ele>53.9</ele>
        <time>2022-06-12T07:13:38Z</time>
      </trkpt>
      <trkpt lat="44.37545" lon="4.68577">
        <ele>53.9</ele>
        <time>2022-06-12T07:13:39Z</time>
      </trkpt>
      <trkpt lat="44.37546" lon="4.68583">
        <ele>53.9</ele>
        <time>2022-06-12T07:13:40Z</time>
      </trkpt>
      <trkpt lat="44.37548" lon="4.68589">
        <ele>53.9</ele>
        <time>2022-06-12T07:13:41Z</time>
      </trkpt>
      <trkpt lat="44.3755" lon="4.68596">
        <ele>54</ele>
        <time>2022-06-12T07:13:42Z</time>
      </trkpt>
      <trkpt lat="44.37551" lon="4.68603">
        <ele>54</ele>
        <time>2022-06-12T07:13:43Z</time>
      </trkpt>
      <trkpt lat="44.37553" lon="4.68609">
        <ele>54</ele>
        <time>2022-06-12T07:13:44Z</time>
      </trkpt>
      <trkpt lat="44.37555" lon="4.68615">
        <ele>54</ele>
        <time>2022-06-12T07:13:45Z</time>
      </trkpt>
      <trkpt lat="44.37557" lon="4.68621">
        <ele>54</ele>
        <time>2022-06-12T07:13:46Z</time>
      </trkpt>
      <trkpt lat="44.37559" lon="4.68627">
        <ele>54.1</ele>
        <time>2022-06-12T07:13:47Z</time>
      </trkpt>
      <trkpt lat="44.3756" lon="4.68633">
        <ele>54.1</ele>
        <time>2022-06-12T07:13:48Z</time>
      </trkpt>
      <trkpt lat="44.37562" lon="4.6864">
        <ele>54.1</ele>
        <time>2022-06-12T07:13:49Z</time>
      </trkpt>
      <trkpt lat="44.37563" lon="4.68646">
        <ele>54.1</ele>
        <time>2022-06-12T07:13:50Z</time>
      </trkpt>
      <trkpt lat="44.37565" lon="4.68652">
        <ele>54.1</ele>
        <time>2022-06-12T07:13:51Z</time>
      </trkpt>
      <trkpt lat="44.37566" lon="4.68658">
        <ele>54.2</ele>
        <time>2022-06-12T07:13:52Z</time>
      </trkpt>
      <trkpt lat="44.37568" lon="4.68665">
        <ele>54.2</ele>
        <time>2022-06-12T07:13:53Z</time>
      </trkpt>
      <trkpt lat="44.37568" lon="4.68671">
        <ele>54.2</ele>
        <time>2022-06-12T07:13:54Z</time>
      </trkpt>
      <trkpt lat="44.3757" lon="4.68678">
        <ele>54.2</ele>
        <time>2022-06-12T07:13:55Z</time>
      </trkpt>
      <trkpt lat="44.37571" lon="4.68685">
        <ele>54.2</ele>
        <time>2022-06-12T07:13:56Z</time>
      </trkpt>
      <trkpt lat="44.37572" lon="4.68691">
        <ele>54.3</ele>
        <time>2022-06-12T07:13:57Z</time>
      </trkpt>
      <trkpt lat="44.37573" lon="4.68698">
        <ele>54.3</ele>
        <time>2022-06-12T07:13:58Z</time>
      </trkpt>
      <trkpt lat="44.37573" lon="4.68705">
        <ele>54.3</ele>
        <time>2022-06-12T07:13:59Z</time>
      </trkpt>
      <trkpt lat="44.37572" lon="4.68711">
        <ele>54.3</ele>
        <time>2022-06-12T07:14:00Z</time>
      </trkpt>
      <trkpt lat="44.3757" lon="4.68717">
        <ele>54.4</ele>
        <time>2022-06-12T07:14:01Z</time>
      </trkpt>
      <trkpt lat="44.37566" lon="4.68723">
        <ele>54.3</ele>
        <time>2022-06-12T07:14:02Z</time>
      </trkpt>
      <trkpt lat="44.37564" lon="4.6873">
        <ele>54.3</ele>
        <time>2022-06-12T07:14:03Z</time>
      </trkpt>
      <trkpt lat="44.37564" lon="4.68737">
        <ele>54.2</ele>
        <time>2022-06-12T07:14:04Z</time>
      </trkpt>
      <trkpt lat="44.37565" lon="4.68744">
        <ele>54.1</ele>
        <time>2022-06-12T07:14:05Z</time>
      </trkpt>
      <trkpt lat="44.37567" lon="4.6875">
        <ele>54.1</ele>
        <time>2022-06-12T07:14:06Z</time>
      </trkpt>
      <trkpt lat="44.3757" lon="4.68756">
        <ele>54.1</ele>
        <time>2022-06-12T07:14:07Z</time>
      </trkpt>
      <trkpt lat="44.37573" lon="4.6876">
        <ele>54.1</ele>
        <time>2022-06-12T07:14:08Z</time>
      </trkpt>
      <trkpt lat="44.37577" lon="4.68762">
        <ele>54.1</ele>
        <time>2022-06-12T07:14:09Z</time>
      </trkpt>
      <trkpt lat="44.37581" lon="4.68765">
        <ele>54.1</ele>
        <time>2022-06-12T07:14:10Z</time>
      </trkpt>
      <trkpt lat="44.37585" lon="4.68768">
        <ele>54.2</ele>
        <time>2022-06-12T07:14:11Z</time>
      </trkpt>
      <trkpt lat="44.37589" lon="4.68772">
        <ele>54.2</ele>
        <time>2022-06-12T07:14:12Z</time>
      </trkpt>
      <trkpt lat="44.37592" lon="4.68777">
        <ele>54.3</ele>
        <time>2022-06-12T07:14:13Z</time>
      </trkpt>
      <trkpt lat="44.37595" lon="4.68783">
        <ele>54.3</ele>
        <time>2022-06-12T07:14:14Z</time>
      </trkpt>
      <trkpt lat="44.37598" lon="4.68788">
        <ele>54.3</ele>
        <time>2022-06-12T07:14:15Z</time>
      </trkpt>
      <trkpt lat="44.37602" lon="4.68793">
        <ele>54.3</ele>
        <time>2022-06-12T07:14:16Z</time>
      </trkpt>
      <trkpt lat="44.37604" lon="4.68797">
        <ele>54.3</ele>
        <time>2022-06-12T07:14:17Z</time>
      </trkpt>
      <trkpt lat="44.37607" lon="4.68802">
        <ele>54.3</ele>
        <time>2022-06-12T07:14:18Z</time>
      </trkpt>
      <trkpt lat="44.37611" lon="4.68807">
        <ele>54.3</ele>
        <time>2022-06-12T07:14:19Z</time>
      </trkpt>
      <trkpt lat="44.37613" lon="4.68813">
        <ele>54.3</ele>
        <time>2022-06-12T07:14:20Z</time>
      </trkpt>
      <trkpt lat="44.37616" lon="4.68819">
        <ele>54.3</ele>
        <time>2022-06-12T07:14:21Z</time>
      </trkpt>
      <trkpt lat="44.37618" lon="4.68825">
        <ele>54.3</ele>
        <time>2022-06-12T07:14:22Z</time>
      </trkpt>
      <trkpt lat="44.3762" lon="4.68832">
        <ele>54.3</ele>
        <time>2022-06-12T07:14:23Z</time>
      </trkpt>
      <trkpt lat="44.37623" lon="4.68838">
        <ele>54.3</ele>
        <time>2022-06-12T07:14:24Z</time>
      </trkpt>
      <trkpt lat="44.37625" lon="4.68844">
        <ele>54.3</ele>
        <time>2022-06-12T07:14:25Z</time>
      </trkpt>
      <trkpt lat="44.37626" lon="4.6885">
        <ele>54.3</ele>
        <time>2022-06-12T07:14:26Z</time>
      </trkpt>
      <trkpt lat="44.37628" lon="4.68857">
        <ele>54.3</ele>
        <time>2022-06-12T07:14:27Z</time>
      </trkpt>
      <trkpt lat="44.3763" lon="4.68863">
        <ele>54.3</ele>
        <time>2022-06-12T07:14:28Z</time>
      </trkpt>
      <trkpt lat="44.37633" lon="4.68869">
        <ele>54.4</ele>
        <time>2022-06-12T07:14:29Z</time>
      </trkpt>
      <trkpt lat="44.37635" lon="4.68875">
        <ele>54.4</ele>
        <time>2022-06-12T07:14:30Z</time>
      </trkpt>
      <trkpt lat="44.37636" lon="4.6888">
        <ele>54.4</ele>
        <time>2022-06-12T07:14:31Z</time>
      </trkpt>
      <trkpt lat="44.37638" lon="4.68886">
        <ele>54.4</ele>
        <time>2022-06-12T07:14:32Z</time>
      </trkpt>
      <trkpt lat="44.3764" lon="4.68892">
        <ele>54.4</ele>
        <time>2022-06-12T07:14:33Z</time>
      </trkpt>
      <trkpt lat="44.37641" lon="4.68897">
        <ele>54.4</ele>
        <time>2022-06-12T07:14:34Z</time>
      </trkpt>
      <trkpt lat="44.37643" lon="4.68903">
        <ele>54.4</ele>
        <time>2022-06-12T07:14:35Z</time>
      </trkpt>
      <trkpt lat="44.37645" lon="4.68909">
        <ele>54.4</ele>
        <time>2022-06-12T07:14:36Z</time>
      </trkpt>
      <trkpt lat="44.37646" lon="4.68915">
        <ele>54.4</ele>
        <time>2022-06-12T07:14:37Z</time>
      </trkpt>
      <trkpt lat="44.37648" lon="4.68921">
        <ele>54.4</ele>
        <time>2022-06-12T07:14:38Z</time>
      </trkpt>
      <trkpt lat="44.37649" lon="4.68928">
        <ele>54.4</ele>
        <time>2022-06-12T07:14:39Z</time>
      </trkpt>
      <trkpt lat="44.3765" lon="4.68934">
        <ele>54.4</ele>
        <time>2022-06-12T07:14:40Z</time>
      </trkpt>
      <trkpt lat="44.37651" lon="4.68941">
        <ele>54.4</ele>
        <time>2022-06-12T07:14:41Z</time>
      </trkpt>
      <trkpt lat="44.37652" lon="4.68948">
        <ele>54.4</ele>
        <time>2022-06-12T07:14:42Z</time>
      </trkpt>
      <trkpt lat="44.37653" lon="4.68955">
        <ele>54.5</ele>
        <time>2022-06-12T07:14:43Z</time>
      </trkpt>
      <trkpt lat="44.37654" lon="4.68962">
        <ele>54.5</ele>
        <time>2022-06-12T07:14:44Z</time>
      </trkpt>
      <trkpt lat="44.37655" lon="4.68969">
        <ele>54.5</ele>
        <time>2022-06-12T07:14:45Z</time>
      </trkpt>
      <trkpt lat="44.37655" lon="4.68975">
        <ele>54.5</ele>
        <time>2022-06-12T07:14:46Z</time>
      </trkpt>
      <trkpt lat="44.37656" lon="4.68982">
        <ele>54.5</ele>
        <time>2022-06-12T07:14:47Z</time>
      </trkpt>
      <trkpt lat="44.37656" lon="4.68989">
        <ele>54.6</ele>
        <time>2022-06-12T07:14:48Z</time>
      </trkpt>
      <trkpt lat="44.37658" lon="4.68995">
        <ele>54.6</ele>
        <time>2022-06-12T07:14:49Z</time>
      </trkpt>
      <trkpt lat="44.37658" lon="4.69001">
        <ele>54.6</ele>
        <time>2022-06-12T07:14:50Z</time>
      </trkpt>
      <trkpt lat="44.37659" lon="4.69007">
        <ele>54.6</ele>
        <time>2022-06-12T07:14:51Z</time>
      </trkpt>
      <trkpt lat="44.3766" lon="4.69013">
        <ele>54.7</ele>
        <time>2022-06-12T07:14:52Z</time>
      </trkpt>
      <trkpt lat="44.3766" lon="4.69019">
        <ele>54.7</ele>
        <time>2022-06-12T07:14:53Z</time>
      </trkpt>
      <trkpt lat="44.37661" lon="4.69026">
        <ele>54.7</ele>
        <time>2022-06-12T07:14:54Z</time>
      </trkpt>
      <trkpt lat="44.37661" lon="4.69032">
        <ele>54.8</ele>
        <time>2022-06-12T07:14:55Z</time>
      </trkpt>
      <trkpt lat="44.37662" lon="4.69039">
        <ele>54.8</ele>
        <time>2022-06-12T07:14:56Z</time>
      </trkpt>
      <trkpt lat="44.37662" lon="4.69045">
        <ele>54.8</ele>
        <time>2022-06-12T07:14:57Z</time>
      </trkpt>
      <trkpt lat="44.37662" lon="4.6905">
        <ele>54.8</ele>
        <time>2022-06-12T07:14:58Z</time>
      </trkpt>
      <trkpt lat="44.37663" lon="4.69057">
        <ele>54.7</ele>
        <time>2022-06-12T07:14:59Z</time>
      </trkpt>
      <trkpt lat="44.37663" lon="4.69064">
        <ele>54.7</ele>
        <time>2022-06-12T07:15:00Z</time>
      </trkpt>
      <trkpt lat="44.37663" lon="4.69072">
        <ele>54.7</ele>
        <time>2022-06-12T07:15:01Z</time>
      </trkpt>
      <trkpt lat="44.37662" lon="4.69079">
        <ele>54.6</ele>
        <time>2022-06-12T07:15:02Z</time>
      </trkpt>
      <trkpt lat="44.37662" lon="4.69086">
        <ele>54.6</ele>
        <time>2022-06-12T07:15:03Z</time>
      </trkpt>
      <trkpt lat="44.37661" lon="4.69095">
        <ele>54.5</ele>
        <time>2022-06-12T07:15:04Z</time>
      </trkpt>
      <trkpt lat="44.37661" lon="4.69103">
        <ele>54.5</ele>
        <time>2022-06-12T07:15:05Z</time>
      </trkpt>
      <trkpt lat="44.37659" lon="4.69112">
        <ele>54.4</ele>
        <time>2022-06-12T07:15:06Z</time>
      </trkpt>
      <trkpt lat="44.37658" lon="4.69121">
        <ele>54.4</ele>
        <time>2022-06-12T07:15:07Z</time>
      </trkpt>
      <trkpt lat="44.37657" lon="4.6913">
        <ele>54.4</ele>
        <time>2022-06-12T07:15:08Z</time>
      </trkpt>
      <trkpt lat="44.37656" lon="4.6914">
        <ele>54.4</ele>
        <time>2022-06-12T07:15:09Z</time>
      </trkpt>
      <trkpt lat="44.37655" lon="4.69149">
        <ele>54.5</ele>
        <time>2022-06-12T07:15:10Z</time>
      </trkpt>
      <trkpt lat="44.37654" lon="4.69157">
        <ele>54.6</ele>
        <time>2022-06-12T07:15:11Z</time>
      </trkpt>
      <trkpt lat="44.37654" lon="4.69165">
        <ele>54.6</ele>
        <time>2022-06-12T07:15:12Z</time>
      </trkpt>
      <trkpt lat="44.37654" lon="4.69173">
        <ele>54.7</ele>
        <time>2022-06-12T07:15:13Z</time>
      </trkpt>
      <trkpt lat="44.37654" lon="4.69179">
        <ele>54.7</ele>
        <time>2022-06-12T07:15:14Z</time>
      </trkpt>
      <trkpt lat="44.37654" lon="4.69185">
        <ele>54.8</ele>
        <time>2022-06-12T07:15:15Z</time>
      </trkpt>
      <trkpt lat="44.37654" lon="4.69191">
        <ele>54.8</ele>
        <time>2022-06-12T07:15:16Z</time>
      </trkpt>
      <trkpt lat="44.37654" lon="4.69197">
        <ele>54.8</ele>
        <time>2022-06-12T07:15:17Z</time>
      </trkpt>
      <trkpt lat="44.37655" lon="4.69202">
        <ele>54.8</ele>
        <time>2022-06-12T07:15:18Z</time>
      </trkpt>
      <trkpt lat="44.37655" lon="4.69209">
        <ele>54.8</ele>
        <time>2022-06-12T07:15:19Z</time>
      </trkpt>
      <trkpt lat="44.37656" lon="4.69215">
        <ele>54.8</ele>
        <time>2022-06-12T07:15:20Z</time>
      </trkpt>
      <trkpt lat="44.37657" lon="4.6922">
        <ele>54.8</ele>
        <time>2022-06-12T07:15:21Z</time>
      </trkpt>
      <trkpt lat="44.37658" lon="4.69228">
        <ele>54.8</ele>
        <time>2022-06-12T07:15:22Z</time>
      </trkpt>
      <trkpt lat="44.37658" lon="4.69235">
        <ele>54.8</ele>
        <time>2022-06-12T07:15:23Z</time>
      </trkpt>
      <trkpt lat="44.37659" lon="4.69242">
        <ele>54.8</ele>
        <time>2022-06-12T07:15:24Z</time>
      </trkpt>
      <trkpt lat="44.3766" lon="4.69248">
        <ele>54.9</ele>
        <time>2022-06-12T07:15:25Z</time>
      </trkpt>
      <trkpt lat="44.3766" lon="4.69255">
        <ele>54.9</ele>
        <time>2022-06-12T07:15:26Z</time>
      </trkpt>
      <trkpt lat="44.37661" lon="4.69262">
        <ele>54.9</ele>
        <time>2022-06-12T07:15:27Z</time>
      </trkpt>
      <trkpt lat="44.37662" lon="4.69269">
        <ele>54.9</ele>
        <time>2022-06-12T07:15:28Z</time>
      </trkpt>
      <trkpt lat="44.37662" lon="4.69275">
        <ele>54.9</ele>
        <time>2022-06-12T07:15:29Z</time>
      </trkpt>
      <trkpt lat="44.37662" lon="4.69281">
        <ele>54.9</ele>
        <time>2022-06-12T07:15:30Z</time>
      </trkpt>
      <trkpt lat="44.37663" lon="4.69288">
        <ele>54.9</ele>
        <time>2022-06-12T07:15:31Z</time>
      </trkpt>
      <trkpt lat="44.37663" lon="4.69294">
        <ele>54.9</ele>
        <time>2022-06-12T07:15:32Z</time>
      </trkpt>
      <trkpt lat="44.37664" lon="4.693">
        <ele>54.9</ele>
        <time>2022-06-12T07:15:33Z</time>
      </trkpt>
      <trkpt lat="44.37664" lon="4.69307">
        <ele>55</ele>
        <time>2022-06-12T07:15:34Z</time>
      </trkpt>
      <trkpt lat="44.37665" lon="4.69313">
        <ele>55</ele>
        <time>2022-06-12T07:15:35Z</time>
      </trkpt>
      <trkpt lat="44.37665" lon="4.6932">
        <ele>55</ele>
        <time>2022-06-12T07:15:36Z</time>
      </trkpt>
      <trkpt lat="44.37666" lon="4.69327">
        <ele>55</ele>
        <time>2022-06-12T07:15:37Z</time>
      </trkpt>
      <trkpt lat="44.37666" lon="4.69334">
        <ele>55.1</ele>
        <time>2022-06-12T07:15:38Z</time>
      </trkpt>
      <trkpt lat="44.37666" lon="4.6934">
        <ele>55.1</ele>
        <time>2022-06-12T07:15:39Z</time>
      </trkpt>
      <trkpt lat="44.37667" lon="4.69347">
        <ele>55.1</ele>
        <time>2022-06-12T07:15:40Z</time>
      </trkpt>
      <trkpt lat="44.37667" lon="4.69354">
        <ele>55.2</ele>
        <time>2022-06-12T07:15:41Z</time>
      </trkpt>
      <trkpt lat="44.37668" lon="4.69361">
        <ele>55.2</ele>
        <time>2022-06-12T07:15:42Z</time>
      </trkpt>
      <trkpt lat="44.37668" lon="4.69367">
        <ele>55.3</ele>
        <time>2022-06-12T07:15:43Z</time>
      </trkpt>
      <trkpt lat="44.37669" lon="4.69373">
        <ele>55.3</ele>
        <time>2022-06-12T07:15:44Z</time>
      </trkpt>
      <trkpt lat="44.37669" lon="4.69379">
        <ele>55.3</ele>
        <time>2022-06-12T07:15:45Z</time>
      </trkpt>
      <trkpt lat="44.3767" lon="4.69383">
        <ele>55.4</ele>
        <time>2022-06-12T07:15:46Z</time>
      </trkpt>
      <trkpt lat="44.3767" lon="4.6939">
        <ele>55.4</ele>
        <time>2022-06-12T07:15:47Z</time>
      </trkpt>
      <trkpt lat="44.37671" lon="4.69397">
        <ele>55.5</ele>
        <time>2022-06-12T07:15:48Z</time>
      </trkpt>
      <trkpt lat="44.37672" lon="4.69403">
        <ele>55.5</ele>
        <time>2022-06-12T07:15:49Z</time>
      </trkpt>
      <trkpt lat="44.37671" lon="4.69411">
        <ele>55.6</ele>
        <time>2022-06-12T07:15:51Z</time>
      </trkpt>
      <trkpt lat="44.37672" lon="4.69416">
        <ele>55.6</ele>
        <time>2022-06-12T07:15:52Z</time>
      </trkpt>
      <trkpt lat="44.37673" lon="4.69424">
        <ele>55.7</ele>
        <time>2022-06-12T07:15:53Z</time>
      </trkpt>
      <trkpt lat="44.37674" lon="4.69431">
        <ele>55.8</ele>
        <time>2022-06-12T07:15:54Z</time>
      </trkpt>
      <trkpt lat="44.37674" lon="4.69437">
        <ele>55.9</ele>
        <time>2022-06-12T07:15:55Z</time>
      </trkpt>
      <trkpt lat="44.37675" lon="4.69445">
        <ele>55.9</ele>
        <time>2022-06-12T07:15:57Z</time>
      </trkpt>
      <trkpt lat="44.37674" lon="4.69454">
        <ele>56</ele>
        <time>2022-06-12T07:15:58Z</time>
      </trkpt>
      <trkpt lat="44.37672" lon="4.69462">
        <ele>56</ele>
        <time>2022-06-12T07:16:00Z</time>
      </trkpt>
      <trkpt lat="44.3767" lon="4.69467">
        <ele>56.1</ele>
        <time>2022-06-12T07:16:01Z</time>
      </trkpt>
      <trkpt lat="44.37668" lon="4.69472">
        <ele>56.1</ele>
        <time>2022-06-12T07:16:03Z</time>
      </trkpt>
      <trkpt lat="44.37665" lon="4.69475">
        <ele>56.2</ele>
        <time>2022-06-12T07:16:04Z</time>
      </trkpt>
      <trkpt lat="44.37664" lon="4.69477">
        <ele>56.2</ele>
        <time>2022-06-12T07:16:05Z</time>
      </trkpt>
      <trkpt lat="44.37662" lon="4.6948">
        <ele>56.2</ele>
        <time>2022-06-12T07:16:06Z</time>
      </trkpt>
      <trkpt lat="44.37659" lon="4.69482">
        <ele>56.2</ele>
        <time>2022-06-12T07:16:07Z</time>
      </trkpt>
      <trkpt lat="44.37656" lon="4.69485">
        <ele>56.2</ele>
        <time>2022-06-12T07:16:08Z</time>
      </trkpt>
      <trkpt lat="44.37652" lon="4.6949">
        <ele>56.2</ele>
        <time>2022-06-12T07:16:10Z</time>
      </trkpt>
      <trkpt lat="44.37649" lon="4.69495">
        <ele>56.2</ele>
        <time>2022-06-12T07:16:11Z</time>
      </trkpt>
      <trkpt lat="44.37645" lon="4.69498">
        <ele>56.3</ele>
        <time>2022-06-12T07:16:12Z</time>
      </trkpt>
      <trkpt lat="44.37644" lon="4.69499">
        <ele>56.3</ele>
        <time>2022-06-12T07:16:13Z</time>
      </trkpt>
      <trkpt lat="44.3764" lon="4.69502">
        <ele>56.3</ele>
        <time>2022-06-12T07:16:14Z</time>
      </trkpt>
      <trkpt lat="44.37637" lon="4.69505">
        <ele>56.3</ele>
        <time>2022-06-12T07:16:15Z</time>
      </trkpt>
      <trkpt lat="44.37634" lon="4.69508">
        <ele>56.3</ele>
        <time>2022-06-12T07:16:16Z</time>
      </trkpt>
      <trkpt lat="44.37631" lon="4.69511">
        <ele>56.4</ele>
        <time>2022-06-12T07:16:17Z</time>
      </trkpt>
      <trkpt lat="44.37627" lon="4.69514">
        <ele>56.4</ele>
        <time>2022-06-12T07:16:18Z</time>
      </trkpt>
      <trkpt lat="44.37624" lon="4.69517">
        <ele>56.4</ele>
        <time>2022-06-12T07:16:19Z</time>
      </trkpt>
      <trkpt lat="44.37621" lon="4.69521">
        <ele>56.5</ele>
        <time>2022-06-12T07:16:20Z</time>
      </trkpt>
      <trkpt lat="44.37618" lon="4.69524">
        <ele>56.5</ele>
        <time>2022-06-12T07:16:21Z</time>
      </trkpt>
      <trkpt lat="44.37613" lon="4.69529">
        <ele>56.6</ele>
        <time>2022-06-12T07:16:23Z</time>
      </trkpt>
      <trkpt lat="44.3761" lon="4.69534">
        <ele>56.6</ele>
        <time>2022-06-12T07:16:24Z</time>
      </trkpt>
      <trkpt lat="44.37605" lon="4.69538">
        <ele>56.7</ele>
        <time>2022-06-12T07:16:26Z</time>
      </trkpt>
      <trkpt lat="44.376" lon="4.69542">
        <ele>56.7</ele>
        <time>2022-06-12T07:16:27Z</time>
      </trkpt>
      <trkpt lat="44.37596" lon="4.69546">
        <ele>56.8</ele>
        <time>2022-06-12T07:16:28Z</time>
      </trkpt>
      <trkpt lat="44.37592" lon="4.69551">
        <ele>56.9</ele>
        <time>2022-06-12T07:16:30Z</time>
      </trkpt>
      <trkpt lat="44.37587" lon="4.69555">
        <ele>57</ele>
        <time>2022-06-12T07:16:31Z</time>
      </trkpt>
      <trkpt lat="44.37582" lon="4.69562">
        <ele>57.1</ele>
        <time>2022-06-12T07:16:33Z</time>
      </trkpt>
      <trkpt lat="44.37578" lon="4.69566">
        <ele>57.1</ele>
        <time>2022-06-12T07:16:34Z</time>
      </trkpt>
      <trkpt lat="44.37576" lon="4.69569">
        <ele>57.1</ele>
        <time>2022-06-12T07:16:35Z</time>
      </trkpt>
      <trkpt lat="44.37574" lon="4.69571">
        <ele>57.2</ele>
        <time>2022-06-12T07:16:36Z</time>
      </trkpt>
      <trkpt lat="44.37571" lon="4.69574">
        <ele>57.2</ele>
        <time>2022-06-12T07:16:38Z</time>
      </trkpt>
      <trkpt lat="44.37569" lon="4.69577">
        <ele>57.2</ele>
        <time>2022-06-12T07:16:39Z</time>
      </trkpt>
      <trkpt lat="44.37567" lon="4.69582">
        <ele>57.3</ele>
        <time>2022-06-12T07:16:40Z</time>
      </trkpt>
      <trkpt lat="44.37565" lon="4.69586">
        <ele>57.3</ele>
        <time>2022-06-12T07:16:41Z</time>
      </trkpt>
      <trkpt lat="44.37564" lon="4.6959">
        <ele>57.3</ele>
        <time>2022-06-12T07:16:42Z</time>
      </trkpt>
      <trkpt lat="44.37563" lon="4.69597">
        <ele>57.3</ele>
        <time>2022-06-12T07:16:43Z</time>
      </trkpt>
      <trkpt lat="44.37564" lon="4.69606">
        <ele>57.3</ele>
        <time>2022-06-12T07:16:45Z</time>
      </trkpt>
      <trkpt lat="44.37564" lon="4.69614">
        <ele>57.3</ele>
        <time>2022-06-12T07:16:46Z</time>
      </trkpt>
      <trkpt lat="44.37563" lon="4.69623">
        <ele>57.3</ele>
        <time>2022-06-12T07:16:48Z</time>
      </trkpt>
      <trkpt lat="44.37563" lon="4.6963">
        <ele>57.3</ele>
        <time>2022-06-12T07:16:49Z</time>
      </trkpt>
      <trkpt lat="44.37563" lon="4.69635">
        <ele>57.3</ele>
        <time>2022-06-12T07:16:50Z</time>
      </trkpt>
      <trkpt lat="44.37563" lon="4.69642">
        <ele>57.3</ele>
        <time>2022-06-12T07:16:52Z</time>
      </trkpt>
      <trkpt lat="44.37563" lon="4.6965">
        <ele>57.3</ele>
        <time>2022-06-12T07:16:53Z</time>
      </trkpt>
      <trkpt lat="44.37562" lon="4.69655">
        <ele>57.3</ele>
        <time>2022-06-12T07:16:54Z</time>
      </trkpt>
      <trkpt lat="44.37562" lon="4.6966">
        <ele>57.3</ele>
        <time>2022-06-12T07:16:55Z</time>
      </trkpt>
      <trkpt lat="44.37562" lon="4.69664">
        <ele>57.3</ele>
        <time>2022-06-12T07:16:56Z</time>
      </trkpt>
      <trkpt lat="44.37562" lon="4.69671">
        <ele>57.2</ele>
        <time>2022-06-12T07:16:58Z</time>
      </trkpt>
      <trkpt lat="44.37564" lon="4.69675">
        <ele>57.2</ele>
        <time>2022-06-12T07:16:59Z</time>
      </trkpt>
      <trkpt lat="44.37566" lon="4.69676">
        <ele>57.2</ele>
        <time>2022-06-12T07:17:00Z</time>
      </trkpt>
      <trkpt lat="44.37568" lon="4.69675">
        <ele>57.2</ele>
        <time>2022-06-12T07:17:01Z</time>
      </trkpt>
      <trkpt lat="44.37569" lon="4.69679">
        <ele>57.2</ele>
        <time>2022-06-12T07:17:02Z</time>
      </trkpt>
      <trkpt lat="44.37569" lon="4.69683">
        <ele>57.2</ele>
        <time>2022-06-12T07:17:04Z</time>
      </trkpt>
      <trkpt lat="44.37571" lon="4.69684">
        <ele>57.2</ele>
        <time>2022-06-12T07:17:05Z</time>
      </trkpt>
      <trkpt lat="44.37572" lon="4.69683">
        <ele>57.2</ele>
        <time>2022-06-12T07:17:06Z</time>
      </trkpt>
      <trkpt lat="44.37572" lon="4.69682">
        <ele>57.2</ele>
        <time>2022-06-12T07:17:07Z</time>
      </trkpt>
      <trkpt lat="44.37572" lon="4.69682">
        <ele>57.2</ele>
        <time>2022-06-12T07:17:08Z</time>
      </trkpt>
      <trkpt lat="44.37571" lon="4.69682">
        <ele>57.2</ele>
        <time>2022-06-12T07:17:09Z</time>
      </trkpt>
      <trkpt lat="44.37571" lon="4.69681">
        <ele>57.2</ele>
        <time>2022-06-12T07:17:10Z</time>
      </trkpt>
      <trkpt lat="44.37571" lon="4.69681">
        <ele>57.2</ele>
        <time>2022-06-12T07:17:11Z</time>
      </trkpt>
      <trkpt lat="44.3757" lon="4.69681">
        <ele>57.2</ele>
        <time>2022-06-12T07:17:12Z</time>
      </trkpt>
      <trkpt lat="44.3757" lon="4.69682">
        <ele>57.2</ele>
        <time>2022-06-12T07:17:13Z</time>
      </trkpt>
      <trkpt lat="44.3757" lon="4.69682">
        <ele>57.2</ele>
        <time>2022-06-12T07:17:14Z</time>
      </trkpt>
      <trkpt lat="44.3757" lon="4.69682">
        <ele>57.2</ele>
        <time>2022-06-12T07:17:16Z</time>
      </trkpt>
      <trkpt lat="44.37567" lon="4.69687">
        <ele>57.2</ele>
        <time>2022-06-12T07:18:48Z</time>
      </trkpt>
      <trkpt lat="44.37567" lon="4.69688">
        <ele>57.2</ele>
        <time>2022-06-12T07:18:49Z</time>
      </trkpt>
      <trkpt lat="44.37568" lon="4.69687">
        <ele>57.2</ele>
        <time>2022-06-12T07:18:50Z</time>
      </trkpt>
      <trkpt lat="44.37568" lon="4.69687">
        <ele>57.2</ele>
        <time>2022-06-12T07:18:51Z</time>
      </trkpt>
      <trkpt lat="44.37568" lon="4.69687">
        <ele>57.2</ele>
        <time>2022-06-12T07:18:52Z</time>
      </trkpt>
      <trkpt lat="44.37569" lon="4.69687">
        <ele>57.2</ele>
        <time>2022-06-12T07:18:54Z</time>
      </trkpt>
      <trkpt lat="44.3757" lon="4.69686">
        <ele>57.2</ele>
        <time>2022-06-12T07:18:55Z</time>
      </trkpt>
      <trkpt lat="44.37569" lon="4.69686">
        <ele>57.2</ele>
        <time>2022-06-12T07:18:56Z</time>
      </trkpt>
      <trkpt lat="44.37569" lon="4.69686">
        <ele>57.2</ele>
        <time>2022-06-12T07:18:57Z</time>
      </trkpt>
      <trkpt lat="44.37569" lon="4.69686">
        <ele>57.2</ele>
        <time>2022-06-12T07:18:58Z</time>
      </trkpt>
      <trkpt lat="44.37569" lon="4.69686">
        <ele>57.2</ele>
        <time>2022-06-12T07:18:59Z</time>
      </trkpt>
      <trkpt lat="44.37568" lon="4.69685">
        <ele>57.2</ele>
        <time>2022-06-12T07:19:00Z</time>
      </trkpt>
      <trkpt lat="44.37568" lon="4.69685">
        <ele>57.2</ele>
        <time>2022-06-12T07:19:01Z</time>
      </trkpt>
      <trkpt lat="44.37568" lon="4.69685">
        <ele>57.2</ele>
        <time>2022-06-12T07:19:02Z</time>
      </trkpt>
      <trkpt lat="44.37568" lon="4.69685">
        <ele>57.2</ele>
        <time>2022-06-12T07:19:03Z</time>
      </trkpt>
      <trkpt lat="44.37567" lon="4.69685">
        <ele>57.2</ele>
        <time>2022-06-12T07:19:04Z</time>
      </trkpt>
      <trkpt lat="44.37567" lon="4.69685">
        <ele>57.2</ele>
        <time>2022-06-12T07:19:05Z</time>
      </trkpt>
      <trkpt lat="44.37567" lon="4.69685">
        <ele>57.2</ele>
        <time>2022-06-12T07:19:06Z</time>
      </trkpt>
      <trkpt lat="44.37566" lon="4.69685">
        <ele>57.2</ele>
        <time>2022-06-12T07:19:07Z</time>
      </trkpt>
    </trkseg>
  </trk>
</gpx>